<?xml version="1.0" encoding="UTF-8" standalone="no" ?>
<gpx xmlns="http://www.topografix.com/GPX/1/1" xmlns:xsi="http://www.w3.org/2001/XMLSchema-instance" xsi:schemaLocation="http://www.topografix.com/GPX/1/1 http://www.topografix.com/GPX/1/1/gpx.xsd" version="1.1" creator="VisuGPX - https://www.visugpx.com">
  <metadata>
    <name>Transloverienne 45 km 17 09 2017</name>
    <desc><![CDATA[Humide mais pas trop gras. Des bosses bien raides.]]></desc>
  </metadata>
  <trk>
    <name><![CDATA[170917073329 on GPSies.com]]></name>
    <trkseg>
      <trkpt lat="49.20932" lon="1.17217">
        <ele>130</ele>
        <time>2017-09-17T08:33:36Z</time>
      </trkpt>
      <trkpt lat="49.20928" lon="1.172">
        <ele>131</ele>
        <time>2017-09-17T08:33:40Z</time>
      </trkpt>
      <trkpt lat="49.20928" lon="1.17183">
        <ele>131</ele>
        <time>2017-09-17T08:33:44Z</time>
      </trkpt>
      <trkpt lat="49.20927" lon="1.17166">
        <ele>131</ele>
        <time>2017-09-17T08:33:48Z</time>
      </trkpt>
      <trkpt lat="49.20925" lon="1.1715">
        <ele>132</ele>
        <time>2017-09-17T08:33:52Z</time>
      </trkpt>
      <trkpt lat="49.20924" lon="1.17134">
        <ele>133</ele>
        <time>2017-09-17T08:33:56Z</time>
      </trkpt>
      <trkpt lat="49.20923" lon="1.17119">
        <ele>133</ele>
        <time>2017-09-17T08:34:00Z</time>
      </trkpt>
      <trkpt lat="49.20921" lon="1.17101">
        <ele>133</ele>
        <time>2017-09-17T08:34:04Z</time>
      </trkpt>
      <trkpt lat="49.20921" lon="1.17084">
        <ele>133</ele>
        <time>2017-09-17T08:34:08Z</time>
      </trkpt>
      <trkpt lat="49.20921" lon="1.17066">
        <ele>134</ele>
        <time>2017-09-17T08:34:12Z</time>
      </trkpt>
      <trkpt lat="49.2092" lon="1.17047">
        <ele>134</ele>
        <time>2017-09-17T08:34:16Z</time>
      </trkpt>
      <trkpt lat="49.20918" lon="1.17029">
        <ele>134</ele>
        <time>2017-09-17T08:34:20Z</time>
      </trkpt>
      <trkpt lat="49.20917" lon="1.1701">
        <ele>135</ele>
        <time>2017-09-17T08:34:24Z</time>
      </trkpt>
      <trkpt lat="49.20915" lon="1.16993">
        <ele>134</ele>
        <time>2017-09-17T08:34:28Z</time>
      </trkpt>
      <trkpt lat="49.20914" lon="1.16972">
        <ele>135</ele>
        <time>2017-09-17T08:34:32Z</time>
      </trkpt>
      <trkpt lat="49.20914" lon="1.16947">
        <ele>135</ele>
        <time>2017-09-17T08:34:36Z</time>
      </trkpt>
      <trkpt lat="49.20913" lon="1.16918">
        <ele>134</ele>
        <time>2017-09-17T08:34:40Z</time>
      </trkpt>
      <trkpt lat="49.20912" lon="1.16888">
        <ele>134</ele>
        <time>2017-09-17T08:34:44Z</time>
      </trkpt>
      <trkpt lat="49.20913" lon="1.16855">
        <ele>134</ele>
        <time>2017-09-17T08:34:48Z</time>
      </trkpt>
      <trkpt lat="49.20916" lon="1.16821">
        <ele>134</ele>
        <time>2017-09-17T08:34:52Z</time>
      </trkpt>
      <trkpt lat="49.20924" lon="1.16789">
        <ele>134</ele>
        <time>2017-09-17T08:34:56Z</time>
      </trkpt>
      <trkpt lat="49.20941" lon="1.16768">
        <ele>133</ele>
        <time>2017-09-17T08:35:00Z</time>
      </trkpt>
      <trkpt lat="49.20948" lon="1.16742">
        <ele>133</ele>
        <time>2017-09-17T08:35:04Z</time>
      </trkpt>
      <trkpt lat="49.20941" lon="1.16717">
        <ele>134</ele>
        <time>2017-09-17T08:35:08Z</time>
      </trkpt>
      <trkpt lat="49.20935" lon="1.16688">
        <ele>134</ele>
        <time>2017-09-17T08:35:12Z</time>
      </trkpt>
      <trkpt lat="49.2093" lon="1.1666">
        <ele>134</ele>
        <time>2017-09-17T08:35:16Z</time>
      </trkpt>
      <trkpt lat="49.20923" lon="1.16632">
        <ele>135</ele>
        <time>2017-09-17T08:35:20Z</time>
      </trkpt>
      <trkpt lat="49.20916" lon="1.16601">
        <ele>134</ele>
        <time>2017-09-17T08:35:24Z</time>
      </trkpt>
      <trkpt lat="49.20908" lon="1.16572">
        <ele>134</ele>
        <time>2017-09-17T08:35:28Z</time>
      </trkpt>
      <trkpt lat="49.20921" lon="1.16478">
        <ele>134</ele>
        <time>2017-09-17T08:35:36Z</time>
      </trkpt>
      <trkpt lat="49.2093" lon="1.16433">
        <ele>134</ele>
        <time>2017-09-17T08:35:40Z</time>
      </trkpt>
      <trkpt lat="49.20931" lon="1.16393">
        <ele>133</ele>
        <time>2017-09-17T08:35:44Z</time>
      </trkpt>
      <trkpt lat="49.2093" lon="1.16361">
        <ele>134</ele>
        <time>2017-09-17T08:35:48Z</time>
      </trkpt>
      <trkpt lat="49.20925" lon="1.16325">
        <ele>134</ele>
        <time>2017-09-17T08:35:52Z</time>
      </trkpt>
      <trkpt lat="49.20921" lon="1.1629">
        <ele>135</ele>
        <time>2017-09-17T08:35:56Z</time>
      </trkpt>
      <trkpt lat="49.20919" lon="1.16263">
        <ele>135</ele>
        <time>2017-09-17T08:36:00Z</time>
      </trkpt>
      <trkpt lat="49.20917" lon="1.16234">
        <ele>135</ele>
        <time>2017-09-17T08:36:04Z</time>
      </trkpt>
      <trkpt lat="49.20913" lon="1.16198">
        <ele>135</ele>
        <time>2017-09-17T08:36:08Z</time>
      </trkpt>
      <trkpt lat="49.20908" lon="1.16166">
        <ele>135</ele>
        <time>2017-09-17T08:36:12Z</time>
      </trkpt>
      <trkpt lat="49.20903" lon="1.16136">
        <ele>135</ele>
        <time>2017-09-17T08:36:16Z</time>
      </trkpt>
      <trkpt lat="49.209" lon="1.16107">
        <ele>136</ele>
        <time>2017-09-17T08:36:20Z</time>
      </trkpt>
      <trkpt lat="49.20895" lon="1.16075">
        <ele>136</ele>
        <time>2017-09-17T08:36:24Z</time>
      </trkpt>
      <trkpt lat="49.20892" lon="1.16044">
        <ele>136</ele>
        <time>2017-09-17T08:36:28Z</time>
      </trkpt>
      <trkpt lat="49.20889" lon="1.16016">
        <ele>136</ele>
        <time>2017-09-17T08:36:32Z</time>
      </trkpt>
      <trkpt lat="49.20886" lon="1.1599">
        <ele>137</ele>
        <time>2017-09-17T08:36:36Z</time>
      </trkpt>
      <trkpt lat="49.20881" lon="1.15959">
        <ele>137</ele>
        <time>2017-09-17T08:36:40Z</time>
      </trkpt>
      <trkpt lat="49.20877" lon="1.15927">
        <ele>137</ele>
        <time>2017-09-17T08:36:44Z</time>
      </trkpt>
      <trkpt lat="49.20872" lon="1.15897">
        <ele>138</ele>
        <time>2017-09-17T08:36:48Z</time>
      </trkpt>
      <trkpt lat="49.2087" lon="1.15869">
        <ele>138</ele>
        <time>2017-09-17T08:36:52Z</time>
      </trkpt>
      <trkpt lat="49.20865" lon="1.15833">
        <ele>139</ele>
        <time>2017-09-17T08:36:56Z</time>
      </trkpt>
      <trkpt lat="49.20857" lon="1.158">
        <ele>139</ele>
        <time>2017-09-17T08:37:00Z</time>
      </trkpt>
      <trkpt lat="49.2085" lon="1.15768">
        <ele>139</ele>
        <time>2017-09-17T08:37:04Z</time>
      </trkpt>
      <trkpt lat="49.20845" lon="1.1574">
        <ele>139</ele>
        <time>2017-09-17T08:37:08Z</time>
      </trkpt>
      <trkpt lat="49.20836" lon="1.15708">
        <ele>139</ele>
        <time>2017-09-17T08:37:12Z</time>
      </trkpt>
      <trkpt lat="49.20829" lon="1.15678">
        <ele>140</ele>
        <time>2017-09-17T08:37:16Z</time>
      </trkpt>
      <trkpt lat="49.20824" lon="1.15648">
        <ele>141</ele>
        <time>2017-09-17T08:37:20Z</time>
      </trkpt>
      <trkpt lat="49.20817" lon="1.15616">
        <ele>141</ele>
        <time>2017-09-17T08:37:24Z</time>
      </trkpt>
      <trkpt lat="49.2082" lon="1.15594">
        <ele>141</ele>
        <time>2017-09-17T08:37:28Z</time>
      </trkpt>
      <trkpt lat="49.20822" lon="1.15579">
        <ele>141</ele>
        <time>2017-09-17T08:37:32Z</time>
      </trkpt>
      <trkpt lat="49.20819" lon="1.15556">
        <ele>142</ele>
        <time>2017-09-17T08:37:36Z</time>
      </trkpt>
      <trkpt lat="49.20816" lon="1.15528">
        <ele>142</ele>
        <time>2017-09-17T08:37:40Z</time>
      </trkpt>
      <trkpt lat="49.20812" lon="1.15502">
        <ele>142</ele>
        <time>2017-09-17T08:37:44Z</time>
      </trkpt>
      <trkpt lat="49.20809" lon="1.15476">
        <ele>142</ele>
        <time>2017-09-17T08:37:48Z</time>
      </trkpt>
      <trkpt lat="49.20805" lon="1.15453">
        <ele>143</ele>
        <time>2017-09-17T08:37:52Z</time>
      </trkpt>
      <trkpt lat="49.20799" lon="1.15429">
        <ele>143</ele>
        <time>2017-09-17T08:37:56Z</time>
      </trkpt>
      <trkpt lat="49.20795" lon="1.15406">
        <ele>144</ele>
        <time>2017-09-17T08:38:00Z</time>
      </trkpt>
      <trkpt lat="49.20791" lon="1.15382">
        <ele>144</ele>
        <time>2017-09-17T08:38:04Z</time>
      </trkpt>
      <trkpt lat="49.20787" lon="1.15355">
        <ele>145</ele>
        <time>2017-09-17T08:38:08Z</time>
      </trkpt>
      <trkpt lat="49.20781" lon="1.15329">
        <ele>145</ele>
        <time>2017-09-17T08:38:12Z</time>
      </trkpt>
      <trkpt lat="49.20775" lon="1.15299">
        <ele>146</ele>
        <time>2017-09-17T08:38:16Z</time>
      </trkpt>
      <trkpt lat="49.20773" lon="1.15276">
        <ele>146</ele>
        <time>2017-09-17T08:38:20Z</time>
      </trkpt>
      <trkpt lat="49.20771" lon="1.15252">
        <ele>146</ele>
        <time>2017-09-17T08:38:24Z</time>
      </trkpt>
      <trkpt lat="49.20766" lon="1.15225">
        <ele>146</ele>
        <time>2017-09-17T08:38:28Z</time>
      </trkpt>
      <trkpt lat="49.20761" lon="1.152">
        <ele>147</ele>
        <time>2017-09-17T08:38:32Z</time>
      </trkpt>
      <trkpt lat="49.20756" lon="1.15174">
        <ele>147</ele>
        <time>2017-09-17T08:38:36Z</time>
      </trkpt>
      <trkpt lat="49.2075" lon="1.15148">
        <ele>148</ele>
        <time>2017-09-17T08:38:40Z</time>
      </trkpt>
      <trkpt lat="49.20745" lon="1.15122">
        <ele>148</ele>
        <time>2017-09-17T08:38:44Z</time>
      </trkpt>
      <trkpt lat="49.20742" lon="1.15098">
        <ele>148</ele>
        <time>2017-09-17T08:38:48Z</time>
      </trkpt>
      <trkpt lat="49.20737" lon="1.15073">
        <ele>148</ele>
        <time>2017-09-17T08:38:52Z</time>
      </trkpt>
      <trkpt lat="49.20737" lon="1.15048">
        <ele>149</ele>
        <time>2017-09-17T08:38:56Z</time>
      </trkpt>
      <trkpt lat="49.20746" lon="1.15048">
        <ele>149</ele>
        <time>2017-09-17T08:39:00Z</time>
      </trkpt>
      <trkpt lat="49.20756" lon="1.15046">
        <ele>150</ele>
        <time>2017-09-17T08:39:04Z</time>
      </trkpt>
      <trkpt lat="49.20761" lon="1.15041">
        <ele>151</ele>
        <time>2017-09-17T08:39:08Z</time>
      </trkpt>
      <trkpt lat="49.20771" lon="1.15034">
        <ele>152</ele>
        <time>2017-09-17T08:39:12Z</time>
      </trkpt>
      <trkpt lat="49.20779" lon="1.15026">
        <ele>152</ele>
        <time>2017-09-17T08:39:16Z</time>
      </trkpt>
      <trkpt lat="49.20788" lon="1.15025">
        <ele>153</ele>
        <time>2017-09-17T08:39:20Z</time>
      </trkpt>
      <trkpt lat="49.20797" lon="1.15019">
        <ele>154</ele>
        <time>2017-09-17T08:39:24Z</time>
      </trkpt>
      <trkpt lat="49.20806" lon="1.15018">
        <ele>154</ele>
        <time>2017-09-17T08:39:28Z</time>
      </trkpt>
      <trkpt lat="49.20814" lon="1.15017">
        <ele>155</ele>
        <time>2017-09-17T08:39:32Z</time>
      </trkpt>
      <trkpt lat="49.20822" lon="1.15009">
        <ele>156</ele>
        <time>2017-09-17T08:39:36Z</time>
      </trkpt>
      <trkpt lat="49.20837" lon="1.1498">
        <ele>157</ele>
        <time>2017-09-17T08:39:40Z</time>
      </trkpt>
      <trkpt lat="49.20848" lon="1.14969">
        <ele>157</ele>
        <time>2017-09-17T08:39:44Z</time>
      </trkpt>
      <trkpt lat="49.20859" lon="1.14968">
        <ele>158</ele>
        <time>2017-09-17T08:39:48Z</time>
      </trkpt>
      <trkpt lat="49.2087" lon="1.14966">
        <ele>159</ele>
        <time>2017-09-17T08:39:52Z</time>
      </trkpt>
      <trkpt lat="49.20883" lon="1.14961">
        <ele>159</ele>
        <time>2017-09-17T08:39:56Z</time>
      </trkpt>
      <trkpt lat="49.20894" lon="1.14956">
        <ele>160</ele>
        <time>2017-09-17T08:40:00Z</time>
      </trkpt>
      <trkpt lat="49.20904" lon="1.14954">
        <ele>160</ele>
        <time>2017-09-17T08:40:04Z</time>
      </trkpt>
      <trkpt lat="49.20913" lon="1.14954">
        <ele>161</ele>
        <time>2017-09-17T08:40:08Z</time>
      </trkpt>
      <trkpt lat="49.20922" lon="1.14956">
        <ele>162</ele>
        <time>2017-09-17T08:40:12Z</time>
      </trkpt>
      <trkpt lat="49.20929" lon="1.14955">
        <ele>162</ele>
        <time>2017-09-17T08:40:16Z</time>
      </trkpt>
      <trkpt lat="49.20936" lon="1.14957">
        <ele>162</ele>
        <time>2017-09-17T08:40:20Z</time>
      </trkpt>
      <trkpt lat="49.20943" lon="1.14957">
        <ele>163</ele>
        <time>2017-09-17T08:40:24Z</time>
      </trkpt>
      <trkpt lat="49.2095" lon="1.14955">
        <ele>164</ele>
        <time>2017-09-17T08:40:28Z</time>
      </trkpt>
      <trkpt lat="49.20957" lon="1.14953">
        <ele>165</ele>
        <time>2017-09-17T08:40:32Z</time>
      </trkpt>
      <trkpt lat="49.20962" lon="1.14951">
        <ele>166</ele>
        <time>2017-09-17T08:40:36Z</time>
      </trkpt>
      <trkpt lat="49.20967" lon="1.14949">
        <ele>167</ele>
        <time>2017-09-17T08:40:40Z</time>
      </trkpt>
      <trkpt lat="49.20967" lon="1.14948">
        <ele>167</ele>
        <time>2017-09-17T08:40:44Z</time>
      </trkpt>
      <trkpt lat="49.20972" lon="1.14949">
        <ele>168</ele>
        <time>2017-09-17T08:40:48Z</time>
      </trkpt>
      <trkpt lat="49.20975" lon="1.14949">
        <ele>169</ele>
        <time>2017-09-17T08:40:52Z</time>
      </trkpt>
      <trkpt lat="49.20979" lon="1.14949">
        <ele>169</ele>
        <time>2017-09-17T08:40:56Z</time>
      </trkpt>
      <trkpt lat="49.20983" lon="1.14949">
        <ele>170</ele>
        <time>2017-09-17T08:41:00Z</time>
      </trkpt>
      <trkpt lat="49.20986" lon="1.1495">
        <ele>171</ele>
        <time>2017-09-17T08:41:04Z</time>
      </trkpt>
      <trkpt lat="49.20989" lon="1.1495">
        <ele>172</ele>
        <time>2017-09-17T08:41:08Z</time>
      </trkpt>
      <trkpt lat="49.20992" lon="1.1495">
        <ele>172</ele>
        <time>2017-09-17T08:41:12Z</time>
      </trkpt>
      <trkpt lat="49.20995" lon="1.14951">
        <ele>173</ele>
        <time>2017-09-17T08:41:16Z</time>
      </trkpt>
      <trkpt lat="49.20998" lon="1.14952">
        <ele>174</ele>
        <time>2017-09-17T08:41:20Z</time>
      </trkpt>
      <trkpt lat="49.21" lon="1.14953">
        <ele>174</ele>
        <time>2017-09-17T08:41:24Z</time>
      </trkpt>
      <trkpt lat="49.21003" lon="1.14954">
        <ele>175</ele>
        <time>2017-09-17T08:41:28Z</time>
      </trkpt>
      <trkpt lat="49.21007" lon="1.14955">
        <ele>175</ele>
        <time>2017-09-17T08:41:36Z</time>
      </trkpt>
      <trkpt lat="49.2101" lon="1.14954">
        <ele>176</ele>
        <time>2017-09-17T08:41:44Z</time>
      </trkpt>
      <trkpt lat="49.21012" lon="1.14952">
        <ele>176</ele>
        <time>2017-09-17T08:41:48Z</time>
      </trkpt>
      <trkpt lat="49.21013" lon="1.14949">
        <ele>177</ele>
        <time>2017-09-17T08:41:52Z</time>
      </trkpt>
      <trkpt lat="49.21014" lon="1.14946">
        <ele>177</ele>
        <time>2017-09-17T08:41:56Z</time>
      </trkpt>
      <trkpt lat="49.21015" lon="1.14941">
        <ele>177</ele>
        <time>2017-09-17T08:42:00Z</time>
      </trkpt>
      <trkpt lat="49.21016" lon="1.14936">
        <ele>178</ele>
        <time>2017-09-17T08:42:12Z</time>
      </trkpt>
      <trkpt lat="49.21016" lon="1.14931">
        <ele>178</ele>
        <time>2017-09-17T08:42:16Z</time>
      </trkpt>
      <trkpt lat="49.21017" lon="1.14924">
        <ele>179</ele>
        <time>2017-09-17T08:42:20Z</time>
      </trkpt>
      <trkpt lat="49.21017" lon="1.14913">
        <ele>179</ele>
        <time>2017-09-17T08:42:24Z</time>
      </trkpt>
      <trkpt lat="49.2102" lon="1.14904">
        <ele>180</ele>
        <time>2017-09-17T08:42:28Z</time>
      </trkpt>
      <trkpt lat="49.21023" lon="1.14898">
        <ele>181</ele>
        <time>2017-09-17T08:42:32Z</time>
      </trkpt>
      <trkpt lat="49.21026" lon="1.14891">
        <ele>181</ele>
        <time>2017-09-17T08:42:36Z</time>
      </trkpt>
      <trkpt lat="49.21029" lon="1.14881">
        <ele>182</ele>
        <time>2017-09-17T08:42:40Z</time>
      </trkpt>
      <trkpt lat="49.21033" lon="1.1487">
        <ele>182</ele>
        <time>2017-09-17T08:42:44Z</time>
      </trkpt>
      <trkpt lat="49.21036" lon="1.1486">
        <ele>183</ele>
        <time>2017-09-17T08:42:48Z</time>
      </trkpt>
      <trkpt lat="49.2104" lon="1.14852">
        <ele>184</ele>
        <time>2017-09-17T08:42:52Z</time>
      </trkpt>
      <trkpt lat="49.21042" lon="1.14844">
        <ele>184</ele>
        <time>2017-09-17T08:42:56Z</time>
      </trkpt>
      <trkpt lat="49.21044" lon="1.14836">
        <ele>185</ele>
        <time>2017-09-17T08:43:00Z</time>
      </trkpt>
      <trkpt lat="49.21046" lon="1.14831">
        <ele>186</ele>
        <time>2017-09-17T08:43:04Z</time>
      </trkpt>
      <trkpt lat="49.21049" lon="1.14823">
        <ele>186</ele>
        <time>2017-09-17T08:43:08Z</time>
      </trkpt>
      <trkpt lat="49.21054" lon="1.14813">
        <ele>187</ele>
        <time>2017-09-17T08:43:12Z</time>
      </trkpt>
      <trkpt lat="49.2106" lon="1.14802">
        <ele>187</ele>
        <time>2017-09-17T08:43:16Z</time>
      </trkpt>
      <trkpt lat="49.21065" lon="1.14792">
        <ele>188</ele>
        <time>2017-09-17T08:43:20Z</time>
      </trkpt>
      <trkpt lat="49.21067" lon="1.14783">
        <ele>188</ele>
        <time>2017-09-17T08:43:24Z</time>
      </trkpt>
      <trkpt lat="49.21071" lon="1.14776">
        <ele>189</ele>
        <time>2017-09-17T08:43:28Z</time>
      </trkpt>
      <trkpt lat="49.21076" lon="1.14772">
        <ele>190</ele>
        <time>2017-09-17T08:43:32Z</time>
      </trkpt>
      <trkpt lat="49.2108" lon="1.14763">
        <ele>191</ele>
        <time>2017-09-17T08:43:36Z</time>
      </trkpt>
      <trkpt lat="49.21085" lon="1.14755">
        <ele>191</ele>
        <time>2017-09-17T08:43:40Z</time>
      </trkpt>
      <trkpt lat="49.2109" lon="1.14743">
        <ele>192</ele>
        <time>2017-09-17T08:43:44Z</time>
      </trkpt>
      <trkpt lat="49.21092" lon="1.14734">
        <ele>192</ele>
        <time>2017-09-17T08:43:48Z</time>
      </trkpt>
      <trkpt lat="49.21096" lon="1.14725">
        <ele>193</ele>
        <time>2017-09-17T08:43:52Z</time>
      </trkpt>
      <trkpt lat="49.21099" lon="1.14715">
        <ele>194</ele>
        <time>2017-09-17T08:43:56Z</time>
      </trkpt>
      <trkpt lat="49.21102" lon="1.14704">
        <ele>194</ele>
        <time>2017-09-17T08:44:00Z</time>
      </trkpt>
      <trkpt lat="49.21104" lon="1.14693">
        <ele>195</ele>
        <time>2017-09-17T08:44:04Z</time>
      </trkpt>
      <trkpt lat="49.21108" lon="1.14679">
        <ele>196</ele>
        <time>2017-09-17T08:44:08Z</time>
      </trkpt>
      <trkpt lat="49.21112" lon="1.1467">
        <ele>196</ele>
        <time>2017-09-17T08:44:12Z</time>
      </trkpt>
      <trkpt lat="49.21114" lon="1.14662">
        <ele>197</ele>
        <time>2017-09-17T08:44:16Z</time>
      </trkpt>
      <trkpt lat="49.21117" lon="1.14655">
        <ele>198</ele>
        <time>2017-09-17T08:44:20Z</time>
      </trkpt>
      <trkpt lat="49.21121" lon="1.14646">
        <ele>199</ele>
        <time>2017-09-17T08:44:24Z</time>
      </trkpt>
      <trkpt lat="49.21125" lon="1.14638">
        <ele>199</ele>
        <time>2017-09-17T08:44:28Z</time>
      </trkpt>
      <trkpt lat="49.21129" lon="1.14626">
        <ele>200</ele>
        <time>2017-09-17T08:44:32Z</time>
      </trkpt>
      <trkpt lat="49.2113" lon="1.14618">
        <ele>201</ele>
        <time>2017-09-17T08:44:36Z</time>
      </trkpt>
      <trkpt lat="49.21133" lon="1.1461">
        <ele>201</ele>
        <time>2017-09-17T08:44:40Z</time>
      </trkpt>
      <trkpt lat="49.21133" lon="1.14602">
        <ele>202</ele>
        <time>2017-09-17T08:44:44Z</time>
      </trkpt>
      <trkpt lat="49.21135" lon="1.14592">
        <ele>202</ele>
        <time>2017-09-17T08:44:48Z</time>
      </trkpt>
      <trkpt lat="49.21136" lon="1.14581">
        <ele>203</ele>
        <time>2017-09-17T08:44:52Z</time>
      </trkpt>
      <trkpt lat="49.21141" lon="1.14569">
        <ele>204</ele>
        <time>2017-09-17T08:44:56Z</time>
      </trkpt>
      <trkpt lat="49.21143" lon="1.14558">
        <ele>204</ele>
        <time>2017-09-17T08:45:00Z</time>
      </trkpt>
      <trkpt lat="49.21145" lon="1.14546">
        <ele>205</ele>
        <time>2017-09-17T08:45:04Z</time>
      </trkpt>
      <trkpt lat="49.21147" lon="1.14535">
        <ele>205</ele>
        <time>2017-09-17T08:45:08Z</time>
      </trkpt>
      <trkpt lat="49.21149" lon="1.14526">
        <ele>206</ele>
        <time>2017-09-17T08:45:12Z</time>
      </trkpt>
      <trkpt lat="49.21153" lon="1.14515">
        <ele>206</ele>
        <time>2017-09-17T08:45:16Z</time>
      </trkpt>
      <trkpt lat="49.21156" lon="1.14506">
        <ele>207</ele>
        <time>2017-09-17T08:45:20Z</time>
      </trkpt>
      <trkpt lat="49.21158" lon="1.14496">
        <ele>208</ele>
        <time>2017-09-17T08:45:24Z</time>
      </trkpt>
      <trkpt lat="49.21159" lon="1.14489">
        <ele>209</ele>
        <time>2017-09-17T08:45:28Z</time>
      </trkpt>
      <trkpt lat="49.21159" lon="1.14481">
        <ele>209</ele>
        <time>2017-09-17T08:45:32Z</time>
      </trkpt>
      <trkpt lat="49.21161" lon="1.14471">
        <ele>210</ele>
        <time>2017-09-17T08:45:36Z</time>
      </trkpt>
      <trkpt lat="49.21163" lon="1.14462">
        <ele>210</ele>
        <time>2017-09-17T08:45:40Z</time>
      </trkpt>
      <trkpt lat="49.21163" lon="1.14454">
        <ele>211</ele>
        <time>2017-09-17T08:45:44Z</time>
      </trkpt>
      <trkpt lat="49.21163" lon="1.14441">
        <ele>211</ele>
        <time>2017-09-17T08:45:48Z</time>
      </trkpt>
      <trkpt lat="49.21164" lon="1.14431">
        <ele>212</ele>
        <time>2017-09-17T08:45:52Z</time>
      </trkpt>
      <trkpt lat="49.21163" lon="1.14422">
        <ele>212</ele>
        <time>2017-09-17T08:45:56Z</time>
      </trkpt>
      <trkpt lat="49.2116" lon="1.14412">
        <ele>213</ele>
        <time>2017-09-17T08:46:00Z</time>
      </trkpt>
      <trkpt lat="49.21159" lon="1.14405">
        <ele>213</ele>
        <time>2017-09-17T08:46:04Z</time>
      </trkpt>
      <trkpt lat="49.21155" lon="1.14394">
        <ele>214</ele>
        <time>2017-09-17T08:46:08Z</time>
      </trkpt>
      <trkpt lat="49.21154" lon="1.14384">
        <ele>214</ele>
        <time>2017-09-17T08:46:12Z</time>
      </trkpt>
      <trkpt lat="49.21151" lon="1.14372">
        <ele>215</ele>
        <time>2017-09-17T08:46:16Z</time>
      </trkpt>
      <trkpt lat="49.21152" lon="1.14363">
        <ele>216</ele>
        <time>2017-09-17T08:46:20Z</time>
      </trkpt>
      <trkpt lat="49.21157" lon="1.14347">
        <ele>216</ele>
        <time>2017-09-17T08:46:24Z</time>
      </trkpt>
      <trkpt lat="49.21158" lon="1.14333">
        <ele>217</ele>
        <time>2017-09-17T08:46:28Z</time>
      </trkpt>
      <trkpt lat="49.21158" lon="1.14324">
        <ele>217</ele>
        <time>2017-09-17T08:46:32Z</time>
      </trkpt>
      <trkpt lat="49.21155" lon="1.14315">
        <ele>218</ele>
        <time>2017-09-17T08:46:36Z</time>
      </trkpt>
      <trkpt lat="49.21154" lon="1.14303">
        <ele>218</ele>
        <time>2017-09-17T08:46:40Z</time>
      </trkpt>
      <trkpt lat="49.21155" lon="1.1429">
        <ele>219</ele>
        <time>2017-09-17T08:46:44Z</time>
      </trkpt>
      <trkpt lat="49.21155" lon="1.14277">
        <ele>219</ele>
        <time>2017-09-17T08:46:48Z</time>
      </trkpt>
      <trkpt lat="49.21156" lon="1.14263">
        <ele>220</ele>
        <time>2017-09-17T08:46:52Z</time>
      </trkpt>
      <trkpt lat="49.21155" lon="1.14251">
        <ele>220</ele>
        <time>2017-09-17T08:46:56Z</time>
      </trkpt>
      <trkpt lat="49.21156" lon="1.14235">
        <ele>221</ele>
        <time>2017-09-17T08:47:00Z</time>
      </trkpt>
      <trkpt lat="49.21156" lon="1.14221">
        <ele>222</ele>
        <time>2017-09-17T08:47:04Z</time>
      </trkpt>
      <trkpt lat="49.21158" lon="1.14211">
        <ele>223</ele>
        <time>2017-09-17T08:47:08Z</time>
      </trkpt>
      <trkpt lat="49.21162" lon="1.14204">
        <ele>224</ele>
        <time>2017-09-17T08:47:12Z</time>
      </trkpt>
      <trkpt lat="49.2117" lon="1.14202">
        <ele>224</ele>
        <time>2017-09-17T08:47:16Z</time>
      </trkpt>
      <trkpt lat="49.21178" lon="1.14203">
        <ele>224</ele>
        <time>2017-09-17T08:47:20Z</time>
      </trkpt>
      <trkpt lat="49.21187" lon="1.14204">
        <ele>225</ele>
        <time>2017-09-17T08:47:24Z</time>
      </trkpt>
      <trkpt lat="49.21196" lon="1.14205">
        <ele>226</ele>
        <time>2017-09-17T08:47:28Z</time>
      </trkpt>
      <trkpt lat="49.21204" lon="1.14207">
        <ele>227</ele>
        <time>2017-09-17T08:47:32Z</time>
      </trkpt>
      <trkpt lat="49.21214" lon="1.1421">
        <ele>227</ele>
        <time>2017-09-17T08:47:36Z</time>
      </trkpt>
      <trkpt lat="49.21224" lon="1.14212">
        <ele>228</ele>
        <time>2017-09-17T08:47:40Z</time>
      </trkpt>
      <trkpt lat="49.21234" lon="1.14214">
        <ele>229</ele>
        <time>2017-09-17T08:47:44Z</time>
      </trkpt>
      <trkpt lat="49.21245" lon="1.14214">
        <ele>230</ele>
        <time>2017-09-17T08:47:48Z</time>
      </trkpt>
      <trkpt lat="49.21255" lon="1.14217">
        <ele>230</ele>
        <time>2017-09-17T08:47:52Z</time>
      </trkpt>
      <trkpt lat="49.21267" lon="1.1422">
        <ele>230</ele>
        <time>2017-09-17T08:47:56Z</time>
      </trkpt>
      <trkpt lat="49.21281" lon="1.14223">
        <ele>230</ele>
        <time>2017-09-17T08:48:00Z</time>
      </trkpt>
      <trkpt lat="49.21296" lon="1.14227">
        <ele>231</ele>
        <time>2017-09-17T08:48:04Z</time>
      </trkpt>
      <trkpt lat="49.21312" lon="1.14231">
        <ele>231</ele>
        <time>2017-09-17T08:48:08Z</time>
      </trkpt>
      <trkpt lat="49.21329" lon="1.14238">
        <ele>231</ele>
        <time>2017-09-17T08:48:12Z</time>
      </trkpt>
      <trkpt lat="49.21347" lon="1.14245">
        <ele>232</ele>
        <time>2017-09-17T08:48:16Z</time>
      </trkpt>
      <trkpt lat="49.21366" lon="1.14252">
        <ele>232</ele>
        <time>2017-09-17T08:48:20Z</time>
      </trkpt>
      <trkpt lat="49.21384" lon="1.14258">
        <ele>232</ele>
        <time>2017-09-17T08:48:24Z</time>
      </trkpt>
      <trkpt lat="49.21402" lon="1.14266">
        <ele>232</ele>
        <time>2017-09-17T08:48:28Z</time>
      </trkpt>
      <trkpt lat="49.21421" lon="1.14272">
        <ele>232</ele>
        <time>2017-09-17T08:48:32Z</time>
      </trkpt>
      <trkpt lat="49.2144" lon="1.14266">
        <ele>233</ele>
        <time>2017-09-17T08:48:36Z</time>
      </trkpt>
      <trkpt lat="49.21456" lon="1.14248">
        <ele>232</ele>
        <time>2017-09-17T08:48:40Z</time>
      </trkpt>
      <trkpt lat="49.21467" lon="1.14223">
        <ele>232</ele>
        <time>2017-09-17T08:48:44Z</time>
      </trkpt>
      <trkpt lat="49.21477" lon="1.14197">
        <ele>232</ele>
        <time>2017-09-17T08:48:48Z</time>
      </trkpt>
      <trkpt lat="49.21486" lon="1.14172">
        <ele>233</ele>
        <time>2017-09-17T08:48:52Z</time>
      </trkpt>
      <trkpt lat="49.21496" lon="1.14145">
        <ele>233</ele>
        <time>2017-09-17T08:48:56Z</time>
      </trkpt>
      <trkpt lat="49.21508" lon="1.14117">
        <ele>233</ele>
        <time>2017-09-17T08:49:00Z</time>
      </trkpt>
      <trkpt lat="49.2152" lon="1.14086">
        <ele>233</ele>
        <time>2017-09-17T08:49:04Z</time>
      </trkpt>
      <trkpt lat="49.21533" lon="1.14055">
        <ele>233</ele>
        <time>2017-09-17T08:49:08Z</time>
      </trkpt>
      <trkpt lat="49.21545" lon="1.1402">
        <ele>233</ele>
        <time>2017-09-17T08:49:12Z</time>
      </trkpt>
      <trkpt lat="49.21559" lon="1.13988">
        <ele>233</ele>
        <time>2017-09-17T08:49:16Z</time>
      </trkpt>
      <trkpt lat="49.21572" lon="1.13952">
        <ele>233</ele>
        <time>2017-09-17T08:49:20Z</time>
      </trkpt>
      <trkpt lat="49.21587" lon="1.13915">
        <ele>233</ele>
        <time>2017-09-17T08:49:24Z</time>
      </trkpt>
      <trkpt lat="49.216" lon="1.13879">
        <ele>232</ele>
        <time>2017-09-17T08:49:28Z</time>
      </trkpt>
      <trkpt lat="49.21614" lon="1.13843">
        <ele>231</ele>
        <time>2017-09-17T08:49:32Z</time>
      </trkpt>
      <trkpt lat="49.21633" lon="1.13808">
        <ele>230</ele>
        <time>2017-09-17T08:49:36Z</time>
      </trkpt>
      <trkpt lat="49.21654" lon="1.13774">
        <ele>230</ele>
        <time>2017-09-17T08:49:40Z</time>
      </trkpt>
      <trkpt lat="49.21675" lon="1.13742">
        <ele>229</ele>
        <time>2017-09-17T08:49:44Z</time>
      </trkpt>
      <trkpt lat="49.21698" lon="1.13713">
        <ele>229</ele>
        <time>2017-09-17T08:49:48Z</time>
      </trkpt>
      <trkpt lat="49.21722" lon="1.13689">
        <ele>229</ele>
        <time>2017-09-17T08:49:52Z</time>
      </trkpt>
      <trkpt lat="49.21744" lon="1.13667">
        <ele>229</ele>
        <time>2017-09-17T08:49:56Z</time>
      </trkpt>
      <trkpt lat="49.21766" lon="1.13646">
        <ele>229</ele>
        <time>2017-09-17T08:50:00Z</time>
      </trkpt>
      <trkpt lat="49.21786" lon="1.13623">
        <ele>230</ele>
        <time>2017-09-17T08:50:04Z</time>
      </trkpt>
      <trkpt lat="49.21807" lon="1.13602">
        <ele>230</ele>
        <time>2017-09-17T08:50:08Z</time>
      </trkpt>
      <trkpt lat="49.21827" lon="1.1358">
        <ele>231</ele>
        <time>2017-09-17T08:50:12Z</time>
      </trkpt>
      <trkpt lat="49.21845" lon="1.13559">
        <ele>231</ele>
        <time>2017-09-17T08:50:16Z</time>
      </trkpt>
      <trkpt lat="49.21863" lon="1.13537">
        <ele>232</ele>
        <time>2017-09-17T08:50:20Z</time>
      </trkpt>
      <trkpt lat="49.2188" lon="1.13513">
        <ele>232</ele>
        <time>2017-09-17T08:50:24Z</time>
      </trkpt>
      <trkpt lat="49.219" lon="1.13488">
        <ele>232</ele>
        <time>2017-09-17T08:50:28Z</time>
      </trkpt>
      <trkpt lat="49.2192" lon="1.1346">
        <ele>232</ele>
        <time>2017-09-17T08:50:32Z</time>
      </trkpt>
      <trkpt lat="49.21942" lon="1.13432">
        <ele>231</ele>
        <time>2017-09-17T08:50:36Z</time>
      </trkpt>
      <trkpt lat="49.21963" lon="1.13403">
        <ele>231</ele>
        <time>2017-09-17T08:50:40Z</time>
      </trkpt>
      <trkpt lat="49.21984" lon="1.13374">
        <ele>230</ele>
        <time>2017-09-17T08:50:44Z</time>
      </trkpt>
      <trkpt lat="49.22004" lon="1.13346">
        <ele>231</ele>
        <time>2017-09-17T08:50:48Z</time>
      </trkpt>
      <trkpt lat="49.22026" lon="1.13319">
        <ele>230</ele>
        <time>2017-09-17T08:50:52Z</time>
      </trkpt>
      <trkpt lat="49.22049" lon="1.13291">
        <ele>229</ele>
        <time>2017-09-17T08:50:56Z</time>
      </trkpt>
      <trkpt lat="49.22075" lon="1.13269">
        <ele>228</ele>
        <time>2017-09-17T08:51:00Z</time>
      </trkpt>
      <trkpt lat="49.22102" lon="1.13247">
        <ele>226</ele>
        <time>2017-09-17T08:51:04Z</time>
      </trkpt>
      <trkpt lat="49.2213" lon="1.13225">
        <ele>224</ele>
        <time>2017-09-17T08:51:08Z</time>
      </trkpt>
      <trkpt lat="49.22158" lon="1.13203">
        <ele>222</ele>
        <time>2017-09-17T08:51:12Z</time>
      </trkpt>
      <trkpt lat="49.22186" lon="1.13181">
        <ele>222</ele>
        <time>2017-09-17T08:51:16Z</time>
      </trkpt>
      <trkpt lat="49.22207" lon="1.13163">
        <ele>221</ele>
        <time>2017-09-17T08:51:20Z</time>
      </trkpt>
      <trkpt lat="49.22219" lon="1.13149">
        <ele>220</ele>
        <time>2017-09-17T08:51:24Z</time>
      </trkpt>
      <trkpt lat="49.22225" lon="1.13134">
        <ele>220</ele>
        <time>2017-09-17T08:51:28Z</time>
      </trkpt>
      <trkpt lat="49.22223" lon="1.13124">
        <ele>220</ele>
        <time>2017-09-17T08:51:32Z</time>
      </trkpt>
      <trkpt lat="49.22226" lon="1.13114">
        <ele>221</ele>
        <time>2017-09-17T08:51:36Z</time>
      </trkpt>
      <trkpt lat="49.22222" lon="1.13097">
        <ele>221</ele>
        <time>2017-09-17T08:51:40Z</time>
      </trkpt>
      <trkpt lat="49.22218" lon="1.1308">
        <ele>220</ele>
        <time>2017-09-17T08:51:44Z</time>
      </trkpt>
      <trkpt lat="49.22213" lon="1.13059">
        <ele>221</ele>
        <time>2017-09-17T08:51:48Z</time>
      </trkpt>
      <trkpt lat="49.22207" lon="1.1304">
        <ele>221</ele>
        <time>2017-09-17T08:51:52Z</time>
      </trkpt>
      <trkpt lat="49.22205" lon="1.13019">
        <ele>221</ele>
        <time>2017-09-17T08:51:56Z</time>
      </trkpt>
      <trkpt lat="49.22205" lon="1.13005">
        <ele>222</ele>
        <time>2017-09-17T08:52:00Z</time>
      </trkpt>
      <trkpt lat="49.22206" lon="1.12996">
        <ele>221</ele>
        <time>2017-09-17T08:52:04Z</time>
      </trkpt>
      <trkpt lat="49.22202" lon="1.12991">
        <ele>222</ele>
        <time>2017-09-17T08:52:08Z</time>
      </trkpt>
      <trkpt lat="49.222" lon="1.12972">
        <ele>222</ele>
        <time>2017-09-17T08:52:12Z</time>
      </trkpt>
      <trkpt lat="49.22196" lon="1.12952">
        <ele>222</ele>
        <time>2017-09-17T08:52:16Z</time>
      </trkpt>
      <trkpt lat="49.22187" lon="1.12932">
        <ele>222</ele>
        <time>2017-09-17T08:52:20Z</time>
      </trkpt>
      <trkpt lat="49.22183" lon="1.12911">
        <ele>222</ele>
        <time>2017-09-17T08:52:24Z</time>
      </trkpt>
      <trkpt lat="49.2218" lon="1.12893">
        <ele>223</ele>
        <time>2017-09-17T08:52:28Z</time>
      </trkpt>
      <trkpt lat="49.22173" lon="1.12873">
        <ele>223</ele>
        <time>2017-09-17T08:52:32Z</time>
      </trkpt>
      <trkpt lat="49.22167" lon="1.12852">
        <ele>224</ele>
        <time>2017-09-17T08:52:36Z</time>
      </trkpt>
      <trkpt lat="49.22172" lon="1.12821">
        <ele>222</ele>
        <time>2017-09-17T08:52:40Z</time>
      </trkpt>
      <trkpt lat="49.22176" lon="1.1279">
        <ele>221</ele>
        <time>2017-09-17T08:52:44Z</time>
      </trkpt>
      <trkpt lat="49.22176" lon="1.12759">
        <ele>222</ele>
        <time>2017-09-17T08:52:48Z</time>
      </trkpt>
      <trkpt lat="49.22175" lon="1.12741">
        <ele>223</ele>
        <time>2017-09-17T08:52:52Z</time>
      </trkpt>
      <trkpt lat="49.22176" lon="1.12728">
        <ele>224</ele>
        <time>2017-09-17T08:52:56Z</time>
      </trkpt>
      <trkpt lat="49.22178" lon="1.12708">
        <ele>225</ele>
        <time>2017-09-17T08:53:00Z</time>
      </trkpt>
      <trkpt lat="49.22178" lon="1.12686">
        <ele>226</ele>
        <time>2017-09-17T08:53:04Z</time>
      </trkpt>
      <trkpt lat="49.22178" lon="1.12665">
        <ele>227</ele>
        <time>2017-09-17T08:53:08Z</time>
      </trkpt>
      <trkpt lat="49.22176" lon="1.12644">
        <ele>228</ele>
        <time>2017-09-17T08:53:12Z</time>
      </trkpt>
      <trkpt lat="49.22173" lon="1.12629">
        <ele>228</ele>
        <time>2017-09-17T08:53:16Z</time>
      </trkpt>
      <trkpt lat="49.22172" lon="1.12614">
        <ele>228</ele>
        <time>2017-09-17T08:53:20Z</time>
      </trkpt>
      <trkpt lat="49.2217" lon="1.12598">
        <ele>228</ele>
        <time>2017-09-17T08:53:24Z</time>
      </trkpt>
      <trkpt lat="49.2217" lon="1.12581">
        <ele>229</ele>
        <time>2017-09-17T08:53:28Z</time>
      </trkpt>
      <trkpt lat="49.22169" lon="1.12559">
        <ele>229</ele>
        <time>2017-09-17T08:53:32Z</time>
      </trkpt>
      <trkpt lat="49.22169" lon="1.12539">
        <ele>230</ele>
        <time>2017-09-17T08:53:36Z</time>
      </trkpt>
      <trkpt lat="49.22167" lon="1.12519">
        <ele>230</ele>
        <time>2017-09-17T08:53:40Z</time>
      </trkpt>
      <trkpt lat="49.22167" lon="1.12498">
        <ele>230</ele>
        <time>2017-09-17T08:53:44Z</time>
      </trkpt>
      <trkpt lat="49.22166" lon="1.12482">
        <ele>230</ele>
        <time>2017-09-17T08:53:48Z</time>
      </trkpt>
      <trkpt lat="49.22164" lon="1.12463">
        <ele>231</ele>
        <time>2017-09-17T08:53:52Z</time>
      </trkpt>
      <trkpt lat="49.22166" lon="1.12443">
        <ele>231</ele>
        <time>2017-09-17T08:53:56Z</time>
      </trkpt>
      <trkpt lat="49.22169" lon="1.12424">
        <ele>231</ele>
        <time>2017-09-17T08:54:00Z</time>
      </trkpt>
      <trkpt lat="49.22171" lon="1.12399">
        <ele>232</ele>
        <time>2017-09-17T08:54:04Z</time>
      </trkpt>
      <trkpt lat="49.22174" lon="1.12375">
        <ele>232</ele>
        <time>2017-09-17T08:54:08Z</time>
      </trkpt>
      <trkpt lat="49.22177" lon="1.12351">
        <ele>232</ele>
        <time>2017-09-17T08:54:12Z</time>
      </trkpt>
      <trkpt lat="49.2218" lon="1.12328">
        <ele>233</ele>
        <time>2017-09-17T08:54:16Z</time>
      </trkpt>
      <trkpt lat="49.22182" lon="1.12302">
        <ele>233</ele>
        <time>2017-09-17T08:54:20Z</time>
      </trkpt>
      <trkpt lat="49.22187" lon="1.1228">
        <ele>234</ele>
        <time>2017-09-17T08:54:24Z</time>
      </trkpt>
      <trkpt lat="49.22192" lon="1.12254">
        <ele>235</ele>
        <time>2017-09-17T08:54:28Z</time>
      </trkpt>
      <trkpt lat="49.22198" lon="1.1223">
        <ele>235</ele>
        <time>2017-09-17T08:54:32Z</time>
      </trkpt>
      <trkpt lat="49.22203" lon="1.12204">
        <ele>236</ele>
        <time>2017-09-17T08:54:36Z</time>
      </trkpt>
      <trkpt lat="49.22206" lon="1.12182">
        <ele>235</ele>
        <time>2017-09-17T08:54:40Z</time>
      </trkpt>
      <trkpt lat="49.2221" lon="1.12154">
        <ele>236</ele>
        <time>2017-09-17T08:54:44Z</time>
      </trkpt>
      <trkpt lat="49.22215" lon="1.1213">
        <ele>236</ele>
        <time>2017-09-17T08:54:48Z</time>
      </trkpt>
      <trkpt lat="49.2222" lon="1.12106">
        <ele>237</ele>
        <time>2017-09-17T08:54:52Z</time>
      </trkpt>
      <trkpt lat="49.22223" lon="1.12084">
        <ele>237</ele>
        <time>2017-09-17T08:54:56Z</time>
      </trkpt>
      <trkpt lat="49.22225" lon="1.1206">
        <ele>237</ele>
        <time>2017-09-17T08:55:00Z</time>
      </trkpt>
      <trkpt lat="49.22227" lon="1.12039">
        <ele>238</ele>
        <time>2017-09-17T08:55:04Z</time>
      </trkpt>
      <trkpt lat="49.22228" lon="1.12017">
        <ele>238</ele>
        <time>2017-09-17T08:55:08Z</time>
      </trkpt>
      <trkpt lat="49.2223" lon="1.11999">
        <ele>238</ele>
        <time>2017-09-17T08:55:12Z</time>
      </trkpt>
      <trkpt lat="49.22233" lon="1.1198">
        <ele>239</ele>
        <time>2017-09-17T08:55:16Z</time>
      </trkpt>
      <trkpt lat="49.22245" lon="1.11966">
        <ele>239</ele>
        <time>2017-09-17T08:55:20Z</time>
      </trkpt>
      <trkpt lat="49.22263" lon="1.11952">
        <ele>239</ele>
        <time>2017-09-17T08:55:24Z</time>
      </trkpt>
      <trkpt lat="49.22278" lon="1.11938">
        <ele>239</ele>
        <time>2017-09-17T08:55:28Z</time>
      </trkpt>
      <trkpt lat="49.22295" lon="1.11924">
        <ele>240</ele>
        <time>2017-09-17T08:55:32Z</time>
      </trkpt>
      <trkpt lat="49.22313" lon="1.11909">
        <ele>240</ele>
        <time>2017-09-17T08:55:36Z</time>
      </trkpt>
      <trkpt lat="49.22325" lon="1.11892">
        <ele>240</ele>
        <time>2017-09-17T08:55:40Z</time>
      </trkpt>
      <trkpt lat="49.22334" lon="1.11874">
        <ele>240</ele>
        <time>2017-09-17T08:55:44Z</time>
      </trkpt>
      <trkpt lat="49.22346" lon="1.11854">
        <ele>239</ele>
        <time>2017-09-17T08:55:48Z</time>
      </trkpt>
      <trkpt lat="49.22357" lon="1.11837">
        <ele>239</ele>
        <time>2017-09-17T08:55:52Z</time>
      </trkpt>
      <trkpt lat="49.22373" lon="1.11809">
        <ele>237</ele>
        <time>2017-09-17T08:55:56Z</time>
      </trkpt>
      <trkpt lat="49.22399" lon="1.11772">
        <ele>235</ele>
        <time>2017-09-17T08:56:00Z</time>
      </trkpt>
      <trkpt lat="49.22429" lon="1.11734">
        <ele>231</ele>
        <time>2017-09-17T08:56:04Z</time>
      </trkpt>
      <trkpt lat="49.22454" lon="1.11702">
        <ele>229</ele>
        <time>2017-09-17T08:56:08Z</time>
      </trkpt>
      <trkpt lat="49.22475" lon="1.11666">
        <ele>227</ele>
        <time>2017-09-17T08:56:12Z</time>
      </trkpt>
      <trkpt lat="49.22496" lon="1.11633">
        <ele>222</ele>
        <time>2017-09-17T08:56:16Z</time>
      </trkpt>
      <trkpt lat="49.22519" lon="1.11606">
        <ele>221</ele>
        <time>2017-09-17T08:56:20Z</time>
      </trkpt>
      <trkpt lat="49.22537" lon="1.11584">
        <ele>218</ele>
        <time>2017-09-17T08:56:24Z</time>
      </trkpt>
      <trkpt lat="49.22552" lon="1.11567">
        <ele>215</ele>
        <time>2017-09-17T08:56:28Z</time>
      </trkpt>
      <trkpt lat="49.22572" lon="1.11548">
        <ele>213</ele>
        <time>2017-09-17T08:56:32Z</time>
      </trkpt>
      <trkpt lat="49.22591" lon="1.11538">
        <ele>210</ele>
        <time>2017-09-17T08:56:36Z</time>
      </trkpt>
      <trkpt lat="49.22613" lon="1.11535">
        <ele>207</ele>
        <time>2017-09-17T08:56:40Z</time>
      </trkpt>
      <trkpt lat="49.22635" lon="1.11543">
        <ele>203</ele>
        <time>2017-09-17T08:56:44Z</time>
      </trkpt>
      <trkpt lat="49.2265" lon="1.11562">
        <ele>200</ele>
        <time>2017-09-17T08:56:48Z</time>
      </trkpt>
      <trkpt lat="49.22656" lon="1.11589">
        <ele>197</ele>
        <time>2017-09-17T08:56:52Z</time>
      </trkpt>
      <trkpt lat="49.22661" lon="1.11617">
        <ele>194</ele>
        <time>2017-09-17T08:56:56Z</time>
      </trkpt>
      <trkpt lat="49.22664" lon="1.1166">
        <ele>193</ele>
        <time>2017-09-17T08:57:00Z</time>
      </trkpt>
      <trkpt lat="49.22667" lon="1.11704">
        <ele>191</ele>
        <time>2017-09-17T08:57:04Z</time>
      </trkpt>
      <trkpt lat="49.2267" lon="1.11751">
        <ele>190</ele>
        <time>2017-09-17T08:57:08Z</time>
      </trkpt>
      <trkpt lat="49.22674" lon="1.11791">
        <ele>189</ele>
        <time>2017-09-17T08:57:12Z</time>
      </trkpt>
      <trkpt lat="49.22682" lon="1.11831">
        <ele>188</ele>
        <time>2017-09-17T08:57:16Z</time>
      </trkpt>
      <trkpt lat="49.22694" lon="1.11877">
        <ele>186</ele>
        <time>2017-09-17T08:57:20Z</time>
      </trkpt>
      <trkpt lat="49.22707" lon="1.11931">
        <ele>184</ele>
        <time>2017-09-17T08:57:24Z</time>
      </trkpt>
      <trkpt lat="49.22714" lon="1.11975">
        <ele>182</ele>
        <time>2017-09-17T08:57:28Z</time>
      </trkpt>
      <trkpt lat="49.22716" lon="1.12008">
        <ele>181</ele>
        <time>2017-09-17T08:57:32Z</time>
      </trkpt>
      <trkpt lat="49.22713" lon="1.12033">
        <ele>180</ele>
        <time>2017-09-17T08:57:36Z</time>
      </trkpt>
      <trkpt lat="49.22718" lon="1.1205">
        <ele>181</ele>
        <time>2017-09-17T08:57:40Z</time>
      </trkpt>
      <trkpt lat="49.22722" lon="1.12072">
        <ele>181</ele>
        <time>2017-09-17T08:57:44Z</time>
      </trkpt>
      <trkpt lat="49.22728" lon="1.12099">
        <ele>180</ele>
        <time>2017-09-17T08:57:48Z</time>
      </trkpt>
      <trkpt lat="49.2273" lon="1.12121">
        <ele>179</ele>
        <time>2017-09-17T08:57:52Z</time>
      </trkpt>
      <trkpt lat="49.22743" lon="1.1215">
        <ele>179</ele>
        <time>2017-09-17T08:57:56Z</time>
      </trkpt>
      <trkpt lat="49.22756" lon="1.12174">
        <ele>179</ele>
        <time>2017-09-17T08:58:00Z</time>
      </trkpt>
      <trkpt lat="49.22766" lon="1.12194">
        <ele>179</ele>
        <time>2017-09-17T08:58:04Z</time>
      </trkpt>
      <trkpt lat="49.22778" lon="1.12219">
        <ele>178</ele>
        <time>2017-09-17T08:58:08Z</time>
      </trkpt>
      <trkpt lat="49.22791" lon="1.12238">
        <ele>178</ele>
        <time>2017-09-17T08:58:12Z</time>
      </trkpt>
      <trkpt lat="49.22808" lon="1.12264">
        <ele>178</ele>
        <time>2017-09-17T08:58:16Z</time>
      </trkpt>
      <trkpt lat="49.2282" lon="1.12278">
        <ele>177</ele>
        <time>2017-09-17T08:58:20Z</time>
      </trkpt>
      <trkpt lat="49.22826" lon="1.12291">
        <ele>176</ele>
        <time>2017-09-17T08:58:24Z</time>
      </trkpt>
      <trkpt lat="49.22829" lon="1.12306">
        <ele>176</ele>
        <time>2017-09-17T08:58:28Z</time>
      </trkpt>
      <trkpt lat="49.22826" lon="1.12315">
        <ele>176</ele>
        <time>2017-09-17T08:58:32Z</time>
      </trkpt>
      <trkpt lat="49.22827" lon="1.12326">
        <ele>176</ele>
        <time>2017-09-17T08:58:36Z</time>
      </trkpt>
      <trkpt lat="49.2283" lon="1.1235">
        <ele>177</ele>
        <time>2017-09-17T09:00:36Z</time>
      </trkpt>
      <trkpt lat="49.22828" lon="1.12355">
        <ele>177</ele>
        <time>2017-09-17T09:00:40Z</time>
      </trkpt>
      <trkpt lat="49.22821" lon="1.12369">
        <ele>181</ele>
        <time>2017-09-17T09:01:00Z</time>
      </trkpt>
      <trkpt lat="49.22819" lon="1.12373">
        <ele>182</ele>
        <time>2017-09-17T09:01:04Z</time>
      </trkpt>
      <trkpt lat="49.22819" lon="1.12379">
        <ele>183</ele>
        <time>2017-09-17T09:01:08Z</time>
      </trkpt>
      <trkpt lat="49.22819" lon="1.12387">
        <ele>184</ele>
        <time>2017-09-17T09:01:12Z</time>
      </trkpt>
      <trkpt lat="49.22821" lon="1.12395">
        <ele>185</ele>
        <time>2017-09-17T09:01:16Z</time>
      </trkpt>
      <trkpt lat="49.22821" lon="1.12402">
        <ele>186</ele>
        <time>2017-09-17T09:01:20Z</time>
      </trkpt>
      <trkpt lat="49.2282" lon="1.12407">
        <ele>186</ele>
        <time>2017-09-17T09:01:24Z</time>
      </trkpt>
      <trkpt lat="49.22819" lon="1.12412">
        <ele>188</ele>
        <time>2017-09-17T09:01:32Z</time>
      </trkpt>
      <trkpt lat="49.22818" lon="1.12417">
        <ele>188</ele>
        <time>2017-09-17T09:01:36Z</time>
      </trkpt>
      <trkpt lat="49.22817" lon="1.12424">
        <ele>189</ele>
        <time>2017-09-17T09:01:40Z</time>
      </trkpt>
      <trkpt lat="49.22816" lon="1.12429">
        <ele>190</ele>
        <time>2017-09-17T09:01:44Z</time>
      </trkpt>
      <trkpt lat="49.22815" lon="1.12433">
        <ele>191</ele>
        <time>2017-09-17T09:01:52Z</time>
      </trkpt>
      <trkpt lat="49.22815" lon="1.12439">
        <ele>191</ele>
        <time>2017-09-17T09:01:56Z</time>
      </trkpt>
      <trkpt lat="49.22815" lon="1.12444">
        <ele>192</ele>
        <time>2017-09-17T09:02:00Z</time>
      </trkpt>
      <trkpt lat="49.22814" lon="1.12449">
        <ele>193</ele>
        <time>2017-09-17T09:02:04Z</time>
      </trkpt>
      <trkpt lat="49.22814" lon="1.12455">
        <ele>194</ele>
        <time>2017-09-17T09:02:08Z</time>
      </trkpt>
      <trkpt lat="49.22814" lon="1.12464">
        <ele>194</ele>
        <time>2017-09-17T09:02:12Z</time>
      </trkpt>
      <trkpt lat="49.22813" lon="1.12468">
        <ele>195</ele>
        <time>2017-09-17T09:02:16Z</time>
      </trkpt>
      <trkpt lat="49.22812" lon="1.12472">
        <ele>195</ele>
        <time>2017-09-17T09:02:20Z</time>
      </trkpt>
      <trkpt lat="49.22812" lon="1.12477">
        <ele>196</ele>
        <time>2017-09-17T09:02:24Z</time>
      </trkpt>
      <trkpt lat="49.22811" lon="1.12483">
        <ele>197</ele>
        <time>2017-09-17T09:02:28Z</time>
      </trkpt>
      <trkpt lat="49.22811" lon="1.12491">
        <ele>198</ele>
        <time>2017-09-17T09:02:32Z</time>
      </trkpt>
      <trkpt lat="49.22811" lon="1.12498">
        <ele>198</ele>
        <time>2017-09-17T09:02:36Z</time>
      </trkpt>
      <trkpt lat="49.2281" lon="1.12504">
        <ele>199</ele>
        <time>2017-09-17T09:02:40Z</time>
      </trkpt>
      <trkpt lat="49.22809" lon="1.1251">
        <ele>199</ele>
        <time>2017-09-17T09:02:44Z</time>
      </trkpt>
      <trkpt lat="49.22808" lon="1.12516">
        <ele>200</ele>
        <time>2017-09-17T09:02:48Z</time>
      </trkpt>
      <trkpt lat="49.22808" lon="1.12523">
        <ele>201</ele>
        <time>2017-09-17T09:02:52Z</time>
      </trkpt>
      <trkpt lat="49.22811" lon="1.1254">
        <ele>201</ele>
        <time>2017-09-17T09:03:12Z</time>
      </trkpt>
      <trkpt lat="49.22812" lon="1.12542">
        <ele>201</ele>
        <time>2017-09-17T09:03:20Z</time>
      </trkpt>
      <trkpt lat="49.22812" lon="1.12544">
        <ele>201</ele>
        <time>2017-09-17T09:03:28Z</time>
      </trkpt>
      <trkpt lat="49.22811" lon="1.12546">
        <ele>202</ele>
        <time>2017-09-17T09:03:32Z</time>
      </trkpt>
      <trkpt lat="49.22809" lon="1.12553">
        <ele>202</ele>
        <time>2017-09-17T09:03:40Z</time>
      </trkpt>
      <trkpt lat="49.22809" lon="1.12558">
        <ele>202</ele>
        <time>2017-09-17T09:03:44Z</time>
      </trkpt>
      <trkpt lat="49.22809" lon="1.12566">
        <ele>202</ele>
        <time>2017-09-17T09:03:48Z</time>
      </trkpt>
      <trkpt lat="49.22808" lon="1.12575">
        <ele>202</ele>
        <time>2017-09-17T09:03:56Z</time>
      </trkpt>
      <trkpt lat="49.2281" lon="1.12582">
        <ele>202</ele>
        <time>2017-09-17T09:04:00Z</time>
      </trkpt>
      <trkpt lat="49.22809" lon="1.12595">
        <ele>202</ele>
        <time>2017-09-17T09:04:04Z</time>
      </trkpt>
      <trkpt lat="49.22808" lon="1.12606">
        <ele>201</ele>
        <time>2017-09-17T09:04:08Z</time>
      </trkpt>
      <trkpt lat="49.22809" lon="1.12624">
        <ele>201</ele>
        <time>2017-09-17T09:04:12Z</time>
      </trkpt>
      <trkpt lat="49.22805" lon="1.12644">
        <ele>201</ele>
        <time>2017-09-17T09:04:16Z</time>
      </trkpt>
      <trkpt lat="49.22804" lon="1.12658">
        <ele>202</ele>
        <time>2017-09-17T09:04:20Z</time>
      </trkpt>
      <trkpt lat="49.22804" lon="1.1267">
        <ele>203</ele>
        <time>2017-09-17T09:04:24Z</time>
      </trkpt>
      <trkpt lat="49.22801" lon="1.12685">
        <ele>204</ele>
        <time>2017-09-17T09:04:28Z</time>
      </trkpt>
      <trkpt lat="49.22803" lon="1.12703">
        <ele>204</ele>
        <time>2017-09-17T09:04:32Z</time>
      </trkpt>
      <trkpt lat="49.22801" lon="1.12717">
        <ele>205</ele>
        <time>2017-09-17T09:04:36Z</time>
      </trkpt>
      <trkpt lat="49.22798" lon="1.12735">
        <ele>205</ele>
        <time>2017-09-17T09:04:40Z</time>
      </trkpt>
      <trkpt lat="49.22796" lon="1.1275">
        <ele>205</ele>
        <time>2017-09-17T09:04:44Z</time>
      </trkpt>
      <trkpt lat="49.22796" lon="1.12769">
        <ele>206</ele>
        <time>2017-09-17T09:04:48Z</time>
      </trkpt>
      <trkpt lat="49.22796" lon="1.12785">
        <ele>206</ele>
        <time>2017-09-17T09:04:52Z</time>
      </trkpt>
      <trkpt lat="49.22795" lon="1.128">
        <ele>207</ele>
        <time>2017-09-17T09:04:56Z</time>
      </trkpt>
      <trkpt lat="49.22793" lon="1.12812">
        <ele>207</ele>
        <time>2017-09-17T09:05:00Z</time>
      </trkpt>
      <trkpt lat="49.22792" lon="1.12825">
        <ele>208</ele>
        <time>2017-09-17T09:05:04Z</time>
      </trkpt>
      <trkpt lat="49.2279" lon="1.12839">
        <ele>208</ele>
        <time>2017-09-17T09:05:08Z</time>
      </trkpt>
      <trkpt lat="49.2279" lon="1.12855">
        <ele>209</ele>
        <time>2017-09-17T09:05:12Z</time>
      </trkpt>
      <trkpt lat="49.22786" lon="1.12873">
        <ele>209</ele>
        <time>2017-09-17T09:05:16Z</time>
      </trkpt>
      <trkpt lat="49.22777" lon="1.12878">
        <ele>210</ele>
        <time>2017-09-17T09:05:20Z</time>
      </trkpt>
      <trkpt lat="49.22765" lon="1.12879">
        <ele>210</ele>
        <time>2017-09-17T09:05:24Z</time>
      </trkpt>
      <trkpt lat="49.22755" lon="1.12879">
        <ele>211</ele>
        <time>2017-09-17T09:05:28Z</time>
      </trkpt>
      <trkpt lat="49.22744" lon="1.1288">
        <ele>211</ele>
        <time>2017-09-17T09:05:32Z</time>
      </trkpt>
      <trkpt lat="49.22734" lon="1.12879">
        <ele>211</ele>
        <time>2017-09-17T09:05:36Z</time>
      </trkpt>
      <trkpt lat="49.22724" lon="1.1288">
        <ele>212</ele>
        <time>2017-09-17T09:05:40Z</time>
      </trkpt>
      <trkpt lat="49.22714" lon="1.12879">
        <ele>212</ele>
        <time>2017-09-17T09:05:44Z</time>
      </trkpt>
      <trkpt lat="49.22705" lon="1.12877">
        <ele>213</ele>
        <time>2017-09-17T09:05:48Z</time>
      </trkpt>
      <trkpt lat="49.22695" lon="1.12876">
        <ele>213</ele>
        <time>2017-09-17T09:05:52Z</time>
      </trkpt>
      <trkpt lat="49.22685" lon="1.12873">
        <ele>213</ele>
        <time>2017-09-17T09:05:56Z</time>
      </trkpt>
      <trkpt lat="49.22676" lon="1.1287">
        <ele>214</ele>
        <time>2017-09-17T09:06:00Z</time>
      </trkpt>
      <trkpt lat="49.22667" lon="1.12869">
        <ele>214</ele>
        <time>2017-09-17T09:06:04Z</time>
      </trkpt>
      <trkpt lat="49.22657" lon="1.12863">
        <ele>215</ele>
        <time>2017-09-17T09:06:08Z</time>
      </trkpt>
      <trkpt lat="49.22647" lon="1.12861">
        <ele>215</ele>
        <time>2017-09-17T09:06:12Z</time>
      </trkpt>
      <trkpt lat="49.22638" lon="1.12854">
        <ele>216</ele>
        <time>2017-09-17T09:06:16Z</time>
      </trkpt>
      <trkpt lat="49.22628" lon="1.12849">
        <ele>216</ele>
        <time>2017-09-17T09:06:20Z</time>
      </trkpt>
      <trkpt lat="49.22619" lon="1.12845">
        <ele>217</ele>
        <time>2017-09-17T09:06:24Z</time>
      </trkpt>
      <trkpt lat="49.22607" lon="1.12842">
        <ele>217</ele>
        <time>2017-09-17T09:06:28Z</time>
      </trkpt>
      <trkpt lat="49.22597" lon="1.1284">
        <ele>218</ele>
        <time>2017-09-17T09:06:32Z</time>
      </trkpt>
      <trkpt lat="49.22585" lon="1.12832">
        <ele>219</ele>
        <time>2017-09-17T09:06:36Z</time>
      </trkpt>
      <trkpt lat="49.22574" lon="1.12826">
        <ele>220</ele>
        <time>2017-09-17T09:06:40Z</time>
      </trkpt>
      <trkpt lat="49.22565" lon="1.12822">
        <ele>220</ele>
        <time>2017-09-17T09:06:44Z</time>
      </trkpt>
      <trkpt lat="49.22558" lon="1.1282">
        <ele>220</ele>
        <time>2017-09-17T09:06:48Z</time>
      </trkpt>
      <trkpt lat="49.22549" lon="1.12818">
        <ele>221</ele>
        <time>2017-09-17T09:06:52Z</time>
      </trkpt>
      <trkpt lat="49.22537" lon="1.1281">
        <ele>222</ele>
        <time>2017-09-17T09:06:56Z</time>
      </trkpt>
      <trkpt lat="49.22523" lon="1.12804">
        <ele>222</ele>
        <time>2017-09-17T09:07:00Z</time>
      </trkpt>
      <trkpt lat="49.22514" lon="1.12801">
        <ele>222</ele>
        <time>2017-09-17T09:07:04Z</time>
      </trkpt>
      <trkpt lat="49.22507" lon="1.12798">
        <ele>223</ele>
        <time>2017-09-17T09:07:08Z</time>
      </trkpt>
      <trkpt lat="49.22498" lon="1.12796">
        <ele>224</ele>
        <time>2017-09-17T09:07:12Z</time>
      </trkpt>
      <trkpt lat="49.22489" lon="1.12794">
        <ele>224</ele>
        <time>2017-09-17T09:07:16Z</time>
      </trkpt>
      <trkpt lat="49.22478" lon="1.1279">
        <ele>225</ele>
        <time>2017-09-17T09:07:20Z</time>
      </trkpt>
      <trkpt lat="49.2247" lon="1.12786">
        <ele>225</ele>
        <time>2017-09-17T09:07:24Z</time>
      </trkpt>
      <trkpt lat="49.22462" lon="1.12782">
        <ele>226</ele>
        <time>2017-09-17T09:07:28Z</time>
      </trkpt>
      <trkpt lat="49.22451" lon="1.12778">
        <ele>227</ele>
        <time>2017-09-17T09:07:32Z</time>
      </trkpt>
      <trkpt lat="49.22441" lon="1.12774">
        <ele>227</ele>
        <time>2017-09-17T09:07:36Z</time>
      </trkpt>
      <trkpt lat="49.22431" lon="1.1277">
        <ele>228</ele>
        <time>2017-09-17T09:07:40Z</time>
      </trkpt>
      <trkpt lat="49.22424" lon="1.12765">
        <ele>228</ele>
        <time>2017-09-17T09:07:44Z</time>
      </trkpt>
      <trkpt lat="49.2242" lon="1.1276">
        <ele>229</ele>
        <time>2017-09-17T09:07:48Z</time>
      </trkpt>
      <trkpt lat="49.22412" lon="1.1276">
        <ele>229</ele>
        <time>2017-09-17T09:07:52Z</time>
      </trkpt>
      <trkpt lat="49.22408" lon="1.1277">
        <ele>230</ele>
        <time>2017-09-17T09:07:56Z</time>
      </trkpt>
      <trkpt lat="49.22405" lon="1.12781">
        <ele>229</ele>
        <time>2017-09-17T09:08:00Z</time>
      </trkpt>
      <trkpt lat="49.224" lon="1.12795">
        <ele>229</ele>
        <time>2017-09-17T09:08:04Z</time>
      </trkpt>
      <trkpt lat="49.22399" lon="1.12802">
        <ele>229</ele>
        <time>2017-09-17T09:08:08Z</time>
      </trkpt>
      <trkpt lat="49.22396" lon="1.12816">
        <ele>229</ele>
        <time>2017-09-17T09:08:12Z</time>
      </trkpt>
      <trkpt lat="49.22392" lon="1.12833">
        <ele>229</ele>
        <time>2017-09-17T09:08:16Z</time>
      </trkpt>
      <trkpt lat="49.22391" lon="1.1285">
        <ele>228</ele>
        <time>2017-09-17T09:08:20Z</time>
      </trkpt>
      <trkpt lat="49.22391" lon="1.12863">
        <ele>229</ele>
        <time>2017-09-17T09:08:24Z</time>
      </trkpt>
      <trkpt lat="49.22388" lon="1.12879">
        <ele>228</ele>
        <time>2017-09-17T09:08:28Z</time>
      </trkpt>
      <trkpt lat="49.22388" lon="1.12894">
        <ele>228</ele>
        <time>2017-09-17T09:08:32Z</time>
      </trkpt>
      <trkpt lat="49.22384" lon="1.12912">
        <ele>227</ele>
        <time>2017-09-17T09:08:36Z</time>
      </trkpt>
      <trkpt lat="49.22381" lon="1.1293">
        <ele>226</ele>
        <time>2017-09-17T09:08:40Z</time>
      </trkpt>
      <trkpt lat="49.2238" lon="1.1295">
        <ele>227</ele>
        <time>2017-09-17T09:08:44Z</time>
      </trkpt>
      <trkpt lat="49.22386" lon="1.12959">
        <ele>227</ele>
        <time>2017-09-17T09:08:48Z</time>
      </trkpt>
      <trkpt lat="49.22392" lon="1.12968">
        <ele>227</ele>
        <time>2017-09-17T09:08:52Z</time>
      </trkpt>
      <trkpt lat="49.22404" lon="1.12973">
        <ele>227</ele>
        <time>2017-09-17T09:08:56Z</time>
      </trkpt>
      <trkpt lat="49.22416" lon="1.12985">
        <ele>226</ele>
        <time>2017-09-17T09:09:00Z</time>
      </trkpt>
      <trkpt lat="49.22424" lon="1.13009">
        <ele>226</ele>
        <time>2017-09-17T09:09:04Z</time>
      </trkpt>
      <trkpt lat="49.22431" lon="1.13027">
        <ele>224</ele>
        <time>2017-09-17T09:09:08Z</time>
      </trkpt>
      <trkpt lat="49.22435" lon="1.13053">
        <ele>225</ele>
        <time>2017-09-17T09:09:12Z</time>
      </trkpt>
      <trkpt lat="49.22444" lon="1.13087">
        <ele>224</ele>
        <time>2017-09-17T09:09:16Z</time>
      </trkpt>
      <trkpt lat="49.22447" lon="1.13113">
        <ele>224</ele>
        <time>2017-09-17T09:09:20Z</time>
      </trkpt>
      <trkpt lat="49.2245" lon="1.13142">
        <ele>223</ele>
        <time>2017-09-17T09:09:24Z</time>
      </trkpt>
      <trkpt lat="49.22452" lon="1.13164">
        <ele>223</ele>
        <time>2017-09-17T09:09:28Z</time>
      </trkpt>
      <trkpt lat="49.22461" lon="1.13199">
        <ele>222</ele>
        <time>2017-09-17T09:09:32Z</time>
      </trkpt>
      <trkpt lat="49.22464" lon="1.13223">
        <ele>222</ele>
        <time>2017-09-17T09:09:36Z</time>
      </trkpt>
      <trkpt lat="49.22466" lon="1.13244">
        <ele>221</ele>
        <time>2017-09-17T09:09:40Z</time>
      </trkpt>
      <trkpt lat="49.22468" lon="1.13267">
        <ele>221</ele>
        <time>2017-09-17T09:09:44Z</time>
      </trkpt>
      <trkpt lat="49.2247" lon="1.13291">
        <ele>221</ele>
        <time>2017-09-17T09:09:48Z</time>
      </trkpt>
      <trkpt lat="49.22474" lon="1.13315">
        <ele>221</ele>
        <time>2017-09-17T09:09:52Z</time>
      </trkpt>
      <trkpt lat="49.22475" lon="1.13337">
        <ele>221</ele>
        <time>2017-09-17T09:09:56Z</time>
      </trkpt>
      <trkpt lat="49.2248" lon="1.13363">
        <ele>221</ele>
        <time>2017-09-17T09:10:00Z</time>
      </trkpt>
      <trkpt lat="49.22481" lon="1.13389">
        <ele>221</ele>
        <time>2017-09-17T09:10:04Z</time>
      </trkpt>
      <trkpt lat="49.22484" lon="1.13409">
        <ele>221</ele>
        <time>2017-09-17T09:10:08Z</time>
      </trkpt>
      <trkpt lat="49.22482" lon="1.13425">
        <ele>220</ele>
        <time>2017-09-17T09:10:12Z</time>
      </trkpt>
      <trkpt lat="49.22482" lon="1.13446">
        <ele>220</ele>
        <time>2017-09-17T09:10:16Z</time>
      </trkpt>
      <trkpt lat="49.22484" lon="1.13476">
        <ele>220</ele>
        <time>2017-09-17T09:10:20Z</time>
      </trkpt>
      <trkpt lat="49.22485" lon="1.13501">
        <ele>219</ele>
        <time>2017-09-17T09:10:24Z</time>
      </trkpt>
      <trkpt lat="49.22486" lon="1.13521">
        <ele>219</ele>
        <time>2017-09-17T09:10:28Z</time>
      </trkpt>
      <trkpt lat="49.2249" lon="1.13547">
        <ele>218</ele>
        <time>2017-09-17T09:10:32Z</time>
      </trkpt>
      <trkpt lat="49.22495" lon="1.13576">
        <ele>217</ele>
        <time>2017-09-17T09:10:36Z</time>
      </trkpt>
      <trkpt lat="49.22499" lon="1.13599">
        <ele>217</ele>
        <time>2017-09-17T09:10:40Z</time>
      </trkpt>
      <trkpt lat="49.22503" lon="1.13621">
        <ele>215</ele>
        <time>2017-09-17T09:10:44Z</time>
      </trkpt>
      <trkpt lat="49.22505" lon="1.1365">
        <ele>215</ele>
        <time>2017-09-17T09:10:48Z</time>
      </trkpt>
      <trkpt lat="49.2251" lon="1.13684">
        <ele>214</ele>
        <time>2017-09-17T09:10:52Z</time>
      </trkpt>
      <trkpt lat="49.22513" lon="1.13709">
        <ele>213</ele>
        <time>2017-09-17T09:10:56Z</time>
      </trkpt>
      <trkpt lat="49.22515" lon="1.13736">
        <ele>211</ele>
        <time>2017-09-17T09:11:00Z</time>
      </trkpt>
      <trkpt lat="49.2252" lon="1.13773">
        <ele>210</ele>
        <time>2017-09-17T09:11:04Z</time>
      </trkpt>
      <trkpt lat="49.22527" lon="1.13805">
        <ele>208</ele>
        <time>2017-09-17T09:11:08Z</time>
      </trkpt>
      <trkpt lat="49.22532" lon="1.13833">
        <ele>207</ele>
        <time>2017-09-17T09:11:12Z</time>
      </trkpt>
      <trkpt lat="49.22537" lon="1.13863">
        <ele>206</ele>
        <time>2017-09-17T09:11:16Z</time>
      </trkpt>
      <trkpt lat="49.2254" lon="1.13897">
        <ele>204</ele>
        <time>2017-09-17T09:11:20Z</time>
      </trkpt>
      <trkpt lat="49.22551" lon="1.13928">
        <ele>202</ele>
        <time>2017-09-17T09:11:24Z</time>
      </trkpt>
      <trkpt lat="49.22558" lon="1.13959">
        <ele>200</ele>
        <time>2017-09-17T09:11:28Z</time>
      </trkpt>
      <trkpt lat="49.22573" lon="1.13976">
        <ele>198</ele>
        <time>2017-09-17T09:11:32Z</time>
      </trkpt>
      <trkpt lat="49.22594" lon="1.13996">
        <ele>197</ele>
        <time>2017-09-17T09:11:36Z</time>
      </trkpt>
      <trkpt lat="49.22611" lon="1.14011">
        <ele>194</ele>
        <time>2017-09-17T09:11:40Z</time>
      </trkpt>
      <trkpt lat="49.22628" lon="1.14025">
        <ele>192</ele>
        <time>2017-09-17T09:11:44Z</time>
      </trkpt>
      <trkpt lat="49.22645" lon="1.14039">
        <ele>190</ele>
        <time>2017-09-17T09:11:48Z</time>
      </trkpt>
      <trkpt lat="49.22657" lon="1.14047">
        <ele>188</ele>
        <time>2017-09-17T09:11:52Z</time>
      </trkpt>
      <trkpt lat="49.22666" lon="1.14062">
        <ele>188</ele>
        <time>2017-09-17T09:11:56Z</time>
      </trkpt>
      <trkpt lat="49.22679" lon="1.14071">
        <ele>187</ele>
        <time>2017-09-17T09:12:00Z</time>
      </trkpt>
      <trkpt lat="49.22689" lon="1.14078">
        <ele>185</ele>
        <time>2017-09-17T09:12:04Z</time>
      </trkpt>
      <trkpt lat="49.22706" lon="1.14091">
        <ele>183</ele>
        <time>2017-09-17T09:12:08Z</time>
      </trkpt>
      <trkpt lat="49.2272" lon="1.14101">
        <ele>181</ele>
        <time>2017-09-17T09:12:12Z</time>
      </trkpt>
      <trkpt lat="49.22729" lon="1.14106">
        <ele>179</ele>
        <time>2017-09-17T09:12:16Z</time>
      </trkpt>
      <trkpt lat="49.22736" lon="1.14109">
        <ele>178</ele>
        <time>2017-09-17T09:12:20Z</time>
      </trkpt>
      <trkpt lat="49.22743" lon="1.14115">
        <ele>176</ele>
        <time>2017-09-17T09:12:24Z</time>
      </trkpt>
      <trkpt lat="49.22751" lon="1.14122">
        <ele>174</ele>
        <time>2017-09-17T09:12:28Z</time>
      </trkpt>
      <trkpt lat="49.22762" lon="1.14133">
        <ele>174</ele>
        <time>2017-09-17T09:12:36Z</time>
      </trkpt>
      <trkpt lat="49.2277" lon="1.14135">
        <ele>173</ele>
        <time>2017-09-17T09:12:40Z</time>
      </trkpt>
      <trkpt lat="49.22776" lon="1.14141">
        <ele>171</ele>
        <time>2017-09-17T09:12:44Z</time>
      </trkpt>
      <trkpt lat="49.22781" lon="1.14142">
        <ele>169</ele>
        <time>2017-09-17T09:12:52Z</time>
      </trkpt>
      <trkpt lat="49.22785" lon="1.14146">
        <ele>168</ele>
        <time>2017-09-17T09:12:56Z</time>
      </trkpt>
      <trkpt lat="49.22788" lon="1.14147">
        <ele>167</ele>
        <time>2017-09-17T09:13:00Z</time>
      </trkpt>
      <trkpt lat="49.22796" lon="1.14149">
        <ele>166</ele>
        <time>2017-09-17T09:13:04Z</time>
      </trkpt>
      <trkpt lat="49.22807" lon="1.14159">
        <ele>163</ele>
        <time>2017-09-17T09:13:08Z</time>
      </trkpt>
      <trkpt lat="49.22811" lon="1.14167">
        <ele>163</ele>
        <time>2017-09-17T09:13:12Z</time>
      </trkpt>
      <trkpt lat="49.22823" lon="1.14171">
        <ele>163</ele>
        <time>2017-09-17T09:13:48Z</time>
      </trkpt>
      <trkpt lat="49.22828" lon="1.14182">
        <ele>161</ele>
        <time>2017-09-17T09:13:52Z</time>
      </trkpt>
      <trkpt lat="49.22835" lon="1.14205">
        <ele>160</ele>
        <time>2017-09-17T09:13:56Z</time>
      </trkpt>
      <trkpt lat="49.22842" lon="1.14229">
        <ele>157</ele>
        <time>2017-09-17T09:14:00Z</time>
      </trkpt>
      <trkpt lat="49.2285" lon="1.14234">
        <ele>157</ele>
        <time>2017-09-17T09:14:04Z</time>
      </trkpt>
      <trkpt lat="49.2286" lon="1.14232">
        <ele>157</ele>
        <time>2017-09-17T09:14:08Z</time>
      </trkpt>
      <trkpt lat="49.22869" lon="1.14231">
        <ele>157</ele>
        <time>2017-09-17T09:14:12Z</time>
      </trkpt>
      <trkpt lat="49.22875" lon="1.1423">
        <ele>158</ele>
        <time>2017-09-17T09:14:16Z</time>
      </trkpt>
      <trkpt lat="49.22883" lon="1.14226">
        <ele>158</ele>
        <time>2017-09-17T09:14:20Z</time>
      </trkpt>
      <trkpt lat="49.22892" lon="1.14215">
        <ele>159</ele>
        <time>2017-09-17T09:14:24Z</time>
      </trkpt>
      <trkpt lat="49.229" lon="1.14207">
        <ele>159</ele>
        <time>2017-09-17T09:14:28Z</time>
      </trkpt>
      <trkpt lat="49.2291" lon="1.14198">
        <ele>159</ele>
        <time>2017-09-17T09:14:32Z</time>
      </trkpt>
      <trkpt lat="49.22918" lon="1.14193">
        <ele>159</ele>
        <time>2017-09-17T09:14:36Z</time>
      </trkpt>
      <trkpt lat="49.22928" lon="1.14185">
        <ele>159</ele>
        <time>2017-09-17T09:14:40Z</time>
      </trkpt>
      <trkpt lat="49.2294" lon="1.14182">
        <ele>160</ele>
        <time>2017-09-17T09:14:44Z</time>
      </trkpt>
      <trkpt lat="49.22952" lon="1.14182">
        <ele>161</ele>
        <time>2017-09-17T09:14:48Z</time>
      </trkpt>
      <trkpt lat="49.22965" lon="1.14184">
        <ele>161</ele>
        <time>2017-09-17T09:14:52Z</time>
      </trkpt>
      <trkpt lat="49.22979" lon="1.14185">
        <ele>161</ele>
        <time>2017-09-17T09:14:56Z</time>
      </trkpt>
      <trkpt lat="49.22991" lon="1.14185">
        <ele>161</ele>
        <time>2017-09-17T09:15:00Z</time>
      </trkpt>
      <trkpt lat="49.23006" lon="1.14188">
        <ele>161</ele>
        <time>2017-09-17T09:15:04Z</time>
      </trkpt>
      <trkpt lat="49.23024" lon="1.14186">
        <ele>161</ele>
        <time>2017-09-17T09:15:08Z</time>
      </trkpt>
      <trkpt lat="49.2304" lon="1.14178">
        <ele>161</ele>
        <time>2017-09-17T09:15:12Z</time>
      </trkpt>
      <trkpt lat="49.2306" lon="1.14174">
        <ele>161</ele>
        <time>2017-09-17T09:15:16Z</time>
      </trkpt>
      <trkpt lat="49.23084" lon="1.1417">
        <ele>160</ele>
        <time>2017-09-17T09:15:20Z</time>
      </trkpt>
      <trkpt lat="49.23101" lon="1.14165">
        <ele>161</ele>
        <time>2017-09-17T09:15:24Z</time>
      </trkpt>
      <trkpt lat="49.23116" lon="1.14158">
        <ele>162</ele>
        <time>2017-09-17T09:15:28Z</time>
      </trkpt>
      <trkpt lat="49.23133" lon="1.14146">
        <ele>162</ele>
        <time>2017-09-17T09:15:32Z</time>
      </trkpt>
      <trkpt lat="49.23151" lon="1.1413">
        <ele>161</ele>
        <time>2017-09-17T09:15:36Z</time>
      </trkpt>
      <trkpt lat="49.2317" lon="1.14106">
        <ele>160</ele>
        <time>2017-09-17T09:15:40Z</time>
      </trkpt>
      <trkpt lat="49.23186" lon="1.14077">
        <ele>159</ele>
        <time>2017-09-17T09:15:44Z</time>
      </trkpt>
      <trkpt lat="49.23198" lon="1.14047">
        <ele>159</ele>
        <time>2017-09-17T09:15:48Z</time>
      </trkpt>
      <trkpt lat="49.23206" lon="1.14017">
        <ele>159</ele>
        <time>2017-09-17T09:15:52Z</time>
      </trkpt>
      <trkpt lat="49.2321" lon="1.13985">
        <ele>159</ele>
        <time>2017-09-17T09:15:56Z</time>
      </trkpt>
      <trkpt lat="49.23213" lon="1.13955">
        <ele>159</ele>
        <time>2017-09-17T09:16:00Z</time>
      </trkpt>
      <trkpt lat="49.23219" lon="1.13917">
        <ele>159</ele>
        <time>2017-09-17T09:16:04Z</time>
      </trkpt>
      <trkpt lat="49.23212" lon="1.13887">
        <ele>159</ele>
        <time>2017-09-17T09:16:08Z</time>
      </trkpt>
      <trkpt lat="49.2321" lon="1.13863">
        <ele>160</ele>
        <time>2017-09-17T09:16:12Z</time>
      </trkpt>
      <trkpt lat="49.23207" lon="1.13839">
        <ele>160</ele>
        <time>2017-09-17T09:16:16Z</time>
      </trkpt>
      <trkpt lat="49.23199" lon="1.13807">
        <ele>160</ele>
        <time>2017-09-17T09:16:20Z</time>
      </trkpt>
      <trkpt lat="49.23191" lon="1.13777">
        <ele>161</ele>
        <time>2017-09-17T09:16:24Z</time>
      </trkpt>
      <trkpt lat="49.23183" lon="1.13749">
        <ele>160</ele>
        <time>2017-09-17T09:16:28Z</time>
      </trkpt>
      <trkpt lat="49.23177" lon="1.13716">
        <ele>161</ele>
        <time>2017-09-17T09:16:32Z</time>
      </trkpt>
      <trkpt lat="49.2317" lon="1.13683">
        <ele>161</ele>
        <time>2017-09-17T09:16:36Z</time>
      </trkpt>
      <trkpt lat="49.23161" lon="1.13652">
        <ele>161</ele>
        <time>2017-09-17T09:16:40Z</time>
      </trkpt>
      <trkpt lat="49.23153" lon="1.13622">
        <ele>162</ele>
        <time>2017-09-17T09:16:44Z</time>
      </trkpt>
      <trkpt lat="49.23144" lon="1.13592">
        <ele>162</ele>
        <time>2017-09-17T09:16:48Z</time>
      </trkpt>
      <trkpt lat="49.23135" lon="1.13558">
        <ele>162</ele>
        <time>2017-09-17T09:16:52Z</time>
      </trkpt>
      <trkpt lat="49.23126" lon="1.1352">
        <ele>162</ele>
        <time>2017-09-17T09:16:56Z</time>
      </trkpt>
      <trkpt lat="49.23118" lon="1.13481">
        <ele>163</ele>
        <time>2017-09-17T09:17:00Z</time>
      </trkpt>
      <trkpt lat="49.23112" lon="1.13442">
        <ele>163</ele>
        <time>2017-09-17T09:17:04Z</time>
      </trkpt>
      <trkpt lat="49.23104" lon="1.13406">
        <ele>163</ele>
        <time>2017-09-17T09:17:08Z</time>
      </trkpt>
      <trkpt lat="49.23101" lon="1.13375">
        <ele>163</ele>
        <time>2017-09-17T09:17:12Z</time>
      </trkpt>
      <trkpt lat="49.23101" lon="1.13339">
        <ele>163</ele>
        <time>2017-09-17T09:17:16Z</time>
      </trkpt>
      <trkpt lat="49.23112" lon="1.1331">
        <ele>164</ele>
        <time>2017-09-17T09:17:20Z</time>
      </trkpt>
      <trkpt lat="49.2312" lon="1.13284">
        <ele>164</ele>
        <time>2017-09-17T09:17:24Z</time>
      </trkpt>
      <trkpt lat="49.23117" lon="1.13256">
        <ele>165</ele>
        <time>2017-09-17T09:17:28Z</time>
      </trkpt>
      <trkpt lat="49.23117" lon="1.13233">
        <ele>165</ele>
        <time>2017-09-17T09:17:32Z</time>
      </trkpt>
      <trkpt lat="49.23117" lon="1.13208">
        <ele>165</ele>
        <time>2017-09-17T09:17:36Z</time>
      </trkpt>
      <trkpt lat="49.23118" lon="1.13185">
        <ele>166</ele>
        <time>2017-09-17T09:17:40Z</time>
      </trkpt>
      <trkpt lat="49.23119" lon="1.13157">
        <ele>166</ele>
        <time>2017-09-17T09:17:44Z</time>
      </trkpt>
      <trkpt lat="49.2311" lon="1.13132">
        <ele>166</ele>
        <time>2017-09-17T09:17:48Z</time>
      </trkpt>
      <trkpt lat="49.23107" lon="1.13115">
        <ele>166</ele>
        <time>2017-09-17T09:17:56Z</time>
      </trkpt>
      <trkpt lat="49.23109" lon="1.13099">
        <ele>165</ele>
        <time>2017-09-17T09:18:00Z</time>
      </trkpt>
      <trkpt lat="49.23117" lon="1.13099">
        <ele>164</ele>
        <time>2017-09-17T09:18:04Z</time>
      </trkpt>
      <trkpt lat="49.23125" lon="1.13097">
        <ele>165</ele>
        <time>2017-09-17T09:18:08Z</time>
      </trkpt>
      <trkpt lat="49.23131" lon="1.13094">
        <ele>166</ele>
        <time>2017-09-17T09:18:12Z</time>
      </trkpt>
      <trkpt lat="49.2314" lon="1.13089">
        <ele>166</ele>
        <time>2017-09-17T09:18:16Z</time>
      </trkpt>
      <trkpt lat="49.23145" lon="1.13087">
        <ele>166</ele>
        <time>2017-09-17T09:18:20Z</time>
      </trkpt>
      <trkpt lat="49.23149" lon="1.13086">
        <ele>166</ele>
        <time>2017-09-17T09:18:24Z</time>
      </trkpt>
      <trkpt lat="49.23155" lon="1.13083">
        <ele>166</ele>
        <time>2017-09-17T09:18:28Z</time>
      </trkpt>
      <trkpt lat="49.23164" lon="1.13086">
        <ele>167</ele>
        <time>2017-09-17T09:18:32Z</time>
      </trkpt>
      <trkpt lat="49.23172" lon="1.13091">
        <ele>169</ele>
        <time>2017-09-17T09:18:36Z</time>
      </trkpt>
      <trkpt lat="49.23178" lon="1.13093">
        <ele>169</ele>
        <time>2017-09-17T09:18:44Z</time>
      </trkpt>
      <trkpt lat="49.2318" lon="1.13094">
        <ele>170</ele>
        <time>2017-09-17T09:18:48Z</time>
      </trkpt>
      <trkpt lat="49.23184" lon="1.13096">
        <ele>172</ele>
        <time>2017-09-17T09:18:56Z</time>
      </trkpt>
      <trkpt lat="49.23189" lon="1.13098">
        <ele>172</ele>
        <time>2017-09-17T09:19:00Z</time>
      </trkpt>
      <trkpt lat="49.23192" lon="1.131">
        <ele>174</ele>
        <time>2017-09-17T09:19:04Z</time>
      </trkpt>
      <trkpt lat="49.23196" lon="1.13101">
        <ele>174</ele>
        <time>2017-09-17T09:19:08Z</time>
      </trkpt>
      <trkpt lat="49.23201" lon="1.13101">
        <ele>175</ele>
        <time>2017-09-17T09:19:12Z</time>
      </trkpt>
      <trkpt lat="49.23205" lon="1.13103">
        <ele>175</ele>
        <time>2017-09-17T09:19:16Z</time>
      </trkpt>
      <trkpt lat="49.2321" lon="1.13105">
        <ele>175</ele>
        <time>2017-09-17T09:19:20Z</time>
      </trkpt>
      <trkpt lat="49.23219" lon="1.13112">
        <ele>174</ele>
        <time>2017-09-17T09:19:36Z</time>
      </trkpt>
      <trkpt lat="49.23225" lon="1.13115">
        <ele>172</ele>
        <time>2017-09-17T09:19:40Z</time>
      </trkpt>
      <trkpt lat="49.23229" lon="1.13117">
        <ele>170</ele>
        <time>2017-09-17T09:19:44Z</time>
      </trkpt>
      <trkpt lat="49.23238" lon="1.1312">
        <ele>169</ele>
        <time>2017-09-17T09:19:48Z</time>
      </trkpt>
      <trkpt lat="49.23244" lon="1.13124">
        <ele>169</ele>
        <time>2017-09-17T09:19:52Z</time>
      </trkpt>
      <trkpt lat="49.23248" lon="1.13122">
        <ele>170</ele>
        <time>2017-09-17T09:19:56Z</time>
      </trkpt>
      <trkpt lat="49.2325" lon="1.13122">
        <ele>170</ele>
        <time>2017-09-17T09:20:00Z</time>
      </trkpt>
      <trkpt lat="49.23252" lon="1.13123">
        <ele>171</ele>
        <time>2017-09-17T09:20:04Z</time>
      </trkpt>
      <trkpt lat="49.23255" lon="1.13121">
        <ele>172</ele>
        <time>2017-09-17T09:20:08Z</time>
      </trkpt>
      <trkpt lat="49.23258" lon="1.13123">
        <ele>173</ele>
        <time>2017-09-17T09:20:12Z</time>
      </trkpt>
      <trkpt lat="49.23261" lon="1.13125">
        <ele>174</ele>
        <time>2017-09-17T09:20:16Z</time>
      </trkpt>
      <trkpt lat="49.23264" lon="1.13129">
        <ele>175</ele>
        <time>2017-09-17T09:20:20Z</time>
      </trkpt>
      <trkpt lat="49.23268" lon="1.13132">
        <ele>175</ele>
        <time>2017-09-17T09:20:24Z</time>
      </trkpt>
      <trkpt lat="49.2327" lon="1.13134">
        <ele>176</ele>
        <time>2017-09-17T09:20:28Z</time>
      </trkpt>
      <trkpt lat="49.23273" lon="1.13136">
        <ele>177</ele>
        <time>2017-09-17T09:20:32Z</time>
      </trkpt>
      <trkpt lat="49.23277" lon="1.1314">
        <ele>178</ele>
        <time>2017-09-17T09:20:36Z</time>
      </trkpt>
      <trkpt lat="49.23281" lon="1.13142">
        <ele>178</ele>
        <time>2017-09-17T09:20:40Z</time>
      </trkpt>
      <trkpt lat="49.23285" lon="1.13145">
        <ele>179</ele>
        <time>2017-09-17T09:20:48Z</time>
      </trkpt>
      <trkpt lat="49.23289" lon="1.13147">
        <ele>180</ele>
        <time>2017-09-17T09:20:52Z</time>
      </trkpt>
      <trkpt lat="49.23295" lon="1.13147">
        <ele>181</ele>
        <time>2017-09-17T09:21:00Z</time>
      </trkpt>
      <trkpt lat="49.23298" lon="1.1315">
        <ele>183</ele>
        <time>2017-09-17T09:21:04Z</time>
      </trkpt>
      <trkpt lat="49.23301" lon="1.13153">
        <ele>183</ele>
        <time>2017-09-17T09:21:08Z</time>
      </trkpt>
      <trkpt lat="49.23303" lon="1.13155">
        <ele>184</ele>
        <time>2017-09-17T09:21:12Z</time>
      </trkpt>
      <trkpt lat="49.2331" lon="1.13158">
        <ele>186</ele>
        <time>2017-09-17T09:21:24Z</time>
      </trkpt>
      <trkpt lat="49.23314" lon="1.1316">
        <ele>187</ele>
        <time>2017-09-17T09:21:28Z</time>
      </trkpt>
      <trkpt lat="49.23317" lon="1.1316">
        <ele>186</ele>
        <time>2017-09-17T09:21:32Z</time>
      </trkpt>
      <trkpt lat="49.23321" lon="1.13162">
        <ele>187</ele>
        <time>2017-09-17T09:21:36Z</time>
      </trkpt>
      <trkpt lat="49.23324" lon="1.13164">
        <ele>189</ele>
        <time>2017-09-17T09:21:40Z</time>
      </trkpt>
      <trkpt lat="49.2333" lon="1.13165">
        <ele>190</ele>
        <time>2017-09-17T09:21:52Z</time>
      </trkpt>
      <trkpt lat="49.23333" lon="1.13167">
        <ele>191</ele>
        <time>2017-09-17T09:21:56Z</time>
      </trkpt>
      <trkpt lat="49.23336" lon="1.13168">
        <ele>192</ele>
        <time>2017-09-17T09:22:00Z</time>
      </trkpt>
      <trkpt lat="49.23339" lon="1.13167">
        <ele>192</ele>
        <time>2017-09-17T09:22:04Z</time>
      </trkpt>
      <trkpt lat="49.23347" lon="1.13162">
        <ele>193</ele>
        <time>2017-09-17T09:22:20Z</time>
      </trkpt>
      <trkpt lat="49.23347" lon="1.13159">
        <ele>193</ele>
        <time>2017-09-17T09:22:24Z</time>
      </trkpt>
      <trkpt lat="49.23349" lon="1.13152">
        <ele>193</ele>
        <time>2017-09-17T09:22:28Z</time>
      </trkpt>
      <trkpt lat="49.23352" lon="1.13146">
        <ele>193</ele>
        <time>2017-09-17T09:22:32Z</time>
      </trkpt>
      <trkpt lat="49.23354" lon="1.13137">
        <ele>194</ele>
        <time>2017-09-17T09:22:36Z</time>
      </trkpt>
      <trkpt lat="49.23355" lon="1.13131">
        <ele>195</ele>
        <time>2017-09-17T09:22:40Z</time>
      </trkpt>
      <trkpt lat="49.23354" lon="1.13123">
        <ele>195</ele>
        <time>2017-09-17T09:22:44Z</time>
      </trkpt>
      <trkpt lat="49.23355" lon="1.13115">
        <ele>196</ele>
        <time>2017-09-17T09:22:48Z</time>
      </trkpt>
      <trkpt lat="49.23357" lon="1.13106">
        <ele>197</ele>
        <time>2017-09-17T09:22:52Z</time>
      </trkpt>
      <trkpt lat="49.23358" lon="1.13097">
        <ele>197</ele>
        <time>2017-09-17T09:22:56Z</time>
      </trkpt>
      <trkpt lat="49.23362" lon="1.13083">
        <ele>197</ele>
        <time>2017-09-17T09:23:00Z</time>
      </trkpt>
      <trkpt lat="49.23365" lon="1.1307">
        <ele>197</ele>
        <time>2017-09-17T09:23:04Z</time>
      </trkpt>
      <trkpt lat="49.23371" lon="1.13053">
        <ele>197</ele>
        <time>2017-09-17T09:23:08Z</time>
      </trkpt>
      <trkpt lat="49.23378" lon="1.13038">
        <ele>197</ele>
        <time>2017-09-17T09:23:12Z</time>
      </trkpt>
      <trkpt lat="49.23381" lon="1.13023">
        <ele>197</ele>
        <time>2017-09-17T09:23:16Z</time>
      </trkpt>
      <trkpt lat="49.23384" lon="1.13">
        <ele>197</ele>
        <time>2017-09-17T09:23:20Z</time>
      </trkpt>
      <trkpt lat="49.2339" lon="1.1298">
        <ele>196</ele>
        <time>2017-09-17T09:23:24Z</time>
      </trkpt>
      <trkpt lat="49.2339" lon="1.12955">
        <ele>194</ele>
        <time>2017-09-17T09:23:28Z</time>
      </trkpt>
      <trkpt lat="49.23399" lon="1.12931">
        <ele>194</ele>
        <time>2017-09-17T09:23:32Z</time>
      </trkpt>
      <trkpt lat="49.23403" lon="1.12907">
        <ele>193</ele>
        <time>2017-09-17T09:23:36Z</time>
      </trkpt>
      <trkpt lat="49.23407" lon="1.12882">
        <ele>193</ele>
        <time>2017-09-17T09:23:40Z</time>
      </trkpt>
      <trkpt lat="49.23411" lon="1.12863">
        <ele>193</ele>
        <time>2017-09-17T09:23:44Z</time>
      </trkpt>
      <trkpt lat="49.23418" lon="1.12848">
        <ele>192</ele>
        <time>2017-09-17T09:23:48Z</time>
      </trkpt>
      <trkpt lat="49.23421" lon="1.12831">
        <ele>192</ele>
        <time>2017-09-17T09:23:52Z</time>
      </trkpt>
      <trkpt lat="49.2342" lon="1.12815">
        <ele>193</ele>
        <time>2017-09-17T09:23:56Z</time>
      </trkpt>
      <trkpt lat="49.23424" lon="1.12798">
        <ele>194</ele>
        <time>2017-09-17T09:24:00Z</time>
      </trkpt>
      <trkpt lat="49.23421" lon="1.12799">
        <ele>193</ele>
        <time>2017-09-17T09:24:04Z</time>
      </trkpt>
      <trkpt lat="49.23414" lon="1.12807">
        <ele>192</ele>
        <time>2017-09-17T09:24:08Z</time>
      </trkpt>
      <trkpt lat="49.23408" lon="1.1282">
        <ele>190</ele>
        <time>2017-09-17T09:24:12Z</time>
      </trkpt>
      <trkpt lat="49.234" lon="1.12834">
        <ele>188</ele>
        <time>2017-09-17T09:24:16Z</time>
      </trkpt>
      <trkpt lat="49.23391" lon="1.12848">
        <ele>186</ele>
        <time>2017-09-17T09:24:20Z</time>
      </trkpt>
      <trkpt lat="49.23379" lon="1.12863">
        <ele>185</ele>
        <time>2017-09-17T09:24:24Z</time>
      </trkpt>
      <trkpt lat="49.23369" lon="1.12875">
        <ele>183</ele>
        <time>2017-09-17T09:24:28Z</time>
      </trkpt>
      <trkpt lat="49.23359" lon="1.12886">
        <ele>181</ele>
        <time>2017-09-17T09:24:32Z</time>
      </trkpt>
      <trkpt lat="49.23344" lon="1.12891">
        <ele>181</ele>
        <time>2017-09-17T09:24:36Z</time>
      </trkpt>
      <trkpt lat="49.23332" lon="1.12895">
        <ele>178</ele>
        <time>2017-09-17T09:24:40Z</time>
      </trkpt>
      <trkpt lat="49.23319" lon="1.129">
        <ele>177</ele>
        <time>2017-09-17T09:24:44Z</time>
      </trkpt>
      <trkpt lat="49.23308" lon="1.12899">
        <ele>177</ele>
        <time>2017-09-17T09:24:48Z</time>
      </trkpt>
      <trkpt lat="49.23302" lon="1.12888">
        <ele>177</ele>
        <time>2017-09-17T09:24:52Z</time>
      </trkpt>
      <trkpt lat="49.233" lon="1.12874">
        <ele>177</ele>
        <time>2017-09-17T09:24:56Z</time>
      </trkpt>
      <trkpt lat="49.23295" lon="1.12859">
        <ele>178</ele>
        <time>2017-09-17T09:25:00Z</time>
      </trkpt>
      <trkpt lat="49.23289" lon="1.12842">
        <ele>178</ele>
        <time>2017-09-17T09:25:04Z</time>
      </trkpt>
      <trkpt lat="49.23282" lon="1.12829">
        <ele>179</ele>
        <time>2017-09-17T09:25:08Z</time>
      </trkpt>
      <trkpt lat="49.23283" lon="1.12811">
        <ele>179</ele>
        <time>2017-09-17T09:25:12Z</time>
      </trkpt>
      <trkpt lat="49.23283" lon="1.12793">
        <ele>179</ele>
        <time>2017-09-17T09:25:16Z</time>
      </trkpt>
      <trkpt lat="49.23286" lon="1.12777">
        <ele>180</ele>
        <time>2017-09-17T09:25:20Z</time>
      </trkpt>
      <trkpt lat="49.2329" lon="1.12763">
        <ele>180</ele>
        <time>2017-09-17T09:25:24Z</time>
      </trkpt>
      <trkpt lat="49.23295" lon="1.12744">
        <ele>181</ele>
        <time>2017-09-17T09:25:28Z</time>
      </trkpt>
      <trkpt lat="49.23299" lon="1.12726">
        <ele>181</ele>
        <time>2017-09-17T09:25:32Z</time>
      </trkpt>
      <trkpt lat="49.23301" lon="1.12707">
        <ele>182</ele>
        <time>2017-09-17T09:25:36Z</time>
      </trkpt>
      <trkpt lat="49.23302" lon="1.12691">
        <ele>182</ele>
        <time>2017-09-17T09:25:40Z</time>
      </trkpt>
      <trkpt lat="49.2331" lon="1.12671">
        <ele>183</ele>
        <time>2017-09-17T09:25:44Z</time>
      </trkpt>
      <trkpt lat="49.23314" lon="1.12648">
        <ele>183</ele>
        <time>2017-09-17T09:25:48Z</time>
      </trkpt>
      <trkpt lat="49.2332" lon="1.12626">
        <ele>184</ele>
        <time>2017-09-17T09:25:52Z</time>
      </trkpt>
      <trkpt lat="49.23327" lon="1.12601">
        <ele>184</ele>
        <time>2017-09-17T09:25:56Z</time>
      </trkpt>
      <trkpt lat="49.23337" lon="1.12576">
        <ele>185</ele>
        <time>2017-09-17T09:26:00Z</time>
      </trkpt>
      <trkpt lat="49.23346" lon="1.12555">
        <ele>185</ele>
        <time>2017-09-17T09:26:04Z</time>
      </trkpt>
      <trkpt lat="49.23356" lon="1.1253">
        <ele>185</ele>
        <time>2017-09-17T09:26:08Z</time>
      </trkpt>
      <trkpt lat="49.23358" lon="1.1251">
        <ele>186</ele>
        <time>2017-09-17T09:26:12Z</time>
      </trkpt>
      <trkpt lat="49.2335" lon="1.12495">
        <ele>186</ele>
        <time>2017-09-17T09:26:16Z</time>
      </trkpt>
      <trkpt lat="49.23341" lon="1.12491">
        <ele>185</ele>
        <time>2017-09-17T09:26:20Z</time>
      </trkpt>
      <trkpt lat="49.23336" lon="1.12488">
        <ele>186</ele>
        <time>2017-09-17T09:26:24Z</time>
      </trkpt>
      <trkpt lat="49.23334" lon="1.12482">
        <ele>187</ele>
        <time>2017-09-17T09:26:28Z</time>
      </trkpt>
      <trkpt lat="49.2333" lon="1.12479">
        <ele>189</ele>
        <time>2017-09-17T09:26:32Z</time>
      </trkpt>
      <trkpt lat="49.23325" lon="1.12481">
        <ele>190</ele>
        <time>2017-09-17T09:26:40Z</time>
      </trkpt>
      <trkpt lat="49.2332" lon="1.12478">
        <ele>190</ele>
        <time>2017-09-17T09:26:48Z</time>
      </trkpt>
      <trkpt lat="49.23316" lon="1.12475">
        <ele>191</ele>
        <time>2017-09-17T09:26:52Z</time>
      </trkpt>
      <trkpt lat="49.23313" lon="1.12474">
        <ele>192</ele>
        <time>2017-09-17T09:26:56Z</time>
      </trkpt>
      <trkpt lat="49.23306" lon="1.12471">
        <ele>194</ele>
        <time>2017-09-17T09:27:04Z</time>
      </trkpt>
      <trkpt lat="49.23302" lon="1.12468">
        <ele>194</ele>
        <time>2017-09-17T09:27:08Z</time>
      </trkpt>
      <trkpt lat="49.23296" lon="1.12466">
        <ele>196</ele>
        <time>2017-09-17T09:27:16Z</time>
      </trkpt>
      <trkpt lat="49.23293" lon="1.12466">
        <ele>198</ele>
        <time>2017-09-17T09:27:24Z</time>
      </trkpt>
      <trkpt lat="49.2329" lon="1.12466">
        <ele>199</ele>
        <time>2017-09-17T09:27:28Z</time>
      </trkpt>
      <trkpt lat="49.23286" lon="1.12464">
        <ele>200</ele>
        <time>2017-09-17T09:27:36Z</time>
      </trkpt>
      <trkpt lat="49.23281" lon="1.12463">
        <ele>202</ele>
        <time>2017-09-17T09:27:44Z</time>
      </trkpt>
      <trkpt lat="49.23278" lon="1.12463">
        <ele>203</ele>
        <time>2017-09-17T09:27:48Z</time>
      </trkpt>
      <trkpt lat="49.23273" lon="1.1246">
        <ele>203</ele>
        <time>2017-09-17T09:27:52Z</time>
      </trkpt>
      <trkpt lat="49.2327" lon="1.12457">
        <ele>204</ele>
        <time>2017-09-17T09:27:56Z</time>
      </trkpt>
      <trkpt lat="49.23266" lon="1.12457">
        <ele>204</ele>
        <time>2017-09-17T09:28:00Z</time>
      </trkpt>
      <trkpt lat="49.23264" lon="1.12456">
        <ele>205</ele>
        <time>2017-09-17T09:28:04Z</time>
      </trkpt>
      <trkpt lat="49.23261" lon="1.12456">
        <ele>206</ele>
        <time>2017-09-17T09:28:08Z</time>
      </trkpt>
      <trkpt lat="49.23257" lon="1.12454">
        <ele>208</ele>
        <time>2017-09-17T09:28:16Z</time>
      </trkpt>
      <trkpt lat="49.23254" lon="1.1245">
        <ele>209</ele>
        <time>2017-09-17T09:28:20Z</time>
      </trkpt>
      <trkpt lat="49.2325" lon="1.12444">
        <ele>209</ele>
        <time>2017-09-17T09:28:24Z</time>
      </trkpt>
      <trkpt lat="49.2325" lon="1.1244">
        <ele>209</ele>
        <time>2017-09-17T09:28:28Z</time>
      </trkpt>
      <trkpt lat="49.23251" lon="1.12433">
        <ele>209</ele>
        <time>2017-09-17T09:28:44Z</time>
      </trkpt>
      <trkpt lat="49.23249" lon="1.12429">
        <ele>209</ele>
        <time>2017-09-17T09:29:00Z</time>
      </trkpt>
      <trkpt lat="49.23249" lon="1.12423">
        <ele>209</ele>
        <time>2017-09-17T09:29:04Z</time>
      </trkpt>
      <trkpt lat="49.2325" lon="1.12418">
        <ele>210</ele>
        <time>2017-09-17T09:29:08Z</time>
      </trkpt>
      <trkpt lat="49.2325" lon="1.12411">
        <ele>210</ele>
        <time>2017-09-17T09:29:12Z</time>
      </trkpt>
      <trkpt lat="49.23251" lon="1.12404">
        <ele>210</ele>
        <time>2017-09-17T09:29:16Z</time>
      </trkpt>
      <trkpt lat="49.23252" lon="1.12395">
        <ele>210</ele>
        <time>2017-09-17T09:29:20Z</time>
      </trkpt>
      <trkpt lat="49.23252" lon="1.12387">
        <ele>211</ele>
        <time>2017-09-17T09:29:24Z</time>
      </trkpt>
      <trkpt lat="49.23254" lon="1.12378">
        <ele>211</ele>
        <time>2017-09-17T09:29:28Z</time>
      </trkpt>
      <trkpt lat="49.23255" lon="1.12365">
        <ele>211</ele>
        <time>2017-09-17T09:29:32Z</time>
      </trkpt>
      <trkpt lat="49.23257" lon="1.12355">
        <ele>211</ele>
        <time>2017-09-17T09:29:36Z</time>
      </trkpt>
      <trkpt lat="49.23257" lon="1.12345">
        <ele>211</ele>
        <time>2017-09-17T09:29:40Z</time>
      </trkpt>
      <trkpt lat="49.23259" lon="1.12331">
        <ele>211</ele>
        <time>2017-09-17T09:29:44Z</time>
      </trkpt>
      <trkpt lat="49.23261" lon="1.12317">
        <ele>211</ele>
        <time>2017-09-17T09:29:48Z</time>
      </trkpt>
      <trkpt lat="49.23263" lon="1.12303">
        <ele>211</ele>
        <time>2017-09-17T09:29:52Z</time>
      </trkpt>
      <trkpt lat="49.23265" lon="1.12288">
        <ele>212</ele>
        <time>2017-09-17T09:29:56Z</time>
      </trkpt>
      <trkpt lat="49.23266" lon="1.12277">
        <ele>212</ele>
        <time>2017-09-17T09:30:00Z</time>
      </trkpt>
      <trkpt lat="49.23268" lon="1.12263">
        <ele>212</ele>
        <time>2017-09-17T09:30:04Z</time>
      </trkpt>
      <trkpt lat="49.23271" lon="1.12251">
        <ele>212</ele>
        <time>2017-09-17T09:30:08Z</time>
      </trkpt>
      <trkpt lat="49.23275" lon="1.12236">
        <ele>212</ele>
        <time>2017-09-17T09:30:12Z</time>
      </trkpt>
      <trkpt lat="49.23276" lon="1.12221">
        <ele>212</ele>
        <time>2017-09-17T09:30:16Z</time>
      </trkpt>
      <trkpt lat="49.23277" lon="1.12208">
        <ele>212</ele>
        <time>2017-09-17T09:30:20Z</time>
      </trkpt>
      <trkpt lat="49.2328" lon="1.1219">
        <ele>213</ele>
        <time>2017-09-17T09:30:24Z</time>
      </trkpt>
      <trkpt lat="49.23281" lon="1.12171">
        <ele>213</ele>
        <time>2017-09-17T09:30:28Z</time>
      </trkpt>
      <trkpt lat="49.23287" lon="1.12156">
        <ele>213</ele>
        <time>2017-09-17T09:30:32Z</time>
      </trkpt>
      <trkpt lat="49.23291" lon="1.12141">
        <ele>213</ele>
        <time>2017-09-17T09:30:36Z</time>
      </trkpt>
      <trkpt lat="49.23293" lon="1.12128">
        <ele>213</ele>
        <time>2017-09-17T09:30:40Z</time>
      </trkpt>
      <trkpt lat="49.23293" lon="1.12115">
        <ele>213</ele>
        <time>2017-09-17T09:30:44Z</time>
      </trkpt>
      <trkpt lat="49.23295" lon="1.12104">
        <ele>213</ele>
        <time>2017-09-17T09:30:48Z</time>
      </trkpt>
      <trkpt lat="49.23299" lon="1.12087">
        <ele>213</ele>
        <time>2017-09-17T09:30:52Z</time>
      </trkpt>
      <trkpt lat="49.23301" lon="1.12067">
        <ele>213</ele>
        <time>2017-09-17T09:30:56Z</time>
      </trkpt>
      <trkpt lat="49.23303" lon="1.1205">
        <ele>213</ele>
        <time>2017-09-17T09:31:00Z</time>
      </trkpt>
      <trkpt lat="49.23306" lon="1.12034">
        <ele>214</ele>
        <time>2017-09-17T09:31:04Z</time>
      </trkpt>
      <trkpt lat="49.2331" lon="1.12015">
        <ele>214</ele>
        <time>2017-09-17T09:31:08Z</time>
      </trkpt>
      <trkpt lat="49.23313" lon="1.11998">
        <ele>214</ele>
        <time>2017-09-17T09:31:12Z</time>
      </trkpt>
      <trkpt lat="49.23315" lon="1.11986">
        <ele>214</ele>
        <time>2017-09-17T09:31:16Z</time>
      </trkpt>
      <trkpt lat="49.23318" lon="1.11972">
        <ele>214</ele>
        <time>2017-09-17T09:31:20Z</time>
      </trkpt>
      <trkpt lat="49.2332" lon="1.11959">
        <ele>215</ele>
        <time>2017-09-17T09:31:24Z</time>
      </trkpt>
      <trkpt lat="49.23321" lon="1.11945">
        <ele>215</ele>
        <time>2017-09-17T09:31:28Z</time>
      </trkpt>
      <trkpt lat="49.23322" lon="1.1193">
        <ele>215</ele>
        <time>2017-09-17T09:31:32Z</time>
      </trkpt>
      <trkpt lat="49.23326" lon="1.11914">
        <ele>215</ele>
        <time>2017-09-17T09:31:36Z</time>
      </trkpt>
      <trkpt lat="49.23328" lon="1.11894">
        <ele>215</ele>
        <time>2017-09-17T09:31:40Z</time>
      </trkpt>
      <trkpt lat="49.23329" lon="1.11878">
        <ele>214</ele>
        <time>2017-09-17T09:31:44Z</time>
      </trkpt>
      <trkpt lat="49.23333" lon="1.1186">
        <ele>214</ele>
        <time>2017-09-17T09:31:48Z</time>
      </trkpt>
      <trkpt lat="49.23339" lon="1.11832">
        <ele>213</ele>
        <time>2017-09-17T09:31:52Z</time>
      </trkpt>
      <trkpt lat="49.23343" lon="1.11807">
        <ele>211</ele>
        <time>2017-09-17T09:31:56Z</time>
      </trkpt>
      <trkpt lat="49.23347" lon="1.11781">
        <ele>209</ele>
        <time>2017-09-17T09:32:00Z</time>
      </trkpt>
      <trkpt lat="49.23351" lon="1.11754">
        <ele>207</ele>
        <time>2017-09-17T09:32:04Z</time>
      </trkpt>
      <trkpt lat="49.23358" lon="1.11734">
        <ele>206</ele>
        <time>2017-09-17T09:32:08Z</time>
      </trkpt>
      <trkpt lat="49.23363" lon="1.11715">
        <ele>206</ele>
        <time>2017-09-17T09:32:12Z</time>
      </trkpt>
      <trkpt lat="49.23368" lon="1.11717">
        <ele>207</ele>
        <time>2017-09-17T09:32:16Z</time>
      </trkpt>
      <trkpt lat="49.23369" lon="1.11719">
        <ele>207</ele>
        <time>2017-09-17T09:32:20Z</time>
      </trkpt>
      <trkpt lat="49.23376" lon="1.11731">
        <ele>206</ele>
        <time>2017-09-17T09:32:24Z</time>
      </trkpt>
      <trkpt lat="49.23383" lon="1.11746">
        <ele>206</ele>
        <time>2017-09-17T09:32:28Z</time>
      </trkpt>
      <trkpt lat="49.23399" lon="1.11759">
        <ele>205</ele>
        <time>2017-09-17T09:32:32Z</time>
      </trkpt>
      <trkpt lat="49.23409" lon="1.11754">
        <ele>206</ele>
        <time>2017-09-17T09:32:36Z</time>
      </trkpt>
      <trkpt lat="49.23414" lon="1.11752">
        <ele>207</ele>
        <time>2017-09-17T09:32:40Z</time>
      </trkpt>
      <trkpt lat="49.2342" lon="1.1175">
        <ele>208</ele>
        <time>2017-09-17T09:32:44Z</time>
      </trkpt>
      <trkpt lat="49.23426" lon="1.11749">
        <ele>210</ele>
        <time>2017-09-17T09:32:48Z</time>
      </trkpt>
      <trkpt lat="49.23432" lon="1.11748">
        <ele>210</ele>
        <time>2017-09-17T09:32:52Z</time>
      </trkpt>
      <trkpt lat="49.23439" lon="1.11747">
        <ele>212</ele>
        <time>2017-09-17T09:32:56Z</time>
      </trkpt>
      <trkpt lat="49.23445" lon="1.11747">
        <ele>213</ele>
        <time>2017-09-17T09:33:00Z</time>
      </trkpt>
      <trkpt lat="49.23452" lon="1.11745">
        <ele>214</ele>
        <time>2017-09-17T09:33:04Z</time>
      </trkpt>
      <trkpt lat="49.2346" lon="1.11745">
        <ele>214</ele>
        <time>2017-09-17T09:33:08Z</time>
      </trkpt>
      <trkpt lat="49.23468" lon="1.11751">
        <ele>215</ele>
        <time>2017-09-17T09:33:12Z</time>
      </trkpt>
      <trkpt lat="49.23472" lon="1.11754">
        <ele>215</ele>
        <time>2017-09-17T09:33:16Z</time>
      </trkpt>
      <trkpt lat="49.23474" lon="1.1176">
        <ele>216</ele>
        <time>2017-09-17T09:33:20Z</time>
      </trkpt>
      <trkpt lat="49.23476" lon="1.11765">
        <ele>217</ele>
        <time>2017-09-17T09:33:24Z</time>
      </trkpt>
      <trkpt lat="49.2348" lon="1.11772">
        <ele>217</ele>
        <time>2017-09-17T09:33:28Z</time>
      </trkpt>
      <trkpt lat="49.23483" lon="1.11777">
        <ele>218</ele>
        <time>2017-09-17T09:33:32Z</time>
      </trkpt>
      <trkpt lat="49.23487" lon="1.11785">
        <ele>218</ele>
        <time>2017-09-17T09:33:36Z</time>
      </trkpt>
      <trkpt lat="49.23492" lon="1.11797">
        <ele>218</ele>
        <time>2017-09-17T09:33:40Z</time>
      </trkpt>
      <trkpt lat="49.23495" lon="1.11809">
        <ele>219</ele>
        <time>2017-09-17T09:33:44Z</time>
      </trkpt>
      <trkpt lat="49.235" lon="1.11821">
        <ele>219</ele>
        <time>2017-09-17T09:33:48Z</time>
      </trkpt>
      <trkpt lat="49.23506" lon="1.11835">
        <ele>220</ele>
        <time>2017-09-17T09:33:52Z</time>
      </trkpt>
      <trkpt lat="49.2351" lon="1.11849">
        <ele>220</ele>
        <time>2017-09-17T09:33:56Z</time>
      </trkpt>
      <trkpt lat="49.23513" lon="1.11862">
        <ele>220</ele>
        <time>2017-09-17T09:34:00Z</time>
      </trkpt>
      <trkpt lat="49.23514" lon="1.11878">
        <ele>221</ele>
        <time>2017-09-17T09:34:04Z</time>
      </trkpt>
      <trkpt lat="49.23514" lon="1.11895">
        <ele>221</ele>
        <time>2017-09-17T09:34:08Z</time>
      </trkpt>
      <trkpt lat="49.23518" lon="1.11917">
        <ele>221</ele>
        <time>2017-09-17T09:34:12Z</time>
      </trkpt>
      <trkpt lat="49.23525" lon="1.11935">
        <ele>222</ele>
        <time>2017-09-17T09:34:16Z</time>
      </trkpt>
      <trkpt lat="49.23531" lon="1.11949">
        <ele>222</ele>
        <time>2017-09-17T09:34:20Z</time>
      </trkpt>
      <trkpt lat="49.23539" lon="1.11959">
        <ele>222</ele>
        <time>2017-09-17T09:34:24Z</time>
      </trkpt>
      <trkpt lat="49.23543" lon="1.11969">
        <ele>223</ele>
        <time>2017-09-17T09:34:28Z</time>
      </trkpt>
      <trkpt lat="49.23551" lon="1.11977">
        <ele>223</ele>
        <time>2017-09-17T09:34:32Z</time>
      </trkpt>
      <trkpt lat="49.23559" lon="1.11984">
        <ele>223</ele>
        <time>2017-09-17T09:34:36Z</time>
      </trkpt>
      <trkpt lat="49.23569" lon="1.11993">
        <ele>224</ele>
        <time>2017-09-17T09:34:40Z</time>
      </trkpt>
      <trkpt lat="49.23579" lon="1.12001">
        <ele>224</ele>
        <time>2017-09-17T09:34:44Z</time>
      </trkpt>
      <trkpt lat="49.23589" lon="1.12015">
        <ele>224</ele>
        <time>2017-09-17T09:34:48Z</time>
      </trkpt>
      <trkpt lat="49.23594" lon="1.12026">
        <ele>224</ele>
        <time>2017-09-17T09:34:52Z</time>
      </trkpt>
      <trkpt lat="49.23594" lon="1.12037">
        <ele>224</ele>
        <time>2017-09-17T09:34:56Z</time>
      </trkpt>
      <trkpt lat="49.23596" lon="1.12047">
        <ele>224</ele>
        <time>2017-09-17T09:35:04Z</time>
      </trkpt>
      <trkpt lat="49.23599" lon="1.12057">
        <ele>224</ele>
        <time>2017-09-17T09:35:08Z</time>
      </trkpt>
      <trkpt lat="49.23603" lon="1.12069">
        <ele>224</ele>
        <time>2017-09-17T09:35:20Z</time>
      </trkpt>
      <trkpt lat="49.23603" lon="1.12076">
        <ele>224</ele>
        <time>2017-09-17T09:35:24Z</time>
      </trkpt>
      <trkpt lat="49.23601" lon="1.12089">
        <ele>223</ele>
        <time>2017-09-17T09:35:28Z</time>
      </trkpt>
      <trkpt lat="49.23598" lon="1.12102">
        <ele>223</ele>
        <time>2017-09-17T09:35:32Z</time>
      </trkpt>
      <trkpt lat="49.23597" lon="1.12117">
        <ele>223</ele>
        <time>2017-09-17T09:35:36Z</time>
      </trkpt>
      <trkpt lat="49.23593" lon="1.12134">
        <ele>222</ele>
        <time>2017-09-17T09:35:40Z</time>
      </trkpt>
      <trkpt lat="49.23589" lon="1.1215">
        <ele>223</ele>
        <time>2017-09-17T09:35:44Z</time>
      </trkpt>
      <trkpt lat="49.23584" lon="1.12168">
        <ele>222</ele>
        <time>2017-09-17T09:35:48Z</time>
      </trkpt>
      <trkpt lat="49.2358" lon="1.12185">
        <ele>222</ele>
        <time>2017-09-17T09:35:52Z</time>
      </trkpt>
      <trkpt lat="49.23576" lon="1.12204">
        <ele>222</ele>
        <time>2017-09-17T09:35:56Z</time>
      </trkpt>
      <trkpt lat="49.23572" lon="1.12225">
        <ele>222</ele>
        <time>2017-09-17T09:36:00Z</time>
      </trkpt>
      <trkpt lat="49.23566" lon="1.12244">
        <ele>222</ele>
        <time>2017-09-17T09:36:04Z</time>
      </trkpt>
      <trkpt lat="49.23563" lon="1.12263">
        <ele>222</ele>
        <time>2017-09-17T09:36:08Z</time>
      </trkpt>
      <trkpt lat="49.23558" lon="1.1228">
        <ele>221</ele>
        <time>2017-09-17T09:36:12Z</time>
      </trkpt>
      <trkpt lat="49.23554" lon="1.12299">
        <ele>221</ele>
        <time>2017-09-17T09:36:16Z</time>
      </trkpt>
      <trkpt lat="49.2355" lon="1.12318">
        <ele>221</ele>
        <time>2017-09-17T09:36:20Z</time>
      </trkpt>
      <trkpt lat="49.23545" lon="1.12337">
        <ele>221</ele>
        <time>2017-09-17T09:36:24Z</time>
      </trkpt>
      <trkpt lat="49.23539" lon="1.12359">
        <ele>221</ele>
        <time>2017-09-17T09:36:28Z</time>
      </trkpt>
      <trkpt lat="49.23536" lon="1.12378">
        <ele>220</ele>
        <time>2017-09-17T09:36:32Z</time>
      </trkpt>
      <trkpt lat="49.23531" lon="1.124">
        <ele>220</ele>
        <time>2017-09-17T09:36:36Z</time>
      </trkpt>
      <trkpt lat="49.23527" lon="1.12424">
        <ele>219</ele>
        <time>2017-09-17T09:36:40Z</time>
      </trkpt>
      <trkpt lat="49.23521" lon="1.12447">
        <ele>218</ele>
        <time>2017-09-17T09:36:44Z</time>
      </trkpt>
      <trkpt lat="49.23516" lon="1.12465">
        <ele>217</ele>
        <time>2017-09-17T09:36:48Z</time>
      </trkpt>
      <trkpt lat="49.23512" lon="1.12479">
        <ele>218</ele>
        <time>2017-09-17T09:36:52Z</time>
      </trkpt>
      <trkpt lat="49.23519" lon="1.12485">
        <ele>218</ele>
        <time>2017-09-17T09:36:56Z</time>
      </trkpt>
      <trkpt lat="49.23526" lon="1.12489">
        <ele>219</ele>
        <time>2017-09-17T09:37:00Z</time>
      </trkpt>
      <trkpt lat="49.23529" lon="1.1249">
        <ele>219</ele>
        <time>2017-09-17T09:37:04Z</time>
      </trkpt>
      <trkpt lat="49.23535" lon="1.12491">
        <ele>220</ele>
        <time>2017-09-17T09:37:08Z</time>
      </trkpt>
      <trkpt lat="49.23544" lon="1.12491">
        <ele>220</ele>
        <time>2017-09-17T09:37:12Z</time>
      </trkpt>
      <trkpt lat="49.23555" lon="1.12491">
        <ele>220</ele>
        <time>2017-09-17T09:37:16Z</time>
      </trkpt>
      <trkpt lat="49.23566" lon="1.12488">
        <ele>221</ele>
        <time>2017-09-17T09:37:20Z</time>
      </trkpt>
      <trkpt lat="49.23575" lon="1.1248">
        <ele>221</ele>
        <time>2017-09-17T09:37:24Z</time>
      </trkpt>
      <trkpt lat="49.23585" lon="1.12471">
        <ele>221</ele>
        <time>2017-09-17T09:37:28Z</time>
      </trkpt>
      <trkpt lat="49.23593" lon="1.12463">
        <ele>221</ele>
        <time>2017-09-17T09:37:32Z</time>
      </trkpt>
      <trkpt lat="49.23602" lon="1.12456">
        <ele>221</ele>
        <time>2017-09-17T09:37:36Z</time>
      </trkpt>
      <trkpt lat="49.2361" lon="1.12449">
        <ele>221</ele>
        <time>2017-09-17T09:37:40Z</time>
      </trkpt>
      <trkpt lat="49.2362" lon="1.12443">
        <ele>222</ele>
        <time>2017-09-17T09:37:44Z</time>
      </trkpt>
      <trkpt lat="49.23629" lon="1.12438">
        <ele>222</ele>
        <time>2017-09-17T09:37:48Z</time>
      </trkpt>
      <trkpt lat="49.23639" lon="1.12433">
        <ele>222</ele>
        <time>2017-09-17T09:37:52Z</time>
      </trkpt>
      <trkpt lat="49.23648" lon="1.12427">
        <ele>221</ele>
        <time>2017-09-17T09:37:56Z</time>
      </trkpt>
      <trkpt lat="49.23657" lon="1.12419">
        <ele>222</ele>
        <time>2017-09-17T09:38:00Z</time>
      </trkpt>
      <trkpt lat="49.23666" lon="1.12413">
        <ele>222</ele>
        <time>2017-09-17T09:38:04Z</time>
      </trkpt>
      <trkpt lat="49.23673" lon="1.12411">
        <ele>223</ele>
        <time>2017-09-17T09:38:08Z</time>
      </trkpt>
      <trkpt lat="49.23679" lon="1.12421">
        <ele>223</ele>
        <time>2017-09-17T09:38:12Z</time>
      </trkpt>
      <trkpt lat="49.23684" lon="1.12435">
        <ele>223</ele>
        <time>2017-09-17T09:38:16Z</time>
      </trkpt>
      <trkpt lat="49.23688" lon="1.12452">
        <ele>223</ele>
        <time>2017-09-17T09:38:20Z</time>
      </trkpt>
      <trkpt lat="49.23687" lon="1.12472">
        <ele>223</ele>
        <time>2017-09-17T09:38:24Z</time>
      </trkpt>
      <trkpt lat="49.23688" lon="1.125">
        <ele>223</ele>
        <time>2017-09-17T09:38:28Z</time>
      </trkpt>
      <trkpt lat="49.23692" lon="1.12527">
        <ele>223</ele>
        <time>2017-09-17T09:38:32Z</time>
      </trkpt>
      <trkpt lat="49.23698" lon="1.12553">
        <ele>223</ele>
        <time>2017-09-17T09:38:36Z</time>
      </trkpt>
      <trkpt lat="49.23701" lon="1.12581">
        <ele>224</ele>
        <time>2017-09-17T09:38:40Z</time>
      </trkpt>
      <trkpt lat="49.23703" lon="1.12609">
        <ele>223</ele>
        <time>2017-09-17T09:38:44Z</time>
      </trkpt>
      <trkpt lat="49.23706" lon="1.12639">
        <ele>223</ele>
        <time>2017-09-17T09:38:48Z</time>
      </trkpt>
      <trkpt lat="49.23707" lon="1.12665">
        <ele>223</ele>
        <time>2017-09-17T09:38:52Z</time>
      </trkpt>
      <trkpt lat="49.2371" lon="1.12688">
        <ele>223</ele>
        <time>2017-09-17T09:38:56Z</time>
      </trkpt>
      <trkpt lat="49.23717" lon="1.12717">
        <ele>223</ele>
        <time>2017-09-17T09:39:00Z</time>
      </trkpt>
      <trkpt lat="49.23722" lon="1.12747">
        <ele>224</ele>
        <time>2017-09-17T09:39:04Z</time>
      </trkpt>
      <trkpt lat="49.23725" lon="1.12775">
        <ele>224</ele>
        <time>2017-09-17T09:39:08Z</time>
      </trkpt>
      <trkpt lat="49.23727" lon="1.12802">
        <ele>225</ele>
        <time>2017-09-17T09:39:12Z</time>
      </trkpt>
      <trkpt lat="49.23729" lon="1.1283">
        <ele>225</ele>
        <time>2017-09-17T09:39:16Z</time>
      </trkpt>
      <trkpt lat="49.23731" lon="1.12858">
        <ele>225</ele>
        <time>2017-09-17T09:39:20Z</time>
      </trkpt>
      <trkpt lat="49.23732" lon="1.12885">
        <ele>225</ele>
        <time>2017-09-17T09:39:24Z</time>
      </trkpt>
      <trkpt lat="49.23733" lon="1.12914">
        <ele>225</ele>
        <time>2017-09-17T09:39:28Z</time>
      </trkpt>
      <trkpt lat="49.23732" lon="1.1294">
        <ele>226</ele>
        <time>2017-09-17T09:39:32Z</time>
      </trkpt>
      <trkpt lat="49.23732" lon="1.12971">
        <ele>225</ele>
        <time>2017-09-17T09:39:36Z</time>
      </trkpt>
      <trkpt lat="49.23731" lon="1.12997">
        <ele>226</ele>
        <time>2017-09-17T09:39:40Z</time>
      </trkpt>
      <trkpt lat="49.23728" lon="1.13023">
        <ele>225</ele>
        <time>2017-09-17T09:39:44Z</time>
      </trkpt>
      <trkpt lat="49.2373" lon="1.13043">
        <ele>225</ele>
        <time>2017-09-17T09:39:48Z</time>
      </trkpt>
      <trkpt lat="49.23741" lon="1.1305">
        <ele>226</ele>
        <time>2017-09-17T09:39:52Z</time>
      </trkpt>
      <trkpt lat="49.23754" lon="1.1306">
        <ele>226</ele>
        <time>2017-09-17T09:39:56Z</time>
      </trkpt>
      <trkpt lat="49.23766" lon="1.13065">
        <ele>226</ele>
        <time>2017-09-17T09:40:00Z</time>
      </trkpt>
      <trkpt lat="49.2378" lon="1.13071">
        <ele>227</ele>
        <time>2017-09-17T09:40:04Z</time>
      </trkpt>
      <trkpt lat="49.23792" lon="1.13077">
        <ele>226</ele>
        <time>2017-09-17T09:40:08Z</time>
      </trkpt>
      <trkpt lat="49.23803" lon="1.13082">
        <ele>226</ele>
        <time>2017-09-17T09:40:12Z</time>
      </trkpt>
      <trkpt lat="49.23815" lon="1.13088">
        <ele>226</ele>
        <time>2017-09-17T09:40:16Z</time>
      </trkpt>
      <trkpt lat="49.23827" lon="1.13094">
        <ele>226</ele>
        <time>2017-09-17T09:40:20Z</time>
      </trkpt>
      <trkpt lat="49.23844" lon="1.13104">
        <ele>227</ele>
        <time>2017-09-17T09:40:24Z</time>
      </trkpt>
      <trkpt lat="49.23857" lon="1.13109">
        <ele>226</ele>
        <time>2017-09-17T09:40:28Z</time>
      </trkpt>
      <trkpt lat="49.23865" lon="1.13114">
        <ele>226</ele>
        <time>2017-09-17T09:40:32Z</time>
      </trkpt>
      <trkpt lat="49.23872" lon="1.13116">
        <ele>227</ele>
        <time>2017-09-17T09:40:36Z</time>
      </trkpt>
      <trkpt lat="49.23883" lon="1.13119">
        <ele>226</ele>
        <time>2017-09-17T09:40:40Z</time>
      </trkpt>
      <trkpt lat="49.23895" lon="1.13125">
        <ele>227</ele>
        <time>2017-09-17T09:40:44Z</time>
      </trkpt>
      <trkpt lat="49.23909" lon="1.13134">
        <ele>227</ele>
        <time>2017-09-17T09:40:48Z</time>
      </trkpt>
      <trkpt lat="49.2392" lon="1.13138">
        <ele>227</ele>
        <time>2017-09-17T09:40:52Z</time>
      </trkpt>
      <trkpt lat="49.2393" lon="1.13145">
        <ele>227</ele>
        <time>2017-09-17T09:40:56Z</time>
      </trkpt>
      <trkpt lat="49.23938" lon="1.13147">
        <ele>227</ele>
        <time>2017-09-17T09:41:00Z</time>
      </trkpt>
      <trkpt lat="49.23947" lon="1.13149">
        <ele>227</ele>
        <time>2017-09-17T09:41:04Z</time>
      </trkpt>
      <trkpt lat="49.23959" lon="1.13154">
        <ele>227</ele>
        <time>2017-09-17T09:41:08Z</time>
      </trkpt>
      <trkpt lat="49.23966" lon="1.13159">
        <ele>227</ele>
        <time>2017-09-17T09:41:12Z</time>
      </trkpt>
      <trkpt lat="49.23975" lon="1.13162">
        <ele>227</ele>
        <time>2017-09-17T09:41:16Z</time>
      </trkpt>
      <trkpt lat="49.23988" lon="1.13169">
        <ele>227</ele>
        <time>2017-09-17T09:41:20Z</time>
      </trkpt>
      <trkpt lat="49.24002" lon="1.13176">
        <ele>227</ele>
        <time>2017-09-17T09:41:24Z</time>
      </trkpt>
      <trkpt lat="49.24018" lon="1.13189">
        <ele>227</ele>
        <time>2017-09-17T09:41:28Z</time>
      </trkpt>
      <trkpt lat="49.24032" lon="1.13193">
        <ele>226</ele>
        <time>2017-09-17T09:41:32Z</time>
      </trkpt>
      <trkpt lat="49.24045" lon="1.13197">
        <ele>226</ele>
        <time>2017-09-17T09:41:36Z</time>
      </trkpt>
      <trkpt lat="49.24058" lon="1.13201">
        <ele>226</ele>
        <time>2017-09-17T09:41:40Z</time>
      </trkpt>
      <trkpt lat="49.24073" lon="1.13202">
        <ele>225</ele>
        <time>2017-09-17T09:41:44Z</time>
      </trkpt>
      <trkpt lat="49.24086" lon="1.13208">
        <ele>225</ele>
        <time>2017-09-17T09:41:48Z</time>
      </trkpt>
      <trkpt lat="49.24102" lon="1.13217">
        <ele>224</ele>
        <time>2017-09-17T09:41:52Z</time>
      </trkpt>
      <trkpt lat="49.24116" lon="1.13224">
        <ele>223</ele>
        <time>2017-09-17T09:41:56Z</time>
      </trkpt>
      <trkpt lat="49.24131" lon="1.13234">
        <ele>222</ele>
        <time>2017-09-17T09:42:00Z</time>
      </trkpt>
      <trkpt lat="49.24146" lon="1.13239">
        <ele>222</ele>
        <time>2017-09-17T09:42:04Z</time>
      </trkpt>
      <trkpt lat="49.2416" lon="1.13249">
        <ele>221</ele>
        <time>2017-09-17T09:42:08Z</time>
      </trkpt>
      <trkpt lat="49.24177" lon="1.1326">
        <ele>221</ele>
        <time>2017-09-17T09:42:12Z</time>
      </trkpt>
      <trkpt lat="49.24194" lon="1.13265">
        <ele>220</ele>
        <time>2017-09-17T09:42:16Z</time>
      </trkpt>
      <trkpt lat="49.24209" lon="1.13274">
        <ele>220</ele>
        <time>2017-09-17T09:42:20Z</time>
      </trkpt>
      <trkpt lat="49.24224" lon="1.1328">
        <ele>220</ele>
        <time>2017-09-17T09:42:24Z</time>
      </trkpt>
      <trkpt lat="49.2424" lon="1.13286">
        <ele>220</ele>
        <time>2017-09-17T09:42:28Z</time>
      </trkpt>
      <trkpt lat="49.2426" lon="1.13291">
        <ele>219</ele>
        <time>2017-09-17T09:42:32Z</time>
      </trkpt>
      <trkpt lat="49.24273" lon="1.13301">
        <ele>219</ele>
        <time>2017-09-17T09:42:36Z</time>
      </trkpt>
      <trkpt lat="49.24281" lon="1.13304">
        <ele>219</ele>
        <time>2017-09-17T09:42:40Z</time>
      </trkpt>
      <trkpt lat="49.24292" lon="1.13311">
        <ele>218</ele>
        <time>2017-09-17T09:42:44Z</time>
      </trkpt>
      <trkpt lat="49.24301" lon="1.1332">
        <ele>218</ele>
        <time>2017-09-17T09:42:48Z</time>
      </trkpt>
      <trkpt lat="49.24305" lon="1.13335">
        <ele>217</ele>
        <time>2017-09-17T09:42:52Z</time>
      </trkpt>
      <trkpt lat="49.24309" lon="1.13351">
        <ele>218</ele>
        <time>2017-09-17T09:42:56Z</time>
      </trkpt>
      <trkpt lat="49.24314" lon="1.1337">
        <ele>216</ele>
        <time>2017-09-17T09:43:00Z</time>
      </trkpt>
      <trkpt lat="49.24322" lon="1.13397">
        <ele>216</ele>
        <time>2017-09-17T09:43:04Z</time>
      </trkpt>
      <trkpt lat="49.24327" lon="1.13423">
        <ele>216</ele>
        <time>2017-09-17T09:43:08Z</time>
      </trkpt>
      <trkpt lat="49.2433" lon="1.13447">
        <ele>216</ele>
        <time>2017-09-17T09:43:12Z</time>
      </trkpt>
      <trkpt lat="49.24335" lon="1.1347">
        <ele>216</ele>
        <time>2017-09-17T09:43:16Z</time>
      </trkpt>
      <trkpt lat="49.24339" lon="1.13487">
        <ele>216</ele>
        <time>2017-09-17T09:43:20Z</time>
      </trkpt>
      <trkpt lat="49.24343" lon="1.13504">
        <ele>216</ele>
        <time>2017-09-17T09:43:24Z</time>
      </trkpt>
      <trkpt lat="49.24345" lon="1.1352">
        <ele>216</ele>
        <time>2017-09-17T09:43:28Z</time>
      </trkpt>
      <trkpt lat="49.24351" lon="1.13539">
        <ele>216</ele>
        <time>2017-09-17T09:43:32Z</time>
      </trkpt>
      <trkpt lat="49.24354" lon="1.13556">
        <ele>216</ele>
        <time>2017-09-17T09:43:36Z</time>
      </trkpt>
      <trkpt lat="49.24358" lon="1.13573">
        <ele>215</ele>
        <time>2017-09-17T09:43:40Z</time>
      </trkpt>
      <trkpt lat="49.24366" lon="1.13585">
        <ele>215</ele>
        <time>2017-09-17T09:43:44Z</time>
      </trkpt>
      <trkpt lat="49.2437" lon="1.13597">
        <ele>215</ele>
        <time>2017-09-17T09:43:48Z</time>
      </trkpt>
      <trkpt lat="49.2437" lon="1.13606">
        <ele>215</ele>
        <time>2017-09-17T09:43:52Z</time>
      </trkpt>
      <trkpt lat="49.24373" lon="1.13617">
        <ele>215</ele>
        <time>2017-09-17T09:44:00Z</time>
      </trkpt>
      <trkpt lat="49.24373" lon="1.13617">
        <ele>215</ele>
        <time>2017-09-17T09:44:04Z</time>
      </trkpt>
      <trkpt lat="49.24374" lon="1.13627">
        <ele>214</ele>
        <time>2017-09-17T09:47:08Z</time>
      </trkpt>
      <trkpt lat="49.24376" lon="1.13625">
        <ele>214</ele>
        <time>2017-09-17T09:50:16Z</time>
      </trkpt>
      <trkpt lat="49.24382" lon="1.13623">
        <ele>215</ele>
        <time>2017-09-17T09:50:48Z</time>
      </trkpt>
      <trkpt lat="49.24383" lon="1.13619">
        <ele>214</ele>
        <time>2017-09-17T09:50:52Z</time>
      </trkpt>
      <trkpt lat="49.24385" lon="1.13607">
        <ele>214</ele>
        <time>2017-09-17T09:50:56Z</time>
      </trkpt>
      <trkpt lat="49.24387" lon="1.13592">
        <ele>215</ele>
        <time>2017-09-17T09:51:00Z</time>
      </trkpt>
      <trkpt lat="49.24389" lon="1.13572">
        <ele>215</ele>
        <time>2017-09-17T09:51:04Z</time>
      </trkpt>
      <trkpt lat="49.24394" lon="1.13549">
        <ele>214</ele>
        <time>2017-09-17T09:51:08Z</time>
      </trkpt>
      <trkpt lat="49.244" lon="1.13519">
        <ele>214</ele>
        <time>2017-09-17T09:51:12Z</time>
      </trkpt>
      <trkpt lat="49.24406" lon="1.13483">
        <ele>213</ele>
        <time>2017-09-17T09:51:16Z</time>
      </trkpt>
      <trkpt lat="49.24415" lon="1.13445">
        <ele>212</ele>
        <time>2017-09-17T09:51:20Z</time>
      </trkpt>
      <trkpt lat="49.24421" lon="1.13411">
        <ele>212</ele>
        <time>2017-09-17T09:51:24Z</time>
      </trkpt>
      <trkpt lat="49.24425" lon="1.13382">
        <ele>212</ele>
        <time>2017-09-17T09:51:28Z</time>
      </trkpt>
      <trkpt lat="49.2443" lon="1.13362">
        <ele>213</ele>
        <time>2017-09-17T09:51:32Z</time>
      </trkpt>
      <trkpt lat="49.24434" lon="1.13343">
        <ele>213</ele>
        <time>2017-09-17T09:51:36Z</time>
      </trkpt>
      <trkpt lat="49.24438" lon="1.13326">
        <ele>213</ele>
        <time>2017-09-17T09:51:40Z</time>
      </trkpt>
      <trkpt lat="49.2444" lon="1.1331">
        <ele>214</ele>
        <time>2017-09-17T09:51:44Z</time>
      </trkpt>
      <trkpt lat="49.24443" lon="1.13294">
        <ele>214</ele>
        <time>2017-09-17T09:51:48Z</time>
      </trkpt>
      <trkpt lat="49.24445" lon="1.13276">
        <ele>215</ele>
        <time>2017-09-17T09:51:52Z</time>
      </trkpt>
      <trkpt lat="49.24449" lon="1.13258">
        <ele>215</ele>
        <time>2017-09-17T09:51:56Z</time>
      </trkpt>
      <trkpt lat="49.24455" lon="1.13244">
        <ele>216</ele>
        <time>2017-09-17T09:52:00Z</time>
      </trkpt>
      <trkpt lat="49.24458" lon="1.13226">
        <ele>216</ele>
        <time>2017-09-17T09:52:04Z</time>
      </trkpt>
      <trkpt lat="49.24461" lon="1.13211">
        <ele>216</ele>
        <time>2017-09-17T09:52:08Z</time>
      </trkpt>
      <trkpt lat="49.2446" lon="1.13195">
        <ele>217</ele>
        <time>2017-09-17T09:52:12Z</time>
      </trkpt>
      <trkpt lat="49.24462" lon="1.13176">
        <ele>217</ele>
        <time>2017-09-17T09:52:16Z</time>
      </trkpt>
      <trkpt lat="49.24466" lon="1.13156">
        <ele>217</ele>
        <time>2017-09-17T09:52:20Z</time>
      </trkpt>
      <trkpt lat="49.24468" lon="1.1314">
        <ele>218</ele>
        <time>2017-09-17T09:52:24Z</time>
      </trkpt>
      <trkpt lat="49.24471" lon="1.13122">
        <ele>217</ele>
        <time>2017-09-17T09:52:28Z</time>
      </trkpt>
      <trkpt lat="49.24475" lon="1.13104">
        <ele>218</ele>
        <time>2017-09-17T09:52:32Z</time>
      </trkpt>
      <trkpt lat="49.24479" lon="1.13085">
        <ele>218</ele>
        <time>2017-09-17T09:52:36Z</time>
      </trkpt>
      <trkpt lat="49.24483" lon="1.13066">
        <ele>218</ele>
        <time>2017-09-17T09:52:40Z</time>
      </trkpt>
      <trkpt lat="49.24487" lon="1.1305">
        <ele>218</ele>
        <time>2017-09-17T09:52:44Z</time>
      </trkpt>
      <trkpt lat="49.24489" lon="1.13032">
        <ele>219</ele>
        <time>2017-09-17T09:52:48Z</time>
      </trkpt>
      <trkpt lat="49.24493" lon="1.13013">
        <ele>219</ele>
        <time>2017-09-17T09:52:52Z</time>
      </trkpt>
      <trkpt lat="49.24497" lon="1.1299">
        <ele>219</ele>
        <time>2017-09-17T09:52:56Z</time>
      </trkpt>
      <trkpt lat="49.24503" lon="1.12965">
        <ele>219</ele>
        <time>2017-09-17T09:53:00Z</time>
      </trkpt>
      <trkpt lat="49.24507" lon="1.12941">
        <ele>219</ele>
        <time>2017-09-17T09:53:04Z</time>
      </trkpt>
      <trkpt lat="49.24512" lon="1.12918">
        <ele>219</ele>
        <time>2017-09-17T09:53:08Z</time>
      </trkpt>
      <trkpt lat="49.24517" lon="1.12894">
        <ele>220</ele>
        <time>2017-09-17T09:53:12Z</time>
      </trkpt>
      <trkpt lat="49.24522" lon="1.12868">
        <ele>219</ele>
        <time>2017-09-17T09:53:16Z</time>
      </trkpt>
      <trkpt lat="49.24527" lon="1.12842">
        <ele>219</ele>
        <time>2017-09-17T09:53:20Z</time>
      </trkpt>
      <trkpt lat="49.24533" lon="1.12816">
        <ele>220</ele>
        <time>2017-09-17T09:53:24Z</time>
      </trkpt>
      <trkpt lat="49.24538" lon="1.12788">
        <ele>220</ele>
        <time>2017-09-17T09:53:28Z</time>
      </trkpt>
      <trkpt lat="49.24544" lon="1.12759">
        <ele>219</ele>
        <time>2017-09-17T09:53:32Z</time>
      </trkpt>
      <trkpt lat="49.24549" lon="1.12731">
        <ele>219</ele>
        <time>2017-09-17T09:53:36Z</time>
      </trkpt>
      <trkpt lat="49.24554" lon="1.12704">
        <ele>219</ele>
        <time>2017-09-17T09:53:40Z</time>
      </trkpt>
      <trkpt lat="49.24559" lon="1.12679">
        <ele>219</ele>
        <time>2017-09-17T09:53:44Z</time>
      </trkpt>
      <trkpt lat="49.24564" lon="1.12653">
        <ele>220</ele>
        <time>2017-09-17T09:53:48Z</time>
      </trkpt>
      <trkpt lat="49.24568" lon="1.12625">
        <ele>219</ele>
        <time>2017-09-17T09:53:52Z</time>
      </trkpt>
      <trkpt lat="49.24573" lon="1.12598">
        <ele>219</ele>
        <time>2017-09-17T09:53:56Z</time>
      </trkpt>
      <trkpt lat="49.24578" lon="1.12573">
        <ele>219</ele>
        <time>2017-09-17T09:54:00Z</time>
      </trkpt>
      <trkpt lat="49.24585" lon="1.12552">
        <ele>219</ele>
        <time>2017-09-17T09:54:04Z</time>
      </trkpt>
      <trkpt lat="49.24599" lon="1.12551">
        <ele>218</ele>
        <time>2017-09-17T09:54:08Z</time>
      </trkpt>
      <trkpt lat="49.24614" lon="1.12546">
        <ele>217</ele>
        <time>2017-09-17T09:54:12Z</time>
      </trkpt>
      <trkpt lat="49.24626" lon="1.12547">
        <ele>216</ele>
        <time>2017-09-17T09:54:16Z</time>
      </trkpt>
      <trkpt lat="49.24637" lon="1.12554">
        <ele>215</ele>
        <time>2017-09-17T09:54:20Z</time>
      </trkpt>
      <trkpt lat="49.24647" lon="1.12555">
        <ele>214</ele>
        <time>2017-09-17T09:54:24Z</time>
      </trkpt>
      <trkpt lat="49.24654" lon="1.12561">
        <ele>213</ele>
        <time>2017-09-17T09:54:28Z</time>
      </trkpt>
      <trkpt lat="49.24661" lon="1.12566">
        <ele>213</ele>
        <time>2017-09-17T09:54:32Z</time>
      </trkpt>
      <trkpt lat="49.24674" lon="1.12563">
        <ele>212</ele>
        <time>2017-09-17T09:54:36Z</time>
      </trkpt>
      <trkpt lat="49.24686" lon="1.1256">
        <ele>213</ele>
        <time>2017-09-17T09:54:40Z</time>
      </trkpt>
      <trkpt lat="49.24691" lon="1.12566">
        <ele>212</ele>
        <time>2017-09-17T09:54:44Z</time>
      </trkpt>
      <trkpt lat="49.24702" lon="1.12582">
        <ele>212</ele>
        <time>2017-09-17T09:54:48Z</time>
      </trkpt>
      <trkpt lat="49.24714" lon="1.12601">
        <ele>210</ele>
        <time>2017-09-17T09:54:52Z</time>
      </trkpt>
      <trkpt lat="49.24721" lon="1.12603">
        <ele>209</ele>
        <time>2017-09-17T09:54:56Z</time>
      </trkpt>
      <trkpt lat="49.24731" lon="1.12604">
        <ele>209</ele>
        <time>2017-09-17T09:55:00Z</time>
      </trkpt>
      <trkpt lat="49.24742" lon="1.12602">
        <ele>208</ele>
        <time>2017-09-17T09:55:04Z</time>
      </trkpt>
      <trkpt lat="49.24751" lon="1.12595">
        <ele>208</ele>
        <time>2017-09-17T09:55:08Z</time>
      </trkpt>
      <trkpt lat="49.24761" lon="1.12589">
        <ele>209</ele>
        <time>2017-09-17T09:55:12Z</time>
      </trkpt>
      <trkpt lat="49.24773" lon="1.12584">
        <ele>209</ele>
        <time>2017-09-17T09:55:16Z</time>
      </trkpt>
      <trkpt lat="49.24786" lon="1.1258">
        <ele>209</ele>
        <time>2017-09-17T09:55:20Z</time>
      </trkpt>
      <trkpt lat="49.24799" lon="1.12577">
        <ele>209</ele>
        <time>2017-09-17T09:55:24Z</time>
      </trkpt>
      <trkpt lat="49.24808" lon="1.12575">
        <ele>208</ele>
        <time>2017-09-17T09:55:28Z</time>
      </trkpt>
      <trkpt lat="49.24819" lon="1.12569">
        <ele>208</ele>
        <time>2017-09-17T09:55:32Z</time>
      </trkpt>
      <trkpt lat="49.24826" lon="1.12567">
        <ele>208</ele>
        <time>2017-09-17T09:55:36Z</time>
      </trkpt>
      <trkpt lat="49.24835" lon="1.12564">
        <ele>207</ele>
        <time>2017-09-17T09:55:40Z</time>
      </trkpt>
      <trkpt lat="49.24839" lon="1.12566">
        <ele>208</ele>
        <time>2017-09-17T09:55:44Z</time>
      </trkpt>
      <trkpt lat="49.24853" lon="1.12565">
        <ele>207</ele>
        <time>2017-09-17T09:56:08Z</time>
      </trkpt>
      <trkpt lat="49.24855" lon="1.12562">
        <ele>207</ele>
        <time>2017-09-17T09:56:12Z</time>
      </trkpt>
      <trkpt lat="49.24862" lon="1.12557">
        <ele>207</ele>
        <time>2017-09-17T09:56:16Z</time>
      </trkpt>
      <trkpt lat="49.2487" lon="1.12547">
        <ele>206</ele>
        <time>2017-09-17T09:56:20Z</time>
      </trkpt>
      <trkpt lat="49.24876" lon="1.12537">
        <ele>205</ele>
        <time>2017-09-17T09:56:24Z</time>
      </trkpt>
      <trkpt lat="49.24882" lon="1.12529">
        <ele>203</ele>
        <time>2017-09-17T09:56:28Z</time>
      </trkpt>
      <trkpt lat="49.24886" lon="1.12524">
        <ele>203</ele>
        <time>2017-09-17T09:56:32Z</time>
      </trkpt>
      <trkpt lat="49.2489" lon="1.12524">
        <ele>202</ele>
        <time>2017-09-17T09:56:36Z</time>
      </trkpt>
      <trkpt lat="49.24897" lon="1.12523">
        <ele>200</ele>
        <time>2017-09-17T09:56:40Z</time>
      </trkpt>
      <trkpt lat="49.2491" lon="1.12511">
        <ele>198</ele>
        <time>2017-09-17T09:56:44Z</time>
      </trkpt>
      <trkpt lat="49.24918" lon="1.12504">
        <ele>196</ele>
        <time>2017-09-17T09:56:48Z</time>
      </trkpt>
      <trkpt lat="49.24926" lon="1.12495">
        <ele>194</ele>
        <time>2017-09-17T09:56:52Z</time>
      </trkpt>
      <trkpt lat="49.24937" lon="1.12481">
        <ele>192</ele>
        <time>2017-09-17T09:57:20Z</time>
      </trkpt>
      <trkpt lat="49.24938" lon="1.12478">
        <ele>189</ele>
        <time>2017-09-17T09:57:24Z</time>
      </trkpt>
      <trkpt lat="49.24948" lon="1.12469">
        <ele>189</ele>
        <time>2017-09-17T09:57:28Z</time>
      </trkpt>
      <trkpt lat="49.24954" lon="1.12466">
        <ele>189</ele>
        <time>2017-09-17T09:57:32Z</time>
      </trkpt>
      <trkpt lat="49.24958" lon="1.12461">
        <ele>188</ele>
        <time>2017-09-17T09:57:36Z</time>
      </trkpt>
      <trkpt lat="49.24973" lon="1.12455">
        <ele>188</ele>
        <time>2017-09-17T09:58:08Z</time>
      </trkpt>
      <trkpt lat="49.24971" lon="1.12454">
        <ele>188</ele>
        <time>2017-09-17T09:58:12Z</time>
      </trkpt>
      <trkpt lat="49.24966" lon="1.12454">
        <ele>188</ele>
        <time>2017-09-17T09:58:20Z</time>
      </trkpt>
      <trkpt lat="49.24968" lon="1.12448">
        <ele>188</ele>
        <time>2017-09-17T09:58:24Z</time>
      </trkpt>
      <trkpt lat="49.24973" lon="1.12434">
        <ele>187</ele>
        <time>2017-09-17T09:58:28Z</time>
      </trkpt>
      <trkpt lat="49.24979" lon="1.1242">
        <ele>187</ele>
        <time>2017-09-17T09:58:32Z</time>
      </trkpt>
      <trkpt lat="49.24981" lon="1.12406">
        <ele>187</ele>
        <time>2017-09-17T09:58:36Z</time>
      </trkpt>
      <trkpt lat="49.24982" lon="1.12385">
        <ele>188</ele>
        <time>2017-09-17T09:58:40Z</time>
      </trkpt>
      <trkpt lat="49.24986" lon="1.12377">
        <ele>188</ele>
        <time>2017-09-17T09:58:44Z</time>
      </trkpt>
      <trkpt lat="49.24988" lon="1.12371">
        <ele>188</ele>
        <time>2017-09-17T09:58:48Z</time>
      </trkpt>
      <trkpt lat="49.24986" lon="1.12366">
        <ele>189</ele>
        <time>2017-09-17T09:58:52Z</time>
      </trkpt>
      <trkpt lat="49.24989" lon="1.12364">
        <ele>190</ele>
        <time>2017-09-17T09:58:56Z</time>
      </trkpt>
      <trkpt lat="49.24992" lon="1.12365">
        <ele>191</ele>
        <time>2017-09-17T09:59:00Z</time>
      </trkpt>
      <trkpt lat="49.24997" lon="1.12366">
        <ele>192</ele>
        <time>2017-09-17T09:59:04Z</time>
      </trkpt>
      <trkpt lat="49.25001" lon="1.12367">
        <ele>193</ele>
        <time>2017-09-17T09:59:08Z</time>
      </trkpt>
      <trkpt lat="49.25003" lon="1.1237">
        <ele>194</ele>
        <time>2017-09-17T09:59:12Z</time>
      </trkpt>
      <trkpt lat="49.25007" lon="1.12376">
        <ele>195</ele>
        <time>2017-09-17T09:59:16Z</time>
      </trkpt>
      <trkpt lat="49.25012" lon="1.1238">
        <ele>196</ele>
        <time>2017-09-17T09:59:20Z</time>
      </trkpt>
      <trkpt lat="49.25017" lon="1.12384">
        <ele>197</ele>
        <time>2017-09-17T09:59:24Z</time>
      </trkpt>
      <trkpt lat="49.25023" lon="1.12386">
        <ele>199</ele>
        <time>2017-09-17T09:59:28Z</time>
      </trkpt>
      <trkpt lat="49.25029" lon="1.12393">
        <ele>200</ele>
        <time>2017-09-17T09:59:32Z</time>
      </trkpt>
      <trkpt lat="49.25035" lon="1.12397">
        <ele>201</ele>
        <time>2017-09-17T09:59:36Z</time>
      </trkpt>
      <trkpt lat="49.2504" lon="1.12401">
        <ele>202</ele>
        <time>2017-09-17T09:59:40Z</time>
      </trkpt>
      <trkpt lat="49.25045" lon="1.12406">
        <ele>203</ele>
        <time>2017-09-17T09:59:44Z</time>
      </trkpt>
      <trkpt lat="49.25045" lon="1.12411">
        <ele>204</ele>
        <time>2017-09-17T09:59:48Z</time>
      </trkpt>
      <trkpt lat="49.2505" lon="1.12418">
        <ele>204</ele>
        <time>2017-09-17T09:59:52Z</time>
      </trkpt>
      <trkpt lat="49.25056" lon="1.12424">
        <ele>204</ele>
        <time>2017-09-17T09:59:56Z</time>
      </trkpt>
      <trkpt lat="49.25059" lon="1.1243">
        <ele>205</ele>
        <time>2017-09-17T10:00:00Z</time>
      </trkpt>
      <trkpt lat="49.25063" lon="1.12437">
        <ele>206</ele>
        <time>2017-09-17T10:00:04Z</time>
      </trkpt>
      <trkpt lat="49.25067" lon="1.12442">
        <ele>206</ele>
        <time>2017-09-17T10:00:08Z</time>
      </trkpt>
      <trkpt lat="49.25073" lon="1.12448">
        <ele>207</ele>
        <time>2017-09-17T10:00:12Z</time>
      </trkpt>
      <trkpt lat="49.25077" lon="1.12457">
        <ele>207</ele>
        <time>2017-09-17T10:00:16Z</time>
      </trkpt>
      <trkpt lat="49.25085" lon="1.12464">
        <ele>208</ele>
        <time>2017-09-17T10:00:24Z</time>
      </trkpt>
      <trkpt lat="49.25095" lon="1.1247">
        <ele>210</ele>
        <time>2017-09-17T10:00:28Z</time>
      </trkpt>
      <trkpt lat="49.25104" lon="1.12471">
        <ele>211</ele>
        <time>2017-09-17T10:00:32Z</time>
      </trkpt>
      <trkpt lat="49.25112" lon="1.12474">
        <ele>211</ele>
        <time>2017-09-17T10:00:36Z</time>
      </trkpt>
      <trkpt lat="49.2512" lon="1.1248">
        <ele>212</ele>
        <time>2017-09-17T10:00:40Z</time>
      </trkpt>
      <trkpt lat="49.25127" lon="1.12485">
        <ele>213</ele>
        <time>2017-09-17T10:00:44Z</time>
      </trkpt>
      <trkpt lat="49.25133" lon="1.12488">
        <ele>213</ele>
        <time>2017-09-17T10:00:48Z</time>
      </trkpt>
      <trkpt lat="49.25139" lon="1.12493">
        <ele>214</ele>
        <time>2017-09-17T10:00:52Z</time>
      </trkpt>
      <trkpt lat="49.25147" lon="1.12497">
        <ele>214</ele>
        <time>2017-09-17T10:00:56Z</time>
      </trkpt>
      <trkpt lat="49.25154" lon="1.12503">
        <ele>215</ele>
        <time>2017-09-17T10:01:00Z</time>
      </trkpt>
      <trkpt lat="49.2516" lon="1.12511">
        <ele>215</ele>
        <time>2017-09-17T10:01:04Z</time>
      </trkpt>
      <trkpt lat="49.25164" lon="1.1252">
        <ele>215</ele>
        <time>2017-09-17T10:01:08Z</time>
      </trkpt>
      <trkpt lat="49.25166" lon="1.12528">
        <ele>215</ele>
        <time>2017-09-17T10:01:12Z</time>
      </trkpt>
      <trkpt lat="49.25169" lon="1.12541">
        <ele>215</ele>
        <time>2017-09-17T10:01:16Z</time>
      </trkpt>
      <trkpt lat="49.25174" lon="1.1255">
        <ele>216</ele>
        <time>2017-09-17T10:01:20Z</time>
      </trkpt>
      <trkpt lat="49.25177" lon="1.12561">
        <ele>216</ele>
        <time>2017-09-17T10:01:24Z</time>
      </trkpt>
      <trkpt lat="49.25177" lon="1.12573">
        <ele>216</ele>
        <time>2017-09-17T10:01:28Z</time>
      </trkpt>
      <trkpt lat="49.25177" lon="1.12584">
        <ele>216</ele>
        <time>2017-09-17T10:01:32Z</time>
      </trkpt>
      <trkpt lat="49.2518" lon="1.12596">
        <ele>217</ele>
        <time>2017-09-17T10:01:36Z</time>
      </trkpt>
      <trkpt lat="49.25184" lon="1.1261">
        <ele>218</ele>
        <time>2017-09-17T10:01:40Z</time>
      </trkpt>
      <trkpt lat="49.25188" lon="1.12626">
        <ele>218</ele>
        <time>2017-09-17T10:01:44Z</time>
      </trkpt>
      <trkpt lat="49.25192" lon="1.12642">
        <ele>218</ele>
        <time>2017-09-17T10:01:48Z</time>
      </trkpt>
      <trkpt lat="49.25198" lon="1.12659">
        <ele>218</ele>
        <time>2017-09-17T10:01:52Z</time>
      </trkpt>
      <trkpt lat="49.25201" lon="1.1268">
        <ele>218</ele>
        <time>2017-09-17T10:01:56Z</time>
      </trkpt>
      <trkpt lat="49.25206" lon="1.12692">
        <ele>218</ele>
        <time>2017-09-17T10:02:00Z</time>
      </trkpt>
      <trkpt lat="49.2521" lon="1.12708">
        <ele>218</ele>
        <time>2017-09-17T10:02:04Z</time>
      </trkpt>
      <trkpt lat="49.25213" lon="1.12726">
        <ele>218</ele>
        <time>2017-09-17T10:02:08Z</time>
      </trkpt>
      <trkpt lat="49.2522" lon="1.12744">
        <ele>218</ele>
        <time>2017-09-17T10:02:12Z</time>
      </trkpt>
      <trkpt lat="49.25227" lon="1.12765">
        <ele>218</ele>
        <time>2017-09-17T10:02:16Z</time>
      </trkpt>
      <trkpt lat="49.25235" lon="1.12783">
        <ele>218</ele>
        <time>2017-09-17T10:02:20Z</time>
      </trkpt>
      <trkpt lat="49.25245" lon="1.12795">
        <ele>217</ele>
        <time>2017-09-17T10:02:24Z</time>
      </trkpt>
      <trkpt lat="49.25253" lon="1.12811">
        <ele>216</ele>
        <time>2017-09-17T10:02:28Z</time>
      </trkpt>
      <trkpt lat="49.2526" lon="1.1283">
        <ele>216</ele>
        <time>2017-09-17T10:02:32Z</time>
      </trkpt>
      <trkpt lat="49.25265" lon="1.12841">
        <ele>217</ele>
        <time>2017-09-17T10:02:36Z</time>
      </trkpt>
      <trkpt lat="49.2527" lon="1.12849">
        <ele>217</ele>
        <time>2017-09-17T10:02:40Z</time>
      </trkpt>
      <trkpt lat="49.25277" lon="1.12857">
        <ele>218</ele>
        <time>2017-09-17T10:02:44Z</time>
      </trkpt>
      <trkpt lat="49.25285" lon="1.12866">
        <ele>219</ele>
        <time>2017-09-17T10:02:48Z</time>
      </trkpt>
      <trkpt lat="49.25294" lon="1.12878">
        <ele>219</ele>
        <time>2017-09-17T10:02:52Z</time>
      </trkpt>
      <trkpt lat="49.253" lon="1.12889">
        <ele>220</ele>
        <time>2017-09-17T10:02:56Z</time>
      </trkpt>
      <trkpt lat="49.25307" lon="1.12905">
        <ele>220</ele>
        <time>2017-09-17T10:03:00Z</time>
      </trkpt>
      <trkpt lat="49.25315" lon="1.1292">
        <ele>221</ele>
        <time>2017-09-17T10:03:04Z</time>
      </trkpt>
      <trkpt lat="49.25324" lon="1.12934">
        <ele>221</ele>
        <time>2017-09-17T10:03:08Z</time>
      </trkpt>
      <trkpt lat="49.2533" lon="1.12946">
        <ele>222</ele>
        <time>2017-09-17T10:03:12Z</time>
      </trkpt>
      <trkpt lat="49.25339" lon="1.12959">
        <ele>222</ele>
        <time>2017-09-17T10:03:16Z</time>
      </trkpt>
      <trkpt lat="49.25348" lon="1.12968">
        <ele>222</ele>
        <time>2017-09-17T10:03:20Z</time>
      </trkpt>
      <trkpt lat="49.25351" lon="1.12986">
        <ele>222</ele>
        <time>2017-09-17T10:03:24Z</time>
      </trkpt>
      <trkpt lat="49.25356" lon="1.13004">
        <ele>222</ele>
        <time>2017-09-17T10:03:28Z</time>
      </trkpt>
      <trkpt lat="49.25362" lon="1.13026">
        <ele>222</ele>
        <time>2017-09-17T10:03:32Z</time>
      </trkpt>
      <trkpt lat="49.25363" lon="1.13042">
        <ele>222</ele>
        <time>2017-09-17T10:03:36Z</time>
      </trkpt>
      <trkpt lat="49.25362" lon="1.13056">
        <ele>223</ele>
        <time>2017-09-17T10:03:40Z</time>
      </trkpt>
      <trkpt lat="49.25363" lon="1.13068">
        <ele>223</ele>
        <time>2017-09-17T10:03:44Z</time>
      </trkpt>
      <trkpt lat="49.25362" lon="1.13079">
        <ele>223</ele>
        <time>2017-09-17T10:03:48Z</time>
      </trkpt>
      <trkpt lat="49.25366" lon="1.13097">
        <ele>224</ele>
        <time>2017-09-17T10:03:52Z</time>
      </trkpt>
      <trkpt lat="49.2537" lon="1.13113">
        <ele>224</ele>
        <time>2017-09-17T10:03:56Z</time>
      </trkpt>
      <trkpt lat="49.25371" lon="1.13125">
        <ele>224</ele>
        <time>2017-09-17T10:04:00Z</time>
      </trkpt>
      <trkpt lat="49.25373" lon="1.13142">
        <ele>225</ele>
        <time>2017-09-17T10:04:04Z</time>
      </trkpt>
      <trkpt lat="49.25378" lon="1.13156">
        <ele>225</ele>
        <time>2017-09-17T10:04:08Z</time>
      </trkpt>
      <trkpt lat="49.25378" lon="1.13169">
        <ele>225</ele>
        <time>2017-09-17T10:04:12Z</time>
      </trkpt>
      <trkpt lat="49.25379" lon="1.13183">
        <ele>225</ele>
        <time>2017-09-17T10:04:16Z</time>
      </trkpt>
      <trkpt lat="49.25382" lon="1.13194">
        <ele>226</ele>
        <time>2017-09-17T10:04:20Z</time>
      </trkpt>
      <trkpt lat="49.25388" lon="1.13203">
        <ele>227</ele>
        <time>2017-09-17T10:04:24Z</time>
      </trkpt>
      <trkpt lat="49.25394" lon="1.13209">
        <ele>227</ele>
        <time>2017-09-17T10:04:28Z</time>
      </trkpt>
      <trkpt lat="49.25404" lon="1.13217">
        <ele>227</ele>
        <time>2017-09-17T10:04:32Z</time>
      </trkpt>
      <trkpt lat="49.25413" lon="1.13228">
        <ele>228</ele>
        <time>2017-09-17T10:04:36Z</time>
      </trkpt>
      <trkpt lat="49.25426" lon="1.13236">
        <ele>228</ele>
        <time>2017-09-17T10:04:40Z</time>
      </trkpt>
      <trkpt lat="49.25437" lon="1.13241">
        <ele>228</ele>
        <time>2017-09-17T10:04:44Z</time>
      </trkpt>
      <trkpt lat="49.25453" lon="1.1325">
        <ele>228</ele>
        <time>2017-09-17T10:04:48Z</time>
      </trkpt>
      <trkpt lat="49.2547" lon="1.1326">
        <ele>229</ele>
        <time>2017-09-17T10:04:52Z</time>
      </trkpt>
      <trkpt lat="49.25482" lon="1.13268">
        <ele>229</ele>
        <time>2017-09-17T10:04:56Z</time>
      </trkpt>
      <trkpt lat="49.25494" lon="1.13277">
        <ele>229</ele>
        <time>2017-09-17T10:05:00Z</time>
      </trkpt>
      <trkpt lat="49.25512" lon="1.13286">
        <ele>231</ele>
        <time>2017-09-17T10:05:04Z</time>
      </trkpt>
      <trkpt lat="49.2553" lon="1.13295">
        <ele>231</ele>
        <time>2017-09-17T10:05:08Z</time>
      </trkpt>
      <trkpt lat="49.25546" lon="1.13304">
        <ele>231</ele>
        <time>2017-09-17T10:05:12Z</time>
      </trkpt>
      <trkpt lat="49.25564" lon="1.13314">
        <ele>231</ele>
        <time>2017-09-17T10:05:16Z</time>
      </trkpt>
      <trkpt lat="49.25581" lon="1.13322">
        <ele>231</ele>
        <time>2017-09-17T10:05:20Z</time>
      </trkpt>
      <trkpt lat="49.25595" lon="1.13329">
        <ele>231</ele>
        <time>2017-09-17T10:05:24Z</time>
      </trkpt>
      <trkpt lat="49.25607" lon="1.13337">
        <ele>231</ele>
        <time>2017-09-17T10:05:28Z</time>
      </trkpt>
      <trkpt lat="49.25622" lon="1.13345">
        <ele>231</ele>
        <time>2017-09-17T10:05:32Z</time>
      </trkpt>
      <trkpt lat="49.25639" lon="1.13351">
        <ele>231</ele>
        <time>2017-09-17T10:05:36Z</time>
      </trkpt>
      <trkpt lat="49.25655" lon="1.13358">
        <ele>231</ele>
        <time>2017-09-17T10:05:40Z</time>
      </trkpt>
      <trkpt lat="49.25667" lon="1.13376">
        <ele>231</ele>
        <time>2017-09-17T10:05:44Z</time>
      </trkpt>
      <trkpt lat="49.2567" lon="1.1339">
        <ele>230</ele>
        <time>2017-09-17T10:05:48Z</time>
      </trkpt>
      <trkpt lat="49.25673" lon="1.13404">
        <ele>230</ele>
        <time>2017-09-17T10:05:52Z</time>
      </trkpt>
      <trkpt lat="49.25677" lon="1.13422">
        <ele>230</ele>
        <time>2017-09-17T10:05:56Z</time>
      </trkpt>
      <trkpt lat="49.25677" lon="1.13435">
        <ele>230</ele>
        <time>2017-09-17T10:06:00Z</time>
      </trkpt>
      <trkpt lat="49.25677" lon="1.13452">
        <ele>230</ele>
        <time>2017-09-17T10:06:04Z</time>
      </trkpt>
      <trkpt lat="49.25675" lon="1.13467">
        <ele>230</ele>
        <time>2017-09-17T10:06:08Z</time>
      </trkpt>
      <trkpt lat="49.25674" lon="1.13483">
        <ele>230</ele>
        <time>2017-09-17T10:06:12Z</time>
      </trkpt>
      <trkpt lat="49.25673" lon="1.135">
        <ele>229</ele>
        <time>2017-09-17T10:06:16Z</time>
      </trkpt>
      <trkpt lat="49.2567" lon="1.13519">
        <ele>229</ele>
        <time>2017-09-17T10:06:20Z</time>
      </trkpt>
      <trkpt lat="49.25666" lon="1.13535">
        <ele>229</ele>
        <time>2017-09-17T10:06:24Z</time>
      </trkpt>
      <trkpt lat="49.25666" lon="1.13546">
        <ele>229</ele>
        <time>2017-09-17T10:06:28Z</time>
      </trkpt>
      <trkpt lat="49.25665" lon="1.13558">
        <ele>229</ele>
        <time>2017-09-17T10:06:32Z</time>
      </trkpt>
      <trkpt lat="49.25666" lon="1.13574">
        <ele>228</ele>
        <time>2017-09-17T10:06:36Z</time>
      </trkpt>
      <trkpt lat="49.25664" lon="1.13587">
        <ele>228</ele>
        <time>2017-09-17T10:06:40Z</time>
      </trkpt>
      <trkpt lat="49.25661" lon="1.136">
        <ele>228</ele>
        <time>2017-09-17T10:06:44Z</time>
      </trkpt>
      <trkpt lat="49.25659" lon="1.13616">
        <ele>227</ele>
        <time>2017-09-17T10:06:48Z</time>
      </trkpt>
      <trkpt lat="49.25655" lon="1.13634">
        <ele>227</ele>
        <time>2017-09-17T10:06:52Z</time>
      </trkpt>
      <trkpt lat="49.25653" lon="1.13652">
        <ele>227</ele>
        <time>2017-09-17T10:06:56Z</time>
      </trkpt>
      <trkpt lat="49.25649" lon="1.13671">
        <ele>227</ele>
        <time>2017-09-17T10:07:00Z</time>
      </trkpt>
      <trkpt lat="49.25647" lon="1.13689">
        <ele>226</ele>
        <time>2017-09-17T10:07:04Z</time>
      </trkpt>
      <trkpt lat="49.25646" lon="1.13709">
        <ele>226</ele>
        <time>2017-09-17T10:07:08Z</time>
      </trkpt>
      <trkpt lat="49.25645" lon="1.13728">
        <ele>225</ele>
        <time>2017-09-17T10:07:12Z</time>
      </trkpt>
      <trkpt lat="49.2565" lon="1.13743">
        <ele>225</ele>
        <time>2017-09-17T10:07:16Z</time>
      </trkpt>
      <trkpt lat="49.25654" lon="1.13753">
        <ele>225</ele>
        <time>2017-09-17T10:07:20Z</time>
      </trkpt>
      <trkpt lat="49.25661" lon="1.13762">
        <ele>225</ele>
        <time>2017-09-17T10:07:24Z</time>
      </trkpt>
      <trkpt lat="49.25667" lon="1.13768">
        <ele>225</ele>
        <time>2017-09-17T10:07:28Z</time>
      </trkpt>
      <trkpt lat="49.25674" lon="1.13774">
        <ele>225</ele>
        <time>2017-09-17T10:07:32Z</time>
      </trkpt>
      <trkpt lat="49.25678" lon="1.13778">
        <ele>226</ele>
        <time>2017-09-17T10:07:36Z</time>
      </trkpt>
      <trkpt lat="49.25685" lon="1.13783">
        <ele>226</ele>
        <time>2017-09-17T10:07:40Z</time>
      </trkpt>
      <trkpt lat="49.25694" lon="1.13792">
        <ele>226</ele>
        <time>2017-09-17T10:07:44Z</time>
      </trkpt>
      <trkpt lat="49.25703" lon="1.13799">
        <ele>226</ele>
        <time>2017-09-17T10:07:48Z</time>
      </trkpt>
      <trkpt lat="49.25709" lon="1.13804">
        <ele>226</ele>
        <time>2017-09-17T10:07:52Z</time>
      </trkpt>
      <trkpt lat="49.25716" lon="1.13807">
        <ele>226</ele>
        <time>2017-09-17T10:07:56Z</time>
      </trkpt>
      <trkpt lat="49.25724" lon="1.13809">
        <ele>227</ele>
        <time>2017-09-17T10:08:00Z</time>
      </trkpt>
      <trkpt lat="49.2573" lon="1.13814">
        <ele>227</ele>
        <time>2017-09-17T10:08:04Z</time>
      </trkpt>
      <trkpt lat="49.25736" lon="1.1382">
        <ele>227</ele>
        <time>2017-09-17T10:08:08Z</time>
      </trkpt>
      <trkpt lat="49.25745" lon="1.13824">
        <ele>227</ele>
        <time>2017-09-17T10:08:12Z</time>
      </trkpt>
      <trkpt lat="49.25753" lon="1.13829">
        <ele>226</ele>
        <time>2017-09-17T10:08:16Z</time>
      </trkpt>
      <trkpt lat="49.25761" lon="1.13834">
        <ele>227</ele>
        <time>2017-09-17T10:08:20Z</time>
      </trkpt>
      <trkpt lat="49.25769" lon="1.1384">
        <ele>227</ele>
        <time>2017-09-17T10:08:24Z</time>
      </trkpt>
      <trkpt lat="49.25779" lon="1.13845">
        <ele>227</ele>
        <time>2017-09-17T10:08:28Z</time>
      </trkpt>
      <trkpt lat="49.25793" lon="1.13847">
        <ele>227</ele>
        <time>2017-09-17T10:08:32Z</time>
      </trkpt>
      <trkpt lat="49.258" lon="1.1385">
        <ele>227</ele>
        <time>2017-09-17T10:08:36Z</time>
      </trkpt>
      <trkpt lat="49.25814" lon="1.13856">
        <ele>227</ele>
        <time>2017-09-17T10:08:40Z</time>
      </trkpt>
      <trkpt lat="49.25824" lon="1.13861">
        <ele>227</ele>
        <time>2017-09-17T10:08:44Z</time>
      </trkpt>
      <trkpt lat="49.25831" lon="1.13868">
        <ele>228</ele>
        <time>2017-09-17T10:08:48Z</time>
      </trkpt>
      <trkpt lat="49.25839" lon="1.13872">
        <ele>228</ele>
        <time>2017-09-17T10:08:52Z</time>
      </trkpt>
      <trkpt lat="49.25849" lon="1.13875">
        <ele>229</ele>
        <time>2017-09-17T10:08:56Z</time>
      </trkpt>
      <trkpt lat="49.2586" lon="1.13879">
        <ele>229</ele>
        <time>2017-09-17T10:09:00Z</time>
      </trkpt>
      <trkpt lat="49.25869" lon="1.13885">
        <ele>229</ele>
        <time>2017-09-17T10:09:04Z</time>
      </trkpt>
      <trkpt lat="49.25881" lon="1.13894">
        <ele>229</ele>
        <time>2017-09-17T10:09:08Z</time>
      </trkpt>
      <trkpt lat="49.25899" lon="1.13902">
        <ele>229</ele>
        <time>2017-09-17T10:09:12Z</time>
      </trkpt>
      <trkpt lat="49.2591" lon="1.13913">
        <ele>229</ele>
        <time>2017-09-17T10:09:16Z</time>
      </trkpt>
      <trkpt lat="49.25926" lon="1.1392">
        <ele>229</ele>
        <time>2017-09-17T10:09:20Z</time>
      </trkpt>
      <trkpt lat="49.2594" lon="1.13925">
        <ele>229</ele>
        <time>2017-09-17T10:09:24Z</time>
      </trkpt>
      <trkpt lat="49.25951" lon="1.13932">
        <ele>229</ele>
        <time>2017-09-17T10:09:28Z</time>
      </trkpt>
      <trkpt lat="49.25965" lon="1.13936">
        <ele>229</ele>
        <time>2017-09-17T10:09:32Z</time>
      </trkpt>
      <trkpt lat="49.25975" lon="1.13939">
        <ele>229</ele>
        <time>2017-09-17T10:09:36Z</time>
      </trkpt>
      <trkpt lat="49.25986" lon="1.13944">
        <ele>229</ele>
        <time>2017-09-17T10:09:40Z</time>
      </trkpt>
      <trkpt lat="49.25999" lon="1.13952">
        <ele>229</ele>
        <time>2017-09-17T10:09:44Z</time>
      </trkpt>
      <trkpt lat="49.26009" lon="1.13958">
        <ele>229</ele>
        <time>2017-09-17T10:09:48Z</time>
      </trkpt>
      <trkpt lat="49.26021" lon="1.1396">
        <ele>229</ele>
        <time>2017-09-17T10:09:52Z</time>
      </trkpt>
      <trkpt lat="49.2603" lon="1.13967">
        <ele>229</ele>
        <time>2017-09-17T10:09:56Z</time>
      </trkpt>
      <trkpt lat="49.26038" lon="1.13968">
        <ele>229</ele>
        <time>2017-09-17T10:10:00Z</time>
      </trkpt>
      <trkpt lat="49.26046" lon="1.13972">
        <ele>229</ele>
        <time>2017-09-17T10:10:04Z</time>
      </trkpt>
      <trkpt lat="49.26054" lon="1.13979">
        <ele>228</ele>
        <time>2017-09-17T10:10:08Z</time>
      </trkpt>
      <trkpt lat="49.26062" lon="1.13984">
        <ele>228</ele>
        <time>2017-09-17T10:10:12Z</time>
      </trkpt>
      <trkpt lat="49.26075" lon="1.13987">
        <ele>228</ele>
        <time>2017-09-17T10:10:16Z</time>
      </trkpt>
      <trkpt lat="49.26089" lon="1.13987">
        <ele>228</ele>
        <time>2017-09-17T10:10:20Z</time>
      </trkpt>
      <trkpt lat="49.26099" lon="1.13988">
        <ele>228</ele>
        <time>2017-09-17T10:10:24Z</time>
      </trkpt>
      <trkpt lat="49.26107" lon="1.13993">
        <ele>228</ele>
        <time>2017-09-17T10:10:28Z</time>
      </trkpt>
      <trkpt lat="49.26114" lon="1.13999">
        <ele>228</ele>
        <time>2017-09-17T10:10:32Z</time>
      </trkpt>
      <trkpt lat="49.26125" lon="1.14003">
        <ele>229</ele>
        <time>2017-09-17T10:10:36Z</time>
      </trkpt>
      <trkpt lat="49.26136" lon="1.14009">
        <ele>229</ele>
        <time>2017-09-17T10:10:40Z</time>
      </trkpt>
      <trkpt lat="49.26149" lon="1.14012">
        <ele>229</ele>
        <time>2017-09-17T10:10:44Z</time>
      </trkpt>
      <trkpt lat="49.26164" lon="1.14016">
        <ele>230</ele>
        <time>2017-09-17T10:10:48Z</time>
      </trkpt>
      <trkpt lat="49.26177" lon="1.14022">
        <ele>230</ele>
        <time>2017-09-17T10:10:52Z</time>
      </trkpt>
      <trkpt lat="49.2619" lon="1.14028">
        <ele>231</ele>
        <time>2017-09-17T10:10:56Z</time>
      </trkpt>
      <trkpt lat="49.26201" lon="1.14036">
        <ele>231</ele>
        <time>2017-09-17T10:11:00Z</time>
      </trkpt>
      <trkpt lat="49.26221" lon="1.14041">
        <ele>231</ele>
        <time>2017-09-17T10:11:04Z</time>
      </trkpt>
      <trkpt lat="49.26233" lon="1.14052">
        <ele>232</ele>
        <time>2017-09-17T10:11:08Z</time>
      </trkpt>
      <trkpt lat="49.26244" lon="1.14056">
        <ele>231</ele>
        <time>2017-09-17T10:11:12Z</time>
      </trkpt>
      <trkpt lat="49.26258" lon="1.1406">
        <ele>231</ele>
        <time>2017-09-17T10:11:16Z</time>
      </trkpt>
      <trkpt lat="49.26276" lon="1.14069">
        <ele>231</ele>
        <time>2017-09-17T10:11:20Z</time>
      </trkpt>
      <trkpt lat="49.26288" lon="1.1407">
        <ele>232</ele>
        <time>2017-09-17T10:11:24Z</time>
      </trkpt>
      <trkpt lat="49.26297" lon="1.14076">
        <ele>232</ele>
        <time>2017-09-17T10:11:28Z</time>
      </trkpt>
      <trkpt lat="49.26307" lon="1.14077">
        <ele>232</ele>
        <time>2017-09-17T10:11:32Z</time>
      </trkpt>
      <trkpt lat="49.26319" lon="1.14083">
        <ele>232</ele>
        <time>2017-09-17T10:11:36Z</time>
      </trkpt>
      <trkpt lat="49.26328" lon="1.14089">
        <ele>232</ele>
        <time>2017-09-17T10:11:40Z</time>
      </trkpt>
      <trkpt lat="49.26338" lon="1.14096">
        <ele>232</ele>
        <time>2017-09-17T10:11:44Z</time>
      </trkpt>
      <trkpt lat="49.26346" lon="1.14102">
        <ele>232</ele>
        <time>2017-09-17T10:11:48Z</time>
      </trkpt>
      <trkpt lat="49.26355" lon="1.14106">
        <ele>232</ele>
        <time>2017-09-17T10:11:52Z</time>
      </trkpt>
      <trkpt lat="49.26366" lon="1.14107">
        <ele>232</ele>
        <time>2017-09-17T10:11:56Z</time>
      </trkpt>
      <trkpt lat="49.26376" lon="1.14103">
        <ele>231</ele>
        <time>2017-09-17T10:12:00Z</time>
      </trkpt>
      <trkpt lat="49.26389" lon="1.14103">
        <ele>232</ele>
        <time>2017-09-17T10:12:04Z</time>
      </trkpt>
      <trkpt lat="49.26396" lon="1.14103">
        <ele>232</ele>
        <time>2017-09-17T10:12:08Z</time>
      </trkpt>
      <trkpt lat="49.26404" lon="1.14098">
        <ele>232</ele>
        <time>2017-09-17T10:12:12Z</time>
      </trkpt>
      <trkpt lat="49.2642" lon="1.14094">
        <ele>232</ele>
        <time>2017-09-17T10:12:16Z</time>
      </trkpt>
      <trkpt lat="49.2643" lon="1.14095">
        <ele>233</ele>
        <time>2017-09-17T10:12:20Z</time>
      </trkpt>
      <trkpt lat="49.26439" lon="1.14098">
        <ele>233</ele>
        <time>2017-09-17T10:12:24Z</time>
      </trkpt>
      <trkpt lat="49.26448" lon="1.14104">
        <ele>232</ele>
        <time>2017-09-17T10:12:28Z</time>
      </trkpt>
      <trkpt lat="49.26456" lon="1.14107">
        <ele>233</ele>
        <time>2017-09-17T10:12:32Z</time>
      </trkpt>
      <trkpt lat="49.26457" lon="1.14108">
        <ele>232</ele>
        <time>2017-09-17T10:12:36Z</time>
      </trkpt>
      <trkpt lat="49.26452" lon="1.14106">
        <ele>232</ele>
        <time>2017-09-17T10:12:40Z</time>
      </trkpt>
      <trkpt lat="49.2644" lon="1.14125">
        <ele>233</ele>
        <time>2017-09-17T10:12:52Z</time>
      </trkpt>
      <trkpt lat="49.26444" lon="1.14128">
        <ele>233</ele>
        <time>2017-09-17T10:12:56Z</time>
      </trkpt>
      <trkpt lat="49.26446" lon="1.14136">
        <ele>233</ele>
        <time>2017-09-17T10:13:00Z</time>
      </trkpt>
      <trkpt lat="49.26455" lon="1.14146">
        <ele>233</ele>
        <time>2017-09-17T10:13:04Z</time>
      </trkpt>
      <trkpt lat="49.26473" lon="1.14147">
        <ele>232</ele>
        <time>2017-09-17T10:13:12Z</time>
      </trkpt>
      <trkpt lat="49.26482" lon="1.14147">
        <ele>232</ele>
        <time>2017-09-17T10:13:16Z</time>
      </trkpt>
      <trkpt lat="49.26488" lon="1.1415">
        <ele>232</ele>
        <time>2017-09-17T10:13:20Z</time>
      </trkpt>
      <trkpt lat="49.26497" lon="1.14159">
        <ele>233</ele>
        <time>2017-09-17T10:14:52Z</time>
      </trkpt>
      <trkpt lat="49.26499" lon="1.14159">
        <ele>232</ele>
        <time>2017-09-17T10:14:56Z</time>
      </trkpt>
      <trkpt lat="49.26495" lon="1.14159">
        <ele>233</ele>
        <time>2017-09-17T10:15:12Z</time>
      </trkpt>
      <trkpt lat="49.26495" lon="1.14164">
        <ele>233</ele>
        <time>2017-09-17T10:15:16Z</time>
      </trkpt>
      <trkpt lat="49.26494" lon="1.14165">
        <ele>232</ele>
        <time>2017-09-17T10:15:24Z</time>
      </trkpt>
      <trkpt lat="49.26497" lon="1.1417">
        <ele>233</ele>
        <time>2017-09-17T10:15:28Z</time>
      </trkpt>
      <trkpt lat="49.26502" lon="1.14173">
        <ele>232</ele>
        <time>2017-09-17T10:15:32Z</time>
      </trkpt>
      <trkpt lat="49.26508" lon="1.14173">
        <ele>233</ele>
        <time>2017-09-17T10:15:36Z</time>
      </trkpt>
      <trkpt lat="49.26514" lon="1.14179">
        <ele>233</ele>
        <time>2017-09-17T10:15:40Z</time>
      </trkpt>
      <trkpt lat="49.26518" lon="1.14182">
        <ele>233</ele>
        <time>2017-09-17T10:15:44Z</time>
      </trkpt>
      <trkpt lat="49.26526" lon="1.14185">
        <ele>233</ele>
        <time>2017-09-17T10:15:48Z</time>
      </trkpt>
      <trkpt lat="49.26536" lon="1.1419">
        <ele>233</ele>
        <time>2017-09-17T10:15:52Z</time>
      </trkpt>
      <trkpt lat="49.26546" lon="1.14195">
        <ele>234</ele>
        <time>2017-09-17T10:15:56Z</time>
      </trkpt>
      <trkpt lat="49.26554" lon="1.14197">
        <ele>234</ele>
        <time>2017-09-17T10:16:00Z</time>
      </trkpt>
      <trkpt lat="49.26564" lon="1.14202">
        <ele>234</ele>
        <time>2017-09-17T10:16:04Z</time>
      </trkpt>
      <trkpt lat="49.26575" lon="1.14204">
        <ele>234</ele>
        <time>2017-09-17T10:16:08Z</time>
      </trkpt>
      <trkpt lat="49.26584" lon="1.14209">
        <ele>235</ele>
        <time>2017-09-17T10:16:12Z</time>
      </trkpt>
      <trkpt lat="49.26593" lon="1.14215">
        <ele>235</ele>
        <time>2017-09-17T10:16:16Z</time>
      </trkpt>
      <trkpt lat="49.26607" lon="1.14219">
        <ele>235</ele>
        <time>2017-09-17T10:16:20Z</time>
      </trkpt>
      <trkpt lat="49.26618" lon="1.14227">
        <ele>235</ele>
        <time>2017-09-17T10:16:24Z</time>
      </trkpt>
      <trkpt lat="49.2663" lon="1.14231">
        <ele>235</ele>
        <time>2017-09-17T10:16:28Z</time>
      </trkpt>
      <trkpt lat="49.26641" lon="1.14237">
        <ele>236</ele>
        <time>2017-09-17T10:16:32Z</time>
      </trkpt>
      <trkpt lat="49.26652" lon="1.14241">
        <ele>235</ele>
        <time>2017-09-17T10:16:36Z</time>
      </trkpt>
      <trkpt lat="49.26667" lon="1.14246">
        <ele>236</ele>
        <time>2017-09-17T10:16:40Z</time>
      </trkpt>
      <trkpt lat="49.26676" lon="1.14248">
        <ele>236</ele>
        <time>2017-09-17T10:16:44Z</time>
      </trkpt>
      <trkpt lat="49.26687" lon="1.14252">
        <ele>236</ele>
        <time>2017-09-17T10:16:48Z</time>
      </trkpt>
      <trkpt lat="49.26693" lon="1.1425">
        <ele>236</ele>
        <time>2017-09-17T10:16:52Z</time>
      </trkpt>
      <trkpt lat="49.26698" lon="1.14243">
        <ele>237</ele>
        <time>2017-09-17T10:16:56Z</time>
      </trkpt>
      <trkpt lat="49.26701" lon="1.14231">
        <ele>237</ele>
        <time>2017-09-17T10:17:00Z</time>
      </trkpt>
      <trkpt lat="49.26704" lon="1.14218">
        <ele>237</ele>
        <time>2017-09-17T10:17:04Z</time>
      </trkpt>
      <trkpt lat="49.26709" lon="1.14204">
        <ele>237</ele>
        <time>2017-09-17T10:17:08Z</time>
      </trkpt>
      <trkpt lat="49.26712" lon="1.14192">
        <ele>238</ele>
        <time>2017-09-17T10:17:12Z</time>
      </trkpt>
      <trkpt lat="49.26714" lon="1.14184">
        <ele>238</ele>
        <time>2017-09-17T10:17:16Z</time>
      </trkpt>
      <trkpt lat="49.26719" lon="1.14171">
        <ele>238</ele>
        <time>2017-09-17T10:17:20Z</time>
      </trkpt>
      <trkpt lat="49.26728" lon="1.1416">
        <ele>238</ele>
        <time>2017-09-17T10:17:24Z</time>
      </trkpt>
      <trkpt lat="49.26738" lon="1.14147">
        <ele>239</ele>
        <time>2017-09-17T10:17:28Z</time>
      </trkpt>
      <trkpt lat="49.26747" lon="1.14136">
        <ele>239</ele>
        <time>2017-09-17T10:17:32Z</time>
      </trkpt>
      <trkpt lat="49.26747" lon="1.14124">
        <ele>239</ele>
        <time>2017-09-17T10:17:36Z</time>
      </trkpt>
      <trkpt lat="49.26751" lon="1.14111">
        <ele>239</ele>
        <time>2017-09-17T10:17:40Z</time>
      </trkpt>
      <trkpt lat="49.26756" lon="1.14097">
        <ele>239</ele>
        <time>2017-09-17T10:17:44Z</time>
      </trkpt>
      <trkpt lat="49.26763" lon="1.14076">
        <ele>239</ele>
        <time>2017-09-17T10:17:48Z</time>
      </trkpt>
      <trkpt lat="49.26772" lon="1.14052">
        <ele>239</ele>
        <time>2017-09-17T10:17:52Z</time>
      </trkpt>
      <trkpt lat="49.26776" lon="1.14034">
        <ele>239</ele>
        <time>2017-09-17T10:17:56Z</time>
      </trkpt>
      <trkpt lat="49.2678" lon="1.1402">
        <ele>239</ele>
        <time>2017-09-17T10:18:00Z</time>
      </trkpt>
      <trkpt lat="49.26785" lon="1.14007">
        <ele>240</ele>
        <time>2017-09-17T10:18:04Z</time>
      </trkpt>
      <trkpt lat="49.26794" lon="1.13992">
        <ele>239</ele>
        <time>2017-09-17T10:18:08Z</time>
      </trkpt>
      <trkpt lat="49.26814" lon="1.13966">
        <ele>239</ele>
        <time>2017-09-17T10:18:12Z</time>
      </trkpt>
      <trkpt lat="49.26827" lon="1.13949">
        <ele>239</ele>
        <time>2017-09-17T10:18:16Z</time>
      </trkpt>
      <trkpt lat="49.26839" lon="1.13938">
        <ele>239</ele>
        <time>2017-09-17T10:18:20Z</time>
      </trkpt>
      <trkpt lat="49.26847" lon="1.13924">
        <ele>239</ele>
        <time>2017-09-17T10:18:24Z</time>
      </trkpt>
      <trkpt lat="49.26864" lon="1.13911">
        <ele>239</ele>
        <time>2017-09-17T10:18:28Z</time>
      </trkpt>
      <trkpt lat="49.26876" lon="1.13916">
        <ele>239</ele>
        <time>2017-09-17T10:18:32Z</time>
      </trkpt>
      <trkpt lat="49.26889" lon="1.1392">
        <ele>239</ele>
        <time>2017-09-17T10:18:36Z</time>
      </trkpt>
      <trkpt lat="49.26904" lon="1.13924">
        <ele>239</ele>
        <time>2017-09-17T10:18:40Z</time>
      </trkpt>
      <trkpt lat="49.2692" lon="1.1393">
        <ele>239</ele>
        <time>2017-09-17T10:18:44Z</time>
      </trkpt>
      <trkpt lat="49.26935" lon="1.13937">
        <ele>239</ele>
        <time>2017-09-17T10:18:48Z</time>
      </trkpt>
      <trkpt lat="49.26953" lon="1.13945">
        <ele>239</ele>
        <time>2017-09-17T10:18:52Z</time>
      </trkpt>
      <trkpt lat="49.26972" lon="1.13952">
        <ele>238</ele>
        <time>2017-09-17T10:18:56Z</time>
      </trkpt>
      <trkpt lat="49.26995" lon="1.13959">
        <ele>238</ele>
        <time>2017-09-17T10:19:00Z</time>
      </trkpt>
      <trkpt lat="49.27015" lon="1.13966">
        <ele>238</ele>
        <time>2017-09-17T10:19:04Z</time>
      </trkpt>
      <trkpt lat="49.27039" lon="1.13975">
        <ele>238</ele>
        <time>2017-09-17T10:19:08Z</time>
      </trkpt>
      <trkpt lat="49.27059" lon="1.13981">
        <ele>237</ele>
        <time>2017-09-17T10:19:12Z</time>
      </trkpt>
      <trkpt lat="49.27082" lon="1.13992">
        <ele>236</ele>
        <time>2017-09-17T10:19:16Z</time>
      </trkpt>
      <trkpt lat="49.27107" lon="1.14002">
        <ele>237</ele>
        <time>2017-09-17T10:19:20Z</time>
      </trkpt>
      <trkpt lat="49.27132" lon="1.14008">
        <ele>236</ele>
        <time>2017-09-17T10:19:24Z</time>
      </trkpt>
      <trkpt lat="49.27157" lon="1.14019">
        <ele>236</ele>
        <time>2017-09-17T10:19:28Z</time>
      </trkpt>
      <trkpt lat="49.27181" lon="1.14033">
        <ele>235</ele>
        <time>2017-09-17T10:19:32Z</time>
      </trkpt>
      <trkpt lat="49.27206" lon="1.14048">
        <ele>235</ele>
        <time>2017-09-17T10:19:36Z</time>
      </trkpt>
      <trkpt lat="49.2723" lon="1.1406">
        <ele>235</ele>
        <time>2017-09-17T10:19:40Z</time>
      </trkpt>
      <trkpt lat="49.27253" lon="1.14067">
        <ele>234</ele>
        <time>2017-09-17T10:19:44Z</time>
      </trkpt>
      <trkpt lat="49.2727" lon="1.14076">
        <ele>234</ele>
        <time>2017-09-17T10:19:48Z</time>
      </trkpt>
      <trkpt lat="49.27291" lon="1.14087">
        <ele>235</ele>
        <time>2017-09-17T10:19:52Z</time>
      </trkpt>
      <trkpt lat="49.2731" lon="1.14097">
        <ele>234</ele>
        <time>2017-09-17T10:19:56Z</time>
      </trkpt>
      <trkpt lat="49.27327" lon="1.14106">
        <ele>234</ele>
        <time>2017-09-17T10:20:00Z</time>
      </trkpt>
      <trkpt lat="49.27347" lon="1.14115">
        <ele>234</ele>
        <time>2017-09-17T10:20:04Z</time>
      </trkpt>
      <trkpt lat="49.27373" lon="1.14122">
        <ele>233</ele>
        <time>2017-09-17T10:20:08Z</time>
      </trkpt>
      <trkpt lat="49.27399" lon="1.14128">
        <ele>233</ele>
        <time>2017-09-17T10:20:12Z</time>
      </trkpt>
      <trkpt lat="49.27407" lon="1.1411">
        <ele>232</ele>
        <time>2017-09-17T10:20:16Z</time>
      </trkpt>
      <trkpt lat="49.27414" lon="1.14084">
        <ele>232</ele>
        <time>2017-09-17T10:20:20Z</time>
      </trkpt>
      <trkpt lat="49.27421" lon="1.14052">
        <ele>232</ele>
        <time>2017-09-17T10:20:24Z</time>
      </trkpt>
      <trkpt lat="49.27428" lon="1.14017">
        <ele>231</ele>
        <time>2017-09-17T10:20:28Z</time>
      </trkpt>
      <trkpt lat="49.27435" lon="1.13975">
        <ele>231</ele>
        <time>2017-09-17T10:20:32Z</time>
      </trkpt>
      <trkpt lat="49.2744" lon="1.13933">
        <ele>231</ele>
        <time>2017-09-17T10:20:36Z</time>
      </trkpt>
      <trkpt lat="49.27446" lon="1.13895">
        <ele>231</ele>
        <time>2017-09-17T10:20:40Z</time>
      </trkpt>
      <trkpt lat="49.2745" lon="1.13863">
        <ele>231</ele>
        <time>2017-09-17T10:20:44Z</time>
      </trkpt>
      <trkpt lat="49.27453" lon="1.13836">
        <ele>232</ele>
        <time>2017-09-17T10:20:48Z</time>
      </trkpt>
      <trkpt lat="49.27456" lon="1.13807">
        <ele>232</ele>
        <time>2017-09-17T10:20:52Z</time>
      </trkpt>
      <trkpt lat="49.27459" lon="1.13779">
        <ele>233</ele>
        <time>2017-09-17T10:20:56Z</time>
      </trkpt>
      <trkpt lat="49.27462" lon="1.13752">
        <ele>233</ele>
        <time>2017-09-17T10:21:00Z</time>
      </trkpt>
      <trkpt lat="49.27464" lon="1.13724">
        <ele>234</ele>
        <time>2017-09-17T10:21:04Z</time>
      </trkpt>
      <trkpt lat="49.27468" lon="1.13697">
        <ele>234</ele>
        <time>2017-09-17T10:21:08Z</time>
      </trkpt>
      <trkpt lat="49.27474" lon="1.13676">
        <ele>234</ele>
        <time>2017-09-17T10:21:12Z</time>
      </trkpt>
      <trkpt lat="49.27484" lon="1.1368">
        <ele>234</ele>
        <time>2017-09-17T10:21:16Z</time>
      </trkpt>
      <trkpt lat="49.27499" lon="1.13685">
        <ele>234</ele>
        <time>2017-09-17T10:21:20Z</time>
      </trkpt>
      <trkpt lat="49.27515" lon="1.13691">
        <ele>233</ele>
        <time>2017-09-17T10:21:24Z</time>
      </trkpt>
      <trkpt lat="49.2753" lon="1.13695">
        <ele>233</ele>
        <time>2017-09-17T10:21:28Z</time>
      </trkpt>
      <trkpt lat="49.27545" lon="1.13698">
        <ele>233</ele>
        <time>2017-09-17T10:21:32Z</time>
      </trkpt>
      <trkpt lat="49.27561" lon="1.137">
        <ele>232</ele>
        <time>2017-09-17T10:21:36Z</time>
      </trkpt>
      <trkpt lat="49.27575" lon="1.13703">
        <ele>232</ele>
        <time>2017-09-17T10:21:40Z</time>
      </trkpt>
      <trkpt lat="49.27589" lon="1.13706">
        <ele>232</ele>
        <time>2017-09-17T10:21:44Z</time>
      </trkpt>
      <trkpt lat="49.276" lon="1.1371">
        <ele>232</ele>
        <time>2017-09-17T10:21:48Z</time>
      </trkpt>
      <trkpt lat="49.27613" lon="1.13713">
        <ele>232</ele>
        <time>2017-09-17T10:21:52Z</time>
      </trkpt>
      <trkpt lat="49.27626" lon="1.13714">
        <ele>231</ele>
        <time>2017-09-17T10:21:56Z</time>
      </trkpt>
      <trkpt lat="49.27641" lon="1.13719">
        <ele>231</ele>
        <time>2017-09-17T10:22:00Z</time>
      </trkpt>
      <trkpt lat="49.27656" lon="1.13724">
        <ele>231</ele>
        <time>2017-09-17T10:22:04Z</time>
      </trkpt>
      <trkpt lat="49.27672" lon="1.13729">
        <ele>231</ele>
        <time>2017-09-17T10:22:08Z</time>
      </trkpt>
      <trkpt lat="49.27687" lon="1.13732">
        <ele>231</ele>
        <time>2017-09-17T10:22:12Z</time>
      </trkpt>
      <trkpt lat="49.27703" lon="1.13737">
        <ele>230</ele>
        <time>2017-09-17T10:22:16Z</time>
      </trkpt>
      <trkpt lat="49.27721" lon="1.13742">
        <ele>230</ele>
        <time>2017-09-17T10:22:20Z</time>
      </trkpt>
      <trkpt lat="49.27738" lon="1.13745">
        <ele>229</ele>
        <time>2017-09-17T10:22:24Z</time>
      </trkpt>
      <trkpt lat="49.27757" lon="1.1375">
        <ele>228</ele>
        <time>2017-09-17T10:22:28Z</time>
      </trkpt>
      <trkpt lat="49.27774" lon="1.13756">
        <ele>227</ele>
        <time>2017-09-17T10:22:32Z</time>
      </trkpt>
      <trkpt lat="49.2779" lon="1.13762">
        <ele>226</ele>
        <time>2017-09-17T10:22:36Z</time>
      </trkpt>
      <trkpt lat="49.27805" lon="1.13768">
        <ele>227</ele>
        <time>2017-09-17T10:22:40Z</time>
      </trkpt>
      <trkpt lat="49.27821" lon="1.13776">
        <ele>226</ele>
        <time>2017-09-17T10:22:44Z</time>
      </trkpt>
      <trkpt lat="49.27837" lon="1.13781">
        <ele>224</ele>
        <time>2017-09-17T10:22:48Z</time>
      </trkpt>
      <trkpt lat="49.27855" lon="1.13787">
        <ele>223</ele>
        <time>2017-09-17T10:22:52Z</time>
      </trkpt>
      <trkpt lat="49.27862" lon="1.13796">
        <ele>222</ele>
        <time>2017-09-17T10:22:56Z</time>
      </trkpt>
      <trkpt lat="49.27861" lon="1.1381">
        <ele>221</ele>
        <time>2017-09-17T10:23:00Z</time>
      </trkpt>
      <trkpt lat="49.2786" lon="1.13828">
        <ele>221</ele>
        <time>2017-09-17T10:23:04Z</time>
      </trkpt>
      <trkpt lat="49.27858" lon="1.13849">
        <ele>220</ele>
        <time>2017-09-17T10:23:08Z</time>
      </trkpt>
      <trkpt lat="49.27857" lon="1.13872">
        <ele>219</ele>
        <time>2017-09-17T10:23:12Z</time>
      </trkpt>
      <trkpt lat="49.27854" lon="1.13894">
        <ele>217</ele>
        <time>2017-09-17T10:23:16Z</time>
      </trkpt>
      <trkpt lat="49.2785" lon="1.13919">
        <ele>216</ele>
        <time>2017-09-17T10:23:20Z</time>
      </trkpt>
      <trkpt lat="49.27847" lon="1.13938">
        <ele>216</ele>
        <time>2017-09-17T10:23:24Z</time>
      </trkpt>
      <trkpt lat="49.27846" lon="1.13955">
        <ele>214</ele>
        <time>2017-09-17T10:23:28Z</time>
      </trkpt>
      <trkpt lat="49.27846" lon="1.13969">
        <ele>213</ele>
        <time>2017-09-17T10:23:32Z</time>
      </trkpt>
      <trkpt lat="49.2785" lon="1.1398">
        <ele>211</ele>
        <time>2017-09-17T10:23:36Z</time>
      </trkpt>
      <trkpt lat="49.27851" lon="1.13991">
        <ele>210</ele>
        <time>2017-09-17T10:23:40Z</time>
      </trkpt>
      <trkpt lat="49.27853" lon="1.14003">
        <ele>209</ele>
        <time>2017-09-17T10:23:44Z</time>
      </trkpt>
      <trkpt lat="49.2785" lon="1.14022">
        <ele>207</ele>
        <time>2017-09-17T10:23:48Z</time>
      </trkpt>
      <trkpt lat="49.27847" lon="1.14044">
        <ele>205</ele>
        <time>2017-09-17T10:23:52Z</time>
      </trkpt>
      <trkpt lat="49.27847" lon="1.1407">
        <ele>203</ele>
        <time>2017-09-17T10:23:56Z</time>
      </trkpt>
      <trkpt lat="49.27851" lon="1.14084">
        <ele>203</ele>
        <time>2017-09-17T10:24:00Z</time>
      </trkpt>
      <trkpt lat="49.27865" lon="1.14086">
        <ele>202</ele>
        <time>2017-09-17T10:24:04Z</time>
      </trkpt>
      <trkpt lat="49.2788" lon="1.14089">
        <ele>202</ele>
        <time>2017-09-17T10:24:08Z</time>
      </trkpt>
      <trkpt lat="49.27897" lon="1.14093">
        <ele>201</ele>
        <time>2017-09-17T10:24:12Z</time>
      </trkpt>
      <trkpt lat="49.27913" lon="1.14092">
        <ele>200</ele>
        <time>2017-09-17T10:24:16Z</time>
      </trkpt>
      <trkpt lat="49.27933" lon="1.14097">
        <ele>199</ele>
        <time>2017-09-17T10:24:20Z</time>
      </trkpt>
      <trkpt lat="49.27952" lon="1.14106">
        <ele>198</ele>
        <time>2017-09-17T10:24:24Z</time>
      </trkpt>
      <trkpt lat="49.27972" lon="1.14124">
        <ele>197</ele>
        <time>2017-09-17T10:24:28Z</time>
      </trkpt>
      <trkpt lat="49.27994" lon="1.1415">
        <ele>196</ele>
        <time>2017-09-17T10:24:32Z</time>
      </trkpt>
      <trkpt lat="49.28012" lon="1.14174">
        <ele>195</ele>
        <time>2017-09-17T10:24:36Z</time>
      </trkpt>
      <trkpt lat="49.28039" lon="1.14205">
        <ele>194</ele>
        <time>2017-09-17T10:24:40Z</time>
      </trkpt>
      <trkpt lat="49.28064" lon="1.14239">
        <ele>192</ele>
        <time>2017-09-17T10:24:44Z</time>
      </trkpt>
      <trkpt lat="49.28087" lon="1.14267">
        <ele>192</ele>
        <time>2017-09-17T10:24:48Z</time>
      </trkpt>
      <trkpt lat="49.2811" lon="1.14294">
        <ele>191</ele>
        <time>2017-09-17T10:24:52Z</time>
      </trkpt>
      <trkpt lat="49.28134" lon="1.14321">
        <ele>190</ele>
        <time>2017-09-17T10:24:56Z</time>
      </trkpt>
      <trkpt lat="49.28155" lon="1.14342">
        <ele>188</ele>
        <time>2017-09-17T10:25:00Z</time>
      </trkpt>
      <trkpt lat="49.28172" lon="1.14357">
        <ele>187</ele>
        <time>2017-09-17T10:25:04Z</time>
      </trkpt>
      <trkpt lat="49.28186" lon="1.14364">
        <ele>185</ele>
        <time>2017-09-17T10:25:08Z</time>
      </trkpt>
      <trkpt lat="49.28195" lon="1.14374">
        <ele>184</ele>
        <time>2017-09-17T10:25:12Z</time>
      </trkpt>
      <trkpt lat="49.28201" lon="1.14385">
        <ele>183</ele>
        <time>2017-09-17T10:25:16Z</time>
      </trkpt>
      <trkpt lat="49.28205" lon="1.14392">
        <ele>184</ele>
        <time>2017-09-17T10:25:20Z</time>
      </trkpt>
      <trkpt lat="49.28208" lon="1.14399">
        <ele>185</ele>
        <time>2017-09-17T10:25:24Z</time>
      </trkpt>
      <trkpt lat="49.28211" lon="1.14407">
        <ele>186</ele>
        <time>2017-09-17T10:25:28Z</time>
      </trkpt>
      <trkpt lat="49.28224" lon="1.14427">
        <ele>187</ele>
        <time>2017-09-17T10:25:36Z</time>
      </trkpt>
      <trkpt lat="49.28232" lon="1.14438">
        <ele>188</ele>
        <time>2017-09-17T10:25:40Z</time>
      </trkpt>
      <trkpt lat="49.28236" lon="1.14445">
        <ele>188</ele>
        <time>2017-09-17T10:25:44Z</time>
      </trkpt>
      <trkpt lat="49.28237" lon="1.14451">
        <ele>189</ele>
        <time>2017-09-17T10:25:48Z</time>
      </trkpt>
      <trkpt lat="49.28238" lon="1.14457">
        <ele>190</ele>
        <time>2017-09-17T10:25:52Z</time>
      </trkpt>
      <trkpt lat="49.28239" lon="1.14462">
        <ele>190</ele>
        <time>2017-09-17T10:25:56Z</time>
      </trkpt>
      <trkpt lat="49.28241" lon="1.14467">
        <ele>191</ele>
        <time>2017-09-17T10:26:00Z</time>
      </trkpt>
      <trkpt lat="49.28242" lon="1.14472">
        <ele>192</ele>
        <time>2017-09-17T10:26:04Z</time>
      </trkpt>
      <trkpt lat="49.28243" lon="1.14477">
        <ele>193</ele>
        <time>2017-09-17T10:26:08Z</time>
      </trkpt>
      <trkpt lat="49.28244" lon="1.14484">
        <ele>194</ele>
        <time>2017-09-17T10:26:12Z</time>
      </trkpt>
      <trkpt lat="49.28238" lon="1.14487">
        <ele>195</ele>
        <time>2017-09-17T10:26:16Z</time>
      </trkpt>
      <trkpt lat="49.28235" lon="1.14492">
        <ele>196</ele>
        <time>2017-09-17T10:26:20Z</time>
      </trkpt>
      <trkpt lat="49.28233" lon="1.14497">
        <ele>196</ele>
        <time>2017-09-17T10:26:24Z</time>
      </trkpt>
      <trkpt lat="49.28233" lon="1.14502">
        <ele>197</ele>
        <time>2017-09-17T10:26:28Z</time>
      </trkpt>
      <trkpt lat="49.28234" lon="1.14507">
        <ele>198</ele>
        <time>2017-09-17T10:26:32Z</time>
      </trkpt>
      <trkpt lat="49.28234" lon="1.14512">
        <ele>198</ele>
        <time>2017-09-17T10:26:36Z</time>
      </trkpt>
      <trkpt lat="49.28234" lon="1.14516">
        <ele>199</ele>
        <time>2017-09-17T10:26:40Z</time>
      </trkpt>
      <trkpt lat="49.28236" lon="1.14523">
        <ele>200</ele>
        <time>2017-09-17T10:26:44Z</time>
      </trkpt>
      <trkpt lat="49.28235" lon="1.14528">
        <ele>201</ele>
        <time>2017-09-17T10:26:48Z</time>
      </trkpt>
      <trkpt lat="49.28232" lon="1.14531">
        <ele>202</ele>
        <time>2017-09-17T10:26:52Z</time>
      </trkpt>
      <trkpt lat="49.2823" lon="1.14537">
        <ele>202</ele>
        <time>2017-09-17T10:26:56Z</time>
      </trkpt>
      <trkpt lat="49.28232" lon="1.14543">
        <ele>203</ele>
        <time>2017-09-17T10:27:00Z</time>
      </trkpt>
      <trkpt lat="49.28234" lon="1.14552">
        <ele>204</ele>
        <time>2017-09-17T10:27:08Z</time>
      </trkpt>
      <trkpt lat="49.28234" lon="1.14556">
        <ele>204</ele>
        <time>2017-09-17T10:27:12Z</time>
      </trkpt>
      <trkpt lat="49.28226" lon="1.14561">
        <ele>206</ele>
        <time>2017-09-17T10:27:16Z</time>
      </trkpt>
      <trkpt lat="49.28225" lon="1.14563">
        <ele>206</ele>
        <time>2017-09-17T10:27:20Z</time>
      </trkpt>
      <trkpt lat="49.28226" lon="1.14569">
        <ele>206</ele>
        <time>2017-09-17T10:27:32Z</time>
      </trkpt>
      <trkpt lat="49.28226" lon="1.14572">
        <ele>207</ele>
        <time>2017-09-17T10:27:36Z</time>
      </trkpt>
      <trkpt lat="49.28228" lon="1.14579">
        <ele>207</ele>
        <time>2017-09-17T10:27:40Z</time>
      </trkpt>
      <trkpt lat="49.28227" lon="1.14589">
        <ele>208</ele>
        <time>2017-09-17T10:27:44Z</time>
      </trkpt>
      <trkpt lat="49.28225" lon="1.14598">
        <ele>208</ele>
        <time>2017-09-17T10:27:48Z</time>
      </trkpt>
      <trkpt lat="49.28222" lon="1.14608">
        <ele>208</ele>
        <time>2017-09-17T10:27:52Z</time>
      </trkpt>
      <trkpt lat="49.28224" lon="1.14617">
        <ele>209</ele>
        <time>2017-09-17T10:27:56Z</time>
      </trkpt>
      <trkpt lat="49.28224" lon="1.14626">
        <ele>209</ele>
        <time>2017-09-17T10:28:00Z</time>
      </trkpt>
      <trkpt lat="49.28222" lon="1.14639">
        <ele>210</ele>
        <time>2017-09-17T10:28:04Z</time>
      </trkpt>
      <trkpt lat="49.28218" lon="1.1465">
        <ele>210</ele>
        <time>2017-09-17T10:28:08Z</time>
      </trkpt>
      <trkpt lat="49.28217" lon="1.14661">
        <ele>211</ele>
        <time>2017-09-17T10:28:12Z</time>
      </trkpt>
      <trkpt lat="49.28218" lon="1.1467">
        <ele>211</ele>
        <time>2017-09-17T10:28:16Z</time>
      </trkpt>
      <trkpt lat="49.2822" lon="1.1468">
        <ele>211</ele>
        <time>2017-09-17T10:28:20Z</time>
      </trkpt>
      <trkpt lat="49.2822" lon="1.14689">
        <ele>212</ele>
        <time>2017-09-17T10:28:24Z</time>
      </trkpt>
      <trkpt lat="49.2822" lon="1.147">
        <ele>212</ele>
        <time>2017-09-17T10:28:28Z</time>
      </trkpt>
      <trkpt lat="49.2822" lon="1.14716">
        <ele>212</ele>
        <time>2017-09-17T10:28:32Z</time>
      </trkpt>
      <trkpt lat="49.28217" lon="1.1473">
        <ele>213</ele>
        <time>2017-09-17T10:28:36Z</time>
      </trkpt>
      <trkpt lat="49.28217" lon="1.14744">
        <ele>213</ele>
        <time>2017-09-17T10:28:40Z</time>
      </trkpt>
      <trkpt lat="49.28215" lon="1.14765">
        <ele>212</ele>
        <time>2017-09-17T10:28:44Z</time>
      </trkpt>
      <trkpt lat="49.28213" lon="1.14779">
        <ele>213</ele>
        <time>2017-09-17T10:28:48Z</time>
      </trkpt>
      <trkpt lat="49.28211" lon="1.14799">
        <ele>213</ele>
        <time>2017-09-17T10:28:52Z</time>
      </trkpt>
      <trkpt lat="49.28208" lon="1.14817">
        <ele>214</ele>
        <time>2017-09-17T10:28:56Z</time>
      </trkpt>
      <trkpt lat="49.28206" lon="1.14833">
        <ele>214</ele>
        <time>2017-09-17T10:29:00Z</time>
      </trkpt>
      <trkpt lat="49.28207" lon="1.14855">
        <ele>215</ele>
        <time>2017-09-17T10:29:04Z</time>
      </trkpt>
      <trkpt lat="49.28207" lon="1.14873">
        <ele>214</ele>
        <time>2017-09-17T10:29:08Z</time>
      </trkpt>
      <trkpt lat="49.28205" lon="1.14886">
        <ele>214</ele>
        <time>2017-09-17T10:29:12Z</time>
      </trkpt>
      <trkpt lat="49.28201" lon="1.14909">
        <ele>213</ele>
        <time>2017-09-17T10:29:16Z</time>
      </trkpt>
      <trkpt lat="49.28199" lon="1.14941">
        <ele>212</ele>
        <time>2017-09-17T10:29:20Z</time>
      </trkpt>
      <trkpt lat="49.2819" lon="1.14972">
        <ele>211</ele>
        <time>2017-09-17T10:29:24Z</time>
      </trkpt>
      <trkpt lat="49.28187" lon="1.15003">
        <ele>212</ele>
        <time>2017-09-17T10:29:28Z</time>
      </trkpt>
      <trkpt lat="49.28183" lon="1.15029">
        <ele>214</ele>
        <time>2017-09-17T10:29:32Z</time>
      </trkpt>
      <trkpt lat="49.28179" lon="1.15058">
        <ele>215</ele>
        <time>2017-09-17T10:29:36Z</time>
      </trkpt>
      <trkpt lat="49.28176" lon="1.15084">
        <ele>215</ele>
        <time>2017-09-17T10:29:40Z</time>
      </trkpt>
      <trkpt lat="49.28174" lon="1.15112">
        <ele>215</ele>
        <time>2017-09-17T10:29:44Z</time>
      </trkpt>
      <trkpt lat="49.28166" lon="1.15142">
        <ele>216</ele>
        <time>2017-09-17T10:29:48Z</time>
      </trkpt>
      <trkpt lat="49.28161" lon="1.15171">
        <ele>216</ele>
        <time>2017-09-17T10:29:52Z</time>
      </trkpt>
      <trkpt lat="49.28156" lon="1.15201">
        <ele>216</ele>
        <time>2017-09-17T10:29:56Z</time>
      </trkpt>
      <trkpt lat="49.28154" lon="1.1523">
        <ele>217</ele>
        <time>2017-09-17T10:30:00Z</time>
      </trkpt>
      <trkpt lat="49.28153" lon="1.15262">
        <ele>216</ele>
        <time>2017-09-17T10:30:04Z</time>
      </trkpt>
      <trkpt lat="49.28154" lon="1.15293">
        <ele>217</ele>
        <time>2017-09-17T10:30:08Z</time>
      </trkpt>
      <trkpt lat="49.2816" lon="1.15329">
        <ele>216</ele>
        <time>2017-09-17T10:30:12Z</time>
      </trkpt>
      <trkpt lat="49.28149" lon="1.15337">
        <ele>218</ele>
        <time>2017-09-17T10:30:16Z</time>
      </trkpt>
      <trkpt lat="49.2814" lon="1.15334">
        <ele>219</ele>
        <time>2017-09-17T10:30:20Z</time>
      </trkpt>
      <trkpt lat="49.2813" lon="1.15332">
        <ele>219</ele>
        <time>2017-09-17T10:30:24Z</time>
      </trkpt>
      <trkpt lat="49.28121" lon="1.1533">
        <ele>221</ele>
        <time>2017-09-17T10:30:28Z</time>
      </trkpt>
      <trkpt lat="49.28114" lon="1.15326">
        <ele>222</ele>
        <time>2017-09-17T10:30:32Z</time>
      </trkpt>
      <trkpt lat="49.28104" lon="1.15323">
        <ele>223</ele>
        <time>2017-09-17T10:30:36Z</time>
      </trkpt>
      <trkpt lat="49.28095" lon="1.15319">
        <ele>224</ele>
        <time>2017-09-17T10:30:40Z</time>
      </trkpt>
      <trkpt lat="49.28087" lon="1.15316">
        <ele>225</ele>
        <time>2017-09-17T10:30:44Z</time>
      </trkpt>
      <trkpt lat="49.28077" lon="1.15314">
        <ele>226</ele>
        <time>2017-09-17T10:30:48Z</time>
      </trkpt>
      <trkpt lat="49.28069" lon="1.15311">
        <ele>226</ele>
        <time>2017-09-17T10:30:52Z</time>
      </trkpt>
      <trkpt lat="49.2806" lon="1.15309">
        <ele>227</ele>
        <time>2017-09-17T10:30:56Z</time>
      </trkpt>
      <trkpt lat="49.28051" lon="1.15305">
        <ele>228</ele>
        <time>2017-09-17T10:31:00Z</time>
      </trkpt>
      <trkpt lat="49.28041" lon="1.15304">
        <ele>228</ele>
        <time>2017-09-17T10:31:04Z</time>
      </trkpt>
      <trkpt lat="49.28031" lon="1.15299">
        <ele>229</ele>
        <time>2017-09-17T10:31:08Z</time>
      </trkpt>
      <trkpt lat="49.2802" lon="1.15295">
        <ele>229</ele>
        <time>2017-09-17T10:31:12Z</time>
      </trkpt>
      <trkpt lat="49.28009" lon="1.15291">
        <ele>230</ele>
        <time>2017-09-17T10:31:16Z</time>
      </trkpt>
      <trkpt lat="49.27998" lon="1.15287">
        <ele>231</ele>
        <time>2017-09-17T10:31:20Z</time>
      </trkpt>
      <trkpt lat="49.27986" lon="1.15281">
        <ele>232</ele>
        <time>2017-09-17T10:31:24Z</time>
      </trkpt>
      <trkpt lat="49.27976" lon="1.15277">
        <ele>232</ele>
        <time>2017-09-17T10:31:28Z</time>
      </trkpt>
      <trkpt lat="49.27963" lon="1.15272">
        <ele>233</ele>
        <time>2017-09-17T10:31:32Z</time>
      </trkpt>
      <trkpt lat="49.27952" lon="1.15268">
        <ele>233</ele>
        <time>2017-09-17T10:31:36Z</time>
      </trkpt>
      <trkpt lat="49.27942" lon="1.15263">
        <ele>234</ele>
        <time>2017-09-17T10:31:40Z</time>
      </trkpt>
      <trkpt lat="49.27931" lon="1.15258">
        <ele>234</ele>
        <time>2017-09-17T10:31:44Z</time>
      </trkpt>
      <trkpt lat="49.27918" lon="1.15253">
        <ele>235</ele>
        <time>2017-09-17T10:31:48Z</time>
      </trkpt>
      <trkpt lat="49.27905" lon="1.15246">
        <ele>235</ele>
        <time>2017-09-17T10:31:52Z</time>
      </trkpt>
      <trkpt lat="49.27893" lon="1.1524">
        <ele>235</ele>
        <time>2017-09-17T10:31:56Z</time>
      </trkpt>
      <trkpt lat="49.27877" lon="1.15236">
        <ele>236</ele>
        <time>2017-09-17T10:32:00Z</time>
      </trkpt>
      <trkpt lat="49.2786" lon="1.1523">
        <ele>236</ele>
        <time>2017-09-17T10:32:04Z</time>
      </trkpt>
      <trkpt lat="49.27842" lon="1.15226">
        <ele>236</ele>
        <time>2017-09-17T10:32:08Z</time>
      </trkpt>
      <trkpt lat="49.27823" lon="1.15215">
        <ele>237</ele>
        <time>2017-09-17T10:32:12Z</time>
      </trkpt>
      <trkpt lat="49.27803" lon="1.15206">
        <ele>237</ele>
        <time>2017-09-17T10:32:16Z</time>
      </trkpt>
      <trkpt lat="49.27782" lon="1.15195">
        <ele>237</ele>
        <time>2017-09-17T10:32:20Z</time>
      </trkpt>
      <trkpt lat="49.27763" lon="1.15186">
        <ele>238</ele>
        <time>2017-09-17T10:32:24Z</time>
      </trkpt>
      <trkpt lat="49.27741" lon="1.15175">
        <ele>238</ele>
        <time>2017-09-17T10:32:28Z</time>
      </trkpt>
      <trkpt lat="49.27723" lon="1.15167">
        <ele>237</ele>
        <time>2017-09-17T10:32:32Z</time>
      </trkpt>
      <trkpt lat="49.27723" lon="1.15158">
        <ele>237</ele>
        <time>2017-09-17T10:32:36Z</time>
      </trkpt>
      <trkpt lat="49.27724" lon="1.15146">
        <ele>238</ele>
        <time>2017-09-17T10:32:40Z</time>
      </trkpt>
      <trkpt lat="49.27725" lon="1.15132">
        <ele>238</ele>
        <time>2017-09-17T10:32:44Z</time>
      </trkpt>
      <trkpt lat="49.2773" lon="1.15111">
        <ele>238</ele>
        <time>2017-09-17T10:32:48Z</time>
      </trkpt>
      <trkpt lat="49.27732" lon="1.15087">
        <ele>238</ele>
        <time>2017-09-17T10:32:52Z</time>
      </trkpt>
      <trkpt lat="49.27732" lon="1.15063">
        <ele>238</ele>
        <time>2017-09-17T10:32:56Z</time>
      </trkpt>
      <trkpt lat="49.27736" lon="1.15037">
        <ele>238</ele>
        <time>2017-09-17T10:33:00Z</time>
      </trkpt>
      <trkpt lat="49.2774" lon="1.1501">
        <ele>238</ele>
        <time>2017-09-17T10:33:04Z</time>
      </trkpt>
      <trkpt lat="49.27744" lon="1.14984">
        <ele>238</ele>
        <time>2017-09-17T10:33:08Z</time>
      </trkpt>
      <trkpt lat="49.27744" lon="1.14956">
        <ele>238</ele>
        <time>2017-09-17T10:33:12Z</time>
      </trkpt>
      <trkpt lat="49.27748" lon="1.14927">
        <ele>238</ele>
        <time>2017-09-17T10:33:16Z</time>
      </trkpt>
      <trkpt lat="49.27751" lon="1.14898">
        <ele>237</ele>
        <time>2017-09-17T10:33:20Z</time>
      </trkpt>
      <trkpt lat="49.27756" lon="1.14867">
        <ele>237</ele>
        <time>2017-09-17T10:33:24Z</time>
      </trkpt>
      <trkpt lat="49.2776" lon="1.14832">
        <ele>237</ele>
        <time>2017-09-17T10:33:28Z</time>
      </trkpt>
      <trkpt lat="49.27766" lon="1.14796">
        <ele>237</ele>
        <time>2017-09-17T10:33:32Z</time>
      </trkpt>
      <trkpt lat="49.27774" lon="1.14764">
        <ele>237</ele>
        <time>2017-09-17T10:33:36Z</time>
      </trkpt>
      <trkpt lat="49.27779" lon="1.1473">
        <ele>236</ele>
        <time>2017-09-17T10:33:40Z</time>
      </trkpt>
      <trkpt lat="49.27784" lon="1.14703">
        <ele>235</ele>
        <time>2017-09-17T10:33:44Z</time>
      </trkpt>
      <trkpt lat="49.27786" lon="1.14667">
        <ele>235</ele>
        <time>2017-09-17T10:33:48Z</time>
      </trkpt>
      <trkpt lat="49.27789" lon="1.14631">
        <ele>235</ele>
        <time>2017-09-17T10:33:52Z</time>
      </trkpt>
      <trkpt lat="49.27792" lon="1.14595">
        <ele>234</ele>
        <time>2017-09-17T10:33:56Z</time>
      </trkpt>
      <trkpt lat="49.27793" lon="1.14563">
        <ele>234</ele>
        <time>2017-09-17T10:34:00Z</time>
      </trkpt>
      <trkpt lat="49.27795" lon="1.14538">
        <ele>234</ele>
        <time>2017-09-17T10:34:04Z</time>
      </trkpt>
      <trkpt lat="49.2779" lon="1.14528">
        <ele>233</ele>
        <time>2017-09-17T10:34:08Z</time>
      </trkpt>
      <trkpt lat="49.2778" lon="1.14516">
        <ele>234</ele>
        <time>2017-09-17T10:34:12Z</time>
      </trkpt>
      <trkpt lat="49.27769" lon="1.14509">
        <ele>234</ele>
        <time>2017-09-17T10:34:16Z</time>
      </trkpt>
      <trkpt lat="49.27758" lon="1.14503">
        <ele>234</ele>
        <time>2017-09-17T10:34:20Z</time>
      </trkpt>
      <trkpt lat="49.27747" lon="1.14498">
        <ele>233</ele>
        <time>2017-09-17T10:34:24Z</time>
      </trkpt>
      <trkpt lat="49.27736" lon="1.14497">
        <ele>233</ele>
        <time>2017-09-17T10:34:28Z</time>
      </trkpt>
      <trkpt lat="49.27724" lon="1.1449">
        <ele>233</ele>
        <time>2017-09-17T10:34:32Z</time>
      </trkpt>
      <trkpt lat="49.27711" lon="1.14485">
        <ele>234</ele>
        <time>2017-09-17T10:34:36Z</time>
      </trkpt>
      <trkpt lat="49.27698" lon="1.14486">
        <ele>233</ele>
        <time>2017-09-17T10:34:40Z</time>
      </trkpt>
      <trkpt lat="49.27683" lon="1.14481">
        <ele>233</ele>
        <time>2017-09-17T10:34:44Z</time>
      </trkpt>
      <trkpt lat="49.27667" lon="1.14477">
        <ele>232</ele>
        <time>2017-09-17T10:34:48Z</time>
      </trkpt>
      <trkpt lat="49.2765" lon="1.14473">
        <ele>231</ele>
        <time>2017-09-17T10:34:52Z</time>
      </trkpt>
      <trkpt lat="49.27635" lon="1.14469">
        <ele>231</ele>
        <time>2017-09-17T10:34:56Z</time>
      </trkpt>
      <trkpt lat="49.27626" lon="1.14465">
        <ele>231</ele>
        <time>2017-09-17T10:35:00Z</time>
      </trkpt>
      <trkpt lat="49.27616" lon="1.14461">
        <ele>231</ele>
        <time>2017-09-17T10:35:04Z</time>
      </trkpt>
      <trkpt lat="49.27605" lon="1.14455">
        <ele>231</ele>
        <time>2017-09-17T10:35:08Z</time>
      </trkpt>
      <trkpt lat="49.27592" lon="1.14451">
        <ele>231</ele>
        <time>2017-09-17T10:35:12Z</time>
      </trkpt>
      <trkpt lat="49.27581" lon="1.14449">
        <ele>232</ele>
        <time>2017-09-17T10:35:16Z</time>
      </trkpt>
      <trkpt lat="49.27569" lon="1.14445">
        <ele>232</ele>
        <time>2017-09-17T10:35:20Z</time>
      </trkpt>
      <trkpt lat="49.27557" lon="1.14442">
        <ele>232</ele>
        <time>2017-09-17T10:35:24Z</time>
      </trkpt>
      <trkpt lat="49.27546" lon="1.14439">
        <ele>232</ele>
        <time>2017-09-17T10:35:28Z</time>
      </trkpt>
      <trkpt lat="49.27535" lon="1.14438">
        <ele>232</ele>
        <time>2017-09-17T10:35:32Z</time>
      </trkpt>
      <trkpt lat="49.27521" lon="1.14435">
        <ele>233</ele>
        <time>2017-09-17T10:35:36Z</time>
      </trkpt>
      <trkpt lat="49.27513" lon="1.14432">
        <ele>233</ele>
        <time>2017-09-17T10:35:40Z</time>
      </trkpt>
      <trkpt lat="49.27502" lon="1.14428">
        <ele>233</ele>
        <time>2017-09-17T10:35:44Z</time>
      </trkpt>
      <trkpt lat="49.27489" lon="1.14429">
        <ele>233</ele>
        <time>2017-09-17T10:35:48Z</time>
      </trkpt>
      <trkpt lat="49.27475" lon="1.14427">
        <ele>233</ele>
        <time>2017-09-17T10:35:52Z</time>
      </trkpt>
      <trkpt lat="49.27465" lon="1.14426">
        <ele>234</ele>
        <time>2017-09-17T10:35:56Z</time>
      </trkpt>
      <trkpt lat="49.27452" lon="1.14424">
        <ele>234</ele>
        <time>2017-09-17T10:36:00Z</time>
      </trkpt>
      <trkpt lat="49.2744" lon="1.14423">
        <ele>234</ele>
        <time>2017-09-17T10:36:04Z</time>
      </trkpt>
      <trkpt lat="49.27429" lon="1.1442">
        <ele>234</ele>
        <time>2017-09-17T10:36:08Z</time>
      </trkpt>
      <trkpt lat="49.27422" lon="1.14429">
        <ele>235</ele>
        <time>2017-09-17T10:36:12Z</time>
      </trkpt>
      <trkpt lat="49.27415" lon="1.14441">
        <ele>235</ele>
        <time>2017-09-17T10:36:16Z</time>
      </trkpt>
      <trkpt lat="49.27408" lon="1.14453">
        <ele>235</ele>
        <time>2017-09-17T10:36:20Z</time>
      </trkpt>
      <trkpt lat="49.27401" lon="1.14463">
        <ele>236</ele>
        <time>2017-09-17T10:36:24Z</time>
      </trkpt>
      <trkpt lat="49.27401" lon="1.14481">
        <ele>236</ele>
        <time>2017-09-17T10:36:28Z</time>
      </trkpt>
      <trkpt lat="49.27397" lon="1.14501">
        <ele>236</ele>
        <time>2017-09-17T10:36:32Z</time>
      </trkpt>
      <trkpt lat="49.27391" lon="1.14524">
        <ele>236</ele>
        <time>2017-09-17T10:36:36Z</time>
      </trkpt>
      <trkpt lat="49.27383" lon="1.14542">
        <ele>237</ele>
        <time>2017-09-17T10:36:40Z</time>
      </trkpt>
      <trkpt lat="49.27369" lon="1.1455">
        <ele>237</ele>
        <time>2017-09-17T10:36:44Z</time>
      </trkpt>
      <trkpt lat="49.27357" lon="1.14548">
        <ele>236</ele>
        <time>2017-09-17T10:36:48Z</time>
      </trkpt>
      <trkpt lat="49.27341" lon="1.14545">
        <ele>237</ele>
        <time>2017-09-17T10:36:52Z</time>
      </trkpt>
      <trkpt lat="49.27327" lon="1.14542">
        <ele>237</ele>
        <time>2017-09-17T10:36:56Z</time>
      </trkpt>
      <trkpt lat="49.27323" lon="1.14542">
        <ele>237</ele>
        <time>2017-09-17T10:37:16Z</time>
      </trkpt>
      <trkpt lat="49.2732" lon="1.14541">
        <ele>237</ele>
        <time>2017-09-17T10:37:20Z</time>
      </trkpt>
      <trkpt lat="49.27315" lon="1.1454">
        <ele>237</ele>
        <time>2017-09-17T10:37:24Z</time>
      </trkpt>
      <trkpt lat="49.27308" lon="1.14537">
        <ele>237</ele>
        <time>2017-09-17T10:37:28Z</time>
      </trkpt>
      <trkpt lat="49.27299" lon="1.14535">
        <ele>237</ele>
        <time>2017-09-17T10:37:32Z</time>
      </trkpt>
      <trkpt lat="49.27285" lon="1.14531">
        <ele>237</ele>
        <time>2017-09-17T10:37:36Z</time>
      </trkpt>
      <trkpt lat="49.27273" lon="1.14525">
        <ele>237</ele>
        <time>2017-09-17T10:37:40Z</time>
      </trkpt>
      <trkpt lat="49.27262" lon="1.14522">
        <ele>237</ele>
        <time>2017-09-17T10:37:44Z</time>
      </trkpt>
      <trkpt lat="49.27247" lon="1.14517">
        <ele>237</ele>
        <time>2017-09-17T10:37:48Z</time>
      </trkpt>
      <trkpt lat="49.27236" lon="1.1451">
        <ele>237</ele>
        <time>2017-09-17T10:37:52Z</time>
      </trkpt>
      <trkpt lat="49.27223" lon="1.14505">
        <ele>237</ele>
        <time>2017-09-17T10:37:56Z</time>
      </trkpt>
      <trkpt lat="49.2721" lon="1.145">
        <ele>237</ele>
        <time>2017-09-17T10:38:00Z</time>
      </trkpt>
      <trkpt lat="49.27196" lon="1.14495">
        <ele>237</ele>
        <time>2017-09-17T10:38:04Z</time>
      </trkpt>
      <trkpt lat="49.27183" lon="1.14491">
        <ele>237</ele>
        <time>2017-09-17T10:38:08Z</time>
      </trkpt>
      <trkpt lat="49.27172" lon="1.14488">
        <ele>237</ele>
        <time>2017-09-17T10:38:12Z</time>
      </trkpt>
      <trkpt lat="49.2716" lon="1.14486">
        <ele>237</ele>
        <time>2017-09-17T10:38:16Z</time>
      </trkpt>
      <trkpt lat="49.27149" lon="1.14482">
        <ele>237</ele>
        <time>2017-09-17T10:38:20Z</time>
      </trkpt>
      <trkpt lat="49.27135" lon="1.14477">
        <ele>237</ele>
        <time>2017-09-17T10:38:24Z</time>
      </trkpt>
      <trkpt lat="49.27121" lon="1.14468">
        <ele>237</ele>
        <time>2017-09-17T10:38:28Z</time>
      </trkpt>
      <trkpt lat="49.2711" lon="1.14461">
        <ele>237</ele>
        <time>2017-09-17T10:38:32Z</time>
      </trkpt>
      <trkpt lat="49.27103" lon="1.14458">
        <ele>237</ele>
        <time>2017-09-17T10:38:36Z</time>
      </trkpt>
      <trkpt lat="49.27095" lon="1.14453">
        <ele>237</ele>
        <time>2017-09-17T10:38:40Z</time>
      </trkpt>
      <trkpt lat="49.27084" lon="1.1445">
        <ele>237</ele>
        <time>2017-09-17T10:38:44Z</time>
      </trkpt>
      <trkpt lat="49.27072" lon="1.14446">
        <ele>237</ele>
        <time>2017-09-17T10:38:48Z</time>
      </trkpt>
      <trkpt lat="49.27061" lon="1.14437">
        <ele>237</ele>
        <time>2017-09-17T10:38:52Z</time>
      </trkpt>
      <trkpt lat="49.27048" lon="1.14431">
        <ele>237</ele>
        <time>2017-09-17T10:38:56Z</time>
      </trkpt>
      <trkpt lat="49.27037" lon="1.14425">
        <ele>237</ele>
        <time>2017-09-17T10:39:00Z</time>
      </trkpt>
      <trkpt lat="49.27022" lon="1.14416">
        <ele>237</ele>
        <time>2017-09-17T10:39:04Z</time>
      </trkpt>
      <trkpt lat="49.2701" lon="1.14411">
        <ele>237</ele>
        <time>2017-09-17T10:39:08Z</time>
      </trkpt>
      <trkpt lat="49.26999" lon="1.14406">
        <ele>237</ele>
        <time>2017-09-17T10:39:12Z</time>
      </trkpt>
      <trkpt lat="49.26987" lon="1.14397">
        <ele>237</ele>
        <time>2017-09-17T10:39:16Z</time>
      </trkpt>
      <trkpt lat="49.26973" lon="1.14391">
        <ele>237</ele>
        <time>2017-09-17T10:39:20Z</time>
      </trkpt>
      <trkpt lat="49.26962" lon="1.14388">
        <ele>237</ele>
        <time>2017-09-17T10:39:24Z</time>
      </trkpt>
      <trkpt lat="49.26954" lon="1.14381">
        <ele>237</ele>
        <time>2017-09-17T10:39:28Z</time>
      </trkpt>
      <trkpt lat="49.26942" lon="1.14374">
        <ele>237</ele>
        <time>2017-09-17T10:39:32Z</time>
      </trkpt>
      <trkpt lat="49.26927" lon="1.14373">
        <ele>237</ele>
        <time>2017-09-17T10:39:36Z</time>
      </trkpt>
      <trkpt lat="49.26919" lon="1.14368">
        <ele>237</ele>
        <time>2017-09-17T10:39:40Z</time>
      </trkpt>
      <trkpt lat="49.26913" lon="1.14364">
        <ele>237</ele>
        <time>2017-09-17T10:39:44Z</time>
      </trkpt>
      <trkpt lat="49.269" lon="1.1436">
        <ele>237</ele>
        <time>2017-09-17T10:39:48Z</time>
      </trkpt>
      <trkpt lat="49.26892" lon="1.14354">
        <ele>237</ele>
        <time>2017-09-17T10:39:52Z</time>
      </trkpt>
      <trkpt lat="49.2688" lon="1.14349">
        <ele>237</ele>
        <time>2017-09-17T10:39:56Z</time>
      </trkpt>
      <trkpt lat="49.26866" lon="1.14347">
        <ele>237</ele>
        <time>2017-09-17T10:40:00Z</time>
      </trkpt>
      <trkpt lat="49.26856" lon="1.1434">
        <ele>237</ele>
        <time>2017-09-17T10:40:04Z</time>
      </trkpt>
      <trkpt lat="49.2684" lon="1.14339">
        <ele>237</ele>
        <time>2017-09-17T10:40:08Z</time>
      </trkpt>
      <trkpt lat="49.26825" lon="1.14335">
        <ele>236</ele>
        <time>2017-09-17T10:40:12Z</time>
      </trkpt>
      <trkpt lat="49.26806" lon="1.14327">
        <ele>236</ele>
        <time>2017-09-17T10:40:16Z</time>
      </trkpt>
      <trkpt lat="49.26785" lon="1.14319">
        <ele>236</ele>
        <time>2017-09-17T10:40:20Z</time>
      </trkpt>
      <trkpt lat="49.26762" lon="1.14306">
        <ele>235</ele>
        <time>2017-09-17T10:40:24Z</time>
      </trkpt>
      <trkpt lat="49.2674" lon="1.14297">
        <ele>234</ele>
        <time>2017-09-17T10:40:28Z</time>
      </trkpt>
      <trkpt lat="49.26726" lon="1.14302">
        <ele>234</ele>
        <time>2017-09-17T10:40:32Z</time>
      </trkpt>
      <trkpt lat="49.26714" lon="1.1432">
        <ele>233</ele>
        <time>2017-09-17T10:40:36Z</time>
      </trkpt>
      <trkpt lat="49.2671" lon="1.14329">
        <ele>233</ele>
        <time>2017-09-17T10:40:40Z</time>
      </trkpt>
      <trkpt lat="49.26705" lon="1.14337">
        <ele>232</ele>
        <time>2017-09-17T10:40:44Z</time>
      </trkpt>
      <trkpt lat="49.267" lon="1.14351">
        <ele>232</ele>
        <time>2017-09-17T10:40:48Z</time>
      </trkpt>
      <trkpt lat="49.26696" lon="1.14366">
        <ele>231</ele>
        <time>2017-09-17T10:40:52Z</time>
      </trkpt>
      <trkpt lat="49.2669" lon="1.14392">
        <ele>231</ele>
        <time>2017-09-17T10:40:56Z</time>
      </trkpt>
      <trkpt lat="49.26691" lon="1.14416">
        <ele>231</ele>
        <time>2017-09-17T10:41:00Z</time>
      </trkpt>
      <trkpt lat="49.26689" lon="1.14435">
        <ele>230</ele>
        <time>2017-09-17T10:41:04Z</time>
      </trkpt>
      <trkpt lat="49.26684" lon="1.14454">
        <ele>229</ele>
        <time>2017-09-17T10:41:08Z</time>
      </trkpt>
      <trkpt lat="49.26677" lon="1.14472">
        <ele>229</ele>
        <time>2017-09-17T10:41:12Z</time>
      </trkpt>
      <trkpt lat="49.26669" lon="1.14491">
        <ele>229</ele>
        <time>2017-09-17T10:41:16Z</time>
      </trkpt>
      <trkpt lat="49.26664" lon="1.14508">
        <ele>229</ele>
        <time>2017-09-17T10:41:20Z</time>
      </trkpt>
      <trkpt lat="49.26661" lon="1.14523">
        <ele>229</ele>
        <time>2017-09-17T10:41:24Z</time>
      </trkpt>
      <trkpt lat="49.26659" lon="1.14542">
        <ele>228</ele>
        <time>2017-09-17T10:41:28Z</time>
      </trkpt>
      <trkpt lat="49.26658" lon="1.14561">
        <ele>228</ele>
        <time>2017-09-17T10:41:32Z</time>
      </trkpt>
      <trkpt lat="49.26657" lon="1.14583">
        <ele>229</ele>
        <time>2017-09-17T10:41:36Z</time>
      </trkpt>
      <trkpt lat="49.26654" lon="1.14606">
        <ele>229</ele>
        <time>2017-09-17T10:41:40Z</time>
      </trkpt>
      <trkpt lat="49.2665" lon="1.14627">
        <ele>228</ele>
        <time>2017-09-17T10:41:44Z</time>
      </trkpt>
      <trkpt lat="49.26645" lon="1.14645">
        <ele>228</ele>
        <time>2017-09-17T10:41:52Z</time>
      </trkpt>
      <trkpt lat="49.26634" lon="1.14658">
        <ele>228</ele>
        <time>2017-09-17T10:42:32Z</time>
      </trkpt>
      <trkpt lat="49.26639" lon="1.14662">
        <ele>229</ele>
        <time>2017-09-17T10:42:36Z</time>
      </trkpt>
      <trkpt lat="49.26645" lon="1.14665">
        <ele>229</ele>
        <time>2017-09-17T10:42:40Z</time>
      </trkpt>
      <trkpt lat="49.2665" lon="1.14667">
        <ele>229</ele>
        <time>2017-09-17T10:42:44Z</time>
      </trkpt>
      <trkpt lat="49.26656" lon="1.14669">
        <ele>229</ele>
        <time>2017-09-17T10:42:48Z</time>
      </trkpt>
      <trkpt lat="49.26665" lon="1.14673">
        <ele>229</ele>
        <time>2017-09-17T10:42:52Z</time>
      </trkpt>
      <trkpt lat="49.26675" lon="1.14677">
        <ele>230</ele>
        <time>2017-09-17T10:42:56Z</time>
      </trkpt>
      <trkpt lat="49.26685" lon="1.1468">
        <ele>230</ele>
        <time>2017-09-17T10:43:00Z</time>
      </trkpt>
      <trkpt lat="49.26697" lon="1.14683">
        <ele>231</ele>
        <time>2017-09-17T10:43:04Z</time>
      </trkpt>
      <trkpt lat="49.2671" lon="1.14691">
        <ele>231</ele>
        <time>2017-09-17T10:43:08Z</time>
      </trkpt>
      <trkpt lat="49.26722" lon="1.14697">
        <ele>232</ele>
        <time>2017-09-17T10:43:12Z</time>
      </trkpt>
      <trkpt lat="49.26735" lon="1.14704">
        <ele>232</ele>
        <time>2017-09-17T10:43:16Z</time>
      </trkpt>
      <trkpt lat="49.26748" lon="1.14711">
        <ele>232</ele>
        <time>2017-09-17T10:43:20Z</time>
      </trkpt>
      <trkpt lat="49.2676" lon="1.14718">
        <ele>233</ele>
        <time>2017-09-17T10:43:24Z</time>
      </trkpt>
      <trkpt lat="49.26774" lon="1.14725">
        <ele>233</ele>
        <time>2017-09-17T10:43:28Z</time>
      </trkpt>
      <trkpt lat="49.26787" lon="1.14732">
        <ele>234</ele>
        <time>2017-09-17T10:43:32Z</time>
      </trkpt>
      <trkpt lat="49.26801" lon="1.14738">
        <ele>235</ele>
        <time>2017-09-17T10:43:36Z</time>
      </trkpt>
      <trkpt lat="49.26813" lon="1.14744">
        <ele>234</ele>
        <time>2017-09-17T10:43:40Z</time>
      </trkpt>
      <trkpt lat="49.26829" lon="1.1475">
        <ele>235</ele>
        <time>2017-09-17T10:43:44Z</time>
      </trkpt>
      <trkpt lat="49.26844" lon="1.14757">
        <ele>235</ele>
        <time>2017-09-17T10:43:48Z</time>
      </trkpt>
      <trkpt lat="49.26857" lon="1.14765">
        <ele>236</ele>
        <time>2017-09-17T10:43:52Z</time>
      </trkpt>
      <trkpt lat="49.26872" lon="1.14771">
        <ele>236</ele>
        <time>2017-09-17T10:43:56Z</time>
      </trkpt>
      <trkpt lat="49.26889" lon="1.1478">
        <ele>236</ele>
        <time>2017-09-17T10:44:00Z</time>
      </trkpt>
      <trkpt lat="49.26907" lon="1.14786">
        <ele>237</ele>
        <time>2017-09-17T10:44:04Z</time>
      </trkpt>
      <trkpt lat="49.26924" lon="1.14794">
        <ele>237</ele>
        <time>2017-09-17T10:44:08Z</time>
      </trkpt>
      <trkpt lat="49.26942" lon="1.14804">
        <ele>237</ele>
        <time>2017-09-17T10:44:12Z</time>
      </trkpt>
      <trkpt lat="49.26961" lon="1.14812">
        <ele>237</ele>
        <time>2017-09-17T10:44:16Z</time>
      </trkpt>
      <trkpt lat="49.2698" lon="1.14821">
        <ele>237</ele>
        <time>2017-09-17T10:44:20Z</time>
      </trkpt>
      <trkpt lat="49.27004" lon="1.14834">
        <ele>237</ele>
        <time>2017-09-17T10:44:24Z</time>
      </trkpt>
      <trkpt lat="49.27007" lon="1.14851">
        <ele>236</ele>
        <time>2017-09-17T10:44:28Z</time>
      </trkpt>
      <trkpt lat="49.27003" lon="1.14866">
        <ele>236</ele>
        <time>2017-09-17T10:44:32Z</time>
      </trkpt>
      <trkpt lat="49.27003" lon="1.14878">
        <ele>236</ele>
        <time>2017-09-17T10:44:36Z</time>
      </trkpt>
      <trkpt lat="49.27002" lon="1.14891">
        <ele>236</ele>
        <time>2017-09-17T10:44:40Z</time>
      </trkpt>
      <trkpt lat="49.27003" lon="1.14913">
        <ele>236</ele>
        <time>2017-09-17T10:44:44Z</time>
      </trkpt>
      <trkpt lat="49.27002" lon="1.14934">
        <ele>236</ele>
        <time>2017-09-17T10:44:48Z</time>
      </trkpt>
      <trkpt lat="49.26999" lon="1.14953">
        <ele>236</ele>
        <time>2017-09-17T10:44:52Z</time>
      </trkpt>
      <trkpt lat="49.26997" lon="1.1497">
        <ele>235</ele>
        <time>2017-09-17T10:44:56Z</time>
      </trkpt>
      <trkpt lat="49.26995" lon="1.14989">
        <ele>234</ele>
        <time>2017-09-17T10:45:00Z</time>
      </trkpt>
      <trkpt lat="49.26994" lon="1.15013">
        <ele>235</ele>
        <time>2017-09-17T10:45:04Z</time>
      </trkpt>
      <trkpt lat="49.26988" lon="1.15031">
        <ele>234</ele>
        <time>2017-09-17T10:45:08Z</time>
      </trkpt>
      <trkpt lat="49.26985" lon="1.15052">
        <ele>235</ele>
        <time>2017-09-17T10:45:12Z</time>
      </trkpt>
      <trkpt lat="49.26983" lon="1.15068">
        <ele>234</ele>
        <time>2017-09-17T10:45:16Z</time>
      </trkpt>
      <trkpt lat="49.26978" lon="1.15084">
        <ele>235</ele>
        <time>2017-09-17T10:45:20Z</time>
      </trkpt>
      <trkpt lat="49.26973" lon="1.15107">
        <ele>234</ele>
        <time>2017-09-17T10:45:24Z</time>
      </trkpt>
      <trkpt lat="49.26972" lon="1.15127">
        <ele>234</ele>
        <time>2017-09-17T10:45:28Z</time>
      </trkpt>
      <trkpt lat="49.26966" lon="1.15147">
        <ele>234</ele>
        <time>2017-09-17T10:45:32Z</time>
      </trkpt>
      <trkpt lat="49.26963" lon="1.15168">
        <ele>234</ele>
        <time>2017-09-17T10:45:36Z</time>
      </trkpt>
      <trkpt lat="49.26957" lon="1.15189">
        <ele>234</ele>
        <time>2017-09-17T10:45:40Z</time>
      </trkpt>
      <trkpt lat="49.26954" lon="1.15213">
        <ele>234</ele>
        <time>2017-09-17T10:45:44Z</time>
      </trkpt>
      <trkpt lat="49.26951" lon="1.15239">
        <ele>234</ele>
        <time>2017-09-17T10:45:48Z</time>
      </trkpt>
      <trkpt lat="49.26954" lon="1.15267">
        <ele>233</ele>
        <time>2017-09-17T10:45:52Z</time>
      </trkpt>
      <trkpt lat="49.26963" lon="1.15285">
        <ele>233</ele>
        <time>2017-09-17T10:45:56Z</time>
      </trkpt>
      <trkpt lat="49.26968" lon="1.15302">
        <ele>233</ele>
        <time>2017-09-17T10:46:00Z</time>
      </trkpt>
      <trkpt lat="49.26963" lon="1.15323">
        <ele>233</ele>
        <time>2017-09-17T10:46:04Z</time>
      </trkpt>
      <trkpt lat="49.2696" lon="1.15349">
        <ele>233</ele>
        <time>2017-09-17T10:46:08Z</time>
      </trkpt>
      <trkpt lat="49.26954" lon="1.15378">
        <ele>232</ele>
        <time>2017-09-17T10:46:12Z</time>
      </trkpt>
      <trkpt lat="49.26949" lon="1.15408">
        <ele>232</ele>
        <time>2017-09-17T10:46:16Z</time>
      </trkpt>
      <trkpt lat="49.26943" lon="1.15439">
        <ele>231</ele>
        <time>2017-09-17T10:46:20Z</time>
      </trkpt>
      <trkpt lat="49.26935" lon="1.15471">
        <ele>231</ele>
        <time>2017-09-17T10:46:24Z</time>
      </trkpt>
      <trkpt lat="49.26929" lon="1.15508">
        <ele>231</ele>
        <time>2017-09-17T10:46:28Z</time>
      </trkpt>
      <trkpt lat="49.26922" lon="1.15539">
        <ele>230</ele>
        <time>2017-09-17T10:46:32Z</time>
      </trkpt>
      <trkpt lat="49.26918" lon="1.15567">
        <ele>230</ele>
        <time>2017-09-17T10:46:36Z</time>
      </trkpt>
      <trkpt lat="49.26916" lon="1.15591">
        <ele>229</ele>
        <time>2017-09-17T10:46:40Z</time>
      </trkpt>
      <trkpt lat="49.26913" lon="1.15612">
        <ele>229</ele>
        <time>2017-09-17T10:46:44Z</time>
      </trkpt>
      <trkpt lat="49.26908" lon="1.15633">
        <ele>229</ele>
        <time>2017-09-17T10:46:48Z</time>
      </trkpt>
      <trkpt lat="49.26904" lon="1.15658">
        <ele>229</ele>
        <time>2017-09-17T10:46:52Z</time>
      </trkpt>
      <trkpt lat="49.269" lon="1.15683">
        <ele>229</ele>
        <time>2017-09-17T10:46:56Z</time>
      </trkpt>
      <trkpt lat="49.26896" lon="1.15706">
        <ele>228</ele>
        <time>2017-09-17T10:47:00Z</time>
      </trkpt>
      <trkpt lat="49.26888" lon="1.15729">
        <ele>228</ele>
        <time>2017-09-17T10:47:04Z</time>
      </trkpt>
      <trkpt lat="49.26887" lon="1.15755">
        <ele>228</ele>
        <time>2017-09-17T10:47:08Z</time>
      </trkpt>
      <trkpt lat="49.26878" lon="1.15759">
        <ele>228</ele>
        <time>2017-09-17T10:47:12Z</time>
      </trkpt>
      <trkpt lat="49.26862" lon="1.15756">
        <ele>228</ele>
        <time>2017-09-17T10:47:16Z</time>
      </trkpt>
      <trkpt lat="49.26844" lon="1.1575">
        <ele>228</ele>
        <time>2017-09-17T10:47:20Z</time>
      </trkpt>
      <trkpt lat="49.26825" lon="1.15742">
        <ele>228</ele>
        <time>2017-09-17T10:47:24Z</time>
      </trkpt>
      <trkpt lat="49.26805" lon="1.15732">
        <ele>228</ele>
        <time>2017-09-17T10:47:28Z</time>
      </trkpt>
      <trkpt lat="49.26782" lon="1.15723">
        <ele>228</ele>
        <time>2017-09-17T10:47:32Z</time>
      </trkpt>
      <trkpt lat="49.26757" lon="1.15713">
        <ele>227</ele>
        <time>2017-09-17T10:47:36Z</time>
      </trkpt>
      <trkpt lat="49.26732" lon="1.15703">
        <ele>227</ele>
        <time>2017-09-17T10:47:40Z</time>
      </trkpt>
      <trkpt lat="49.26706" lon="1.15691">
        <ele>227</ele>
        <time>2017-09-17T10:47:44Z</time>
      </trkpt>
      <trkpt lat="49.26679" lon="1.1568">
        <ele>226</ele>
        <time>2017-09-17T10:47:48Z</time>
      </trkpt>
      <trkpt lat="49.2665" lon="1.15668">
        <ele>226</ele>
        <time>2017-09-17T10:47:52Z</time>
      </trkpt>
      <trkpt lat="49.2662" lon="1.15656">
        <ele>225</ele>
        <time>2017-09-17T10:47:56Z</time>
      </trkpt>
      <trkpt lat="49.26591" lon="1.15642">
        <ele>224</ele>
        <time>2017-09-17T10:48:00Z</time>
      </trkpt>
      <trkpt lat="49.26564" lon="1.1563">
        <ele>224</ele>
        <time>2017-09-17T10:48:04Z</time>
      </trkpt>
      <trkpt lat="49.26537" lon="1.15618">
        <ele>223</ele>
        <time>2017-09-17T10:48:08Z</time>
      </trkpt>
      <trkpt lat="49.26511" lon="1.15605">
        <ele>223</ele>
        <time>2017-09-17T10:48:12Z</time>
      </trkpt>
      <trkpt lat="49.26485" lon="1.15596">
        <ele>222</ele>
        <time>2017-09-17T10:48:16Z</time>
      </trkpt>
      <trkpt lat="49.26463" lon="1.15585">
        <ele>222</ele>
        <time>2017-09-17T10:48:20Z</time>
      </trkpt>
      <trkpt lat="49.2644" lon="1.15575">
        <ele>221</ele>
        <time>2017-09-17T10:48:24Z</time>
      </trkpt>
      <trkpt lat="49.26416" lon="1.15562">
        <ele>220</ele>
        <time>2017-09-17T10:48:28Z</time>
      </trkpt>
      <trkpt lat="49.26379" lon="1.15544">
        <ele>219</ele>
        <time>2017-09-17T10:48:36Z</time>
      </trkpt>
      <trkpt lat="49.26373" lon="1.15523">
        <ele>219</ele>
        <time>2017-09-17T10:48:40Z</time>
      </trkpt>
      <trkpt lat="49.26366" lon="1.15512">
        <ele>218</ele>
        <time>2017-09-17T10:48:44Z</time>
      </trkpt>
      <trkpt lat="49.26354" lon="1.15506">
        <ele>217</ele>
        <time>2017-09-17T10:48:48Z</time>
      </trkpt>
      <trkpt lat="49.2634" lon="1.15503">
        <ele>215</ele>
        <time>2017-09-17T10:48:52Z</time>
      </trkpt>
      <trkpt lat="49.26323" lon="1.155">
        <ele>213</ele>
        <time>2017-09-17T10:48:56Z</time>
      </trkpt>
      <trkpt lat="49.26303" lon="1.15495">
        <ele>212</ele>
        <time>2017-09-17T10:49:00Z</time>
      </trkpt>
      <trkpt lat="49.26285" lon="1.15491">
        <ele>213</ele>
        <time>2017-09-17T10:49:04Z</time>
      </trkpt>
      <trkpt lat="49.2627" lon="1.15484">
        <ele>212</ele>
        <time>2017-09-17T10:49:08Z</time>
      </trkpt>
      <trkpt lat="49.26254" lon="1.15479">
        <ele>211</ele>
        <time>2017-09-17T10:49:12Z</time>
      </trkpt>
      <trkpt lat="49.26243" lon="1.15473">
        <ele>211</ele>
        <time>2017-09-17T10:49:16Z</time>
      </trkpt>
      <trkpt lat="49.26241" lon="1.15461">
        <ele>211</ele>
        <time>2017-09-17T10:49:20Z</time>
      </trkpt>
      <trkpt lat="49.26235" lon="1.1545">
        <ele>210</ele>
        <time>2017-09-17T10:49:24Z</time>
      </trkpt>
      <trkpt lat="49.26227" lon="1.15444">
        <ele>209</ele>
        <time>2017-09-17T10:49:28Z</time>
      </trkpt>
      <trkpt lat="49.26218" lon="1.15436">
        <ele>207</ele>
        <time>2017-09-17T10:49:32Z</time>
      </trkpt>
      <trkpt lat="49.26208" lon="1.15429">
        <ele>205</ele>
        <time>2017-09-17T10:49:36Z</time>
      </trkpt>
      <trkpt lat="49.26198" lon="1.15423">
        <ele>202</ele>
        <time>2017-09-17T10:49:40Z</time>
      </trkpt>
      <trkpt lat="49.2618" lon="1.15416">
        <ele>198</ele>
        <time>2017-09-17T10:49:44Z</time>
      </trkpt>
      <trkpt lat="49.26162" lon="1.15408">
        <ele>194</ele>
        <time>2017-09-17T10:49:48Z</time>
      </trkpt>
      <trkpt lat="49.26146" lon="1.15403">
        <ele>195</ele>
        <time>2017-09-17T10:49:52Z</time>
      </trkpt>
      <trkpt lat="49.26139" lon="1.15396">
        <ele>196</ele>
        <time>2017-09-17T10:49:56Z</time>
      </trkpt>
      <trkpt lat="49.26126" lon="1.15391">
        <ele>198</ele>
        <time>2017-09-17T10:50:00Z</time>
      </trkpt>
      <trkpt lat="49.26119" lon="1.15385">
        <ele>200</ele>
        <time>2017-09-17T10:50:04Z</time>
      </trkpt>
      <trkpt lat="49.26112" lon="1.15379">
        <ele>201</ele>
        <time>2017-09-17T10:50:08Z</time>
      </trkpt>
      <trkpt lat="49.26105" lon="1.15376">
        <ele>204</ele>
        <time>2017-09-17T10:50:12Z</time>
      </trkpt>
      <trkpt lat="49.261" lon="1.15372">
        <ele>205</ele>
        <time>2017-09-17T10:50:16Z</time>
      </trkpt>
      <trkpt lat="49.26093" lon="1.15369">
        <ele>206</ele>
        <time>2017-09-17T10:50:20Z</time>
      </trkpt>
      <trkpt lat="49.26087" lon="1.15366">
        <ele>208</ele>
        <time>2017-09-17T10:50:24Z</time>
      </trkpt>
      <trkpt lat="49.26081" lon="1.15363">
        <ele>209</ele>
        <time>2017-09-17T10:50:28Z</time>
      </trkpt>
      <trkpt lat="49.26074" lon="1.15359">
        <ele>209</ele>
        <time>2017-09-17T10:50:32Z</time>
      </trkpt>
      <trkpt lat="49.26065" lon="1.15357">
        <ele>210</ele>
        <time>2017-09-17T10:50:36Z</time>
      </trkpt>
      <trkpt lat="49.26056" lon="1.15353">
        <ele>210</ele>
        <time>2017-09-17T10:50:40Z</time>
      </trkpt>
      <trkpt lat="49.26049" lon="1.15351">
        <ele>211</ele>
        <time>2017-09-17T10:50:44Z</time>
      </trkpt>
      <trkpt lat="49.26044" lon="1.15354">
        <ele>210</ele>
        <time>2017-09-17T10:50:48Z</time>
      </trkpt>
      <trkpt lat="49.26039" lon="1.15365">
        <ele>210</ele>
        <time>2017-09-17T10:50:52Z</time>
      </trkpt>
      <trkpt lat="49.26034" lon="1.15377">
        <ele>209</ele>
        <time>2017-09-17T10:50:56Z</time>
      </trkpt>
      <trkpt lat="49.26024" lon="1.15384">
        <ele>209</ele>
        <time>2017-09-17T10:51:00Z</time>
      </trkpt>
      <trkpt lat="49.26017" lon="1.15383">
        <ele>209</ele>
        <time>2017-09-17T10:51:04Z</time>
      </trkpt>
      <trkpt lat="49.26008" lon="1.1538">
        <ele>208</ele>
        <time>2017-09-17T10:51:08Z</time>
      </trkpt>
      <trkpt lat="49.26001" lon="1.15374">
        <ele>208</ele>
        <time>2017-09-17T10:51:12Z</time>
      </trkpt>
      <trkpt lat="49.2599" lon="1.15372">
        <ele>208</ele>
        <time>2017-09-17T10:51:16Z</time>
      </trkpt>
      <trkpt lat="49.25976" lon="1.15372">
        <ele>209</ele>
        <time>2017-09-17T10:51:20Z</time>
      </trkpt>
      <trkpt lat="49.25967" lon="1.15369">
        <ele>209</ele>
        <time>2017-09-17T10:51:24Z</time>
      </trkpt>
      <trkpt lat="49.25963" lon="1.15366">
        <ele>210</ele>
        <time>2017-09-17T10:51:28Z</time>
      </trkpt>
      <trkpt lat="49.25955" lon="1.15361">
        <ele>211</ele>
        <time>2017-09-17T10:51:32Z</time>
      </trkpt>
      <trkpt lat="49.25945" lon="1.15356">
        <ele>212</ele>
        <time>2017-09-17T10:51:36Z</time>
      </trkpt>
      <trkpt lat="49.25937" lon="1.15352">
        <ele>213</ele>
        <time>2017-09-17T10:51:40Z</time>
      </trkpt>
      <trkpt lat="49.25932" lon="1.15348">
        <ele>213</ele>
        <time>2017-09-17T10:51:44Z</time>
      </trkpt>
      <trkpt lat="49.25925" lon="1.15345">
        <ele>214</ele>
        <time>2017-09-17T10:51:48Z</time>
      </trkpt>
      <trkpt lat="49.25919" lon="1.15342">
        <ele>214</ele>
        <time>2017-09-17T10:51:52Z</time>
      </trkpt>
      <trkpt lat="49.25909" lon="1.1534">
        <ele>215</ele>
        <time>2017-09-17T10:51:56Z</time>
      </trkpt>
      <trkpt lat="49.25898" lon="1.15338">
        <ele>215</ele>
        <time>2017-09-17T10:52:00Z</time>
      </trkpt>
      <trkpt lat="49.2589" lon="1.15331">
        <ele>215</ele>
        <time>2017-09-17T10:52:04Z</time>
      </trkpt>
      <trkpt lat="49.25879" lon="1.15325">
        <ele>216</ele>
        <time>2017-09-17T10:52:08Z</time>
      </trkpt>
      <trkpt lat="49.25865" lon="1.15319">
        <ele>216</ele>
        <time>2017-09-17T10:52:12Z</time>
      </trkpt>
      <trkpt lat="49.25854" lon="1.15312">
        <ele>216</ele>
        <time>2017-09-17T10:52:16Z</time>
      </trkpt>
      <trkpt lat="49.25841" lon="1.153">
        <ele>216</ele>
        <time>2017-09-17T10:52:20Z</time>
      </trkpt>
      <trkpt lat="49.25843" lon="1.15283">
        <ele>216</ele>
        <time>2017-09-17T10:52:24Z</time>
      </trkpt>
      <trkpt lat="49.25842" lon="1.15269">
        <ele>217</ele>
        <time>2017-09-17T10:52:28Z</time>
      </trkpt>
      <trkpt lat="49.25835" lon="1.15264">
        <ele>217</ele>
        <time>2017-09-17T10:52:36Z</time>
      </trkpt>
      <trkpt lat="49.25821" lon="1.15256">
        <ele>218</ele>
        <time>2017-09-17T10:53:00Z</time>
      </trkpt>
      <trkpt lat="49.25818" lon="1.15253">
        <ele>217</ele>
        <time>2017-09-17T10:53:04Z</time>
      </trkpt>
      <trkpt lat="49.25816" lon="1.15249">
        <ele>217</ele>
        <time>2017-09-17T10:53:08Z</time>
      </trkpt>
      <trkpt lat="49.25811" lon="1.15245">
        <ele>217</ele>
        <time>2017-09-17T10:53:20Z</time>
      </trkpt>
      <trkpt lat="49.25808" lon="1.15242">
        <ele>217</ele>
        <time>2017-09-17T10:53:24Z</time>
      </trkpt>
      <trkpt lat="49.25804" lon="1.15238">
        <ele>217</ele>
        <time>2017-09-17T10:53:28Z</time>
      </trkpt>
      <trkpt lat="49.258" lon="1.15233">
        <ele>217</ele>
        <time>2017-09-17T10:53:32Z</time>
      </trkpt>
      <trkpt lat="49.25796" lon="1.15229">
        <ele>217</ele>
        <time>2017-09-17T10:53:36Z</time>
      </trkpt>
      <trkpt lat="49.25793" lon="1.15225">
        <ele>217</ele>
        <time>2017-09-17T10:53:40Z</time>
      </trkpt>
      <trkpt lat="49.25791" lon="1.15223">
        <ele>217</ele>
        <time>2017-09-17T10:53:44Z</time>
      </trkpt>
      <trkpt lat="49.25788" lon="1.15219">
        <ele>217</ele>
        <time>2017-09-17T10:53:48Z</time>
      </trkpt>
      <trkpt lat="49.25785" lon="1.15216">
        <ele>217</ele>
        <time>2017-09-17T10:53:52Z</time>
      </trkpt>
      <trkpt lat="49.25782" lon="1.15212">
        <ele>217</ele>
        <time>2017-09-17T10:53:56Z</time>
      </trkpt>
      <trkpt lat="49.25777" lon="1.1521">
        <ele>217</ele>
        <time>2017-09-17T10:54:00Z</time>
      </trkpt>
      <trkpt lat="49.25773" lon="1.15207">
        <ele>216</ele>
        <time>2017-09-17T10:54:04Z</time>
      </trkpt>
      <trkpt lat="49.25771" lon="1.15203">
        <ele>216</ele>
        <time>2017-09-17T10:54:08Z</time>
      </trkpt>
      <trkpt lat="49.25769" lon="1.15201">
        <ele>216</ele>
        <time>2017-09-17T10:54:12Z</time>
      </trkpt>
      <trkpt lat="49.25767" lon="1.15203">
        <ele>215</ele>
        <time>2017-09-17T10:54:16Z</time>
      </trkpt>
      <trkpt lat="49.2576" lon="1.15204">
        <ele>216</ele>
        <time>2017-09-17T10:54:56Z</time>
      </trkpt>
      <trkpt lat="49.25755" lon="1.15208">
        <ele>216</ele>
        <time>2017-09-17T10:55:00Z</time>
      </trkpt>
      <trkpt lat="49.25753" lon="1.15218">
        <ele>216</ele>
        <time>2017-09-17T10:55:04Z</time>
      </trkpt>
      <trkpt lat="49.25748" lon="1.15228">
        <ele>215</ele>
        <time>2017-09-17T10:55:08Z</time>
      </trkpt>
      <trkpt lat="49.25748" lon="1.15237">
        <ele>215</ele>
        <time>2017-09-17T10:55:12Z</time>
      </trkpt>
      <trkpt lat="49.25743" lon="1.15246">
        <ele>215</ele>
        <time>2017-09-17T10:55:16Z</time>
      </trkpt>
      <trkpt lat="49.25737" lon="1.15253">
        <ele>215</ele>
        <time>2017-09-17T10:55:20Z</time>
      </trkpt>
      <trkpt lat="49.25727" lon="1.15252">
        <ele>215</ele>
        <time>2017-09-17T10:55:24Z</time>
      </trkpt>
      <trkpt lat="49.25715" lon="1.15247">
        <ele>215</ele>
        <time>2017-09-17T10:55:28Z</time>
      </trkpt>
      <trkpt lat="49.25698" lon="1.1524">
        <ele>214</ele>
        <time>2017-09-17T10:55:32Z</time>
      </trkpt>
      <trkpt lat="49.25679" lon="1.15232">
        <ele>214</ele>
        <time>2017-09-17T10:55:36Z</time>
      </trkpt>
      <trkpt lat="49.25658" lon="1.15223">
        <ele>213</ele>
        <time>2017-09-17T10:55:40Z</time>
      </trkpt>
      <trkpt lat="49.25634" lon="1.15214">
        <ele>212</ele>
        <time>2017-09-17T10:55:44Z</time>
      </trkpt>
      <trkpt lat="49.25614" lon="1.15208">
        <ele>212</ele>
        <time>2017-09-17T10:55:48Z</time>
      </trkpt>
      <trkpt lat="49.25594" lon="1.152">
        <ele>212</ele>
        <time>2017-09-17T10:55:52Z</time>
      </trkpt>
      <trkpt lat="49.25575" lon="1.15189">
        <ele>212</ele>
        <time>2017-09-17T10:55:56Z</time>
      </trkpt>
      <trkpt lat="49.25554" lon="1.15179">
        <ele>212</ele>
        <time>2017-09-17T10:56:00Z</time>
      </trkpt>
      <trkpt lat="49.25535" lon="1.15171">
        <ele>212</ele>
        <time>2017-09-17T10:56:04Z</time>
      </trkpt>
      <trkpt lat="49.25516" lon="1.15164">
        <ele>213</ele>
        <time>2017-09-17T10:56:08Z</time>
      </trkpt>
      <trkpt lat="49.25506" lon="1.15148">
        <ele>213</ele>
        <time>2017-09-17T10:56:12Z</time>
      </trkpt>
      <trkpt lat="49.25507" lon="1.15129">
        <ele>213</ele>
        <time>2017-09-17T10:56:16Z</time>
      </trkpt>
      <trkpt lat="49.25506" lon="1.15114">
        <ele>214</ele>
        <time>2017-09-17T10:56:20Z</time>
      </trkpt>
      <trkpt lat="49.25508" lon="1.151">
        <ele>214</ele>
        <time>2017-09-17T10:56:24Z</time>
      </trkpt>
      <trkpt lat="49.25512" lon="1.15082">
        <ele>214</ele>
        <time>2017-09-17T10:56:28Z</time>
      </trkpt>
      <trkpt lat="49.25516" lon="1.15066">
        <ele>215</ele>
        <time>2017-09-17T10:56:32Z</time>
      </trkpt>
      <trkpt lat="49.25518" lon="1.1505">
        <ele>215</ele>
        <time>2017-09-17T10:56:36Z</time>
      </trkpt>
      <trkpt lat="49.25522" lon="1.15036">
        <ele>214</ele>
        <time>2017-09-17T10:56:40Z</time>
      </trkpt>
      <trkpt lat="49.25524" lon="1.15019">
        <ele>215</ele>
        <time>2017-09-17T10:56:44Z</time>
      </trkpt>
      <trkpt lat="49.25528" lon="1.15006">
        <ele>215</ele>
        <time>2017-09-17T10:56:48Z</time>
      </trkpt>
      <trkpt lat="49.25531" lon="1.1499">
        <ele>215</ele>
        <time>2017-09-17T10:56:52Z</time>
      </trkpt>
      <trkpt lat="49.25534" lon="1.14977">
        <ele>215</ele>
        <time>2017-09-17T10:56:56Z</time>
      </trkpt>
      <trkpt lat="49.25534" lon="1.14963">
        <ele>216</ele>
        <time>2017-09-17T10:57:00Z</time>
      </trkpt>
      <trkpt lat="49.25535" lon="1.14945">
        <ele>216</ele>
        <time>2017-09-17T10:57:04Z</time>
      </trkpt>
      <trkpt lat="49.25538" lon="1.14925">
        <ele>216</ele>
        <time>2017-09-17T10:57:08Z</time>
      </trkpt>
      <trkpt lat="49.25542" lon="1.14908">
        <ele>216</ele>
        <time>2017-09-17T10:57:12Z</time>
      </trkpt>
      <trkpt lat="49.25546" lon="1.14891">
        <ele>216</ele>
        <time>2017-09-17T10:57:16Z</time>
      </trkpt>
      <trkpt lat="49.2555" lon="1.14867">
        <ele>216</ele>
        <time>2017-09-17T10:57:20Z</time>
      </trkpt>
      <trkpt lat="49.25552" lon="1.14847">
        <ele>216</ele>
        <time>2017-09-17T10:57:24Z</time>
      </trkpt>
      <trkpt lat="49.2556" lon="1.14825">
        <ele>216</ele>
        <time>2017-09-17T10:57:28Z</time>
      </trkpt>
      <trkpt lat="49.25562" lon="1.14804">
        <ele>216</ele>
        <time>2017-09-17T10:57:32Z</time>
      </trkpt>
      <trkpt lat="49.25568" lon="1.14779">
        <ele>216</ele>
        <time>2017-09-17T10:57:36Z</time>
      </trkpt>
      <trkpt lat="49.25573" lon="1.14756">
        <ele>216</ele>
        <time>2017-09-17T10:57:40Z</time>
      </trkpt>
      <trkpt lat="49.2557" lon="1.14732">
        <ele>216</ele>
        <time>2017-09-17T10:57:44Z</time>
      </trkpt>
      <trkpt lat="49.25562" lon="1.14716">
        <ele>216</ele>
        <time>2017-09-17T10:57:48Z</time>
      </trkpt>
      <trkpt lat="49.25552" lon="1.14703">
        <ele>215</ele>
        <time>2017-09-17T10:57:52Z</time>
      </trkpt>
      <trkpt lat="49.25535" lon="1.1469">
        <ele>215</ele>
        <time>2017-09-17T10:57:56Z</time>
      </trkpt>
      <trkpt lat="49.25528" lon="1.1467">
        <ele>214</ele>
        <time>2017-09-17T10:58:00Z</time>
      </trkpt>
      <trkpt lat="49.25529" lon="1.14648">
        <ele>214</ele>
        <time>2017-09-17T10:58:04Z</time>
      </trkpt>
      <trkpt lat="49.25532" lon="1.14628">
        <ele>214</ele>
        <time>2017-09-17T10:58:08Z</time>
      </trkpt>
      <trkpt lat="49.25534" lon="1.14607">
        <ele>214</ele>
        <time>2017-09-17T10:58:12Z</time>
      </trkpt>
      <trkpt lat="49.25538" lon="1.14588">
        <ele>214</ele>
        <time>2017-09-17T10:58:16Z</time>
      </trkpt>
      <trkpt lat="49.2554" lon="1.14569">
        <ele>214</ele>
        <time>2017-09-17T10:58:20Z</time>
      </trkpt>
      <trkpt lat="49.25544" lon="1.14551">
        <ele>214</ele>
        <time>2017-09-17T10:58:24Z</time>
      </trkpt>
      <trkpt lat="49.25546" lon="1.14531">
        <ele>215</ele>
        <time>2017-09-17T10:58:28Z</time>
      </trkpt>
      <trkpt lat="49.25548" lon="1.14514">
        <ele>215</ele>
        <time>2017-09-17T10:58:32Z</time>
      </trkpt>
      <trkpt lat="49.2555" lon="1.14498">
        <ele>215</ele>
        <time>2017-09-17T10:58:36Z</time>
      </trkpt>
      <trkpt lat="49.25552" lon="1.14486">
        <ele>215</ele>
        <time>2017-09-17T10:58:40Z</time>
      </trkpt>
      <trkpt lat="49.25554" lon="1.14474">
        <ele>215</ele>
        <time>2017-09-17T10:58:44Z</time>
      </trkpt>
      <trkpt lat="49.25557" lon="1.14464">
        <ele>215</ele>
        <time>2017-09-17T10:58:48Z</time>
      </trkpt>
      <trkpt lat="49.25558" lon="1.1445">
        <ele>215</ele>
        <time>2017-09-17T10:58:52Z</time>
      </trkpt>
      <trkpt lat="49.2556" lon="1.1444">
        <ele>215</ele>
        <time>2017-09-17T10:58:56Z</time>
      </trkpt>
      <trkpt lat="49.25559" lon="1.14429">
        <ele>215</ele>
        <time>2017-09-17T10:59:00Z</time>
      </trkpt>
      <trkpt lat="49.25561" lon="1.14417">
        <ele>216</ele>
        <time>2017-09-17T10:59:04Z</time>
      </trkpt>
      <trkpt lat="49.25566" lon="1.14404">
        <ele>215</ele>
        <time>2017-09-17T10:59:12Z</time>
      </trkpt>
      <trkpt lat="49.25567" lon="1.14394">
        <ele>215</ele>
        <time>2017-09-17T10:59:16Z</time>
      </trkpt>
      <trkpt lat="49.25569" lon="1.14382">
        <ele>216</ele>
        <time>2017-09-17T10:59:20Z</time>
      </trkpt>
      <trkpt lat="49.2557" lon="1.14374">
        <ele>216</ele>
        <time>2017-09-17T10:59:24Z</time>
      </trkpt>
      <trkpt lat="49.25574" lon="1.14364">
        <ele>216</ele>
        <time>2017-09-17T10:59:28Z</time>
      </trkpt>
      <trkpt lat="49.25577" lon="1.14355">
        <ele>215</ele>
        <time>2017-09-17T10:59:32Z</time>
      </trkpt>
      <trkpt lat="49.25577" lon="1.14345">
        <ele>216</ele>
        <time>2017-09-17T10:59:36Z</time>
      </trkpt>
      <trkpt lat="49.25578" lon="1.14336">
        <ele>215</ele>
        <time>2017-09-17T10:59:40Z</time>
      </trkpt>
      <trkpt lat="49.2558" lon="1.14328">
        <ele>215</ele>
        <time>2017-09-17T10:59:44Z</time>
      </trkpt>
      <trkpt lat="49.25582" lon="1.14321">
        <ele>216</ele>
        <time>2017-09-17T10:59:48Z</time>
      </trkpt>
      <trkpt lat="49.25585" lon="1.14313">
        <ele>216</ele>
        <time>2017-09-17T10:59:52Z</time>
      </trkpt>
      <trkpt lat="49.25587" lon="1.14306">
        <ele>216</ele>
        <time>2017-09-17T10:59:56Z</time>
      </trkpt>
      <trkpt lat="49.25589" lon="1.14299">
        <ele>216</ele>
        <time>2017-09-17T11:00:00Z</time>
      </trkpt>
      <trkpt lat="49.2559" lon="1.14291">
        <ele>217</ele>
        <time>2017-09-17T11:00:04Z</time>
      </trkpt>
      <trkpt lat="49.25589" lon="1.14287">
        <ele>216</ele>
        <time>2017-09-17T11:00:20Z</time>
      </trkpt>
      <trkpt lat="49.25589" lon="1.1428">
        <ele>217</ele>
        <time>2017-09-17T11:00:24Z</time>
      </trkpt>
      <trkpt lat="49.25591" lon="1.14267">
        <ele>217</ele>
        <time>2017-09-17T11:00:28Z</time>
      </trkpt>
      <trkpt lat="49.25593" lon="1.14255">
        <ele>216</ele>
        <time>2017-09-17T11:00:32Z</time>
      </trkpt>
      <trkpt lat="49.25595" lon="1.1424">
        <ele>217</ele>
        <time>2017-09-17T11:00:36Z</time>
      </trkpt>
      <trkpt lat="49.25596" lon="1.14227">
        <ele>217</ele>
        <time>2017-09-17T11:00:40Z</time>
      </trkpt>
      <trkpt lat="49.25599" lon="1.14209">
        <ele>217</ele>
        <time>2017-09-17T11:00:44Z</time>
      </trkpt>
      <trkpt lat="49.25593" lon="1.14196">
        <ele>217</ele>
        <time>2017-09-17T11:00:48Z</time>
      </trkpt>
      <trkpt lat="49.25581" lon="1.14189">
        <ele>218</ele>
        <time>2017-09-17T11:00:52Z</time>
      </trkpt>
      <trkpt lat="49.25568" lon="1.14184">
        <ele>218</ele>
        <time>2017-09-17T11:00:56Z</time>
      </trkpt>
      <trkpt lat="49.25556" lon="1.14179">
        <ele>218</ele>
        <time>2017-09-17T11:01:00Z</time>
      </trkpt>
      <trkpt lat="49.25544" lon="1.14175">
        <ele>219</ele>
        <time>2017-09-17T11:01:04Z</time>
      </trkpt>
      <trkpt lat="49.25528" lon="1.14166">
        <ele>219</ele>
        <time>2017-09-17T11:01:08Z</time>
      </trkpt>
      <trkpt lat="49.25516" lon="1.14163">
        <ele>220</ele>
        <time>2017-09-17T11:01:12Z</time>
      </trkpt>
      <trkpt lat="49.25502" lon="1.14156">
        <ele>220</ele>
        <time>2017-09-17T11:01:16Z</time>
      </trkpt>
      <trkpt lat="49.25493" lon="1.14154">
        <ele>221</ele>
        <time>2017-09-17T11:01:20Z</time>
      </trkpt>
      <trkpt lat="49.25477" lon="1.14145">
        <ele>221</ele>
        <time>2017-09-17T11:01:24Z</time>
      </trkpt>
      <trkpt lat="49.2546" lon="1.14134">
        <ele>222</ele>
        <time>2017-09-17T11:01:28Z</time>
      </trkpt>
      <trkpt lat="49.25445" lon="1.14127">
        <ele>222</ele>
        <time>2017-09-17T11:01:32Z</time>
      </trkpt>
      <trkpt lat="49.25431" lon="1.14121">
        <ele>222</ele>
        <time>2017-09-17T11:01:36Z</time>
      </trkpt>
      <trkpt lat="49.25418" lon="1.14117">
        <ele>223</ele>
        <time>2017-09-17T11:01:40Z</time>
      </trkpt>
      <trkpt lat="49.25403" lon="1.1411">
        <ele>223</ele>
        <time>2017-09-17T11:01:44Z</time>
      </trkpt>
      <trkpt lat="49.25385" lon="1.14103">
        <ele>223</ele>
        <time>2017-09-17T11:01:48Z</time>
      </trkpt>
      <trkpt lat="49.25365" lon="1.14092">
        <ele>223</ele>
        <time>2017-09-17T11:01:52Z</time>
      </trkpt>
      <trkpt lat="49.25343" lon="1.14081">
        <ele>222</ele>
        <time>2017-09-17T11:01:56Z</time>
      </trkpt>
      <trkpt lat="49.25321" lon="1.14072">
        <ele>222</ele>
        <time>2017-09-17T11:02:00Z</time>
      </trkpt>
      <trkpt lat="49.253" lon="1.14063">
        <ele>222</ele>
        <time>2017-09-17T11:02:04Z</time>
      </trkpt>
      <trkpt lat="49.25276" lon="1.14053">
        <ele>222</ele>
        <time>2017-09-17T11:02:08Z</time>
      </trkpt>
      <trkpt lat="49.25252" lon="1.14043">
        <ele>221</ele>
        <time>2017-09-17T11:02:12Z</time>
      </trkpt>
      <trkpt lat="49.25227" lon="1.14031">
        <ele>219</ele>
        <time>2017-09-17T11:02:16Z</time>
      </trkpt>
      <trkpt lat="49.25204" lon="1.14024">
        <ele>216</ele>
        <time>2017-09-17T11:02:20Z</time>
      </trkpt>
      <trkpt lat="49.25172" lon="1.14033">
        <ele>213</ele>
        <time>2017-09-17T11:02:24Z</time>
      </trkpt>
      <trkpt lat="49.25137" lon="1.14062">
        <ele>209</ele>
        <time>2017-09-17T11:02:28Z</time>
      </trkpt>
      <trkpt lat="49.25098" lon="1.14104">
        <ele>204</ele>
        <time>2017-09-17T11:02:32Z</time>
      </trkpt>
      <trkpt lat="49.25062" lon="1.14147">
        <ele>199</ele>
        <time>2017-09-17T11:02:36Z</time>
      </trkpt>
      <trkpt lat="49.25032" lon="1.14189">
        <ele>194</ele>
        <time>2017-09-17T11:02:40Z</time>
      </trkpt>
      <trkpt lat="49.25015" lon="1.14221">
        <ele>191</ele>
        <time>2017-09-17T11:02:44Z</time>
      </trkpt>
      <trkpt lat="49.25001" lon="1.14211">
        <ele>188</ele>
        <time>2017-09-17T11:02:48Z</time>
      </trkpt>
      <trkpt lat="49.25005" lon="1.14171">
        <ele>185</ele>
        <time>2017-09-17T11:02:52Z</time>
      </trkpt>
      <trkpt lat="49.25005" lon="1.1412">
        <ele>181</ele>
        <time>2017-09-17T11:02:56Z</time>
      </trkpt>
      <trkpt lat="49.2501" lon="1.14065">
        <ele>178</ele>
        <time>2017-09-17T11:03:00Z</time>
      </trkpt>
      <trkpt lat="49.25019" lon="1.14011">
        <ele>173</ele>
        <time>2017-09-17T11:03:04Z</time>
      </trkpt>
      <trkpt lat="49.25025" lon="1.13969">
        <ele>169</ele>
        <time>2017-09-17T11:03:08Z</time>
      </trkpt>
      <trkpt lat="49.25012" lon="1.13942">
        <ele>168</ele>
        <time>2017-09-17T11:03:12Z</time>
      </trkpt>
      <trkpt lat="49.25009" lon="1.13933">
        <ele>167</ele>
        <time>2017-09-17T11:03:16Z</time>
      </trkpt>
      <trkpt lat="49.25011" lon="1.13919">
        <ele>166</ele>
        <time>2017-09-17T11:03:20Z</time>
      </trkpt>
      <trkpt lat="49.25019" lon="1.13901">
        <ele>166</ele>
        <time>2017-09-17T11:03:24Z</time>
      </trkpt>
      <trkpt lat="49.2502" lon="1.13886">
        <ele>166</ele>
        <time>2017-09-17T11:03:28Z</time>
      </trkpt>
      <trkpt lat="49.25022" lon="1.13871">
        <ele>167</ele>
        <time>2017-09-17T11:03:32Z</time>
      </trkpt>
      <trkpt lat="49.25022" lon="1.13853">
        <ele>167</ele>
        <time>2017-09-17T11:03:36Z</time>
      </trkpt>
      <trkpt lat="49.25024" lon="1.13838">
        <ele>167</ele>
        <time>2017-09-17T11:03:40Z</time>
      </trkpt>
      <trkpt lat="49.25028" lon="1.13821">
        <ele>167</ele>
        <time>2017-09-17T11:03:44Z</time>
      </trkpt>
      <trkpt lat="49.25027" lon="1.13801">
        <ele>167</ele>
        <time>2017-09-17T11:03:48Z</time>
      </trkpt>
      <trkpt lat="49.2503" lon="1.13781">
        <ele>167</ele>
        <time>2017-09-17T11:03:52Z</time>
      </trkpt>
      <trkpt lat="49.25032" lon="1.13756">
        <ele>168</ele>
        <time>2017-09-17T11:03:56Z</time>
      </trkpt>
      <trkpt lat="49.25031" lon="1.13726">
        <ele>168</ele>
        <time>2017-09-17T11:04:00Z</time>
      </trkpt>
      <trkpt lat="49.25029" lon="1.13705">
        <ele>168</ele>
        <time>2017-09-17T11:04:04Z</time>
      </trkpt>
      <trkpt lat="49.25025" lon="1.13686">
        <ele>168</ele>
        <time>2017-09-17T11:04:08Z</time>
      </trkpt>
      <trkpt lat="49.25019" lon="1.13664">
        <ele>168</ele>
        <time>2017-09-17T11:04:12Z</time>
      </trkpt>
      <trkpt lat="49.25011" lon="1.13645">
        <ele>168</ele>
        <time>2017-09-17T11:04:16Z</time>
      </trkpt>
      <trkpt lat="49.25001" lon="1.13622">
        <ele>169</ele>
        <time>2017-09-17T11:04:20Z</time>
      </trkpt>
      <trkpt lat="49.24989" lon="1.13599">
        <ele>169</ele>
        <time>2017-09-17T11:04:24Z</time>
      </trkpt>
      <trkpt lat="49.24975" lon="1.1358">
        <ele>169</ele>
        <time>2017-09-17T11:04:28Z</time>
      </trkpt>
      <trkpt lat="49.24965" lon="1.13562">
        <ele>169</ele>
        <time>2017-09-17T11:04:32Z</time>
      </trkpt>
      <trkpt lat="49.24958" lon="1.13544">
        <ele>169</ele>
        <time>2017-09-17T11:04:36Z</time>
      </trkpt>
      <trkpt lat="49.24952" lon="1.13527">
        <ele>169</ele>
        <time>2017-09-17T11:04:40Z</time>
      </trkpt>
      <trkpt lat="49.24945" lon="1.13514">
        <ele>169</ele>
        <time>2017-09-17T11:04:44Z</time>
      </trkpt>
      <trkpt lat="49.24937" lon="1.13497">
        <ele>170</ele>
        <time>2017-09-17T11:04:48Z</time>
      </trkpt>
      <trkpt lat="49.24929" lon="1.13483">
        <ele>170</ele>
        <time>2017-09-17T11:04:52Z</time>
      </trkpt>
      <trkpt lat="49.24924" lon="1.13467">
        <ele>170</ele>
        <time>2017-09-17T11:04:56Z</time>
      </trkpt>
      <trkpt lat="49.24914" lon="1.13452">
        <ele>170</ele>
        <time>2017-09-17T11:05:00Z</time>
      </trkpt>
      <trkpt lat="49.24906" lon="1.13437">
        <ele>170</ele>
        <time>2017-09-17T11:05:04Z</time>
      </trkpt>
      <trkpt lat="49.24899" lon="1.13419">
        <ele>171</ele>
        <time>2017-09-17T11:05:08Z</time>
      </trkpt>
      <trkpt lat="49.24896" lon="1.13398">
        <ele>170</ele>
        <time>2017-09-17T11:05:12Z</time>
      </trkpt>
      <trkpt lat="49.2489" lon="1.13373">
        <ele>171</ele>
        <time>2017-09-17T11:05:16Z</time>
      </trkpt>
      <trkpt lat="49.24885" lon="1.13344">
        <ele>171</ele>
        <time>2017-09-17T11:05:20Z</time>
      </trkpt>
      <trkpt lat="49.24881" lon="1.13321">
        <ele>172</ele>
        <time>2017-09-17T11:05:24Z</time>
      </trkpt>
      <trkpt lat="49.24883" lon="1.13297">
        <ele>172</ele>
        <time>2017-09-17T11:05:28Z</time>
      </trkpt>
      <trkpt lat="49.24883" lon="1.13275">
        <ele>172</ele>
        <time>2017-09-17T11:05:32Z</time>
      </trkpt>
      <trkpt lat="49.24887" lon="1.13254">
        <ele>173</ele>
        <time>2017-09-17T11:05:36Z</time>
      </trkpt>
      <trkpt lat="49.2489" lon="1.13237">
        <ele>173</ele>
        <time>2017-09-17T11:05:40Z</time>
      </trkpt>
      <trkpt lat="49.24893" lon="1.13215">
        <ele>174</ele>
        <time>2017-09-17T11:05:44Z</time>
      </trkpt>
      <trkpt lat="49.24899" lon="1.13191">
        <ele>174</ele>
        <time>2017-09-17T11:05:48Z</time>
      </trkpt>
      <trkpt lat="49.24906" lon="1.13172">
        <ele>174</ele>
        <time>2017-09-17T11:05:52Z</time>
      </trkpt>
      <trkpt lat="49.24915" lon="1.13156">
        <ele>175</ele>
        <time>2017-09-17T11:05:56Z</time>
      </trkpt>
      <trkpt lat="49.24922" lon="1.13142">
        <ele>176</ele>
        <time>2017-09-17T11:06:00Z</time>
      </trkpt>
      <trkpt lat="49.24932" lon="1.13127">
        <ele>176</ele>
        <time>2017-09-17T11:06:04Z</time>
      </trkpt>
      <trkpt lat="49.24939" lon="1.13111">
        <ele>176</ele>
        <time>2017-09-17T11:06:08Z</time>
      </trkpt>
      <trkpt lat="49.24949" lon="1.13094">
        <ele>176</ele>
        <time>2017-09-17T11:06:12Z</time>
      </trkpt>
      <trkpt lat="49.24958" lon="1.13075">
        <ele>176</ele>
        <time>2017-09-17T11:06:16Z</time>
      </trkpt>
      <trkpt lat="49.2497" lon="1.13053">
        <ele>177</ele>
        <time>2017-09-17T11:06:20Z</time>
      </trkpt>
      <trkpt lat="49.24984" lon="1.13037">
        <ele>177</ele>
        <time>2017-09-17T11:06:24Z</time>
      </trkpt>
      <trkpt lat="49.24997" lon="1.13023">
        <ele>177</ele>
        <time>2017-09-17T11:06:28Z</time>
      </trkpt>
      <trkpt lat="49.25009" lon="1.13009">
        <ele>177</ele>
        <time>2017-09-17T11:06:32Z</time>
      </trkpt>
      <trkpt lat="49.2502" lon="1.12993">
        <ele>178</ele>
        <time>2017-09-17T11:06:36Z</time>
      </trkpt>
      <trkpt lat="49.25024" lon="1.12973">
        <ele>178</ele>
        <time>2017-09-17T11:06:40Z</time>
      </trkpt>
      <trkpt lat="49.2503" lon="1.12951">
        <ele>178</ele>
        <time>2017-09-17T11:06:44Z</time>
      </trkpt>
      <trkpt lat="49.25034" lon="1.12931">
        <ele>178</ele>
        <time>2017-09-17T11:06:48Z</time>
      </trkpt>
      <trkpt lat="49.25038" lon="1.12906">
        <ele>178</ele>
        <time>2017-09-17T11:06:52Z</time>
      </trkpt>
      <trkpt lat="49.25041" lon="1.12884">
        <ele>179</ele>
        <time>2017-09-17T11:06:56Z</time>
      </trkpt>
      <trkpt lat="49.25037" lon="1.12865">
        <ele>179</ele>
        <time>2017-09-17T11:07:00Z</time>
      </trkpt>
      <trkpt lat="49.25034" lon="1.12848">
        <ele>179</ele>
        <time>2017-09-17T11:07:04Z</time>
      </trkpt>
      <trkpt lat="49.25033" lon="1.12826">
        <ele>180</ele>
        <time>2017-09-17T11:07:08Z</time>
      </trkpt>
      <trkpt lat="49.25032" lon="1.12808">
        <ele>180</ele>
        <time>2017-09-17T11:07:12Z</time>
      </trkpt>
      <trkpt lat="49.25037" lon="1.12787">
        <ele>181</ele>
        <time>2017-09-17T11:07:16Z</time>
      </trkpt>
      <trkpt lat="49.25041" lon="1.12764">
        <ele>181</ele>
        <time>2017-09-17T11:07:20Z</time>
      </trkpt>
      <trkpt lat="49.25042" lon="1.12747">
        <ele>181</ele>
        <time>2017-09-17T11:07:24Z</time>
      </trkpt>
      <trkpt lat="49.2504" lon="1.12735">
        <ele>181</ele>
        <time>2017-09-17T11:07:28Z</time>
      </trkpt>
      <trkpt lat="49.25036" lon="1.12728">
        <ele>181</ele>
        <time>2017-09-17T11:07:32Z</time>
      </trkpt>
      <trkpt lat="49.25028" lon="1.1273">
        <ele>179</ele>
        <time>2017-09-17T11:07:36Z</time>
      </trkpt>
      <trkpt lat="49.25022" lon="1.12732">
        <ele>181</ele>
        <time>2017-09-17T11:07:40Z</time>
      </trkpt>
      <trkpt lat="49.25016" lon="1.12737">
        <ele>181</ele>
        <time>2017-09-17T11:07:44Z</time>
      </trkpt>
      <trkpt lat="49.25009" lon="1.12747">
        <ele>181</ele>
        <time>2017-09-17T11:07:48Z</time>
      </trkpt>
      <trkpt lat="49.25008" lon="1.12756">
        <ele>181</ele>
        <time>2017-09-17T11:07:52Z</time>
      </trkpt>
      <trkpt lat="49.25008" lon="1.12762">
        <ele>181</ele>
        <time>2017-09-17T11:07:56Z</time>
      </trkpt>
      <trkpt lat="49.25007" lon="1.12773">
        <ele>180</ele>
        <time>2017-09-17T11:08:00Z</time>
      </trkpt>
      <trkpt lat="49.25007" lon="1.12782">
        <ele>180</ele>
        <time>2017-09-17T11:08:04Z</time>
      </trkpt>
      <trkpt lat="49.25005" lon="1.12797">
        <ele>180</ele>
        <time>2017-09-17T11:08:08Z</time>
      </trkpt>
      <trkpt lat="49.25005" lon="1.12816">
        <ele>180</ele>
        <time>2017-09-17T11:08:12Z</time>
      </trkpt>
      <trkpt lat="49.25003" lon="1.12831">
        <ele>180</ele>
        <time>2017-09-17T11:08:16Z</time>
      </trkpt>
      <trkpt lat="49.24998" lon="1.12847">
        <ele>179</ele>
        <time>2017-09-17T11:08:20Z</time>
      </trkpt>
      <trkpt lat="49.24995" lon="1.12856">
        <ele>179</ele>
        <time>2017-09-17T11:08:24Z</time>
      </trkpt>
      <trkpt lat="49.24991" lon="1.12868">
        <ele>179</ele>
        <time>2017-09-17T11:08:28Z</time>
      </trkpt>
      <trkpt lat="49.24984" lon="1.12881">
        <ele>179</ele>
        <time>2017-09-17T11:08:32Z</time>
      </trkpt>
      <trkpt lat="49.24979" lon="1.12896">
        <ele>178</ele>
        <time>2017-09-17T11:08:36Z</time>
      </trkpt>
      <trkpt lat="49.24975" lon="1.12912">
        <ele>178</ele>
        <time>2017-09-17T11:08:40Z</time>
      </trkpt>
      <trkpt lat="49.24968" lon="1.12933">
        <ele>177</ele>
        <time>2017-09-17T11:08:44Z</time>
      </trkpt>
      <trkpt lat="49.24957" lon="1.12953">
        <ele>177</ele>
        <time>2017-09-17T11:08:48Z</time>
      </trkpt>
      <trkpt lat="49.24951" lon="1.12964">
        <ele>177</ele>
        <time>2017-09-17T11:08:52Z</time>
      </trkpt>
      <trkpt lat="49.24938" lon="1.12977">
        <ele>177</ele>
        <time>2017-09-17T11:08:56Z</time>
      </trkpt>
      <trkpt lat="49.24925" lon="1.1299">
        <ele>176</ele>
        <time>2017-09-17T11:09:00Z</time>
      </trkpt>
      <trkpt lat="49.2492" lon="1.13001">
        <ele>176</ele>
        <time>2017-09-17T11:09:04Z</time>
      </trkpt>
      <trkpt lat="49.24913" lon="1.13014">
        <ele>176</ele>
        <time>2017-09-17T11:09:08Z</time>
      </trkpt>
      <trkpt lat="49.24904" lon="1.13028">
        <ele>176</ele>
        <time>2017-09-17T11:09:12Z</time>
      </trkpt>
      <trkpt lat="49.24898" lon="1.13046">
        <ele>175</ele>
        <time>2017-09-17T11:09:16Z</time>
      </trkpt>
      <trkpt lat="49.24893" lon="1.13061">
        <ele>175</ele>
        <time>2017-09-17T11:09:20Z</time>
      </trkpt>
      <trkpt lat="49.24888" lon="1.13079">
        <ele>175</ele>
        <time>2017-09-17T11:09:24Z</time>
      </trkpt>
      <trkpt lat="49.24886" lon="1.13094">
        <ele>175</ele>
        <time>2017-09-17T11:09:28Z</time>
      </trkpt>
      <trkpt lat="49.24882" lon="1.13114">
        <ele>174</ele>
        <time>2017-09-17T11:09:32Z</time>
      </trkpt>
      <trkpt lat="49.24878" lon="1.13133">
        <ele>174</ele>
        <time>2017-09-17T11:09:36Z</time>
      </trkpt>
      <trkpt lat="49.24875" lon="1.1315">
        <ele>174</ele>
        <time>2017-09-17T11:09:40Z</time>
      </trkpt>
      <trkpt lat="49.24871" lon="1.13162">
        <ele>174</ele>
        <time>2017-09-17T11:09:44Z</time>
      </trkpt>
      <trkpt lat="49.24865" lon="1.13175">
        <ele>174</ele>
        <time>2017-09-17T11:09:48Z</time>
      </trkpt>
      <trkpt lat="49.24858" lon="1.13178">
        <ele>175</ele>
        <time>2017-09-17T11:09:52Z</time>
      </trkpt>
      <trkpt lat="49.24852" lon="1.13181">
        <ele>176</ele>
        <time>2017-09-17T11:09:56Z</time>
      </trkpt>
      <trkpt lat="49.2484" lon="1.13178">
        <ele>177</ele>
        <time>2017-09-17T11:10:00Z</time>
      </trkpt>
      <trkpt lat="49.24835" lon="1.13178">
        <ele>178</ele>
        <time>2017-09-17T11:10:04Z</time>
      </trkpt>
      <trkpt lat="49.24831" lon="1.13179">
        <ele>178</ele>
        <time>2017-09-17T11:10:08Z</time>
      </trkpt>
      <trkpt lat="49.24825" lon="1.13176">
        <ele>179</ele>
        <time>2017-09-17T11:10:12Z</time>
      </trkpt>
      <trkpt lat="49.24821" lon="1.13177">
        <ele>181</ele>
        <time>2017-09-17T11:10:16Z</time>
      </trkpt>
      <trkpt lat="49.24815" lon="1.13172">
        <ele>182</ele>
        <time>2017-09-17T11:10:20Z</time>
      </trkpt>
      <trkpt lat="49.24809" lon="1.13171">
        <ele>183</ele>
        <time>2017-09-17T11:10:40Z</time>
      </trkpt>
      <trkpt lat="49.24806" lon="1.1317">
        <ele>183</ele>
        <time>2017-09-17T11:10:44Z</time>
      </trkpt>
      <trkpt lat="49.24801" lon="1.1317">
        <ele>184</ele>
        <time>2017-09-17T11:10:48Z</time>
      </trkpt>
      <trkpt lat="49.24796" lon="1.13168">
        <ele>184</ele>
        <time>2017-09-17T11:10:52Z</time>
      </trkpt>
      <trkpt lat="49.2479" lon="1.13166">
        <ele>185</ele>
        <time>2017-09-17T11:11:08Z</time>
      </trkpt>
      <trkpt lat="49.24787" lon="1.13164">
        <ele>186</ele>
        <time>2017-09-17T11:11:12Z</time>
      </trkpt>
      <trkpt lat="49.24785" lon="1.13164">
        <ele>186</ele>
        <time>2017-09-17T11:11:16Z</time>
      </trkpt>
      <trkpt lat="49.24783" lon="1.13165">
        <ele>187</ele>
        <time>2017-09-17T11:11:20Z</time>
      </trkpt>
      <trkpt lat="49.2478" lon="1.13169">
        <ele>190</ele>
        <time>2017-09-17T11:11:36Z</time>
      </trkpt>
      <trkpt lat="49.24777" lon="1.13173">
        <ele>190</ele>
        <time>2017-09-17T11:11:48Z</time>
      </trkpt>
      <trkpt lat="49.24775" lon="1.13177">
        <ele>190</ele>
        <time>2017-09-17T11:11:52Z</time>
      </trkpt>
      <trkpt lat="49.24774" lon="1.13178">
        <ele>191</ele>
        <time>2017-09-17T11:12:00Z</time>
      </trkpt>
      <trkpt lat="49.24773" lon="1.13187">
        <ele>190</ele>
        <time>2017-09-17T11:12:04Z</time>
      </trkpt>
      <trkpt lat="49.24772" lon="1.13195">
        <ele>190</ele>
        <time>2017-09-17T11:12:08Z</time>
      </trkpt>
      <trkpt lat="49.24771" lon="1.13204">
        <ele>190</ele>
        <time>2017-09-17T11:12:12Z</time>
      </trkpt>
      <trkpt lat="49.24769" lon="1.13217">
        <ele>190</ele>
        <time>2017-09-17T11:12:16Z</time>
      </trkpt>
      <trkpt lat="49.2477" lon="1.13228">
        <ele>189</ele>
        <time>2017-09-17T11:12:20Z</time>
      </trkpt>
      <trkpt lat="49.2477" lon="1.13243">
        <ele>189</ele>
        <time>2017-09-17T11:12:24Z</time>
      </trkpt>
      <trkpt lat="49.24768" lon="1.13258">
        <ele>189</ele>
        <time>2017-09-17T11:12:28Z</time>
      </trkpt>
      <trkpt lat="49.24769" lon="1.13278">
        <ele>189</ele>
        <time>2017-09-17T11:12:32Z</time>
      </trkpt>
      <trkpt lat="49.24766" lon="1.13301">
        <ele>188</ele>
        <time>2017-09-17T11:12:36Z</time>
      </trkpt>
      <trkpt lat="49.24763" lon="1.13317">
        <ele>188</ele>
        <time>2017-09-17T11:12:40Z</time>
      </trkpt>
      <trkpt lat="49.24763" lon="1.13336">
        <ele>188</ele>
        <time>2017-09-17T11:12:44Z</time>
      </trkpt>
      <trkpt lat="49.24765" lon="1.13356">
        <ele>187</ele>
        <time>2017-09-17T11:12:48Z</time>
      </trkpt>
      <trkpt lat="49.24763" lon="1.13372">
        <ele>187</ele>
        <time>2017-09-17T11:12:52Z</time>
      </trkpt>
      <trkpt lat="49.24767" lon="1.13394">
        <ele>187</ele>
        <time>2017-09-17T11:12:56Z</time>
      </trkpt>
      <trkpt lat="49.24765" lon="1.13412">
        <ele>188</ele>
        <time>2017-09-17T11:13:00Z</time>
      </trkpt>
      <trkpt lat="49.24762" lon="1.13429">
        <ele>187</ele>
        <time>2017-09-17T11:13:04Z</time>
      </trkpt>
      <trkpt lat="49.24763" lon="1.13449">
        <ele>187</ele>
        <time>2017-09-17T11:13:08Z</time>
      </trkpt>
      <trkpt lat="49.24763" lon="1.13469">
        <ele>187</ele>
        <time>2017-09-17T11:13:12Z</time>
      </trkpt>
      <trkpt lat="49.24763" lon="1.13493">
        <ele>187</ele>
        <time>2017-09-17T11:13:16Z</time>
      </trkpt>
      <trkpt lat="49.24761" lon="1.13517">
        <ele>186</ele>
        <time>2017-09-17T11:13:20Z</time>
      </trkpt>
      <trkpt lat="49.24762" lon="1.13543">
        <ele>186</ele>
        <time>2017-09-17T11:13:24Z</time>
      </trkpt>
      <trkpt lat="49.2476" lon="1.13567">
        <ele>186</ele>
        <time>2017-09-17T11:13:28Z</time>
      </trkpt>
      <trkpt lat="49.24758" lon="1.13596">
        <ele>185</ele>
        <time>2017-09-17T11:13:32Z</time>
      </trkpt>
      <trkpt lat="49.24759" lon="1.13629">
        <ele>185</ele>
        <time>2017-09-17T11:13:36Z</time>
      </trkpt>
      <trkpt lat="49.24758" lon="1.13657">
        <ele>185</ele>
        <time>2017-09-17T11:13:40Z</time>
      </trkpt>
      <trkpt lat="49.24758" lon="1.13685">
        <ele>184</ele>
        <time>2017-09-17T11:13:44Z</time>
      </trkpt>
      <trkpt lat="49.24756" lon="1.13711">
        <ele>184</ele>
        <time>2017-09-17T11:13:48Z</time>
      </trkpt>
      <trkpt lat="49.24754" lon="1.13741">
        <ele>184</ele>
        <time>2017-09-17T11:13:52Z</time>
      </trkpt>
      <trkpt lat="49.24749" lon="1.1377">
        <ele>183</ele>
        <time>2017-09-17T11:13:56Z</time>
      </trkpt>
      <trkpt lat="49.24747" lon="1.13801">
        <ele>183</ele>
        <time>2017-09-17T11:14:00Z</time>
      </trkpt>
      <trkpt lat="49.24743" lon="1.13828">
        <ele>183</ele>
        <time>2017-09-17T11:14:04Z</time>
      </trkpt>
      <trkpt lat="49.24735" lon="1.13857">
        <ele>182</ele>
        <time>2017-09-17T11:14:08Z</time>
      </trkpt>
      <trkpt lat="49.2473" lon="1.13856">
        <ele>183</ele>
        <time>2017-09-17T11:14:12Z</time>
      </trkpt>
      <trkpt lat="49.24727" lon="1.1384">
        <ele>183</ele>
        <time>2017-09-17T11:14:16Z</time>
      </trkpt>
      <trkpt lat="49.24725" lon="1.13816">
        <ele>183</ele>
        <time>2017-09-17T11:14:20Z</time>
      </trkpt>
      <trkpt lat="49.24717" lon="1.13809">
        <ele>183</ele>
        <time>2017-09-17T11:14:24Z</time>
      </trkpt>
      <trkpt lat="49.24712" lon="1.13807">
        <ele>184</ele>
        <time>2017-09-17T11:14:28Z</time>
      </trkpt>
      <trkpt lat="49.24709" lon="1.13809">
        <ele>186</ele>
        <time>2017-09-17T11:14:40Z</time>
      </trkpt>
      <trkpt lat="49.24707" lon="1.13808">
        <ele>186</ele>
        <time>2017-09-17T11:14:44Z</time>
      </trkpt>
      <trkpt lat="49.24704" lon="1.13807">
        <ele>186</ele>
        <time>2017-09-17T11:14:48Z</time>
      </trkpt>
      <trkpt lat="49.24699" lon="1.13803">
        <ele>186</ele>
        <time>2017-09-17T11:14:52Z</time>
      </trkpt>
      <trkpt lat="49.24694" lon="1.13801">
        <ele>187</ele>
        <time>2017-09-17T11:14:56Z</time>
      </trkpt>
      <trkpt lat="49.2469" lon="1.138">
        <ele>187</ele>
        <time>2017-09-17T11:15:04Z</time>
      </trkpt>
      <trkpt lat="49.24686" lon="1.13801">
        <ele>187</ele>
        <time>2017-09-17T11:15:08Z</time>
      </trkpt>
      <trkpt lat="49.24682" lon="1.13798">
        <ele>188</ele>
        <time>2017-09-17T11:15:12Z</time>
      </trkpt>
      <trkpt lat="49.24678" lon="1.13797">
        <ele>188</ele>
        <time>2017-09-17T11:15:16Z</time>
      </trkpt>
      <trkpt lat="49.24672" lon="1.13795">
        <ele>189</ele>
        <time>2017-09-17T11:15:20Z</time>
      </trkpt>
      <trkpt lat="49.24666" lon="1.13791">
        <ele>190</ele>
        <time>2017-09-17T11:15:24Z</time>
      </trkpt>
      <trkpt lat="49.24661" lon="1.1379">
        <ele>190</ele>
        <time>2017-09-17T11:15:28Z</time>
      </trkpt>
      <trkpt lat="49.24656" lon="1.13787">
        <ele>191</ele>
        <time>2017-09-17T11:15:32Z</time>
      </trkpt>
      <trkpt lat="49.24652" lon="1.13783">
        <ele>191</ele>
        <time>2017-09-17T11:15:36Z</time>
      </trkpt>
      <trkpt lat="49.24646" lon="1.13788">
        <ele>192</ele>
        <time>2017-09-17T11:15:40Z</time>
      </trkpt>
      <trkpt lat="49.24643" lon="1.13792">
        <ele>193</ele>
        <time>2017-09-17T11:15:44Z</time>
      </trkpt>
      <trkpt lat="49.24638" lon="1.1379">
        <ele>193</ele>
        <time>2017-09-17T11:15:48Z</time>
      </trkpt>
      <trkpt lat="49.2463" lon="1.13787">
        <ele>193</ele>
        <time>2017-09-17T11:15:52Z</time>
      </trkpt>
      <trkpt lat="49.24623" lon="1.13785">
        <ele>194</ele>
        <time>2017-09-17T11:15:56Z</time>
      </trkpt>
      <trkpt lat="49.24617" lon="1.13783">
        <ele>195</ele>
        <time>2017-09-17T11:16:00Z</time>
      </trkpt>
      <trkpt lat="49.24613" lon="1.1378">
        <ele>196</ele>
        <time>2017-09-17T11:16:04Z</time>
      </trkpt>
      <trkpt lat="49.24607" lon="1.1378">
        <ele>196</ele>
        <time>2017-09-17T11:16:08Z</time>
      </trkpt>
      <trkpt lat="49.24602" lon="1.13777">
        <ele>197</ele>
        <time>2017-09-17T11:16:12Z</time>
      </trkpt>
      <trkpt lat="49.24593" lon="1.13773">
        <ele>197</ele>
        <time>2017-09-17T11:16:16Z</time>
      </trkpt>
      <trkpt lat="49.24584" lon="1.1377">
        <ele>198</ele>
        <time>2017-09-17T11:16:20Z</time>
      </trkpt>
      <trkpt lat="49.24576" lon="1.13769">
        <ele>199</ele>
        <time>2017-09-17T11:16:24Z</time>
      </trkpt>
      <trkpt lat="49.24573" lon="1.13768">
        <ele>200</ele>
        <time>2017-09-17T11:16:28Z</time>
      </trkpt>
      <trkpt lat="49.24565" lon="1.13761">
        <ele>200</ele>
        <time>2017-09-17T11:16:32Z</time>
      </trkpt>
      <trkpt lat="49.24555" lon="1.13753">
        <ele>200</ele>
        <time>2017-09-17T11:16:36Z</time>
      </trkpt>
      <trkpt lat="49.24547" lon="1.1375">
        <ele>200</ele>
        <time>2017-09-17T11:16:40Z</time>
      </trkpt>
      <trkpt lat="49.24537" lon="1.13745">
        <ele>200</ele>
        <time>2017-09-17T11:16:44Z</time>
      </trkpt>
      <trkpt lat="49.24528" lon="1.13739">
        <ele>201</ele>
        <time>2017-09-17T11:16:48Z</time>
      </trkpt>
      <trkpt lat="49.2452" lon="1.13735">
        <ele>201</ele>
        <time>2017-09-17T11:16:52Z</time>
      </trkpt>
      <trkpt lat="49.24511" lon="1.13731">
        <ele>202</ele>
        <time>2017-09-17T11:16:56Z</time>
      </trkpt>
      <trkpt lat="49.24504" lon="1.13728">
        <ele>203</ele>
        <time>2017-09-17T11:17:00Z</time>
      </trkpt>
      <trkpt lat="49.24497" lon="1.13728">
        <ele>203</ele>
        <time>2017-09-17T11:17:04Z</time>
      </trkpt>
      <trkpt lat="49.24485" lon="1.13725">
        <ele>204</ele>
        <time>2017-09-17T11:17:08Z</time>
      </trkpt>
      <trkpt lat="49.24477" lon="1.13724">
        <ele>205</ele>
        <time>2017-09-17T11:17:12Z</time>
      </trkpt>
      <trkpt lat="49.24471" lon="1.13718">
        <ele>205</ele>
        <time>2017-09-17T11:17:16Z</time>
      </trkpt>
      <trkpt lat="49.24464" lon="1.1371">
        <ele>206</ele>
        <time>2017-09-17T11:17:20Z</time>
      </trkpt>
      <trkpt lat="49.24457" lon="1.13706">
        <ele>207</ele>
        <time>2017-09-17T11:17:24Z</time>
      </trkpt>
      <trkpt lat="49.24447" lon="1.137">
        <ele>207</ele>
        <time>2017-09-17T11:17:28Z</time>
      </trkpt>
      <trkpt lat="49.24437" lon="1.13694">
        <ele>208</ele>
        <time>2017-09-17T11:17:32Z</time>
      </trkpt>
      <trkpt lat="49.24431" lon="1.13682">
        <ele>208</ele>
        <time>2017-09-17T11:17:36Z</time>
      </trkpt>
      <trkpt lat="49.24429" lon="1.13669">
        <ele>208</ele>
        <time>2017-09-17T11:17:40Z</time>
      </trkpt>
      <trkpt lat="49.24421" lon="1.1366">
        <ele>208</ele>
        <time>2017-09-17T11:17:44Z</time>
      </trkpt>
      <trkpt lat="49.2441" lon="1.13654">
        <ele>209</ele>
        <time>2017-09-17T11:17:48Z</time>
      </trkpt>
      <trkpt lat="49.244" lon="1.1365">
        <ele>209</ele>
        <time>2017-09-17T11:17:52Z</time>
      </trkpt>
      <trkpt lat="49.2439" lon="1.13645">
        <ele>210</ele>
        <time>2017-09-17T11:17:56Z</time>
      </trkpt>
      <trkpt lat="49.24388" lon="1.13636">
        <ele>210</ele>
        <time>2017-09-17T11:18:00Z</time>
      </trkpt>
      <trkpt lat="49.24386" lon="1.13633">
        <ele>209</ele>
        <time>2017-09-17T11:18:08Z</time>
      </trkpt>
      <trkpt lat="49.24379" lon="1.13637">
        <ele>210</ele>
        <time>2017-09-17T11:31:12Z</time>
      </trkpt>
      <trkpt lat="49.24377" lon="1.13636">
        <ele>210</ele>
        <time>2017-09-17T11:31:16Z</time>
      </trkpt>
      <trkpt lat="49.24376" lon="1.13639">
        <ele>210</ele>
        <time>2017-09-17T11:31:40Z</time>
      </trkpt>
      <trkpt lat="49.24376" lon="1.13645">
        <ele>210</ele>
        <time>2017-09-17T11:31:44Z</time>
      </trkpt>
      <trkpt lat="49.24377" lon="1.13653">
        <ele>210</ele>
        <time>2017-09-17T11:31:48Z</time>
      </trkpt>
      <trkpt lat="49.24379" lon="1.13667">
        <ele>209</ele>
        <time>2017-09-17T11:31:52Z</time>
      </trkpt>
      <trkpt lat="49.24377" lon="1.13674">
        <ele>209</ele>
        <time>2017-09-17T11:31:56Z</time>
      </trkpt>
      <trkpt lat="49.24375" lon="1.13683">
        <ele>209</ele>
        <time>2017-09-17T11:32:00Z</time>
      </trkpt>
      <trkpt lat="49.24373" lon="1.13691">
        <ele>209</ele>
        <time>2017-09-17T11:32:04Z</time>
      </trkpt>
      <trkpt lat="49.24371" lon="1.13697">
        <ele>209</ele>
        <time>2017-09-17T11:32:08Z</time>
      </trkpt>
      <trkpt lat="49.24372" lon="1.13707">
        <ele>210</ele>
        <time>2017-09-17T11:32:12Z</time>
      </trkpt>
      <trkpt lat="49.24371" lon="1.13717">
        <ele>209</ele>
        <time>2017-09-17T11:32:16Z</time>
      </trkpt>
      <trkpt lat="49.24368" lon="1.13728">
        <ele>209</ele>
        <time>2017-09-17T11:32:20Z</time>
      </trkpt>
      <trkpt lat="49.24367" lon="1.1374">
        <ele>210</ele>
        <time>2017-09-17T11:32:24Z</time>
      </trkpt>
      <trkpt lat="49.24364" lon="1.13753">
        <ele>210</ele>
        <time>2017-09-17T11:32:28Z</time>
      </trkpt>
      <trkpt lat="49.24364" lon="1.13771">
        <ele>211</ele>
        <time>2017-09-17T11:32:32Z</time>
      </trkpt>
      <trkpt lat="49.24366" lon="1.13787">
        <ele>211</ele>
        <time>2017-09-17T11:32:36Z</time>
      </trkpt>
      <trkpt lat="49.24363" lon="1.13801">
        <ele>211</ele>
        <time>2017-09-17T11:32:40Z</time>
      </trkpt>
      <trkpt lat="49.24361" lon="1.13817">
        <ele>211</ele>
        <time>2017-09-17T11:32:44Z</time>
      </trkpt>
      <trkpt lat="49.24358" lon="1.1383">
        <ele>212</ele>
        <time>2017-09-17T11:32:48Z</time>
      </trkpt>
      <trkpt lat="49.24356" lon="1.13842">
        <ele>212</ele>
        <time>2017-09-17T11:32:52Z</time>
      </trkpt>
      <trkpt lat="49.24354" lon="1.13855">
        <ele>212</ele>
        <time>2017-09-17T11:32:56Z</time>
      </trkpt>
      <trkpt lat="49.24353" lon="1.13873">
        <ele>213</ele>
        <time>2017-09-17T11:33:00Z</time>
      </trkpt>
      <trkpt lat="49.24354" lon="1.13887">
        <ele>213</ele>
        <time>2017-09-17T11:33:04Z</time>
      </trkpt>
      <trkpt lat="49.24352" lon="1.13906">
        <ele>212</ele>
        <time>2017-09-17T11:33:08Z</time>
      </trkpt>
      <trkpt lat="49.24351" lon="1.13925">
        <ele>213</ele>
        <time>2017-09-17T11:33:12Z</time>
      </trkpt>
      <trkpt lat="49.24352" lon="1.13949">
        <ele>213</ele>
        <time>2017-09-17T11:33:16Z</time>
      </trkpt>
      <trkpt lat="49.24363" lon="1.13962">
        <ele>213</ele>
        <time>2017-09-17T11:33:20Z</time>
      </trkpt>
      <trkpt lat="49.24378" lon="1.13975">
        <ele>213</ele>
        <time>2017-09-17T11:33:24Z</time>
      </trkpt>
      <trkpt lat="49.24392" lon="1.13986">
        <ele>212</ele>
        <time>2017-09-17T11:33:28Z</time>
      </trkpt>
      <trkpt lat="49.24408" lon="1.13994">
        <ele>211</ele>
        <time>2017-09-17T11:33:32Z</time>
      </trkpt>
      <trkpt lat="49.24424" lon="1.14002">
        <ele>211</ele>
        <time>2017-09-17T11:33:36Z</time>
      </trkpt>
      <trkpt lat="49.24441" lon="1.14012">
        <ele>210</ele>
        <time>2017-09-17T11:33:40Z</time>
      </trkpt>
      <trkpt lat="49.24458" lon="1.1402">
        <ele>209</ele>
        <time>2017-09-17T11:33:44Z</time>
      </trkpt>
      <trkpt lat="49.24481" lon="1.14033">
        <ele>208</ele>
        <time>2017-09-17T11:33:48Z</time>
      </trkpt>
      <trkpt lat="49.24503" lon="1.14044">
        <ele>207</ele>
        <time>2017-09-17T11:33:52Z</time>
      </trkpt>
      <trkpt lat="49.24529" lon="1.14063">
        <ele>204</ele>
        <time>2017-09-17T11:33:56Z</time>
      </trkpt>
      <trkpt lat="49.24549" lon="1.14074">
        <ele>203</ele>
        <time>2017-09-17T11:34:00Z</time>
      </trkpt>
      <trkpt lat="49.24562" lon="1.14081">
        <ele>200</ele>
        <time>2017-09-17T11:34:04Z</time>
      </trkpt>
      <trkpt lat="49.24571" lon="1.14085">
        <ele>199</ele>
        <time>2017-09-17T11:34:08Z</time>
      </trkpt>
      <trkpt lat="49.24583" lon="1.14092">
        <ele>196</ele>
        <time>2017-09-17T11:34:12Z</time>
      </trkpt>
      <trkpt lat="49.24595" lon="1.14097">
        <ele>195</ele>
        <time>2017-09-17T11:34:16Z</time>
      </trkpt>
      <trkpt lat="49.24604" lon="1.14099">
        <ele>192</ele>
        <time>2017-09-17T11:34:20Z</time>
      </trkpt>
      <trkpt lat="49.24615" lon="1.14104">
        <ele>190</ele>
        <time>2017-09-17T11:34:24Z</time>
      </trkpt>
      <trkpt lat="49.24629" lon="1.14113">
        <ele>189</ele>
        <time>2017-09-17T11:34:28Z</time>
      </trkpt>
      <trkpt lat="49.2464" lon="1.14118">
        <ele>187</ele>
        <time>2017-09-17T11:34:32Z</time>
      </trkpt>
      <trkpt lat="49.24652" lon="1.14125">
        <ele>185</ele>
        <time>2017-09-17T11:34:36Z</time>
      </trkpt>
      <trkpt lat="49.24664" lon="1.14128">
        <ele>183</ele>
        <time>2017-09-17T11:34:40Z</time>
      </trkpt>
      <trkpt lat="49.24675" lon="1.14132">
        <ele>181</ele>
        <time>2017-09-17T11:34:44Z</time>
      </trkpt>
      <trkpt lat="49.24687" lon="1.14139">
        <ele>180</ele>
        <time>2017-09-17T11:34:48Z</time>
      </trkpt>
      <trkpt lat="49.24691" lon="1.14147">
        <ele>180</ele>
        <time>2017-09-17T11:34:52Z</time>
      </trkpt>
      <trkpt lat="49.24696" lon="1.1416">
        <ele>180</ele>
        <time>2017-09-17T11:34:56Z</time>
      </trkpt>
      <trkpt lat="49.24699" lon="1.14177">
        <ele>180</ele>
        <time>2017-09-17T11:35:00Z</time>
      </trkpt>
      <trkpt lat="49.24703" lon="1.14202">
        <ele>180</ele>
        <time>2017-09-17T11:35:04Z</time>
      </trkpt>
      <trkpt lat="49.24707" lon="1.14224">
        <ele>179</ele>
        <time>2017-09-17T11:35:08Z</time>
      </trkpt>
      <trkpt lat="49.24712" lon="1.1425">
        <ele>179</ele>
        <time>2017-09-17T11:35:12Z</time>
      </trkpt>
      <trkpt lat="49.24716" lon="1.14278">
        <ele>179</ele>
        <time>2017-09-17T11:35:16Z</time>
      </trkpt>
      <trkpt lat="49.24718" lon="1.14306">
        <ele>179</ele>
        <time>2017-09-17T11:35:20Z</time>
      </trkpt>
      <trkpt lat="49.24723" lon="1.14334">
        <ele>178</ele>
        <time>2017-09-17T11:35:24Z</time>
      </trkpt>
      <trkpt lat="49.24727" lon="1.14364">
        <ele>178</ele>
        <time>2017-09-17T11:35:28Z</time>
      </trkpt>
      <trkpt lat="49.24731" lon="1.14393">
        <ele>178</ele>
        <time>2017-09-17T11:35:32Z</time>
      </trkpt>
      <trkpt lat="49.24733" lon="1.14414">
        <ele>177</ele>
        <time>2017-09-17T11:35:36Z</time>
      </trkpt>
      <trkpt lat="49.24734" lon="1.14424">
        <ele>177</ele>
        <time>2017-09-17T11:35:40Z</time>
      </trkpt>
      <trkpt lat="49.24735" lon="1.14428">
        <ele>177</ele>
        <time>2017-09-17T11:35:44Z</time>
      </trkpt>
      <trkpt lat="49.24739" lon="1.14434">
        <ele>175</ele>
        <time>2017-09-17T11:35:48Z</time>
      </trkpt>
      <trkpt lat="49.24743" lon="1.14447">
        <ele>173</ele>
        <time>2017-09-17T11:35:52Z</time>
      </trkpt>
      <trkpt lat="49.24747" lon="1.14465">
        <ele>172</ele>
        <time>2017-09-17T11:35:56Z</time>
      </trkpt>
      <trkpt lat="49.24751" lon="1.14477">
        <ele>171</ele>
        <time>2017-09-17T11:36:00Z</time>
      </trkpt>
      <trkpt lat="49.2476" lon="1.14484">
        <ele>169</ele>
        <time>2017-09-17T11:36:04Z</time>
      </trkpt>
      <trkpt lat="49.24771" lon="1.14488">
        <ele>166</ele>
        <time>2017-09-17T11:36:08Z</time>
      </trkpt>
      <trkpt lat="49.24783" lon="1.14493">
        <ele>164</ele>
        <time>2017-09-17T11:36:12Z</time>
      </trkpt>
      <trkpt lat="49.24794" lon="1.14499">
        <ele>162</ele>
        <time>2017-09-17T11:36:16Z</time>
      </trkpt>
      <trkpt lat="49.24802" lon="1.14502">
        <ele>162</ele>
        <time>2017-09-17T11:36:20Z</time>
      </trkpt>
      <trkpt lat="49.24811" lon="1.14511">
        <ele>161</ele>
        <time>2017-09-17T11:36:24Z</time>
      </trkpt>
      <trkpt lat="49.24824" lon="1.1452">
        <ele>160</ele>
        <time>2017-09-17T11:36:28Z</time>
      </trkpt>
      <trkpt lat="49.24837" lon="1.1453">
        <ele>159</ele>
        <time>2017-09-17T11:36:32Z</time>
      </trkpt>
      <trkpt lat="49.24844" lon="1.14535">
        <ele>159</ele>
        <time>2017-09-17T11:36:36Z</time>
      </trkpt>
      <trkpt lat="49.24853" lon="1.14543">
        <ele>159</ele>
        <time>2017-09-17T11:36:40Z</time>
      </trkpt>
      <trkpt lat="49.24864" lon="1.14551">
        <ele>159</ele>
        <time>2017-09-17T11:36:44Z</time>
      </trkpt>
      <trkpt lat="49.24875" lon="1.14557">
        <ele>159</ele>
        <time>2017-09-17T11:36:48Z</time>
      </trkpt>
      <trkpt lat="49.24885" lon="1.14563">
        <ele>160</ele>
        <time>2017-09-17T11:36:52Z</time>
      </trkpt>
      <trkpt lat="49.24892" lon="1.14569">
        <ele>161</ele>
        <time>2017-09-17T11:36:56Z</time>
      </trkpt>
      <trkpt lat="49.24897" lon="1.14575">
        <ele>161</ele>
        <time>2017-09-17T11:37:00Z</time>
      </trkpt>
      <trkpt lat="49.24904" lon="1.14579">
        <ele>162</ele>
        <time>2017-09-17T11:37:04Z</time>
      </trkpt>
      <trkpt lat="49.24909" lon="1.14583">
        <ele>163</ele>
        <time>2017-09-17T11:37:08Z</time>
      </trkpt>
      <trkpt lat="49.24916" lon="1.14586">
        <ele>165</ele>
        <time>2017-09-17T11:37:12Z</time>
      </trkpt>
      <trkpt lat="49.24923" lon="1.1459">
        <ele>166</ele>
        <time>2017-09-17T11:37:16Z</time>
      </trkpt>
      <trkpt lat="49.24929" lon="1.14595">
        <ele>167</ele>
        <time>2017-09-17T11:37:28Z</time>
      </trkpt>
      <trkpt lat="49.24935" lon="1.146">
        <ele>168</ele>
        <time>2017-09-17T11:37:32Z</time>
      </trkpt>
      <trkpt lat="49.24938" lon="1.146">
        <ele>169</ele>
        <time>2017-09-17T11:37:36Z</time>
      </trkpt>
      <trkpt lat="49.24942" lon="1.14602">
        <ele>170</ele>
        <time>2017-09-17T11:37:40Z</time>
      </trkpt>
      <trkpt lat="49.24945" lon="1.14602">
        <ele>169</ele>
        <time>2017-09-17T11:37:44Z</time>
      </trkpt>
      <trkpt lat="49.24948" lon="1.14604">
        <ele>170</ele>
        <time>2017-09-17T11:37:48Z</time>
      </trkpt>
      <trkpt lat="49.24953" lon="1.14607">
        <ele>172</ele>
        <time>2017-09-17T11:37:56Z</time>
      </trkpt>
      <trkpt lat="49.24955" lon="1.14608">
        <ele>172</ele>
        <time>2017-09-17T11:38:00Z</time>
      </trkpt>
      <trkpt lat="49.24959" lon="1.1461">
        <ele>173</ele>
        <time>2017-09-17T11:38:04Z</time>
      </trkpt>
      <trkpt lat="49.24962" lon="1.14611">
        <ele>173</ele>
        <time>2017-09-17T11:38:08Z</time>
      </trkpt>
      <trkpt lat="49.24968" lon="1.14612">
        <ele>176</ele>
        <time>2017-09-17T11:38:16Z</time>
      </trkpt>
      <trkpt lat="49.24972" lon="1.14612">
        <ele>177</ele>
        <time>2017-09-17T11:38:20Z</time>
      </trkpt>
      <trkpt lat="49.24975" lon="1.14612">
        <ele>177</ele>
        <time>2017-09-17T11:38:24Z</time>
      </trkpt>
      <trkpt lat="49.24979" lon="1.14613">
        <ele>178</ele>
        <time>2017-09-17T11:38:28Z</time>
      </trkpt>
      <trkpt lat="49.24981" lon="1.14613">
        <ele>178</ele>
        <time>2017-09-17T11:38:32Z</time>
      </trkpt>
      <trkpt lat="49.24984" lon="1.14615">
        <ele>179</ele>
        <time>2017-09-17T11:38:36Z</time>
      </trkpt>
      <trkpt lat="49.24986" lon="1.14617">
        <ele>179</ele>
        <time>2017-09-17T11:38:40Z</time>
      </trkpt>
      <trkpt lat="49.2499" lon="1.14617">
        <ele>181</ele>
        <time>2017-09-17T11:38:48Z</time>
      </trkpt>
      <trkpt lat="49.24995" lon="1.1462">
        <ele>184</ele>
        <time>2017-09-17T11:39:00Z</time>
      </trkpt>
      <trkpt lat="49.25" lon="1.14625">
        <ele>185</ele>
        <time>2017-09-17T11:39:04Z</time>
      </trkpt>
      <trkpt lat="49.25005" lon="1.14626">
        <ele>187</ele>
        <time>2017-09-17T11:39:12Z</time>
      </trkpt>
      <trkpt lat="49.25008" lon="1.14629">
        <ele>188</ele>
        <time>2017-09-17T11:39:20Z</time>
      </trkpt>
      <trkpt lat="49.25013" lon="1.1463">
        <ele>190</ele>
        <time>2017-09-17T11:39:28Z</time>
      </trkpt>
      <trkpt lat="49.25017" lon="1.14631">
        <ele>191</ele>
        <time>2017-09-17T11:39:32Z</time>
      </trkpt>
      <trkpt lat="49.2502" lon="1.14634">
        <ele>191</ele>
        <time>2017-09-17T11:39:36Z</time>
      </trkpt>
      <trkpt lat="49.25023" lon="1.14635">
        <ele>192</ele>
        <time>2017-09-17T11:39:40Z</time>
      </trkpt>
      <trkpt lat="49.25026" lon="1.14636">
        <ele>193</ele>
        <time>2017-09-17T11:39:44Z</time>
      </trkpt>
      <trkpt lat="49.2503" lon="1.14638">
        <ele>194</ele>
        <time>2017-09-17T11:39:48Z</time>
      </trkpt>
      <trkpt lat="49.25033" lon="1.14639">
        <ele>195</ele>
        <time>2017-09-17T11:39:52Z</time>
      </trkpt>
      <trkpt lat="49.25036" lon="1.1464">
        <ele>196</ele>
        <time>2017-09-17T11:39:56Z</time>
      </trkpt>
      <trkpt lat="49.2504" lon="1.1464">
        <ele>197</ele>
        <time>2017-09-17T11:40:04Z</time>
      </trkpt>
      <trkpt lat="49.25043" lon="1.1464">
        <ele>198</ele>
        <time>2017-09-17T11:40:08Z</time>
      </trkpt>
      <trkpt lat="49.25049" lon="1.14643">
        <ele>199</ele>
        <time>2017-09-17T11:40:16Z</time>
      </trkpt>
      <trkpt lat="49.25051" lon="1.14643">
        <ele>200</ele>
        <time>2017-09-17T11:40:20Z</time>
      </trkpt>
      <trkpt lat="49.25054" lon="1.14643">
        <ele>201</ele>
        <time>2017-09-17T11:40:24Z</time>
      </trkpt>
      <trkpt lat="49.25058" lon="1.14645">
        <ele>202</ele>
        <time>2017-09-17T11:40:28Z</time>
      </trkpt>
      <trkpt lat="49.25061" lon="1.14647">
        <ele>202</ele>
        <time>2017-09-17T11:40:32Z</time>
      </trkpt>
      <trkpt lat="49.25063" lon="1.14647">
        <ele>204</ele>
        <time>2017-09-17T11:40:40Z</time>
      </trkpt>
      <trkpt lat="49.25067" lon="1.14649">
        <ele>205</ele>
        <time>2017-09-17T11:40:44Z</time>
      </trkpt>
      <trkpt lat="49.2507" lon="1.14652">
        <ele>204</ele>
        <time>2017-09-17T11:40:48Z</time>
      </trkpt>
      <trkpt lat="49.25073" lon="1.14654">
        <ele>207</ele>
        <time>2017-09-17T11:40:52Z</time>
      </trkpt>
      <trkpt lat="49.25076" lon="1.14656">
        <ele>207</ele>
        <time>2017-09-17T11:40:56Z</time>
      </trkpt>
      <trkpt lat="49.2508" lon="1.14659">
        <ele>207</ele>
        <time>2017-09-17T11:41:00Z</time>
      </trkpt>
      <trkpt lat="49.25083" lon="1.14661">
        <ele>209</ele>
        <time>2017-09-17T11:41:04Z</time>
      </trkpt>
      <trkpt lat="49.25085" lon="1.14665">
        <ele>209</ele>
        <time>2017-09-17T11:41:08Z</time>
      </trkpt>
      <trkpt lat="49.25086" lon="1.14669">
        <ele>209</ele>
        <time>2017-09-17T11:41:12Z</time>
      </trkpt>
      <trkpt lat="49.25087" lon="1.14676">
        <ele>209</ele>
        <time>2017-09-17T11:41:24Z</time>
      </trkpt>
      <trkpt lat="49.25084" lon="1.1468">
        <ele>209</ele>
        <time>2017-09-17T11:41:28Z</time>
      </trkpt>
      <trkpt lat="49.25085" lon="1.14689">
        <ele>208</ele>
        <time>2017-09-17T11:41:32Z</time>
      </trkpt>
      <trkpt lat="49.25085" lon="1.14695">
        <ele>209</ele>
        <time>2017-09-17T11:41:36Z</time>
      </trkpt>
      <trkpt lat="49.25087" lon="1.14703">
        <ele>209</ele>
        <time>2017-09-17T11:41:40Z</time>
      </trkpt>
      <trkpt lat="49.25086" lon="1.14714">
        <ele>209</ele>
        <time>2017-09-17T11:41:44Z</time>
      </trkpt>
      <trkpt lat="49.25087" lon="1.14732">
        <ele>209</ele>
        <time>2017-09-17T11:41:48Z</time>
      </trkpt>
      <trkpt lat="49.25085" lon="1.14748">
        <ele>208</ele>
        <time>2017-09-17T11:41:52Z</time>
      </trkpt>
      <trkpt lat="49.25081" lon="1.14763">
        <ele>208</ele>
        <time>2017-09-17T11:41:56Z</time>
      </trkpt>
      <trkpt lat="49.25077" lon="1.14771">
        <ele>208</ele>
        <time>2017-09-17T11:42:00Z</time>
      </trkpt>
      <trkpt lat="49.25077" lon="1.14786">
        <ele>208</ele>
        <time>2017-09-17T11:42:04Z</time>
      </trkpt>
      <trkpt lat="49.25076" lon="1.14794">
        <ele>208</ele>
        <time>2017-09-17T11:42:08Z</time>
      </trkpt>
      <trkpt lat="49.25078" lon="1.14827">
        <ele>209</ele>
        <time>2017-09-17T11:42:32Z</time>
      </trkpt>
      <trkpt lat="49.2508" lon="1.14833">
        <ele>209</ele>
        <time>2017-09-17T11:42:36Z</time>
      </trkpt>
      <trkpt lat="49.25083" lon="1.14841">
        <ele>210</ele>
        <time>2017-09-17T11:42:40Z</time>
      </trkpt>
      <trkpt lat="49.25084" lon="1.14849">
        <ele>210</ele>
        <time>2017-09-17T11:42:44Z</time>
      </trkpt>
      <trkpt lat="49.25087" lon="1.14857">
        <ele>210</ele>
        <time>2017-09-17T11:42:48Z</time>
      </trkpt>
      <trkpt lat="49.2509" lon="1.14866">
        <ele>210</ele>
        <time>2017-09-17T11:42:52Z</time>
      </trkpt>
      <trkpt lat="49.25093" lon="1.1488">
        <ele>210</ele>
        <time>2017-09-17T11:42:56Z</time>
      </trkpt>
      <trkpt lat="49.25095" lon="1.14894">
        <ele>211</ele>
        <time>2017-09-17T11:43:00Z</time>
      </trkpt>
      <trkpt lat="49.25097" lon="1.14904">
        <ele>211</ele>
        <time>2017-09-17T11:43:04Z</time>
      </trkpt>
      <trkpt lat="49.25103" lon="1.14921">
        <ele>211</ele>
        <time>2017-09-17T11:43:08Z</time>
      </trkpt>
      <trkpt lat="49.25108" lon="1.14942">
        <ele>211</ele>
        <time>2017-09-17T11:43:12Z</time>
      </trkpt>
      <trkpt lat="49.25113" lon="1.14965">
        <ele>211</ele>
        <time>2017-09-17T11:43:16Z</time>
      </trkpt>
      <trkpt lat="49.25117" lon="1.14988">
        <ele>211</ele>
        <time>2017-09-17T11:43:20Z</time>
      </trkpt>
      <trkpt lat="49.25119" lon="1.15007">
        <ele>211</ele>
        <time>2017-09-17T11:43:24Z</time>
      </trkpt>
      <trkpt lat="49.25117" lon="1.15025">
        <ele>211</ele>
        <time>2017-09-17T11:43:28Z</time>
      </trkpt>
      <trkpt lat="49.25114" lon="1.15044">
        <ele>211</ele>
        <time>2017-09-17T11:43:32Z</time>
      </trkpt>
      <trkpt lat="49.25113" lon="1.1506">
        <ele>211</ele>
        <time>2017-09-17T11:43:36Z</time>
      </trkpt>
      <trkpt lat="49.25112" lon="1.15075">
        <ele>212</ele>
        <time>2017-09-17T11:43:40Z</time>
      </trkpt>
      <trkpt lat="49.2511" lon="1.15084">
        <ele>212</ele>
        <time>2017-09-17T11:43:44Z</time>
      </trkpt>
      <trkpt lat="49.25109" lon="1.15098">
        <ele>212</ele>
        <time>2017-09-17T11:43:48Z</time>
      </trkpt>
      <trkpt lat="49.25108" lon="1.1511">
        <ele>212</ele>
        <time>2017-09-17T11:43:52Z</time>
      </trkpt>
      <trkpt lat="49.25107" lon="1.15126">
        <ele>212</ele>
        <time>2017-09-17T11:43:56Z</time>
      </trkpt>
      <trkpt lat="49.25108" lon="1.15144">
        <ele>212</ele>
        <time>2017-09-17T11:44:00Z</time>
      </trkpt>
      <trkpt lat="49.25109" lon="1.15158">
        <ele>214</ele>
        <time>2017-09-17T11:44:04Z</time>
      </trkpt>
      <trkpt lat="49.2511" lon="1.15172">
        <ele>213</ele>
        <time>2017-09-17T11:44:08Z</time>
      </trkpt>
      <trkpt lat="49.25113" lon="1.15191">
        <ele>213</ele>
        <time>2017-09-17T11:44:12Z</time>
      </trkpt>
      <trkpt lat="49.25113" lon="1.15212">
        <ele>213</ele>
        <time>2017-09-17T11:44:16Z</time>
      </trkpt>
      <trkpt lat="49.2511" lon="1.15229">
        <ele>213</ele>
        <time>2017-09-17T11:44:20Z</time>
      </trkpt>
      <trkpt lat="49.25107" lon="1.15248">
        <ele>213</ele>
        <time>2017-09-17T11:44:24Z</time>
      </trkpt>
      <trkpt lat="49.25101" lon="1.15264">
        <ele>213</ele>
        <time>2017-09-17T11:44:28Z</time>
      </trkpt>
      <trkpt lat="49.25096" lon="1.15288">
        <ele>212</ele>
        <time>2017-09-17T11:44:32Z</time>
      </trkpt>
      <trkpt lat="49.2509" lon="1.15304">
        <ele>213</ele>
        <time>2017-09-17T11:44:36Z</time>
      </trkpt>
      <trkpt lat="49.25084" lon="1.15319">
        <ele>212</ele>
        <time>2017-09-17T11:44:40Z</time>
      </trkpt>
      <trkpt lat="49.25076" lon="1.15335">
        <ele>212</ele>
        <time>2017-09-17T11:44:44Z</time>
      </trkpt>
      <trkpt lat="49.25068" lon="1.15351">
        <ele>212</ele>
        <time>2017-09-17T11:44:48Z</time>
      </trkpt>
      <trkpt lat="49.25063" lon="1.15372">
        <ele>212</ele>
        <time>2017-09-17T11:44:52Z</time>
      </trkpt>
      <trkpt lat="49.25056" lon="1.15394">
        <ele>212</ele>
        <time>2017-09-17T11:44:56Z</time>
      </trkpt>
      <trkpt lat="49.25048" lon="1.1541">
        <ele>212</ele>
        <time>2017-09-17T11:45:00Z</time>
      </trkpt>
      <trkpt lat="49.25046" lon="1.1543">
        <ele>212</ele>
        <time>2017-09-17T11:45:04Z</time>
      </trkpt>
      <trkpt lat="49.25041" lon="1.15447">
        <ele>212</ele>
        <time>2017-09-17T11:45:08Z</time>
      </trkpt>
      <trkpt lat="49.25035" lon="1.15464">
        <ele>212</ele>
        <time>2017-09-17T11:45:12Z</time>
      </trkpt>
      <trkpt lat="49.25028" lon="1.15478">
        <ele>212</ele>
        <time>2017-09-17T11:45:16Z</time>
      </trkpt>
      <trkpt lat="49.25019" lon="1.15499">
        <ele>212</ele>
        <time>2017-09-17T11:45:20Z</time>
      </trkpt>
      <trkpt lat="49.25008" lon="1.15517">
        <ele>212</ele>
        <time>2017-09-17T11:45:24Z</time>
      </trkpt>
      <trkpt lat="49.24995" lon="1.15528">
        <ele>213</ele>
        <time>2017-09-17T11:45:28Z</time>
      </trkpt>
      <trkpt lat="49.24984" lon="1.15543">
        <ele>213</ele>
        <time>2017-09-17T11:45:32Z</time>
      </trkpt>
      <trkpt lat="49.24972" lon="1.15556">
        <ele>212</ele>
        <time>2017-09-17T11:45:36Z</time>
      </trkpt>
      <trkpt lat="49.24959" lon="1.15573">
        <ele>212</ele>
        <time>2017-09-17T11:45:40Z</time>
      </trkpt>
      <trkpt lat="49.24946" lon="1.15584">
        <ele>212</ele>
        <time>2017-09-17T11:45:44Z</time>
      </trkpt>
      <trkpt lat="49.24934" lon="1.15596">
        <ele>213</ele>
        <time>2017-09-17T11:45:48Z</time>
      </trkpt>
      <trkpt lat="49.24925" lon="1.15608">
        <ele>213</ele>
        <time>2017-09-17T11:45:52Z</time>
      </trkpt>
      <trkpt lat="49.24911" lon="1.15621">
        <ele>213</ele>
        <time>2017-09-17T11:45:56Z</time>
      </trkpt>
      <trkpt lat="49.24897" lon="1.15632">
        <ele>212</ele>
        <time>2017-09-17T11:46:00Z</time>
      </trkpt>
      <trkpt lat="49.24881" lon="1.15649">
        <ele>212</ele>
        <time>2017-09-17T11:46:04Z</time>
      </trkpt>
      <trkpt lat="49.2487" lon="1.15666">
        <ele>212</ele>
        <time>2017-09-17T11:46:08Z</time>
      </trkpt>
      <trkpt lat="49.24857" lon="1.15679">
        <ele>213</ele>
        <time>2017-09-17T11:46:12Z</time>
      </trkpt>
      <trkpt lat="49.24853" lon="1.15694">
        <ele>212</ele>
        <time>2017-09-17T11:46:16Z</time>
      </trkpt>
      <trkpt lat="49.24844" lon="1.15713">
        <ele>213</ele>
        <time>2017-09-17T11:46:20Z</time>
      </trkpt>
      <trkpt lat="49.24834" lon="1.15728">
        <ele>213</ele>
        <time>2017-09-17T11:46:24Z</time>
      </trkpt>
      <trkpt lat="49.24821" lon="1.15747">
        <ele>212</ele>
        <time>2017-09-17T11:46:28Z</time>
      </trkpt>
      <trkpt lat="49.2481" lon="1.15772">
        <ele>212</ele>
        <time>2017-09-17T11:46:32Z</time>
      </trkpt>
      <trkpt lat="49.24801" lon="1.15793">
        <ele>211</ele>
        <time>2017-09-17T11:46:36Z</time>
      </trkpt>
      <trkpt lat="49.24792" lon="1.1581">
        <ele>211</ele>
        <time>2017-09-17T11:46:40Z</time>
      </trkpt>
      <trkpt lat="49.24785" lon="1.15828">
        <ele>211</ele>
        <time>2017-09-17T11:46:44Z</time>
      </trkpt>
      <trkpt lat="49.24776" lon="1.15843">
        <ele>210</ele>
        <time>2017-09-17T11:46:48Z</time>
      </trkpt>
      <trkpt lat="49.24769" lon="1.15858">
        <ele>210</ele>
        <time>2017-09-17T11:46:52Z</time>
      </trkpt>
      <trkpt lat="49.2476" lon="1.15871">
        <ele>209</ele>
        <time>2017-09-17T11:46:56Z</time>
      </trkpt>
      <trkpt lat="49.24756" lon="1.15889">
        <ele>209</ele>
        <time>2017-09-17T11:47:00Z</time>
      </trkpt>
      <trkpt lat="49.2475" lon="1.15906">
        <ele>208</ele>
        <time>2017-09-17T11:47:04Z</time>
      </trkpt>
      <trkpt lat="49.24744" lon="1.15921">
        <ele>208</ele>
        <time>2017-09-17T11:47:08Z</time>
      </trkpt>
      <trkpt lat="49.24743" lon="1.15939">
        <ele>207</ele>
        <time>2017-09-17T11:47:12Z</time>
      </trkpt>
      <trkpt lat="49.24739" lon="1.15963">
        <ele>206</ele>
        <time>2017-09-17T11:47:16Z</time>
      </trkpt>
      <trkpt lat="49.24732" lon="1.15989">
        <ele>205</ele>
        <time>2017-09-17T11:47:20Z</time>
      </trkpt>
      <trkpt lat="49.2473" lon="1.16006">
        <ele>205</ele>
        <time>2017-09-17T11:47:24Z</time>
      </trkpt>
      <trkpt lat="49.24731" lon="1.16021">
        <ele>205</ele>
        <time>2017-09-17T11:47:28Z</time>
      </trkpt>
      <trkpt lat="49.24737" lon="1.16033">
        <ele>206</ele>
        <time>2017-09-17T11:47:32Z</time>
      </trkpt>
      <trkpt lat="49.24742" lon="1.16041">
        <ele>207</ele>
        <time>2017-09-17T11:47:36Z</time>
      </trkpt>
      <trkpt lat="49.24749" lon="1.16047">
        <ele>208</ele>
        <time>2017-09-17T11:47:40Z</time>
      </trkpt>
      <trkpt lat="49.24755" lon="1.16051">
        <ele>209</ele>
        <time>2017-09-17T11:47:44Z</time>
      </trkpt>
      <trkpt lat="49.24761" lon="1.16055">
        <ele>209</ele>
        <time>2017-09-17T11:47:48Z</time>
      </trkpt>
      <trkpt lat="49.24768" lon="1.1606">
        <ele>210</ele>
        <time>2017-09-17T11:47:52Z</time>
      </trkpt>
      <trkpt lat="49.24776" lon="1.16063">
        <ele>209</ele>
        <time>2017-09-17T11:47:56Z</time>
      </trkpt>
      <trkpt lat="49.24785" lon="1.16068">
        <ele>210</ele>
        <time>2017-09-17T11:48:00Z</time>
      </trkpt>
      <trkpt lat="49.24795" lon="1.16076">
        <ele>210</ele>
        <time>2017-09-17T11:48:04Z</time>
      </trkpt>
      <trkpt lat="49.24807" lon="1.16085">
        <ele>210</ele>
        <time>2017-09-17T11:48:08Z</time>
      </trkpt>
      <trkpt lat="49.24816" lon="1.16088">
        <ele>210</ele>
        <time>2017-09-17T11:48:12Z</time>
      </trkpt>
      <trkpt lat="49.24829" lon="1.16097">
        <ele>210</ele>
        <time>2017-09-17T11:48:16Z</time>
      </trkpt>
      <trkpt lat="49.24843" lon="1.16108">
        <ele>210</ele>
        <time>2017-09-17T11:48:20Z</time>
      </trkpt>
      <trkpt lat="49.24858" lon="1.16118">
        <ele>210</ele>
        <time>2017-09-17T11:48:24Z</time>
      </trkpt>
      <trkpt lat="49.24873" lon="1.16127">
        <ele>210</ele>
        <time>2017-09-17T11:48:28Z</time>
      </trkpt>
      <trkpt lat="49.24886" lon="1.16136">
        <ele>210</ele>
        <time>2017-09-17T11:48:32Z</time>
      </trkpt>
      <trkpt lat="49.24905" lon="1.1615">
        <ele>209</ele>
        <time>2017-09-17T11:48:36Z</time>
      </trkpt>
      <trkpt lat="49.24921" lon="1.1616">
        <ele>209</ele>
        <time>2017-09-17T11:48:40Z</time>
      </trkpt>
      <trkpt lat="49.24938" lon="1.16169">
        <ele>209</ele>
        <time>2017-09-17T11:48:44Z</time>
      </trkpt>
      <trkpt lat="49.24954" lon="1.16177">
        <ele>208</ele>
        <time>2017-09-17T11:48:48Z</time>
      </trkpt>
      <trkpt lat="49.24967" lon="1.16184">
        <ele>208</ele>
        <time>2017-09-17T11:48:52Z</time>
      </trkpt>
      <trkpt lat="49.24977" lon="1.16189">
        <ele>208</ele>
        <time>2017-09-17T11:48:56Z</time>
      </trkpt>
      <trkpt lat="49.24988" lon="1.16193">
        <ele>208</ele>
        <time>2017-09-17T11:49:00Z</time>
      </trkpt>
      <trkpt lat="49.25004" lon="1.16202">
        <ele>207</ele>
        <time>2017-09-17T11:49:04Z</time>
      </trkpt>
      <trkpt lat="49.25026" lon="1.16214">
        <ele>205</ele>
        <time>2017-09-17T11:49:08Z</time>
      </trkpt>
      <trkpt lat="49.25054" lon="1.16234">
        <ele>205</ele>
        <time>2017-09-17T11:49:12Z</time>
      </trkpt>
      <trkpt lat="49.2506" lon="1.16271">
        <ele>204</ele>
        <time>2017-09-17T11:49:16Z</time>
      </trkpt>
      <trkpt lat="49.25062" lon="1.16312">
        <ele>203</ele>
        <time>2017-09-17T11:49:20Z</time>
      </trkpt>
      <trkpt lat="49.25061" lon="1.16351">
        <ele>201</ele>
        <time>2017-09-17T11:49:24Z</time>
      </trkpt>
      <trkpt lat="49.25059" lon="1.1639">
        <ele>200</ele>
        <time>2017-09-17T11:49:28Z</time>
      </trkpt>
      <trkpt lat="49.25063" lon="1.16426">
        <ele>199</ele>
        <time>2017-09-17T11:49:32Z</time>
      </trkpt>
      <trkpt lat="49.25065" lon="1.16461">
        <ele>197</ele>
        <time>2017-09-17T11:49:36Z</time>
      </trkpt>
      <trkpt lat="49.2506" lon="1.16496">
        <ele>196</ele>
        <time>2017-09-17T11:49:40Z</time>
      </trkpt>
      <trkpt lat="49.25052" lon="1.1653">
        <ele>194</ele>
        <time>2017-09-17T11:49:44Z</time>
      </trkpt>
      <trkpt lat="49.25049" lon="1.16568">
        <ele>191</ele>
        <time>2017-09-17T11:49:48Z</time>
      </trkpt>
      <trkpt lat="49.25044" lon="1.16596">
        <ele>189</ele>
        <time>2017-09-17T11:49:52Z</time>
      </trkpt>
      <trkpt lat="49.25041" lon="1.16624">
        <ele>187</ele>
        <time>2017-09-17T11:49:56Z</time>
      </trkpt>
      <trkpt lat="49.25038" lon="1.16657">
        <ele>185</ele>
        <time>2017-09-17T11:50:00Z</time>
      </trkpt>
      <trkpt lat="49.25027" lon="1.1669">
        <ele>182</ele>
        <time>2017-09-17T11:50:04Z</time>
      </trkpt>
      <trkpt lat="49.25018" lon="1.16731">
        <ele>179</ele>
        <time>2017-09-17T11:50:08Z</time>
      </trkpt>
      <trkpt lat="49.25009" lon="1.1677">
        <ele>176</ele>
        <time>2017-09-17T11:50:12Z</time>
      </trkpt>
      <trkpt lat="49.24998" lon="1.16809">
        <ele>174</ele>
        <time>2017-09-17T11:50:16Z</time>
      </trkpt>
      <trkpt lat="49.24988" lon="1.16851">
        <ele>171</ele>
        <time>2017-09-17T11:50:20Z</time>
      </trkpt>
      <trkpt lat="49.24975" lon="1.16895">
        <ele>168</ele>
        <time>2017-09-17T11:50:24Z</time>
      </trkpt>
      <trkpt lat="49.24966" lon="1.16934">
        <ele>167</ele>
        <time>2017-09-17T11:50:28Z</time>
      </trkpt>
      <trkpt lat="49.24961" lon="1.16972">
        <ele>165</ele>
        <time>2017-09-17T11:50:32Z</time>
      </trkpt>
      <trkpt lat="49.24954" lon="1.17006">
        <ele>163</ele>
        <time>2017-09-17T11:50:36Z</time>
      </trkpt>
      <trkpt lat="49.24946" lon="1.17039">
        <ele>162</ele>
        <time>2017-09-17T11:50:40Z</time>
      </trkpt>
      <trkpt lat="49.24938" lon="1.17055">
        <ele>161</ele>
        <time>2017-09-17T11:50:44Z</time>
      </trkpt>
      <trkpt lat="49.24923" lon="1.17063">
        <ele>159</ele>
        <time>2017-09-17T11:50:48Z</time>
      </trkpt>
      <trkpt lat="49.2491" lon="1.17069">
        <ele>158</ele>
        <time>2017-09-17T11:50:52Z</time>
      </trkpt>
      <trkpt lat="49.24898" lon="1.1707">
        <ele>156</ele>
        <time>2017-09-17T11:50:56Z</time>
      </trkpt>
      <trkpt lat="49.2489" lon="1.17071">
        <ele>157</ele>
        <time>2017-09-17T11:51:00Z</time>
      </trkpt>
      <trkpt lat="49.24888" lon="1.17065">
        <ele>158</ele>
        <time>2017-09-17T11:51:04Z</time>
      </trkpt>
      <trkpt lat="49.24886" lon="1.17058">
        <ele>159</ele>
        <time>2017-09-17T11:51:08Z</time>
      </trkpt>
      <trkpt lat="49.24884" lon="1.1705">
        <ele>160</ele>
        <time>2017-09-17T11:51:12Z</time>
      </trkpt>
      <trkpt lat="49.2488" lon="1.17038">
        <ele>161</ele>
        <time>2017-09-17T11:51:16Z</time>
      </trkpt>
      <trkpt lat="49.24879" lon="1.17027">
        <ele>162</ele>
        <time>2017-09-17T11:51:20Z</time>
      </trkpt>
      <trkpt lat="49.24879" lon="1.17014">
        <ele>163</ele>
        <time>2017-09-17T11:51:24Z</time>
      </trkpt>
      <trkpt lat="49.2488" lon="1.16996">
        <ele>163</ele>
        <time>2017-09-17T11:51:28Z</time>
      </trkpt>
      <trkpt lat="49.24879" lon="1.16988">
        <ele>164</ele>
        <time>2017-09-17T11:51:32Z</time>
      </trkpt>
      <trkpt lat="49.24878" lon="1.16979">
        <ele>164</ele>
        <time>2017-09-17T11:51:36Z</time>
      </trkpt>
      <trkpt lat="49.24877" lon="1.16966">
        <ele>165</ele>
        <time>2017-09-17T11:51:40Z</time>
      </trkpt>
      <trkpt lat="49.24877" lon="1.16955">
        <ele>166</ele>
        <time>2017-09-17T11:51:44Z</time>
      </trkpt>
      <trkpt lat="49.24873" lon="1.16946">
        <ele>166</ele>
        <time>2017-09-17T11:51:48Z</time>
      </trkpt>
      <trkpt lat="49.2487" lon="1.1694">
        <ele>166</ele>
        <time>2017-09-17T11:51:52Z</time>
      </trkpt>
      <trkpt lat="49.24865" lon="1.16931">
        <ele>167</ele>
        <time>2017-09-17T11:51:56Z</time>
      </trkpt>
      <trkpt lat="49.2486" lon="1.16922">
        <ele>167</ele>
        <time>2017-09-17T11:52:00Z</time>
      </trkpt>
      <trkpt lat="49.24853" lon="1.16914">
        <ele>168</ele>
        <time>2017-09-17T11:52:04Z</time>
      </trkpt>
      <trkpt lat="49.24847" lon="1.16906">
        <ele>167</ele>
        <time>2017-09-17T11:52:08Z</time>
      </trkpt>
      <trkpt lat="49.2484" lon="1.16898">
        <ele>168</ele>
        <time>2017-09-17T11:52:12Z</time>
      </trkpt>
      <trkpt lat="49.2483" lon="1.16888">
        <ele>168</ele>
        <time>2017-09-17T11:52:16Z</time>
      </trkpt>
      <trkpt lat="49.24826" lon="1.16878">
        <ele>169</ele>
        <time>2017-09-17T11:52:20Z</time>
      </trkpt>
      <trkpt lat="49.2482" lon="1.1687">
        <ele>169</ele>
        <time>2017-09-17T11:52:24Z</time>
      </trkpt>
      <trkpt lat="49.24815" lon="1.16857">
        <ele>169</ele>
        <time>2017-09-17T11:52:28Z</time>
      </trkpt>
      <trkpt lat="49.24809" lon="1.16844">
        <ele>170</ele>
        <time>2017-09-17T11:52:32Z</time>
      </trkpt>
      <trkpt lat="49.24804" lon="1.16833">
        <ele>170</ele>
        <time>2017-09-17T11:52:36Z</time>
      </trkpt>
      <trkpt lat="49.24798" lon="1.1682">
        <ele>171</ele>
        <time>2017-09-17T11:52:40Z</time>
      </trkpt>
      <trkpt lat="49.24794" lon="1.16808">
        <ele>171</ele>
        <time>2017-09-17T11:52:44Z</time>
      </trkpt>
      <trkpt lat="49.24788" lon="1.16796">
        <ele>171</ele>
        <time>2017-09-17T11:52:48Z</time>
      </trkpt>
      <trkpt lat="49.24782" lon="1.16782">
        <ele>172</ele>
        <time>2017-09-17T11:52:52Z</time>
      </trkpt>
      <trkpt lat="49.24775" lon="1.16762">
        <ele>172</ele>
        <time>2017-09-17T11:52:56Z</time>
      </trkpt>
      <trkpt lat="49.24769" lon="1.16747">
        <ele>172</ele>
        <time>2017-09-17T11:53:00Z</time>
      </trkpt>
      <trkpt lat="49.24764" lon="1.16735">
        <ele>173</ele>
        <time>2017-09-17T11:53:04Z</time>
      </trkpt>
      <trkpt lat="49.24758" lon="1.16723">
        <ele>174</ele>
        <time>2017-09-17T11:53:08Z</time>
      </trkpt>
      <trkpt lat="49.24752" lon="1.1671">
        <ele>174</ele>
        <time>2017-09-17T11:53:12Z</time>
      </trkpt>
      <trkpt lat="49.24745" lon="1.16697">
        <ele>176</ele>
        <time>2017-09-17T11:53:16Z</time>
      </trkpt>
      <trkpt lat="49.24738" lon="1.16681">
        <ele>176</ele>
        <time>2017-09-17T11:53:20Z</time>
      </trkpt>
      <trkpt lat="49.2473" lon="1.16665">
        <ele>176</ele>
        <time>2017-09-17T11:53:24Z</time>
      </trkpt>
      <trkpt lat="49.24718" lon="1.16648">
        <ele>177</ele>
        <time>2017-09-17T11:53:28Z</time>
      </trkpt>
      <trkpt lat="49.24711" lon="1.1663">
        <ele>177</ele>
        <time>2017-09-17T11:53:32Z</time>
      </trkpt>
      <trkpt lat="49.24704" lon="1.16612">
        <ele>178</ele>
        <time>2017-09-17T11:53:36Z</time>
      </trkpt>
      <trkpt lat="49.24698" lon="1.16595">
        <ele>179</ele>
        <time>2017-09-17T11:53:40Z</time>
      </trkpt>
      <trkpt lat="49.24693" lon="1.16572">
        <ele>179</ele>
        <time>2017-09-17T11:53:44Z</time>
      </trkpt>
      <trkpt lat="49.24686" lon="1.16552">
        <ele>181</ele>
        <time>2017-09-17T11:53:48Z</time>
      </trkpt>
      <trkpt lat="49.24685" lon="1.16535">
        <ele>182</ele>
        <time>2017-09-17T11:53:52Z</time>
      </trkpt>
      <trkpt lat="49.24682" lon="1.16518">
        <ele>183</ele>
        <time>2017-09-17T11:53:56Z</time>
      </trkpt>
      <trkpt lat="49.24681" lon="1.16502">
        <ele>184</ele>
        <time>2017-09-17T11:54:00Z</time>
      </trkpt>
      <trkpt lat="49.2468" lon="1.16481">
        <ele>184</ele>
        <time>2017-09-17T11:54:04Z</time>
      </trkpt>
      <trkpt lat="49.2468" lon="1.16464">
        <ele>185</ele>
        <time>2017-09-17T11:54:08Z</time>
      </trkpt>
      <trkpt lat="49.24678" lon="1.16446">
        <ele>186</ele>
        <time>2017-09-17T11:54:12Z</time>
      </trkpt>
      <trkpt lat="49.24674" lon="1.16429">
        <ele>186</ele>
        <time>2017-09-17T11:54:16Z</time>
      </trkpt>
      <trkpt lat="49.24671" lon="1.1641">
        <ele>187</ele>
        <time>2017-09-17T11:54:20Z</time>
      </trkpt>
      <trkpt lat="49.2467" lon="1.16397">
        <ele>187</ele>
        <time>2017-09-17T11:54:24Z</time>
      </trkpt>
      <trkpt lat="49.2467" lon="1.16385">
        <ele>188</ele>
        <time>2017-09-17T11:54:28Z</time>
      </trkpt>
      <trkpt lat="49.24671" lon="1.16376">
        <ele>188</ele>
        <time>2017-09-17T11:54:32Z</time>
      </trkpt>
      <trkpt lat="49.24672" lon="1.16363">
        <ele>189</ele>
        <time>2017-09-17T11:54:36Z</time>
      </trkpt>
      <trkpt lat="49.24672" lon="1.16351">
        <ele>189</ele>
        <time>2017-09-17T11:54:40Z</time>
      </trkpt>
      <trkpt lat="49.24672" lon="1.16342">
        <ele>190</ele>
        <time>2017-09-17T11:54:44Z</time>
      </trkpt>
      <trkpt lat="49.24672" lon="1.16329">
        <ele>191</ele>
        <time>2017-09-17T11:54:48Z</time>
      </trkpt>
      <trkpt lat="49.24674" lon="1.16315">
        <ele>192</ele>
        <time>2017-09-17T11:54:52Z</time>
      </trkpt>
      <trkpt lat="49.24674" lon="1.16302">
        <ele>192</ele>
        <time>2017-09-17T11:54:56Z</time>
      </trkpt>
      <trkpt lat="49.24672" lon="1.16294">
        <ele>192</ele>
        <time>2017-09-17T11:55:00Z</time>
      </trkpt>
      <trkpt lat="49.24674" lon="1.16279">
        <ele>192</ele>
        <time>2017-09-17T11:55:04Z</time>
      </trkpt>
      <trkpt lat="49.24672" lon="1.1627">
        <ele>192</ele>
        <time>2017-09-17T11:55:08Z</time>
      </trkpt>
      <trkpt lat="49.24665" lon="1.1626">
        <ele>190</ele>
        <time>2017-09-17T11:55:12Z</time>
      </trkpt>
      <trkpt lat="49.24656" lon="1.16251">
        <ele>188</ele>
        <time>2017-09-17T11:55:16Z</time>
      </trkpt>
      <trkpt lat="49.24648" lon="1.16246">
        <ele>186</ele>
        <time>2017-09-17T11:55:20Z</time>
      </trkpt>
      <trkpt lat="49.2464" lon="1.1624">
        <ele>183</ele>
        <time>2017-09-17T11:55:24Z</time>
      </trkpt>
      <trkpt lat="49.2463" lon="1.16234">
        <ele>181</ele>
        <time>2017-09-17T11:55:28Z</time>
      </trkpt>
      <trkpt lat="49.24621" lon="1.16227">
        <ele>178</ele>
        <time>2017-09-17T11:55:32Z</time>
      </trkpt>
      <trkpt lat="49.24613" lon="1.16223">
        <ele>175</ele>
        <time>2017-09-17T11:55:36Z</time>
      </trkpt>
      <trkpt lat="49.24606" lon="1.16216">
        <ele>173</ele>
        <time>2017-09-17T11:55:40Z</time>
      </trkpt>
      <trkpt lat="49.24595" lon="1.1621">
        <ele>170</ele>
        <time>2017-09-17T11:55:44Z</time>
      </trkpt>
      <trkpt lat="49.24581" lon="1.16201">
        <ele>166</ele>
        <time>2017-09-17T11:55:48Z</time>
      </trkpt>
      <trkpt lat="49.24567" lon="1.16198">
        <ele>164</ele>
        <time>2017-09-17T11:55:52Z</time>
      </trkpt>
      <trkpt lat="49.24559" lon="1.16192">
        <ele>162</ele>
        <time>2017-09-17T11:55:56Z</time>
      </trkpt>
      <trkpt lat="49.2455" lon="1.16186">
        <ele>161</ele>
        <time>2017-09-17T11:56:00Z</time>
      </trkpt>
      <trkpt lat="49.24541" lon="1.16182">
        <ele>159</ele>
        <time>2017-09-17T11:56:04Z</time>
      </trkpt>
      <trkpt lat="49.24531" lon="1.16178">
        <ele>156</ele>
        <time>2017-09-17T11:56:08Z</time>
      </trkpt>
      <trkpt lat="49.24523" lon="1.16174">
        <ele>153</ele>
        <time>2017-09-17T11:56:12Z</time>
      </trkpt>
      <trkpt lat="49.24512" lon="1.16169">
        <ele>151</ele>
        <time>2017-09-17T11:56:16Z</time>
      </trkpt>
      <trkpt lat="49.245" lon="1.16161">
        <ele>149</ele>
        <time>2017-09-17T11:56:20Z</time>
      </trkpt>
      <trkpt lat="49.24492" lon="1.16155">
        <ele>148</ele>
        <time>2017-09-17T11:56:24Z</time>
      </trkpt>
      <trkpt lat="49.24485" lon="1.16152">
        <ele>147</ele>
        <time>2017-09-17T11:56:28Z</time>
      </trkpt>
      <trkpt lat="49.24478" lon="1.16147">
        <ele>146</ele>
        <time>2017-09-17T11:56:32Z</time>
      </trkpt>
      <trkpt lat="49.24472" lon="1.16144">
        <ele>145</ele>
        <time>2017-09-17T11:56:36Z</time>
      </trkpt>
      <trkpt lat="49.24461" lon="1.16138">
        <ele>144</ele>
        <time>2017-09-17T11:56:40Z</time>
      </trkpt>
      <trkpt lat="49.24447" lon="1.16125">
        <ele>143</ele>
        <time>2017-09-17T11:56:44Z</time>
      </trkpt>
      <trkpt lat="49.24441" lon="1.16103">
        <ele>143</ele>
        <time>2017-09-17T11:56:48Z</time>
      </trkpt>
      <trkpt lat="49.24439" lon="1.16081">
        <ele>143</ele>
        <time>2017-09-17T11:56:52Z</time>
      </trkpt>
      <trkpt lat="49.24439" lon="1.16062">
        <ele>143</ele>
        <time>2017-09-17T11:56:56Z</time>
      </trkpt>
      <trkpt lat="49.24436" lon="1.16037">
        <ele>143</ele>
        <time>2017-09-17T11:57:00Z</time>
      </trkpt>
      <trkpt lat="49.24438" lon="1.16011">
        <ele>144</ele>
        <time>2017-09-17T11:57:04Z</time>
      </trkpt>
      <trkpt lat="49.24443" lon="1.15988">
        <ele>144</ele>
        <time>2017-09-17T11:57:08Z</time>
      </trkpt>
      <trkpt lat="49.24449" lon="1.15967">
        <ele>144</ele>
        <time>2017-09-17T11:57:12Z</time>
      </trkpt>
      <trkpt lat="49.24453" lon="1.15946">
        <ele>144</ele>
        <time>2017-09-17T11:57:16Z</time>
      </trkpt>
      <trkpt lat="49.24458" lon="1.15928">
        <ele>145</ele>
        <time>2017-09-17T11:57:20Z</time>
      </trkpt>
      <trkpt lat="49.24462" lon="1.15907">
        <ele>145</ele>
        <time>2017-09-17T11:57:24Z</time>
      </trkpt>
      <trkpt lat="49.24464" lon="1.15898">
        <ele>144</ele>
        <time>2017-09-17T11:57:28Z</time>
      </trkpt>
      <trkpt lat="49.24464" lon="1.15878">
        <ele>144</ele>
        <time>2017-09-17T11:57:32Z</time>
      </trkpt>
      <trkpt lat="49.24461" lon="1.15871">
        <ele>145</ele>
        <time>2017-09-17T11:57:36Z</time>
      </trkpt>
      <trkpt lat="49.24459" lon="1.15866">
        <ele>146</ele>
        <time>2017-09-17T11:57:40Z</time>
      </trkpt>
      <trkpt lat="49.24454" lon="1.15862">
        <ele>147</ele>
        <time>2017-09-17T11:57:44Z</time>
      </trkpt>
      <trkpt lat="49.2445" lon="1.15857">
        <ele>148</ele>
        <time>2017-09-17T11:57:48Z</time>
      </trkpt>
      <trkpt lat="49.24445" lon="1.15853">
        <ele>149</ele>
        <time>2017-09-17T11:57:52Z</time>
      </trkpt>
      <trkpt lat="49.24434" lon="1.15842">
        <ele>150</ele>
        <time>2017-09-17T11:58:12Z</time>
      </trkpt>
      <trkpt lat="49.2443" lon="1.1584">
        <ele>152</ele>
        <time>2017-09-17T11:58:20Z</time>
      </trkpt>
      <trkpt lat="49.24426" lon="1.1584">
        <ele>152</ele>
        <time>2017-09-17T11:58:24Z</time>
      </trkpt>
      <trkpt lat="49.24422" lon="1.15839">
        <ele>153</ele>
        <time>2017-09-17T11:58:28Z</time>
      </trkpt>
      <trkpt lat="49.24417" lon="1.15837">
        <ele>155</ele>
        <time>2017-09-17T11:58:40Z</time>
      </trkpt>
      <trkpt lat="49.24413" lon="1.15836">
        <ele>156</ele>
        <time>2017-09-17T11:58:44Z</time>
      </trkpt>
      <trkpt lat="49.24409" lon="1.15833">
        <ele>159</ele>
        <time>2017-09-17T11:58:56Z</time>
      </trkpt>
      <trkpt lat="49.24399" lon="1.15829">
        <ele>160</ele>
        <time>2017-09-17T11:59:04Z</time>
      </trkpt>
      <trkpt lat="49.24396" lon="1.15827">
        <ele>162</ele>
        <time>2017-09-17T11:59:08Z</time>
      </trkpt>
      <trkpt lat="49.24395" lon="1.15822">
        <ele>162</ele>
        <time>2017-09-17T11:59:12Z</time>
      </trkpt>
      <trkpt lat="49.24394" lon="1.15818">
        <ele>162</ele>
        <time>2017-09-17T11:59:20Z</time>
      </trkpt>
      <trkpt lat="49.24394" lon="1.15813">
        <ele>162</ele>
        <time>2017-09-17T11:59:24Z</time>
      </trkpt>
      <trkpt lat="49.24395" lon="1.15808">
        <ele>162</ele>
        <time>2017-09-17T11:59:28Z</time>
      </trkpt>
      <trkpt lat="49.24397" lon="1.15798">
        <ele>162</ele>
        <time>2017-09-17T11:59:32Z</time>
      </trkpt>
      <trkpt lat="49.24399" lon="1.15787">
        <ele>162</ele>
        <time>2017-09-17T11:59:36Z</time>
      </trkpt>
      <trkpt lat="49.244" lon="1.15775">
        <ele>162</ele>
        <time>2017-09-17T11:59:40Z</time>
      </trkpt>
      <trkpt lat="49.24401" lon="1.15764">
        <ele>162</ele>
        <time>2017-09-17T11:59:44Z</time>
      </trkpt>
      <trkpt lat="49.24403" lon="1.15751">
        <ele>163</ele>
        <time>2017-09-17T11:59:48Z</time>
      </trkpt>
      <trkpt lat="49.24406" lon="1.15735">
        <ele>163</ele>
        <time>2017-09-17T11:59:52Z</time>
      </trkpt>
      <trkpt lat="49.24407" lon="1.15721">
        <ele>163</ele>
        <time>2017-09-17T11:59:56Z</time>
      </trkpt>
      <trkpt lat="49.24409" lon="1.15707">
        <ele>163</ele>
        <time>2017-09-17T12:00:00Z</time>
      </trkpt>
      <trkpt lat="49.24412" lon="1.15695">
        <ele>163</ele>
        <time>2017-09-17T12:00:04Z</time>
      </trkpt>
      <trkpt lat="49.24414" lon="1.15683">
        <ele>163</ele>
        <time>2017-09-17T12:00:08Z</time>
      </trkpt>
      <trkpt lat="49.24417" lon="1.15668">
        <ele>164</ele>
        <time>2017-09-17T12:00:12Z</time>
      </trkpt>
      <trkpt lat="49.24419" lon="1.15655">
        <ele>164</ele>
        <time>2017-09-17T12:00:16Z</time>
      </trkpt>
      <trkpt lat="49.24423" lon="1.15641">
        <ele>164</ele>
        <time>2017-09-17T12:00:20Z</time>
      </trkpt>
      <trkpt lat="49.24425" lon="1.15624">
        <ele>164</ele>
        <time>2017-09-17T12:00:24Z</time>
      </trkpt>
      <trkpt lat="49.24429" lon="1.1561">
        <ele>165</ele>
        <time>2017-09-17T12:00:28Z</time>
      </trkpt>
      <trkpt lat="49.24432" lon="1.15596">
        <ele>164</ele>
        <time>2017-09-17T12:00:32Z</time>
      </trkpt>
      <trkpt lat="49.24435" lon="1.15582">
        <ele>164</ele>
        <time>2017-09-17T12:00:36Z</time>
      </trkpt>
      <trkpt lat="49.24439" lon="1.15569">
        <ele>165</ele>
        <time>2017-09-17T12:00:40Z</time>
      </trkpt>
      <trkpt lat="49.24443" lon="1.15553">
        <ele>165</ele>
        <time>2017-09-17T12:00:44Z</time>
      </trkpt>
      <trkpt lat="49.24449" lon="1.15538">
        <ele>165</ele>
        <time>2017-09-17T12:00:48Z</time>
      </trkpt>
      <trkpt lat="49.24454" lon="1.15526">
        <ele>165</ele>
        <time>2017-09-17T12:00:52Z</time>
      </trkpt>
      <trkpt lat="49.24458" lon="1.15516">
        <ele>165</ele>
        <time>2017-09-17T12:00:56Z</time>
      </trkpt>
      <trkpt lat="49.24463" lon="1.15505">
        <ele>166</ele>
        <time>2017-09-17T12:01:00Z</time>
      </trkpt>
      <trkpt lat="49.24467" lon="1.15494">
        <ele>166</ele>
        <time>2017-09-17T12:01:04Z</time>
      </trkpt>
      <trkpt lat="49.24471" lon="1.15482">
        <ele>166</ele>
        <time>2017-09-17T12:01:08Z</time>
      </trkpt>
      <trkpt lat="49.24476" lon="1.15469">
        <ele>166</ele>
        <time>2017-09-17T12:01:12Z</time>
      </trkpt>
      <trkpt lat="49.24482" lon="1.15455">
        <ele>166</ele>
        <time>2017-09-17T12:01:16Z</time>
      </trkpt>
      <trkpt lat="49.24489" lon="1.15442">
        <ele>166</ele>
        <time>2017-09-17T12:01:20Z</time>
      </trkpt>
      <trkpt lat="49.24495" lon="1.15432">
        <ele>166</ele>
        <time>2017-09-17T12:01:24Z</time>
      </trkpt>
      <trkpt lat="49.24502" lon="1.15421">
        <ele>166</ele>
        <time>2017-09-17T12:01:28Z</time>
      </trkpt>
      <trkpt lat="49.2451" lon="1.1541">
        <ele>167</ele>
        <time>2017-09-17T12:01:32Z</time>
      </trkpt>
      <trkpt lat="49.24517" lon="1.15402">
        <ele>167</ele>
        <time>2017-09-17T12:01:36Z</time>
      </trkpt>
      <trkpt lat="49.24524" lon="1.15393">
        <ele>167</ele>
        <time>2017-09-17T12:01:40Z</time>
      </trkpt>
      <trkpt lat="49.24533" lon="1.1538">
        <ele>167</ele>
        <time>2017-09-17T12:01:44Z</time>
      </trkpt>
      <trkpt lat="49.24541" lon="1.15369">
        <ele>168</ele>
        <time>2017-09-17T12:01:48Z</time>
      </trkpt>
      <trkpt lat="49.2455" lon="1.15357">
        <ele>168</ele>
        <time>2017-09-17T12:01:52Z</time>
      </trkpt>
      <trkpt lat="49.24557" lon="1.15343">
        <ele>168</ele>
        <time>2017-09-17T12:01:56Z</time>
      </trkpt>
      <trkpt lat="49.24567" lon="1.15327">
        <ele>168</ele>
        <time>2017-09-17T12:02:00Z</time>
      </trkpt>
      <trkpt lat="49.24576" lon="1.15316">
        <ele>168</ele>
        <time>2017-09-17T12:02:04Z</time>
      </trkpt>
      <trkpt lat="49.24584" lon="1.15304">
        <ele>168</ele>
        <time>2017-09-17T12:02:08Z</time>
      </trkpt>
      <trkpt lat="49.24591" lon="1.15294">
        <ele>168</ele>
        <time>2017-09-17T12:02:12Z</time>
      </trkpt>
      <trkpt lat="49.24599" lon="1.15284">
        <ele>168</ele>
        <time>2017-09-17T12:02:16Z</time>
      </trkpt>
      <trkpt lat="49.24607" lon="1.15275">
        <ele>168</ele>
        <time>2017-09-17T12:02:20Z</time>
      </trkpt>
      <trkpt lat="49.24612" lon="1.15268">
        <ele>169</ele>
        <time>2017-09-17T12:02:24Z</time>
      </trkpt>
      <trkpt lat="49.24617" lon="1.15259">
        <ele>169</ele>
        <time>2017-09-17T12:02:28Z</time>
      </trkpt>
      <trkpt lat="49.24622" lon="1.15251">
        <ele>169</ele>
        <time>2017-09-17T12:02:32Z</time>
      </trkpt>
      <trkpt lat="49.24628" lon="1.15244">
        <ele>169</ele>
        <time>2017-09-17T12:02:36Z</time>
      </trkpt>
      <trkpt lat="49.24629" lon="1.15234">
        <ele>169</ele>
        <time>2017-09-17T12:02:40Z</time>
      </trkpt>
      <trkpt lat="49.24621" lon="1.15222">
        <ele>167</ele>
        <time>2017-09-17T12:02:44Z</time>
      </trkpt>
      <trkpt lat="49.24617" lon="1.15218">
        <ele>168</ele>
        <time>2017-09-17T12:02:48Z</time>
      </trkpt>
      <trkpt lat="49.24613" lon="1.15214">
        <ele>169</ele>
        <time>2017-09-17T12:02:52Z</time>
      </trkpt>
      <trkpt lat="49.2461" lon="1.15212">
        <ele>171</ele>
        <time>2017-09-17T12:02:56Z</time>
      </trkpt>
      <trkpt lat="49.24606" lon="1.15209">
        <ele>172</ele>
        <time>2017-09-17T12:03:00Z</time>
      </trkpt>
      <trkpt lat="49.24603" lon="1.15206">
        <ele>172</ele>
        <time>2017-09-17T12:03:04Z</time>
      </trkpt>
      <trkpt lat="49.24596" lon="1.15203">
        <ele>173</ele>
        <time>2017-09-17T12:03:08Z</time>
      </trkpt>
      <trkpt lat="49.24592" lon="1.15199">
        <ele>174</ele>
        <time>2017-09-17T12:03:12Z</time>
      </trkpt>
      <trkpt lat="49.24587" lon="1.15195">
        <ele>175</ele>
        <time>2017-09-17T12:03:16Z</time>
      </trkpt>
      <trkpt lat="49.24579" lon="1.15188">
        <ele>175</ele>
        <time>2017-09-17T12:03:20Z</time>
      </trkpt>
      <trkpt lat="49.24571" lon="1.15182">
        <ele>175</ele>
        <time>2017-09-17T12:03:24Z</time>
      </trkpt>
      <trkpt lat="49.24564" lon="1.15177">
        <ele>175</ele>
        <time>2017-09-17T12:03:28Z</time>
      </trkpt>
      <trkpt lat="49.24556" lon="1.15174">
        <ele>176</ele>
        <time>2017-09-17T12:03:32Z</time>
      </trkpt>
      <trkpt lat="49.2455" lon="1.1517">
        <ele>176</ele>
        <time>2017-09-17T12:03:36Z</time>
      </trkpt>
      <trkpt lat="49.24544" lon="1.15167">
        <ele>177</ele>
        <time>2017-09-17T12:03:40Z</time>
      </trkpt>
      <trkpt lat="49.2454" lon="1.15164">
        <ele>178</ele>
        <time>2017-09-17T12:03:44Z</time>
      </trkpt>
      <trkpt lat="49.24533" lon="1.15159">
        <ele>179</ele>
        <time>2017-09-17T12:03:48Z</time>
      </trkpt>
      <trkpt lat="49.24528" lon="1.15153">
        <ele>181</ele>
        <time>2017-09-17T12:03:52Z</time>
      </trkpt>
      <trkpt lat="49.24524" lon="1.15151">
        <ele>183</ele>
        <time>2017-09-17T12:03:56Z</time>
      </trkpt>
      <trkpt lat="49.24514" lon="1.15147">
        <ele>184</ele>
        <time>2017-09-17T12:04:00Z</time>
      </trkpt>
      <trkpt lat="49.24505" lon="1.15143">
        <ele>186</ele>
        <time>2017-09-17T12:04:04Z</time>
      </trkpt>
      <trkpt lat="49.24499" lon="1.1514">
        <ele>187</ele>
        <time>2017-09-17T12:04:08Z</time>
      </trkpt>
      <trkpt lat="49.24494" lon="1.15131">
        <ele>188</ele>
        <time>2017-09-17T12:04:12Z</time>
      </trkpt>
      <trkpt lat="49.24487" lon="1.15124">
        <ele>190</ele>
        <time>2017-09-17T12:04:16Z</time>
      </trkpt>
      <trkpt lat="49.24481" lon="1.15121">
        <ele>191</ele>
        <time>2017-09-17T12:04:20Z</time>
      </trkpt>
      <trkpt lat="49.24473" lon="1.15118">
        <ele>192</ele>
        <time>2017-09-17T12:04:24Z</time>
      </trkpt>
      <trkpt lat="49.24466" lon="1.15114">
        <ele>193</ele>
        <time>2017-09-17T12:04:28Z</time>
      </trkpt>
      <trkpt lat="49.24459" lon="1.15109">
        <ele>194</ele>
        <time>2017-09-17T12:04:32Z</time>
      </trkpt>
      <trkpt lat="49.24452" lon="1.15105">
        <ele>195</ele>
        <time>2017-09-17T12:04:36Z</time>
      </trkpt>
      <trkpt lat="49.24446" lon="1.15103">
        <ele>196</ele>
        <time>2017-09-17T12:04:40Z</time>
      </trkpt>
      <trkpt lat="49.24438" lon="1.15098">
        <ele>197</ele>
        <time>2017-09-17T12:04:44Z</time>
      </trkpt>
      <trkpt lat="49.24432" lon="1.15095">
        <ele>198</ele>
        <time>2017-09-17T12:04:48Z</time>
      </trkpt>
      <trkpt lat="49.24426" lon="1.15092">
        <ele>199</ele>
        <time>2017-09-17T12:04:52Z</time>
      </trkpt>
      <trkpt lat="49.24418" lon="1.15089">
        <ele>200</ele>
        <time>2017-09-17T12:04:56Z</time>
      </trkpt>
      <trkpt lat="49.24412" lon="1.15086">
        <ele>201</ele>
        <time>2017-09-17T12:05:00Z</time>
      </trkpt>
      <trkpt lat="49.24405" lon="1.15082">
        <ele>202</ele>
        <time>2017-09-17T12:05:04Z</time>
      </trkpt>
      <trkpt lat="49.24398" lon="1.15079">
        <ele>203</ele>
        <time>2017-09-17T12:05:08Z</time>
      </trkpt>
      <trkpt lat="49.24391" lon="1.15075">
        <ele>203</ele>
        <time>2017-09-17T12:05:12Z</time>
      </trkpt>
      <trkpt lat="49.24385" lon="1.15071">
        <ele>204</ele>
        <time>2017-09-17T12:05:16Z</time>
      </trkpt>
      <trkpt lat="49.24378" lon="1.15067">
        <ele>205</ele>
        <time>2017-09-17T12:05:20Z</time>
      </trkpt>
      <trkpt lat="49.2437" lon="1.15064">
        <ele>206</ele>
        <time>2017-09-17T12:05:24Z</time>
      </trkpt>
      <trkpt lat="49.24362" lon="1.15061">
        <ele>206</ele>
        <time>2017-09-17T12:05:28Z</time>
      </trkpt>
      <trkpt lat="49.24355" lon="1.15057">
        <ele>207</ele>
        <time>2017-09-17T12:05:32Z</time>
      </trkpt>
      <trkpt lat="49.24347" lon="1.15052">
        <ele>207</ele>
        <time>2017-09-17T12:05:36Z</time>
      </trkpt>
      <trkpt lat="49.24339" lon="1.15048">
        <ele>208</ele>
        <time>2017-09-17T12:05:40Z</time>
      </trkpt>
      <trkpt lat="49.24332" lon="1.15043">
        <ele>208</ele>
        <time>2017-09-17T12:05:44Z</time>
      </trkpt>
      <trkpt lat="49.24323" lon="1.15038">
        <ele>208</ele>
        <time>2017-09-17T12:05:48Z</time>
      </trkpt>
      <trkpt lat="49.24316" lon="1.15035">
        <ele>209</ele>
        <time>2017-09-17T12:05:52Z</time>
      </trkpt>
      <trkpt lat="49.2431" lon="1.15032">
        <ele>209</ele>
        <time>2017-09-17T12:05:56Z</time>
      </trkpt>
      <trkpt lat="49.24301" lon="1.15028">
        <ele>209</ele>
        <time>2017-09-17T12:06:00Z</time>
      </trkpt>
      <trkpt lat="49.24294" lon="1.15023">
        <ele>210</ele>
        <time>2017-09-17T12:06:04Z</time>
      </trkpt>
      <trkpt lat="49.24284" lon="1.1502">
        <ele>210</ele>
        <time>2017-09-17T12:06:08Z</time>
      </trkpt>
      <trkpt lat="49.24275" lon="1.15015">
        <ele>210</ele>
        <time>2017-09-17T12:06:12Z</time>
      </trkpt>
      <trkpt lat="49.24264" lon="1.15008">
        <ele>211</ele>
        <time>2017-09-17T12:06:16Z</time>
      </trkpt>
      <trkpt lat="49.24251" lon="1.15001">
        <ele>211</ele>
        <time>2017-09-17T12:06:20Z</time>
      </trkpt>
      <trkpt lat="49.24236" lon="1.14996">
        <ele>211</ele>
        <time>2017-09-17T12:06:24Z</time>
      </trkpt>
      <trkpt lat="49.24223" lon="1.14987">
        <ele>211</ele>
        <time>2017-09-17T12:06:28Z</time>
      </trkpt>
      <trkpt lat="49.24208" lon="1.14979">
        <ele>211</ele>
        <time>2017-09-17T12:06:32Z</time>
      </trkpt>
      <trkpt lat="49.24195" lon="1.14971">
        <ele>211</ele>
        <time>2017-09-17T12:06:36Z</time>
      </trkpt>
      <trkpt lat="49.24182" lon="1.14963">
        <ele>211</ele>
        <time>2017-09-17T12:06:40Z</time>
      </trkpt>
      <trkpt lat="49.24171" lon="1.14954">
        <ele>212</ele>
        <time>2017-09-17T12:06:44Z</time>
      </trkpt>
      <trkpt lat="49.2416" lon="1.14949">
        <ele>212</ele>
        <time>2017-09-17T12:06:48Z</time>
      </trkpt>
      <trkpt lat="49.24149" lon="1.14943">
        <ele>212</ele>
        <time>2017-09-17T12:06:52Z</time>
      </trkpt>
      <trkpt lat="49.24139" lon="1.14938">
        <ele>213</ele>
        <time>2017-09-17T12:06:56Z</time>
      </trkpt>
      <trkpt lat="49.24133" lon="1.14951">
        <ele>213</ele>
        <time>2017-09-17T12:07:00Z</time>
      </trkpt>
      <trkpt lat="49.24131" lon="1.14975">
        <ele>213</ele>
        <time>2017-09-17T12:07:04Z</time>
      </trkpt>
      <trkpt lat="49.24127" lon="1.15005">
        <ele>212</ele>
        <time>2017-09-17T12:07:08Z</time>
      </trkpt>
      <trkpt lat="49.24123" lon="1.1504">
        <ele>212</ele>
        <time>2017-09-17T12:07:12Z</time>
      </trkpt>
      <trkpt lat="49.24118" lon="1.15077">
        <ele>211</ele>
        <time>2017-09-17T12:07:16Z</time>
      </trkpt>
      <trkpt lat="49.2411" lon="1.15115">
        <ele>210</ele>
        <time>2017-09-17T12:07:20Z</time>
      </trkpt>
      <trkpt lat="49.24103" lon="1.15148">
        <ele>210</ele>
        <time>2017-09-17T12:07:24Z</time>
      </trkpt>
      <trkpt lat="49.24095" lon="1.15183">
        <ele>210</ele>
        <time>2017-09-17T12:07:28Z</time>
      </trkpt>
      <trkpt lat="49.24089" lon="1.15212">
        <ele>210</ele>
        <time>2017-09-17T12:07:32Z</time>
      </trkpt>
      <trkpt lat="49.24084" lon="1.15241">
        <ele>210</ele>
        <time>2017-09-17T12:07:36Z</time>
      </trkpt>
      <trkpt lat="49.24077" lon="1.15269">
        <ele>211</ele>
        <time>2017-09-17T12:07:40Z</time>
      </trkpt>
      <trkpt lat="49.24072" lon="1.15296">
        <ele>212</ele>
        <time>2017-09-17T12:07:44Z</time>
      </trkpt>
      <trkpt lat="49.24067" lon="1.15325">
        <ele>212</ele>
        <time>2017-09-17T12:07:48Z</time>
      </trkpt>
      <trkpt lat="49.24063" lon="1.15353">
        <ele>212</ele>
        <time>2017-09-17T12:07:52Z</time>
      </trkpt>
      <trkpt lat="49.2405" lon="1.15373">
        <ele>212</ele>
        <time>2017-09-17T12:07:56Z</time>
      </trkpt>
      <trkpt lat="49.24037" lon="1.15368">
        <ele>212</ele>
        <time>2017-09-17T12:08:00Z</time>
      </trkpt>
      <trkpt lat="49.24026" lon="1.15362">
        <ele>213</ele>
        <time>2017-09-17T12:08:04Z</time>
      </trkpt>
      <trkpt lat="49.24014" lon="1.15357">
        <ele>213</ele>
        <time>2017-09-17T12:08:08Z</time>
      </trkpt>
      <trkpt lat="49.24003" lon="1.15355">
        <ele>212</ele>
        <time>2017-09-17T12:08:12Z</time>
      </trkpt>
      <trkpt lat="49.23992" lon="1.15349">
        <ele>213</ele>
        <time>2017-09-17T12:08:16Z</time>
      </trkpt>
      <trkpt lat="49.23977" lon="1.15344">
        <ele>213</ele>
        <time>2017-09-17T12:08:20Z</time>
      </trkpt>
      <trkpt lat="49.23966" lon="1.15342">
        <ele>214</ele>
        <time>2017-09-17T12:08:24Z</time>
      </trkpt>
      <trkpt lat="49.23954" lon="1.15337">
        <ele>214</ele>
        <time>2017-09-17T12:08:28Z</time>
      </trkpt>
      <trkpt lat="49.2394" lon="1.15331">
        <ele>214</ele>
        <time>2017-09-17T12:08:32Z</time>
      </trkpt>
      <trkpt lat="49.23924" lon="1.15326">
        <ele>214</ele>
        <time>2017-09-17T12:08:36Z</time>
      </trkpt>
      <trkpt lat="49.23907" lon="1.15324">
        <ele>214</ele>
        <time>2017-09-17T12:08:40Z</time>
      </trkpt>
      <trkpt lat="49.23894" lon="1.15331">
        <ele>214</ele>
        <time>2017-09-17T12:08:44Z</time>
      </trkpt>
      <trkpt lat="49.23876" lon="1.15341">
        <ele>214</ele>
        <time>2017-09-17T12:08:48Z</time>
      </trkpt>
      <trkpt lat="49.23862" lon="1.15354">
        <ele>214</ele>
        <time>2017-09-17T12:08:52Z</time>
      </trkpt>
      <trkpt lat="49.23851" lon="1.15366">
        <ele>214</ele>
        <time>2017-09-17T12:08:56Z</time>
      </trkpt>
      <trkpt lat="49.23835" lon="1.15376">
        <ele>214</ele>
        <time>2017-09-17T12:09:00Z</time>
      </trkpt>
      <trkpt lat="49.2382" lon="1.15387">
        <ele>214</ele>
        <time>2017-09-17T12:09:04Z</time>
      </trkpt>
      <trkpt lat="49.23807" lon="1.15399">
        <ele>213</ele>
        <time>2017-09-17T12:09:08Z</time>
      </trkpt>
      <trkpt lat="49.23794" lon="1.15413">
        <ele>213</ele>
        <time>2017-09-17T12:09:12Z</time>
      </trkpt>
      <trkpt lat="49.23779" lon="1.15426">
        <ele>213</ele>
        <time>2017-09-17T12:09:16Z</time>
      </trkpt>
      <trkpt lat="49.23762" lon="1.15441">
        <ele>212</ele>
        <time>2017-09-17T12:09:20Z</time>
      </trkpt>
      <trkpt lat="49.23747" lon="1.15459">
        <ele>212</ele>
        <time>2017-09-17T12:09:24Z</time>
      </trkpt>
      <trkpt lat="49.23728" lon="1.15479">
        <ele>211</ele>
        <time>2017-09-17T12:09:28Z</time>
      </trkpt>
      <trkpt lat="49.23711" lon="1.15497">
        <ele>211</ele>
        <time>2017-09-17T12:09:32Z</time>
      </trkpt>
      <trkpt lat="49.23703" lon="1.15527">
        <ele>209</ele>
        <time>2017-09-17T12:09:36Z</time>
      </trkpt>
      <trkpt lat="49.23695" lon="1.15551">
        <ele>208</ele>
        <time>2017-09-17T12:09:40Z</time>
      </trkpt>
      <trkpt lat="49.2369" lon="1.15571">
        <ele>208</ele>
        <time>2017-09-17T12:09:44Z</time>
      </trkpt>
      <trkpt lat="49.23685" lon="1.15597">
        <ele>206</ele>
        <time>2017-09-17T12:09:48Z</time>
      </trkpt>
      <trkpt lat="49.2368" lon="1.15619">
        <ele>204</ele>
        <time>2017-09-17T12:09:52Z</time>
      </trkpt>
      <trkpt lat="49.23677" lon="1.15643">
        <ele>203</ele>
        <time>2017-09-17T12:09:56Z</time>
      </trkpt>
      <trkpt lat="49.23674" lon="1.15661">
        <ele>201</ele>
        <time>2017-09-17T12:10:00Z</time>
      </trkpt>
      <trkpt lat="49.23673" lon="1.15692">
        <ele>199</ele>
        <time>2017-09-17T12:10:04Z</time>
      </trkpt>
      <trkpt lat="49.23674" lon="1.15715">
        <ele>197</ele>
        <time>2017-09-17T12:10:08Z</time>
      </trkpt>
      <trkpt lat="49.23677" lon="1.15736">
        <ele>197</ele>
        <time>2017-09-17T12:10:12Z</time>
      </trkpt>
      <trkpt lat="49.23683" lon="1.15748">
        <ele>197</ele>
        <time>2017-09-17T12:10:16Z</time>
      </trkpt>
      <trkpt lat="49.23689" lon="1.1576">
        <ele>198</ele>
        <time>2017-09-17T12:10:20Z</time>
      </trkpt>
      <trkpt lat="49.23697" lon="1.15769">
        <ele>198</ele>
        <time>2017-09-17T12:10:24Z</time>
      </trkpt>
      <trkpt lat="49.23703" lon="1.15776">
        <ele>199</ele>
        <time>2017-09-17T12:10:28Z</time>
      </trkpt>
      <trkpt lat="49.23712" lon="1.15781">
        <ele>199</ele>
        <time>2017-09-17T12:10:32Z</time>
      </trkpt>
      <trkpt lat="49.23722" lon="1.15788">
        <ele>200</ele>
        <time>2017-09-17T12:10:36Z</time>
      </trkpt>
      <trkpt lat="49.2373" lon="1.15792">
        <ele>200</ele>
        <time>2017-09-17T12:10:40Z</time>
      </trkpt>
      <trkpt lat="49.23741" lon="1.15797">
        <ele>200</ele>
        <time>2017-09-17T12:10:44Z</time>
      </trkpt>
      <trkpt lat="49.23751" lon="1.15805">
        <ele>201</ele>
        <time>2017-09-17T12:10:48Z</time>
      </trkpt>
      <trkpt lat="49.23762" lon="1.15809">
        <ele>200</ele>
        <time>2017-09-17T12:10:52Z</time>
      </trkpt>
      <trkpt lat="49.23773" lon="1.15815">
        <ele>201</ele>
        <time>2017-09-17T12:10:56Z</time>
      </trkpt>
      <trkpt lat="49.23789" lon="1.15826">
        <ele>200</ele>
        <time>2017-09-17T12:11:00Z</time>
      </trkpt>
      <trkpt lat="49.23802" lon="1.15832">
        <ele>200</ele>
        <time>2017-09-17T12:11:04Z</time>
      </trkpt>
      <trkpt lat="49.23816" lon="1.15839">
        <ele>200</ele>
        <time>2017-09-17T12:11:08Z</time>
      </trkpt>
      <trkpt lat="49.23827" lon="1.15844">
        <ele>200</ele>
        <time>2017-09-17T12:11:12Z</time>
      </trkpt>
      <trkpt lat="49.2384" lon="1.1585">
        <ele>200</ele>
        <time>2017-09-17T12:11:16Z</time>
      </trkpt>
      <trkpt lat="49.23852" lon="1.15855">
        <ele>200</ele>
        <time>2017-09-17T12:11:20Z</time>
      </trkpt>
      <trkpt lat="49.23864" lon="1.1586">
        <ele>200</ele>
        <time>2017-09-17T12:11:24Z</time>
      </trkpt>
      <trkpt lat="49.23878" lon="1.15867">
        <ele>200</ele>
        <time>2017-09-17T12:11:28Z</time>
      </trkpt>
      <trkpt lat="49.2389" lon="1.15872">
        <ele>201</ele>
        <time>2017-09-17T12:11:32Z</time>
      </trkpt>
      <trkpt lat="49.23904" lon="1.15878">
        <ele>201</ele>
        <time>2017-09-17T12:11:36Z</time>
      </trkpt>
      <trkpt lat="49.23918" lon="1.15886">
        <ele>201</ele>
        <time>2017-09-17T12:11:40Z</time>
      </trkpt>
      <trkpt lat="49.23933" lon="1.15893">
        <ele>201</ele>
        <time>2017-09-17T12:11:44Z</time>
      </trkpt>
      <trkpt lat="49.23949" lon="1.15901">
        <ele>201</ele>
        <time>2017-09-17T12:11:48Z</time>
      </trkpt>
      <trkpt lat="49.23964" lon="1.15907">
        <ele>200</ele>
        <time>2017-09-17T12:11:52Z</time>
      </trkpt>
      <trkpt lat="49.23984" lon="1.15916">
        <ele>200</ele>
        <time>2017-09-17T12:11:56Z</time>
      </trkpt>
      <trkpt lat="49.24003" lon="1.15925">
        <ele>200</ele>
        <time>2017-09-17T12:12:00Z</time>
      </trkpt>
      <trkpt lat="49.24023" lon="1.15934">
        <ele>199</ele>
        <time>2017-09-17T12:12:04Z</time>
      </trkpt>
      <trkpt lat="49.24044" lon="1.15944">
        <ele>198</ele>
        <time>2017-09-17T12:12:08Z</time>
      </trkpt>
      <trkpt lat="49.24064" lon="1.15952">
        <ele>198</ele>
        <time>2017-09-17T12:12:12Z</time>
      </trkpt>
      <trkpt lat="49.24081" lon="1.15957">
        <ele>197</ele>
        <time>2017-09-17T12:12:16Z</time>
      </trkpt>
      <trkpt lat="49.24103" lon="1.15964">
        <ele>196</ele>
        <time>2017-09-17T12:12:20Z</time>
      </trkpt>
      <trkpt lat="49.24128" lon="1.15975">
        <ele>194</ele>
        <time>2017-09-17T12:12:24Z</time>
      </trkpt>
      <trkpt lat="49.24157" lon="1.15993">
        <ele>192</ele>
        <time>2017-09-17T12:12:28Z</time>
      </trkpt>
      <trkpt lat="49.2418" lon="1.16005">
        <ele>190</ele>
        <time>2017-09-17T12:12:32Z</time>
      </trkpt>
      <trkpt lat="49.242" lon="1.16018">
        <ele>187</ele>
        <time>2017-09-17T12:12:36Z</time>
      </trkpt>
      <trkpt lat="49.24214" lon="1.16023">
        <ele>185</ele>
        <time>2017-09-17T12:12:40Z</time>
      </trkpt>
      <trkpt lat="49.24229" lon="1.1603">
        <ele>184</ele>
        <time>2017-09-17T12:12:44Z</time>
      </trkpt>
      <trkpt lat="49.2424" lon="1.16035">
        <ele>181</ele>
        <time>2017-09-17T12:12:48Z</time>
      </trkpt>
      <trkpt lat="49.24253" lon="1.16039">
        <ele>180</ele>
        <time>2017-09-17T12:12:52Z</time>
      </trkpt>
      <trkpt lat="49.24261" lon="1.16042">
        <ele>177</ele>
        <time>2017-09-17T12:12:56Z</time>
      </trkpt>
      <trkpt lat="49.24269" lon="1.16044">
        <ele>175</ele>
        <time>2017-09-17T12:13:00Z</time>
      </trkpt>
      <trkpt lat="49.24276" lon="1.16049">
        <ele>172</ele>
        <time>2017-09-17T12:13:04Z</time>
      </trkpt>
      <trkpt lat="49.24284" lon="1.16053">
        <ele>169</ele>
        <time>2017-09-17T12:13:08Z</time>
      </trkpt>
      <trkpt lat="49.24294" lon="1.16056">
        <ele>166</ele>
        <time>2017-09-17T12:13:12Z</time>
      </trkpt>
      <trkpt lat="49.24303" lon="1.1606">
        <ele>163</ele>
        <time>2017-09-17T12:13:16Z</time>
      </trkpt>
      <trkpt lat="49.24313" lon="1.16059">
        <ele>161</ele>
        <time>2017-09-17T12:13:20Z</time>
      </trkpt>
      <trkpt lat="49.24324" lon="1.16054">
        <ele>159</ele>
        <time>2017-09-17T12:13:24Z</time>
      </trkpt>
      <trkpt lat="49.24332" lon="1.16043">
        <ele>158</ele>
        <time>2017-09-17T12:13:28Z</time>
      </trkpt>
      <trkpt lat="49.24338" lon="1.16032">
        <ele>158</ele>
        <time>2017-09-17T12:13:32Z</time>
      </trkpt>
      <trkpt lat="49.24342" lon="1.16018">
        <ele>158</ele>
        <time>2017-09-17T12:13:36Z</time>
      </trkpt>
      <trkpt lat="49.24347" lon="1.16006">
        <ele>158</ele>
        <time>2017-09-17T12:13:40Z</time>
      </trkpt>
      <trkpt lat="49.24349" lon="1.15998">
        <ele>160</ele>
        <time>2017-09-17T12:13:44Z</time>
      </trkpt>
      <trkpt lat="49.24353" lon="1.15992">
        <ele>160</ele>
        <time>2017-09-17T12:13:48Z</time>
      </trkpt>
      <trkpt lat="49.24358" lon="1.15991">
        <ele>160</ele>
        <time>2017-09-17T12:13:52Z</time>
      </trkpt>
      <trkpt lat="49.2436" lon="1.15993">
        <ele>160</ele>
        <time>2017-09-17T12:13:56Z</time>
      </trkpt>
      <trkpt lat="49.24363" lon="1.16002">
        <ele>160</ele>
        <time>2017-09-17T12:14:00Z</time>
      </trkpt>
      <trkpt lat="49.24368" lon="1.16016">
        <ele>160</ele>
        <time>2017-09-17T12:14:04Z</time>
      </trkpt>
      <trkpt lat="49.24374" lon="1.16031">
        <ele>160</ele>
        <time>2017-09-17T12:14:08Z</time>
      </trkpt>
      <trkpt lat="49.24375" lon="1.16047">
        <ele>159</ele>
        <time>2017-09-17T12:14:12Z</time>
      </trkpt>
      <trkpt lat="49.24378" lon="1.16065">
        <ele>160</ele>
        <time>2017-09-17T12:14:16Z</time>
      </trkpt>
      <trkpt lat="49.2438" lon="1.16086">
        <ele>159</ele>
        <time>2017-09-17T12:14:20Z</time>
      </trkpt>
      <trkpt lat="49.24381" lon="1.16105">
        <ele>159</ele>
        <time>2017-09-17T12:14:24Z</time>
      </trkpt>
      <trkpt lat="49.24383" lon="1.16125">
        <ele>159</ele>
        <time>2017-09-17T12:14:28Z</time>
      </trkpt>
      <trkpt lat="49.24385" lon="1.16142">
        <ele>158</ele>
        <time>2017-09-17T12:14:32Z</time>
      </trkpt>
      <trkpt lat="49.24386" lon="1.16163">
        <ele>158</ele>
        <time>2017-09-17T12:14:36Z</time>
      </trkpt>
      <trkpt lat="49.2439" lon="1.16184">
        <ele>158</ele>
        <time>2017-09-17T12:14:40Z</time>
      </trkpt>
      <trkpt lat="49.24391" lon="1.1621">
        <ele>158</ele>
        <time>2017-09-17T12:14:52Z</time>
      </trkpt>
      <trkpt lat="49.24389" lon="1.16215">
        <ele>158</ele>
        <time>2017-09-17T12:15:00Z</time>
      </trkpt>
      <trkpt lat="49.24388" lon="1.16219">
        <ele>158</ele>
        <time>2017-09-17T12:15:04Z</time>
      </trkpt>
      <trkpt lat="49.24389" lon="1.16226">
        <ele>157</ele>
        <time>2017-09-17T12:15:08Z</time>
      </trkpt>
      <trkpt lat="49.2439" lon="1.16233">
        <ele>158</ele>
        <time>2017-09-17T12:15:12Z</time>
      </trkpt>
      <trkpt lat="49.24392" lon="1.16247">
        <ele>158</ele>
        <time>2017-09-17T12:15:28Z</time>
      </trkpt>
      <trkpt lat="49.24392" lon="1.16255">
        <ele>157</ele>
        <time>2017-09-17T12:15:32Z</time>
      </trkpt>
      <trkpt lat="49.24395" lon="1.16262">
        <ele>158</ele>
        <time>2017-09-17T12:15:36Z</time>
      </trkpt>
      <trkpt lat="49.24398" lon="1.16275">
        <ele>157</ele>
        <time>2017-09-17T12:15:40Z</time>
      </trkpt>
      <trkpt lat="49.24399" lon="1.16285">
        <ele>158</ele>
        <time>2017-09-17T12:15:44Z</time>
      </trkpt>
      <trkpt lat="49.24397" lon="1.16295">
        <ele>157</ele>
        <time>2017-09-17T12:15:48Z</time>
      </trkpt>
      <trkpt lat="49.24397" lon="1.16312">
        <ele>157</ele>
        <time>2017-09-17T12:15:52Z</time>
      </trkpt>
      <trkpt lat="49.24396" lon="1.16325">
        <ele>157</ele>
        <time>2017-09-17T12:15:56Z</time>
      </trkpt>
      <trkpt lat="49.24396" lon="1.16339">
        <ele>157</ele>
        <time>2017-09-17T12:16:00Z</time>
      </trkpt>
      <trkpt lat="49.24397" lon="1.16357">
        <ele>157</ele>
        <time>2017-09-17T12:16:04Z</time>
      </trkpt>
      <trkpt lat="49.24397" lon="1.16371">
        <ele>157</ele>
        <time>2017-09-17T12:16:08Z</time>
      </trkpt>
      <trkpt lat="49.24397" lon="1.16383">
        <ele>157</ele>
        <time>2017-09-17T12:16:12Z</time>
      </trkpt>
      <trkpt lat="49.24396" lon="1.16399">
        <ele>156</ele>
        <time>2017-09-17T12:16:16Z</time>
      </trkpt>
      <trkpt lat="49.24395" lon="1.16414">
        <ele>156</ele>
        <time>2017-09-17T12:16:20Z</time>
      </trkpt>
      <trkpt lat="49.24392" lon="1.16429">
        <ele>156</ele>
        <time>2017-09-17T12:16:24Z</time>
      </trkpt>
      <trkpt lat="49.24388" lon="1.16443">
        <ele>156</ele>
        <time>2017-09-17T12:16:28Z</time>
      </trkpt>
      <trkpt lat="49.24382" lon="1.16467">
        <ele>156</ele>
        <time>2017-09-17T12:16:40Z</time>
      </trkpt>
      <trkpt lat="49.24379" lon="1.16469">
        <ele>157</ele>
        <time>2017-09-17T12:16:48Z</time>
      </trkpt>
      <trkpt lat="49.24377" lon="1.1647">
        <ele>158</ele>
        <time>2017-09-17T12:17:00Z</time>
      </trkpt>
      <trkpt lat="49.24375" lon="1.16473">
        <ele>158</ele>
        <time>2017-09-17T12:17:04Z</time>
      </trkpt>
      <trkpt lat="49.24373" lon="1.16476">
        <ele>159</ele>
        <time>2017-09-17T12:17:08Z</time>
      </trkpt>
      <trkpt lat="49.24372" lon="1.16481">
        <ele>160</ele>
        <time>2017-09-17T12:17:12Z</time>
      </trkpt>
      <trkpt lat="49.24372" lon="1.1649">
        <ele>161</ele>
        <time>2017-09-17T12:17:16Z</time>
      </trkpt>
      <trkpt lat="49.24371" lon="1.16497">
        <ele>162</ele>
        <time>2017-09-17T12:17:20Z</time>
      </trkpt>
      <trkpt lat="49.24369" lon="1.16504">
        <ele>162</ele>
        <time>2017-09-17T12:17:24Z</time>
      </trkpt>
      <trkpt lat="49.24366" lon="1.16511">
        <ele>162</ele>
        <time>2017-09-17T12:17:28Z</time>
      </trkpt>
      <trkpt lat="49.24365" lon="1.16517">
        <ele>162</ele>
        <time>2017-09-17T12:17:32Z</time>
      </trkpt>
      <trkpt lat="49.24369" lon="1.16539">
        <ele>162</ele>
        <time>2017-09-17T12:17:48Z</time>
      </trkpt>
      <trkpt lat="49.2437" lon="1.16546">
        <ele>162</ele>
        <time>2017-09-17T12:17:52Z</time>
      </trkpt>
      <trkpt lat="49.24373" lon="1.1655">
        <ele>162</ele>
        <time>2017-09-17T12:17:56Z</time>
      </trkpt>
      <trkpt lat="49.2437" lon="1.16558">
        <ele>161</ele>
        <time>2017-09-17T12:18:00Z</time>
      </trkpt>
      <trkpt lat="49.24368" lon="1.16568">
        <ele>159</ele>
        <time>2017-09-17T12:18:04Z</time>
      </trkpt>
      <trkpt lat="49.24367" lon="1.16573">
        <ele>160</ele>
        <time>2017-09-17T12:18:12Z</time>
      </trkpt>
      <trkpt lat="49.24364" lon="1.16576">
        <ele>160</ele>
        <time>2017-09-17T12:18:16Z</time>
      </trkpt>
      <trkpt lat="49.24362" lon="1.1658">
        <ele>160</ele>
        <time>2017-09-17T12:18:20Z</time>
      </trkpt>
      <trkpt lat="49.2436" lon="1.16584">
        <ele>160</ele>
        <time>2017-09-17T12:18:32Z</time>
      </trkpt>
      <trkpt lat="49.24356" lon="1.16589">
        <ele>160</ele>
        <time>2017-09-17T12:18:36Z</time>
      </trkpt>
      <trkpt lat="49.24354" lon="1.16592">
        <ele>162</ele>
        <time>2017-09-17T12:18:40Z</time>
      </trkpt>
      <trkpt lat="49.24352" lon="1.16595">
        <ele>163</ele>
        <time>2017-09-17T12:18:44Z</time>
      </trkpt>
      <trkpt lat="49.2435" lon="1.16598">
        <ele>163</ele>
        <time>2017-09-17T12:18:48Z</time>
      </trkpt>
      <trkpt lat="49.24347" lon="1.16599">
        <ele>164</ele>
        <time>2017-09-17T12:18:52Z</time>
      </trkpt>
      <trkpt lat="49.24345" lon="1.16602">
        <ele>164</ele>
        <time>2017-09-17T12:18:56Z</time>
      </trkpt>
      <trkpt lat="49.24344" lon="1.16607">
        <ele>164</ele>
        <time>2017-09-17T12:19:00Z</time>
      </trkpt>
      <trkpt lat="49.24342" lon="1.16612">
        <ele>165</ele>
        <time>2017-09-17T12:19:04Z</time>
      </trkpt>
      <trkpt lat="49.24341" lon="1.16618">
        <ele>165</ele>
        <time>2017-09-17T12:19:08Z</time>
      </trkpt>
      <trkpt lat="49.2434" lon="1.16622">
        <ele>164</ele>
        <time>2017-09-17T12:19:12Z</time>
      </trkpt>
      <trkpt lat="49.2434" lon="1.16627">
        <ele>165</ele>
        <time>2017-09-17T12:19:16Z</time>
      </trkpt>
      <trkpt lat="49.24337" lon="1.1663">
        <ele>165</ele>
        <time>2017-09-17T12:19:24Z</time>
      </trkpt>
      <trkpt lat="49.24336" lon="1.16639">
        <ele>165</ele>
        <time>2017-09-17T12:19:28Z</time>
      </trkpt>
      <trkpt lat="49.24337" lon="1.16653">
        <ele>164</ele>
        <time>2017-09-17T12:19:32Z</time>
      </trkpt>
      <trkpt lat="49.24339" lon="1.16665">
        <ele>163</ele>
        <time>2017-09-17T12:19:36Z</time>
      </trkpt>
      <trkpt lat="49.24341" lon="1.16675">
        <ele>162</ele>
        <time>2017-09-17T12:19:40Z</time>
      </trkpt>
      <trkpt lat="49.24333" lon="1.16686">
        <ele>162</ele>
        <time>2017-09-17T12:19:44Z</time>
      </trkpt>
      <trkpt lat="49.24326" lon="1.16693">
        <ele>162</ele>
        <time>2017-09-17T12:19:48Z</time>
      </trkpt>
      <trkpt lat="49.24322" lon="1.16706">
        <ele>162</ele>
        <time>2017-09-17T12:19:52Z</time>
      </trkpt>
      <trkpt lat="49.24313" lon="1.16722">
        <ele>161</ele>
        <time>2017-09-17T12:19:56Z</time>
      </trkpt>
      <trkpt lat="49.24296" lon="1.16736">
        <ele>160</ele>
        <time>2017-09-17T12:20:00Z</time>
      </trkpt>
      <trkpt lat="49.24277" lon="1.16744">
        <ele>159</ele>
        <time>2017-09-17T12:20:04Z</time>
      </trkpt>
      <trkpt lat="49.24256" lon="1.16754">
        <ele>158</ele>
        <time>2017-09-17T12:20:08Z</time>
      </trkpt>
      <trkpt lat="49.24237" lon="1.16771">
        <ele>156</ele>
        <time>2017-09-17T12:20:12Z</time>
      </trkpt>
      <trkpt lat="49.24223" lon="1.16776">
        <ele>155</ele>
        <time>2017-09-17T12:20:16Z</time>
      </trkpt>
      <trkpt lat="49.24211" lon="1.16769">
        <ele>153</ele>
        <time>2017-09-17T12:20:20Z</time>
      </trkpt>
      <trkpt lat="49.24195" lon="1.16761">
        <ele>152</ele>
        <time>2017-09-17T12:20:24Z</time>
      </trkpt>
      <trkpt lat="49.24188" lon="1.16758">
        <ele>155</ele>
        <time>2017-09-17T12:20:28Z</time>
      </trkpt>
      <trkpt lat="49.24184" lon="1.16756">
        <ele>155</ele>
        <time>2017-09-17T12:20:32Z</time>
      </trkpt>
      <trkpt lat="49.24176" lon="1.16748">
        <ele>156</ele>
        <time>2017-09-17T12:20:36Z</time>
      </trkpt>
      <trkpt lat="49.2417" lon="1.16742">
        <ele>157</ele>
        <time>2017-09-17T12:20:40Z</time>
      </trkpt>
      <trkpt lat="49.24164" lon="1.16734">
        <ele>157</ele>
        <time>2017-09-17T12:20:44Z</time>
      </trkpt>
      <trkpt lat="49.24158" lon="1.16727">
        <ele>158</ele>
        <time>2017-09-17T12:20:48Z</time>
      </trkpt>
      <trkpt lat="49.2415" lon="1.16717">
        <ele>158</ele>
        <time>2017-09-17T12:20:52Z</time>
      </trkpt>
      <trkpt lat="49.24141" lon="1.16706">
        <ele>158</ele>
        <time>2017-09-17T12:20:56Z</time>
      </trkpt>
      <trkpt lat="49.24131" lon="1.16699">
        <ele>158</ele>
        <time>2017-09-17T12:21:00Z</time>
      </trkpt>
      <trkpt lat="49.24121" lon="1.16689">
        <ele>158</ele>
        <time>2017-09-17T12:21:04Z</time>
      </trkpt>
      <trkpt lat="49.24108" lon="1.16679">
        <ele>158</ele>
        <time>2017-09-17T12:21:08Z</time>
      </trkpt>
      <trkpt lat="49.24095" lon="1.16665">
        <ele>158</ele>
        <time>2017-09-17T12:21:12Z</time>
      </trkpt>
      <trkpt lat="49.24075" lon="1.16657">
        <ele>157</ele>
        <time>2017-09-17T12:21:16Z</time>
      </trkpt>
      <trkpt lat="49.24054" lon="1.16643">
        <ele>155</ele>
        <time>2017-09-17T12:21:20Z</time>
      </trkpt>
      <trkpt lat="49.2404" lon="1.16637">
        <ele>154</ele>
        <time>2017-09-17T12:21:24Z</time>
      </trkpt>
      <trkpt lat="49.24025" lon="1.16633">
        <ele>153</ele>
        <time>2017-09-17T12:21:28Z</time>
      </trkpt>
      <trkpt lat="49.24013" lon="1.16625">
        <ele>153</ele>
        <time>2017-09-17T12:21:32Z</time>
      </trkpt>
      <trkpt lat="49.23997" lon="1.16624">
        <ele>153</ele>
        <time>2017-09-17T12:21:36Z</time>
      </trkpt>
      <trkpt lat="49.23984" lon="1.16618">
        <ele>153</ele>
        <time>2017-09-17T12:21:40Z</time>
      </trkpt>
      <trkpt lat="49.23969" lon="1.16611">
        <ele>153</ele>
        <time>2017-09-17T12:21:44Z</time>
      </trkpt>
      <trkpt lat="49.23957" lon="1.16603">
        <ele>154</ele>
        <time>2017-09-17T12:21:48Z</time>
      </trkpt>
      <trkpt lat="49.23947" lon="1.16596">
        <ele>154</ele>
        <time>2017-09-17T12:21:52Z</time>
      </trkpt>
      <trkpt lat="49.2394" lon="1.16589">
        <ele>154</ele>
        <time>2017-09-17T12:21:56Z</time>
      </trkpt>
      <trkpt lat="49.23929" lon="1.16582">
        <ele>155</ele>
        <time>2017-09-17T12:22:00Z</time>
      </trkpt>
      <trkpt lat="49.2392" lon="1.16577">
        <ele>155</ele>
        <time>2017-09-17T12:22:04Z</time>
      </trkpt>
      <trkpt lat="49.23907" lon="1.16571">
        <ele>155</ele>
        <time>2017-09-17T12:22:08Z</time>
      </trkpt>
      <trkpt lat="49.23898" lon="1.16569">
        <ele>155</ele>
        <time>2017-09-17T12:22:12Z</time>
      </trkpt>
      <trkpt lat="49.23889" lon="1.16567">
        <ele>154</ele>
        <time>2017-09-17T12:22:16Z</time>
      </trkpt>
      <trkpt lat="49.23878" lon="1.16561">
        <ele>154</ele>
        <time>2017-09-17T12:22:20Z</time>
      </trkpt>
      <trkpt lat="49.23869" lon="1.16554">
        <ele>154</ele>
        <time>2017-09-17T12:22:24Z</time>
      </trkpt>
      <trkpt lat="49.23861" lon="1.16551">
        <ele>153</ele>
        <time>2017-09-17T12:22:28Z</time>
      </trkpt>
      <trkpt lat="49.2385" lon="1.16553">
        <ele>153</ele>
        <time>2017-09-17T12:22:32Z</time>
      </trkpt>
      <trkpt lat="49.23843" lon="1.16554">
        <ele>153</ele>
        <time>2017-09-17T12:22:36Z</time>
      </trkpt>
      <trkpt lat="49.23837" lon="1.16552">
        <ele>153</ele>
        <time>2017-09-17T12:22:40Z</time>
      </trkpt>
      <trkpt lat="49.23827" lon="1.16551">
        <ele>152</ele>
        <time>2017-09-17T12:22:44Z</time>
      </trkpt>
      <trkpt lat="49.23816" lon="1.16549">
        <ele>151</ele>
        <time>2017-09-17T12:22:48Z</time>
      </trkpt>
      <trkpt lat="49.23797" lon="1.16545">
        <ele>150</ele>
        <time>2017-09-17T12:22:52Z</time>
      </trkpt>
      <trkpt lat="49.23777" lon="1.16541">
        <ele>149</ele>
        <time>2017-09-17T12:22:56Z</time>
      </trkpt>
      <trkpt lat="49.23754" lon="1.1654">
        <ele>148</ele>
        <time>2017-09-17T12:23:00Z</time>
      </trkpt>
      <trkpt lat="49.23734" lon="1.16537">
        <ele>144</ele>
        <time>2017-09-17T12:23:04Z</time>
      </trkpt>
      <trkpt lat="49.23715" lon="1.16527">
        <ele>140</ele>
        <time>2017-09-17T12:23:08Z</time>
      </trkpt>
      <trkpt lat="49.237" lon="1.16523">
        <ele>141</ele>
        <time>2017-09-17T12:23:12Z</time>
      </trkpt>
      <trkpt lat="49.23689" lon="1.16524">
        <ele>141</ele>
        <time>2017-09-17T12:23:16Z</time>
      </trkpt>
      <trkpt lat="49.23675" lon="1.1653">
        <ele>142</ele>
        <time>2017-09-17T12:23:20Z</time>
      </trkpt>
      <trkpt lat="49.23663" lon="1.16536">
        <ele>142</ele>
        <time>2017-09-17T12:23:24Z</time>
      </trkpt>
      <trkpt lat="49.23653" lon="1.16534">
        <ele>143</ele>
        <time>2017-09-17T12:23:28Z</time>
      </trkpt>
      <trkpt lat="49.2364" lon="1.16529">
        <ele>143</ele>
        <time>2017-09-17T12:23:32Z</time>
      </trkpt>
      <trkpt lat="49.23626" lon="1.16524">
        <ele>144</ele>
        <time>2017-09-17T12:23:36Z</time>
      </trkpt>
      <trkpt lat="49.23611" lon="1.16515">
        <ele>144</ele>
        <time>2017-09-17T12:23:40Z</time>
      </trkpt>
      <trkpt lat="49.23598" lon="1.16513">
        <ele>145</ele>
        <time>2017-09-17T12:23:44Z</time>
      </trkpt>
      <trkpt lat="49.23589" lon="1.1651">
        <ele>146</ele>
        <time>2017-09-17T12:23:48Z</time>
      </trkpt>
      <trkpt lat="49.23583" lon="1.16502">
        <ele>147</ele>
        <time>2017-09-17T12:23:52Z</time>
      </trkpt>
      <trkpt lat="49.23577" lon="1.16491">
        <ele>148</ele>
        <time>2017-09-17T12:23:56Z</time>
      </trkpt>
      <trkpt lat="49.2357" lon="1.16478">
        <ele>149</ele>
        <time>2017-09-17T12:24:00Z</time>
      </trkpt>
      <trkpt lat="49.23565" lon="1.16467">
        <ele>150</ele>
        <time>2017-09-17T12:24:04Z</time>
      </trkpt>
      <trkpt lat="49.23558" lon="1.16457">
        <ele>151</ele>
        <time>2017-09-17T12:24:08Z</time>
      </trkpt>
      <trkpt lat="49.23553" lon="1.16447">
        <ele>151</ele>
        <time>2017-09-17T12:24:12Z</time>
      </trkpt>
      <trkpt lat="49.23547" lon="1.16438">
        <ele>153</ele>
        <time>2017-09-17T12:24:16Z</time>
      </trkpt>
      <trkpt lat="49.23541" lon="1.16429">
        <ele>153</ele>
        <time>2017-09-17T12:24:20Z</time>
      </trkpt>
      <trkpt lat="49.23538" lon="1.16422">
        <ele>154</ele>
        <time>2017-09-17T12:24:24Z</time>
      </trkpt>
      <trkpt lat="49.23533" lon="1.16412">
        <ele>155</ele>
        <time>2017-09-17T12:24:28Z</time>
      </trkpt>
      <trkpt lat="49.23528" lon="1.16403">
        <ele>156</ele>
        <time>2017-09-17T12:24:32Z</time>
      </trkpt>
      <trkpt lat="49.23524" lon="1.16394">
        <ele>157</ele>
        <time>2017-09-17T12:24:36Z</time>
      </trkpt>
      <trkpt lat="49.23518" lon="1.16385">
        <ele>157</ele>
        <time>2017-09-17T12:24:40Z</time>
      </trkpt>
      <trkpt lat="49.23514" lon="1.16377">
        <ele>159</ele>
        <time>2017-09-17T12:24:44Z</time>
      </trkpt>
      <trkpt lat="49.23511" lon="1.16369">
        <ele>159</ele>
        <time>2017-09-17T12:24:48Z</time>
      </trkpt>
      <trkpt lat="49.23506" lon="1.16359">
        <ele>160</ele>
        <time>2017-09-17T12:24:52Z</time>
      </trkpt>
      <trkpt lat="49.23502" lon="1.16346">
        <ele>160</ele>
        <time>2017-09-17T12:24:56Z</time>
      </trkpt>
      <trkpt lat="49.23498" lon="1.16339">
        <ele>161</ele>
        <time>2017-09-17T12:25:00Z</time>
      </trkpt>
      <trkpt lat="49.23495" lon="1.16332">
        <ele>162</ele>
        <time>2017-09-17T12:25:04Z</time>
      </trkpt>
      <trkpt lat="49.23492" lon="1.16325">
        <ele>163</ele>
        <time>2017-09-17T12:25:08Z</time>
      </trkpt>
      <trkpt lat="49.23487" lon="1.16319">
        <ele>163</ele>
        <time>2017-09-17T12:25:12Z</time>
      </trkpt>
      <trkpt lat="49.23482" lon="1.1631">
        <ele>165</ele>
        <time>2017-09-17T12:25:16Z</time>
      </trkpt>
      <trkpt lat="49.23477" lon="1.16299">
        <ele>166</ele>
        <time>2017-09-17T12:25:20Z</time>
      </trkpt>
      <trkpt lat="49.23474" lon="1.16289">
        <ele>166</ele>
        <time>2017-09-17T12:25:24Z</time>
      </trkpt>
      <trkpt lat="49.23469" lon="1.16279">
        <ele>167</ele>
        <time>2017-09-17T12:25:28Z</time>
      </trkpt>
      <trkpt lat="49.23467" lon="1.16266">
        <ele>168</ele>
        <time>2017-09-17T12:25:32Z</time>
      </trkpt>
      <trkpt lat="49.23465" lon="1.16253">
        <ele>169</ele>
        <time>2017-09-17T12:25:36Z</time>
      </trkpt>
      <trkpt lat="49.23461" lon="1.16242">
        <ele>170</ele>
        <time>2017-09-17T12:25:40Z</time>
      </trkpt>
      <trkpt lat="49.2346" lon="1.16229">
        <ele>171</ele>
        <time>2017-09-17T12:25:44Z</time>
      </trkpt>
      <trkpt lat="49.23457" lon="1.16223">
        <ele>172</ele>
        <time>2017-09-17T12:25:48Z</time>
      </trkpt>
      <trkpt lat="49.23453" lon="1.16213">
        <ele>173</ele>
        <time>2017-09-17T12:25:52Z</time>
      </trkpt>
      <trkpt lat="49.23451" lon="1.16205">
        <ele>174</ele>
        <time>2017-09-17T12:25:56Z</time>
      </trkpt>
      <trkpt lat="49.23442" lon="1.16196">
        <ele>174</ele>
        <time>2017-09-17T12:26:00Z</time>
      </trkpt>
      <trkpt lat="49.23434" lon="1.16187">
        <ele>175</ele>
        <time>2017-09-17T12:26:04Z</time>
      </trkpt>
      <trkpt lat="49.23427" lon="1.16179">
        <ele>175</ele>
        <time>2017-09-17T12:26:08Z</time>
      </trkpt>
      <trkpt lat="49.23423" lon="1.16168">
        <ele>177</ele>
        <time>2017-09-17T12:26:12Z</time>
      </trkpt>
      <trkpt lat="49.2342" lon="1.16156">
        <ele>177</ele>
        <time>2017-09-17T12:26:16Z</time>
      </trkpt>
      <trkpt lat="49.23418" lon="1.16144">
        <ele>178</ele>
        <time>2017-09-17T12:26:20Z</time>
      </trkpt>
      <trkpt lat="49.23413" lon="1.16135">
        <ele>179</ele>
        <time>2017-09-17T12:26:24Z</time>
      </trkpt>
      <trkpt lat="49.2341" lon="1.16126">
        <ele>180</ele>
        <time>2017-09-17T12:26:28Z</time>
      </trkpt>
      <trkpt lat="49.23406" lon="1.16117">
        <ele>180</ele>
        <time>2017-09-17T12:26:32Z</time>
      </trkpt>
      <trkpt lat="49.23399" lon="1.16109">
        <ele>182</ele>
        <time>2017-09-17T12:26:36Z</time>
      </trkpt>
      <trkpt lat="49.2339" lon="1.16098">
        <ele>181</ele>
        <time>2017-09-17T12:26:40Z</time>
      </trkpt>
      <trkpt lat="49.2338" lon="1.16087">
        <ele>182</ele>
        <time>2017-09-17T12:26:44Z</time>
      </trkpt>
      <trkpt lat="49.23371" lon="1.16076">
        <ele>182</ele>
        <time>2017-09-17T12:26:48Z</time>
      </trkpt>
      <trkpt lat="49.23363" lon="1.16066">
        <ele>183</ele>
        <time>2017-09-17T12:26:52Z</time>
      </trkpt>
      <trkpt lat="49.23353" lon="1.16054">
        <ele>183</ele>
        <time>2017-09-17T12:26:56Z</time>
      </trkpt>
      <trkpt lat="49.23345" lon="1.1605">
        <ele>184</ele>
        <time>2017-09-17T12:27:00Z</time>
      </trkpt>
      <trkpt lat="49.23335" lon="1.16066">
        <ele>183</ele>
        <time>2017-09-17T12:27:04Z</time>
      </trkpt>
      <trkpt lat="49.23315" lon="1.1608">
        <ele>181</ele>
        <time>2017-09-17T12:27:08Z</time>
      </trkpt>
      <trkpt lat="49.23291" lon="1.16095">
        <ele>180</ele>
        <time>2017-09-17T12:27:12Z</time>
      </trkpt>
      <trkpt lat="49.23262" lon="1.16106">
        <ele>178</ele>
        <time>2017-09-17T12:27:16Z</time>
      </trkpt>
      <trkpt lat="49.23234" lon="1.16123">
        <ele>175</ele>
        <time>2017-09-17T12:27:20Z</time>
      </trkpt>
      <trkpt lat="49.23196" lon="1.16142">
        <ele>173</ele>
        <time>2017-09-17T12:27:24Z</time>
      </trkpt>
      <trkpt lat="49.23164" lon="1.1616">
        <ele>169</ele>
        <time>2017-09-17T12:27:28Z</time>
      </trkpt>
      <trkpt lat="49.23129" lon="1.1617">
        <ele>166</ele>
        <time>2017-09-17T12:27:32Z</time>
      </trkpt>
      <trkpt lat="49.23089" lon="1.16164">
        <ele>163</ele>
        <time>2017-09-17T12:27:36Z</time>
      </trkpt>
      <trkpt lat="49.23059" lon="1.16143">
        <ele>160</ele>
        <time>2017-09-17T12:27:40Z</time>
      </trkpt>
      <trkpt lat="49.23027" lon="1.16118">
        <ele>158</ele>
        <time>2017-09-17T12:27:44Z</time>
      </trkpt>
      <trkpt lat="49.22986" lon="1.16096">
        <ele>154</ele>
        <time>2017-09-17T12:27:48Z</time>
      </trkpt>
      <trkpt lat="49.2296" lon="1.1608">
        <ele>150</ele>
        <time>2017-09-17T12:27:52Z</time>
      </trkpt>
      <trkpt lat="49.2295" lon="1.16082">
        <ele>148</ele>
        <time>2017-09-17T12:27:56Z</time>
      </trkpt>
      <trkpt lat="49.22941" lon="1.16072">
        <ele>146</ele>
        <time>2017-09-17T12:28:00Z</time>
      </trkpt>
      <trkpt lat="49.22932" lon="1.16062">
        <ele>147</ele>
        <time>2017-09-17T12:28:04Z</time>
      </trkpt>
      <trkpt lat="49.22918" lon="1.16049">
        <ele>146</ele>
        <time>2017-09-17T12:28:08Z</time>
      </trkpt>
      <trkpt lat="49.22895" lon="1.16032">
        <ele>145</ele>
        <time>2017-09-17T12:28:12Z</time>
      </trkpt>
      <trkpt lat="49.22871" lon="1.1601">
        <ele>143</ele>
        <time>2017-09-17T12:28:16Z</time>
      </trkpt>
      <trkpt lat="49.22851" lon="1.15985">
        <ele>142</ele>
        <time>2017-09-17T12:28:20Z</time>
      </trkpt>
      <trkpt lat="49.22833" lon="1.15955">
        <ele>141</ele>
        <time>2017-09-17T12:28:24Z</time>
      </trkpt>
      <trkpt lat="49.22815" lon="1.15917">
        <ele>140</ele>
        <time>2017-09-17T12:28:28Z</time>
      </trkpt>
      <trkpt lat="49.22801" lon="1.15882">
        <ele>140</ele>
        <time>2017-09-17T12:28:32Z</time>
      </trkpt>
      <trkpt lat="49.22789" lon="1.15851">
        <ele>142</ele>
        <time>2017-09-17T12:28:36Z</time>
      </trkpt>
      <trkpt lat="49.22768" lon="1.1583">
        <ele>141</ele>
        <time>2017-09-17T12:28:40Z</time>
      </trkpt>
      <trkpt lat="49.22748" lon="1.15824">
        <ele>139</ele>
        <time>2017-09-17T12:28:44Z</time>
      </trkpt>
      <trkpt lat="49.22738" lon="1.15859">
        <ele>138</ele>
        <time>2017-09-17T12:28:48Z</time>
      </trkpt>
      <trkpt lat="49.22715" lon="1.15887">
        <ele>137</ele>
        <time>2017-09-17T12:28:52Z</time>
      </trkpt>
      <trkpt lat="49.22683" lon="1.1592">
        <ele>135</ele>
        <time>2017-09-17T12:28:56Z</time>
      </trkpt>
      <trkpt lat="49.22654" lon="1.15957">
        <ele>132</ele>
        <time>2017-09-17T12:29:00Z</time>
      </trkpt>
      <trkpt lat="49.2263" lon="1.15981">
        <ele>130</ele>
        <time>2017-09-17T12:29:04Z</time>
      </trkpt>
      <trkpt lat="49.22617" lon="1.15991">
        <ele>128</ele>
        <time>2017-09-17T12:29:08Z</time>
      </trkpt>
      <trkpt lat="49.22614" lon="1.15974">
        <ele>127</ele>
        <time>2017-09-17T12:29:12Z</time>
      </trkpt>
      <trkpt lat="49.22616" lon="1.15948">
        <ele>128</ele>
        <time>2017-09-17T12:29:16Z</time>
      </trkpt>
      <trkpt lat="49.22619" lon="1.15918">
        <ele>127</ele>
        <time>2017-09-17T12:29:20Z</time>
      </trkpt>
      <trkpt lat="49.22622" lon="1.15888">
        <ele>128</ele>
        <time>2017-09-17T12:29:24Z</time>
      </trkpt>
      <trkpt lat="49.22625" lon="1.15856">
        <ele>129</ele>
        <time>2017-09-17T12:29:28Z</time>
      </trkpt>
      <trkpt lat="49.22629" lon="1.15823">
        <ele>129</ele>
        <time>2017-09-17T12:29:32Z</time>
      </trkpt>
      <trkpt lat="49.22633" lon="1.15788">
        <ele>129</ele>
        <time>2017-09-17T12:29:36Z</time>
      </trkpt>
      <trkpt lat="49.22638" lon="1.15756">
        <ele>129</ele>
        <time>2017-09-17T12:29:40Z</time>
      </trkpt>
      <trkpt lat="49.22641" lon="1.15724">
        <ele>131</ele>
        <time>2017-09-17T12:29:44Z</time>
      </trkpt>
      <trkpt lat="49.22644" lon="1.15694">
        <ele>132</ele>
        <time>2017-09-17T12:29:48Z</time>
      </trkpt>
      <trkpt lat="49.22649" lon="1.15666">
        <ele>132</ele>
        <time>2017-09-17T12:29:52Z</time>
      </trkpt>
      <trkpt lat="49.22654" lon="1.15638">
        <ele>133</ele>
        <time>2017-09-17T12:29:56Z</time>
      </trkpt>
      <trkpt lat="49.22658" lon="1.15609">
        <ele>134</ele>
        <time>2017-09-17T12:30:00Z</time>
      </trkpt>
      <trkpt lat="49.22661" lon="1.1558">
        <ele>134</ele>
        <time>2017-09-17T12:30:04Z</time>
      </trkpt>
      <trkpt lat="49.22661" lon="1.15551">
        <ele>134</ele>
        <time>2017-09-17T12:30:08Z</time>
      </trkpt>
      <trkpt lat="49.22661" lon="1.15523">
        <ele>135</ele>
        <time>2017-09-17T12:30:12Z</time>
      </trkpt>
      <trkpt lat="49.22662" lon="1.15493">
        <ele>136</ele>
        <time>2017-09-17T12:30:16Z</time>
      </trkpt>
      <trkpt lat="49.2266" lon="1.15465">
        <ele>136</ele>
        <time>2017-09-17T12:30:20Z</time>
      </trkpt>
      <trkpt lat="49.22657" lon="1.15436">
        <ele>137</ele>
        <time>2017-09-17T12:30:24Z</time>
      </trkpt>
      <trkpt lat="49.22655" lon="1.15409">
        <ele>138</ele>
        <time>2017-09-17T12:30:28Z</time>
      </trkpt>
      <trkpt lat="49.2265" lon="1.15382">
        <ele>138</ele>
        <time>2017-09-17T12:30:32Z</time>
      </trkpt>
      <trkpt lat="49.22646" lon="1.1536">
        <ele>139</ele>
        <time>2017-09-17T12:30:36Z</time>
      </trkpt>
      <trkpt lat="49.22643" lon="1.15347">
        <ele>140</ele>
        <time>2017-09-17T12:30:40Z</time>
      </trkpt>
      <trkpt lat="49.22642" lon="1.15335">
        <ele>140</ele>
        <time>2017-09-17T12:30:44Z</time>
      </trkpt>
      <trkpt lat="49.22639" lon="1.15327">
        <ele>141</ele>
        <time>2017-09-17T12:30:48Z</time>
      </trkpt>
      <trkpt lat="49.22637" lon="1.15321">
        <ele>142</ele>
        <time>2017-09-17T12:30:52Z</time>
      </trkpt>
      <trkpt lat="49.22635" lon="1.15313">
        <ele>142</ele>
        <time>2017-09-17T12:30:56Z</time>
      </trkpt>
      <trkpt lat="49.22631" lon="1.15306">
        <ele>143</ele>
        <time>2017-09-17T12:31:00Z</time>
      </trkpt>
      <trkpt lat="49.22627" lon="1.153">
        <ele>144</ele>
        <time>2017-09-17T12:31:04Z</time>
      </trkpt>
      <trkpt lat="49.22621" lon="1.15292">
        <ele>144</ele>
        <time>2017-09-17T12:31:08Z</time>
      </trkpt>
      <trkpt lat="49.22614" lon="1.15284">
        <ele>145</ele>
        <time>2017-09-17T12:31:12Z</time>
      </trkpt>
      <trkpt lat="49.22607" lon="1.15279">
        <ele>145</ele>
        <time>2017-09-17T12:31:16Z</time>
      </trkpt>
      <trkpt lat="49.22603" lon="1.15271">
        <ele>146</ele>
        <time>2017-09-17T12:31:20Z</time>
      </trkpt>
      <trkpt lat="49.22598" lon="1.15263">
        <ele>148</ele>
        <time>2017-09-17T12:31:24Z</time>
      </trkpt>
      <trkpt lat="49.22592" lon="1.15254">
        <ele>150</ele>
        <time>2017-09-17T12:31:32Z</time>
      </trkpt>
      <trkpt lat="49.22587" lon="1.15246">
        <ele>151</ele>
        <time>2017-09-17T12:31:36Z</time>
      </trkpt>
      <trkpt lat="49.22581" lon="1.15237">
        <ele>152</ele>
        <time>2017-09-17T12:31:40Z</time>
      </trkpt>
      <trkpt lat="49.22576" lon="1.15228">
        <ele>152</ele>
        <time>2017-09-17T12:31:44Z</time>
      </trkpt>
      <trkpt lat="49.22572" lon="1.15218">
        <ele>153</ele>
        <time>2017-09-17T12:31:48Z</time>
      </trkpt>
      <trkpt lat="49.22565" lon="1.15208">
        <ele>153</ele>
        <time>2017-09-17T12:31:52Z</time>
      </trkpt>
      <trkpt lat="49.22559" lon="1.15198">
        <ele>154</ele>
        <time>2017-09-17T12:31:56Z</time>
      </trkpt>
      <trkpt lat="49.22554" lon="1.1519">
        <ele>154</ele>
        <time>2017-09-17T12:32:00Z</time>
      </trkpt>
      <trkpt lat="49.22545" lon="1.15177">
        <ele>155</ele>
        <time>2017-09-17T12:32:04Z</time>
      </trkpt>
      <trkpt lat="49.22541" lon="1.15162">
        <ele>156</ele>
        <time>2017-09-17T12:32:08Z</time>
      </trkpt>
      <trkpt lat="49.22534" lon="1.15148">
        <ele>157</ele>
        <time>2017-09-17T12:32:12Z</time>
      </trkpt>
      <trkpt lat="49.22529" lon="1.15138">
        <ele>158</ele>
        <time>2017-09-17T12:32:16Z</time>
      </trkpt>
      <trkpt lat="49.22524" lon="1.1513">
        <ele>158</ele>
        <time>2017-09-17T12:32:20Z</time>
      </trkpt>
      <trkpt lat="49.2252" lon="1.15119">
        <ele>159</ele>
        <time>2017-09-17T12:32:24Z</time>
      </trkpt>
      <trkpt lat="49.22516" lon="1.15111">
        <ele>160</ele>
        <time>2017-09-17T12:32:28Z</time>
      </trkpt>
      <trkpt lat="49.22514" lon="1.15102">
        <ele>161</ele>
        <time>2017-09-17T12:32:32Z</time>
      </trkpt>
      <trkpt lat="49.22512" lon="1.15091">
        <ele>162</ele>
        <time>2017-09-17T12:32:36Z</time>
      </trkpt>
      <trkpt lat="49.22509" lon="1.15083">
        <ele>163</ele>
        <time>2017-09-17T12:32:40Z</time>
      </trkpt>
      <trkpt lat="49.22504" lon="1.15071">
        <ele>163</ele>
        <time>2017-09-17T12:32:44Z</time>
      </trkpt>
      <trkpt lat="49.22501" lon="1.15058">
        <ele>165</ele>
        <time>2017-09-17T12:32:48Z</time>
      </trkpt>
      <trkpt lat="49.22499" lon="1.15048">
        <ele>165</ele>
        <time>2017-09-17T12:32:52Z</time>
      </trkpt>
      <trkpt lat="49.22497" lon="1.15038">
        <ele>166</ele>
        <time>2017-09-17T12:32:56Z</time>
      </trkpt>
      <trkpt lat="49.22495" lon="1.15028">
        <ele>167</ele>
        <time>2017-09-17T12:33:00Z</time>
      </trkpt>
      <trkpt lat="49.22492" lon="1.1502">
        <ele>169</ele>
        <time>2017-09-17T12:33:04Z</time>
      </trkpt>
      <trkpt lat="49.22491" lon="1.1501">
        <ele>170</ele>
        <time>2017-09-17T12:33:08Z</time>
      </trkpt>
      <trkpt lat="49.2249" lon="1.15004">
        <ele>171</ele>
        <time>2017-09-17T12:33:12Z</time>
      </trkpt>
      <trkpt lat="49.22487" lon="1.14996">
        <ele>172</ele>
        <time>2017-09-17T12:33:16Z</time>
      </trkpt>
      <trkpt lat="49.22487" lon="1.14981">
        <ele>173</ele>
        <time>2017-09-17T12:33:20Z</time>
      </trkpt>
      <trkpt lat="49.22486" lon="1.14967">
        <ele>174</ele>
        <time>2017-09-17T12:33:24Z</time>
      </trkpt>
      <trkpt lat="49.22485" lon="1.14956">
        <ele>175</ele>
        <time>2017-09-17T12:33:28Z</time>
      </trkpt>
      <trkpt lat="49.22485" lon="1.14945">
        <ele>176</ele>
        <time>2017-09-17T12:33:32Z</time>
      </trkpt>
      <trkpt lat="49.22484" lon="1.14935">
        <ele>177</ele>
        <time>2017-09-17T12:33:36Z</time>
      </trkpt>
      <trkpt lat="49.22483" lon="1.14924">
        <ele>178</ele>
        <time>2017-09-17T12:33:40Z</time>
      </trkpt>
      <trkpt lat="49.22481" lon="1.14914">
        <ele>179</ele>
        <time>2017-09-17T12:33:44Z</time>
      </trkpt>
      <trkpt lat="49.22479" lon="1.14903">
        <ele>180</ele>
        <time>2017-09-17T12:33:48Z</time>
      </trkpt>
      <trkpt lat="49.22477" lon="1.14889">
        <ele>180</ele>
        <time>2017-09-17T12:33:52Z</time>
      </trkpt>
      <trkpt lat="49.22475" lon="1.14876">
        <ele>181</ele>
        <time>2017-09-17T12:33:56Z</time>
      </trkpt>
      <trkpt lat="49.22471" lon="1.14866">
        <ele>182</ele>
        <time>2017-09-17T12:34:00Z</time>
      </trkpt>
      <trkpt lat="49.22467" lon="1.14857">
        <ele>183</ele>
        <time>2017-09-17T12:34:04Z</time>
      </trkpt>
      <trkpt lat="49.22462" lon="1.14849">
        <ele>184</ele>
        <time>2017-09-17T12:34:08Z</time>
      </trkpt>
      <trkpt lat="49.22458" lon="1.14839">
        <ele>185</ele>
        <time>2017-09-17T12:34:12Z</time>
      </trkpt>
      <trkpt lat="49.22452" lon="1.14831">
        <ele>186</ele>
        <time>2017-09-17T12:34:16Z</time>
      </trkpt>
      <trkpt lat="49.22447" lon="1.14823">
        <ele>187</ele>
        <time>2017-09-17T12:34:20Z</time>
      </trkpt>
      <trkpt lat="49.22441" lon="1.14814">
        <ele>187</ele>
        <time>2017-09-17T12:34:24Z</time>
      </trkpt>
      <trkpt lat="49.22434" lon="1.14806">
        <ele>187</ele>
        <time>2017-09-17T12:34:28Z</time>
      </trkpt>
      <trkpt lat="49.22429" lon="1.14798">
        <ele>188</ele>
        <time>2017-09-17T12:34:32Z</time>
      </trkpt>
      <trkpt lat="49.22423" lon="1.14788">
        <ele>189</ele>
        <time>2017-09-17T12:34:36Z</time>
      </trkpt>
      <trkpt lat="49.22416" lon="1.14779">
        <ele>189</ele>
        <time>2017-09-17T12:34:40Z</time>
      </trkpt>
      <trkpt lat="49.22408" lon="1.14769">
        <ele>190</ele>
        <time>2017-09-17T12:34:44Z</time>
      </trkpt>
      <trkpt lat="49.22403" lon="1.1476">
        <ele>191</ele>
        <time>2017-09-17T12:34:48Z</time>
      </trkpt>
      <trkpt lat="49.22396" lon="1.1475">
        <ele>192</ele>
        <time>2017-09-17T12:34:52Z</time>
      </trkpt>
      <trkpt lat="49.2239" lon="1.14742">
        <ele>192</ele>
        <time>2017-09-17T12:34:56Z</time>
      </trkpt>
      <trkpt lat="49.22382" lon="1.14732">
        <ele>193</ele>
        <time>2017-09-17T12:35:00Z</time>
      </trkpt>
      <trkpt lat="49.22376" lon="1.14722">
        <ele>194</ele>
        <time>2017-09-17T12:35:04Z</time>
      </trkpt>
      <trkpt lat="49.22369" lon="1.14711">
        <ele>195</ele>
        <time>2017-09-17T12:35:08Z</time>
      </trkpt>
      <trkpt lat="49.22362" lon="1.147">
        <ele>195</ele>
        <time>2017-09-17T12:35:12Z</time>
      </trkpt>
      <trkpt lat="49.22355" lon="1.1469">
        <ele>196</ele>
        <time>2017-09-17T12:35:16Z</time>
      </trkpt>
      <trkpt lat="49.22348" lon="1.1468">
        <ele>197</ele>
        <time>2017-09-17T12:35:20Z</time>
      </trkpt>
      <trkpt lat="49.22341" lon="1.1467">
        <ele>197</ele>
        <time>2017-09-17T12:35:24Z</time>
      </trkpt>
      <trkpt lat="49.22334" lon="1.14659">
        <ele>198</ele>
        <time>2017-09-17T12:35:28Z</time>
      </trkpt>
      <trkpt lat="49.22327" lon="1.14649">
        <ele>199</ele>
        <time>2017-09-17T12:35:32Z</time>
      </trkpt>
      <trkpt lat="49.2232" lon="1.1464">
        <ele>200</ele>
        <time>2017-09-17T12:35:36Z</time>
      </trkpt>
      <trkpt lat="49.22313" lon="1.14629">
        <ele>201</ele>
        <time>2017-09-17T12:35:40Z</time>
      </trkpt>
      <trkpt lat="49.22306" lon="1.14619">
        <ele>202</ele>
        <time>2017-09-17T12:35:44Z</time>
      </trkpt>
      <trkpt lat="49.223" lon="1.14609">
        <ele>203</ele>
        <time>2017-09-17T12:35:48Z</time>
      </trkpt>
      <trkpt lat="49.22293" lon="1.14599">
        <ele>204</ele>
        <time>2017-09-17T12:35:52Z</time>
      </trkpt>
      <trkpt lat="49.22286" lon="1.14589">
        <ele>204</ele>
        <time>2017-09-17T12:35:56Z</time>
      </trkpt>
      <trkpt lat="49.22279" lon="1.14577">
        <ele>204</ele>
        <time>2017-09-17T12:36:00Z</time>
      </trkpt>
      <trkpt lat="49.22271" lon="1.14565">
        <ele>204</ele>
        <time>2017-09-17T12:36:04Z</time>
      </trkpt>
      <trkpt lat="49.22263" lon="1.14553">
        <ele>205</ele>
        <time>2017-09-17T12:36:08Z</time>
      </trkpt>
      <trkpt lat="49.22255" lon="1.14541">
        <ele>205</ele>
        <time>2017-09-17T12:36:12Z</time>
      </trkpt>
      <trkpt lat="49.22246" lon="1.14528">
        <ele>205</ele>
        <time>2017-09-17T12:36:16Z</time>
      </trkpt>
      <trkpt lat="49.22238" lon="1.14514">
        <ele>206</ele>
        <time>2017-09-17T12:36:20Z</time>
      </trkpt>
      <trkpt lat="49.22229" lon="1.14501">
        <ele>206</ele>
        <time>2017-09-17T12:36:24Z</time>
      </trkpt>
      <trkpt lat="49.2222" lon="1.14487">
        <ele>207</ele>
        <time>2017-09-17T12:36:28Z</time>
      </trkpt>
      <trkpt lat="49.22211" lon="1.14473">
        <ele>207</ele>
        <time>2017-09-17T12:36:32Z</time>
      </trkpt>
      <trkpt lat="49.22202" lon="1.14461">
        <ele>208</ele>
        <time>2017-09-17T12:36:36Z</time>
      </trkpt>
      <trkpt lat="49.22195" lon="1.14451">
        <ele>208</ele>
        <time>2017-09-17T12:36:40Z</time>
      </trkpt>
      <trkpt lat="49.22187" lon="1.14439">
        <ele>209</ele>
        <time>2017-09-17T12:36:44Z</time>
      </trkpt>
      <trkpt lat="49.2218" lon="1.14425">
        <ele>209</ele>
        <time>2017-09-17T12:36:48Z</time>
      </trkpt>
      <trkpt lat="49.22172" lon="1.14412">
        <ele>210</ele>
        <time>2017-09-17T12:36:52Z</time>
      </trkpt>
      <trkpt lat="49.22165" lon="1.14401">
        <ele>210</ele>
        <time>2017-09-17T12:36:56Z</time>
      </trkpt>
      <trkpt lat="49.22158" lon="1.14389">
        <ele>211</ele>
        <time>2017-09-17T12:37:00Z</time>
      </trkpt>
      <trkpt lat="49.22149" lon="1.14375">
        <ele>211</ele>
        <time>2017-09-17T12:37:04Z</time>
      </trkpt>
      <trkpt lat="49.2214" lon="1.14362">
        <ele>212</ele>
        <time>2017-09-17T12:37:08Z</time>
      </trkpt>
      <trkpt lat="49.22135" lon="1.1435">
        <ele>213</ele>
        <time>2017-09-17T12:37:12Z</time>
      </trkpt>
      <trkpt lat="49.22129" lon="1.14336">
        <ele>213</ele>
        <time>2017-09-17T12:37:16Z</time>
      </trkpt>
      <trkpt lat="49.22122" lon="1.14316">
        <ele>214</ele>
        <time>2017-09-17T12:37:20Z</time>
      </trkpt>
      <trkpt lat="49.22117" lon="1.14295">
        <ele>214</ele>
        <time>2017-09-17T12:37:24Z</time>
      </trkpt>
      <trkpt lat="49.2211" lon="1.14278">
        <ele>215</ele>
        <time>2017-09-17T12:37:28Z</time>
      </trkpt>
      <trkpt lat="49.22104" lon="1.14265">
        <ele>215</ele>
        <time>2017-09-17T12:37:32Z</time>
      </trkpt>
      <trkpt lat="49.22092" lon="1.14246">
        <ele>216</ele>
        <time>2017-09-17T12:37:36Z</time>
      </trkpt>
      <trkpt lat="49.22083" lon="1.14229">
        <ele>216</ele>
        <time>2017-09-17T12:37:40Z</time>
      </trkpt>
      <trkpt lat="49.22076" lon="1.14207">
        <ele>216</ele>
        <time>2017-09-17T12:37:44Z</time>
      </trkpt>
      <trkpt lat="49.22066" lon="1.14192">
        <ele>217</ele>
        <time>2017-09-17T12:37:48Z</time>
      </trkpt>
      <trkpt lat="49.2206" lon="1.14168">
        <ele>217</ele>
        <time>2017-09-17T12:37:52Z</time>
      </trkpt>
      <trkpt lat="49.22046" lon="1.14143">
        <ele>218</ele>
        <time>2017-09-17T12:37:56Z</time>
      </trkpt>
      <trkpt lat="49.22037" lon="1.14113">
        <ele>218</ele>
        <time>2017-09-17T12:38:00Z</time>
      </trkpt>
      <trkpt lat="49.22029" lon="1.14082">
        <ele>219</ele>
        <time>2017-09-17T12:38:04Z</time>
      </trkpt>
      <trkpt lat="49.22019" lon="1.14054">
        <ele>219</ele>
        <time>2017-09-17T12:38:08Z</time>
      </trkpt>
      <trkpt lat="49.2201" lon="1.14027">
        <ele>219</ele>
        <time>2017-09-17T12:38:12Z</time>
      </trkpt>
      <trkpt lat="49.21996" lon="1.13999">
        <ele>220</ele>
        <time>2017-09-17T12:38:16Z</time>
      </trkpt>
      <trkpt lat="49.21984" lon="1.1397">
        <ele>220</ele>
        <time>2017-09-17T12:38:20Z</time>
      </trkpt>
      <trkpt lat="49.21971" lon="1.13945">
        <ele>220</ele>
        <time>2017-09-17T12:38:24Z</time>
      </trkpt>
      <trkpt lat="49.21961" lon="1.13916">
        <ele>221</ele>
        <time>2017-09-17T12:38:28Z</time>
      </trkpt>
      <trkpt lat="49.21952" lon="1.13888">
        <ele>222</ele>
        <time>2017-09-17T12:38:32Z</time>
      </trkpt>
      <trkpt lat="49.21943" lon="1.13859">
        <ele>222</ele>
        <time>2017-09-17T12:38:36Z</time>
      </trkpt>
      <trkpt lat="49.21934" lon="1.1383">
        <ele>222</ele>
        <time>2017-09-17T12:38:40Z</time>
      </trkpt>
      <trkpt lat="49.21926" lon="1.13798">
        <ele>223</ele>
        <time>2017-09-17T12:38:44Z</time>
      </trkpt>
      <trkpt lat="49.21917" lon="1.13766">
        <ele>223</ele>
        <time>2017-09-17T12:38:48Z</time>
      </trkpt>
      <trkpt lat="49.21908" lon="1.13733">
        <ele>224</ele>
        <time>2017-09-17T12:38:52Z</time>
      </trkpt>
      <trkpt lat="49.21899" lon="1.13699">
        <ele>224</ele>
        <time>2017-09-17T12:38:56Z</time>
      </trkpt>
      <trkpt lat="49.2189" lon="1.13666">
        <ele>225</ele>
        <time>2017-09-17T12:39:00Z</time>
      </trkpt>
      <trkpt lat="49.2188" lon="1.13633">
        <ele>225</ele>
        <time>2017-09-17T12:39:04Z</time>
      </trkpt>
      <trkpt lat="49.21863" lon="1.1361">
        <ele>226</ele>
        <time>2017-09-17T12:39:08Z</time>
      </trkpt>
      <trkpt lat="49.2184" lon="1.13606">
        <ele>226</ele>
        <time>2017-09-17T12:39:12Z</time>
      </trkpt>
      <trkpt lat="49.21814" lon="1.13607">
        <ele>224</ele>
        <time>2017-09-17T12:39:16Z</time>
      </trkpt>
      <trkpt lat="49.2179" lon="1.13625">
        <ele>224</ele>
        <time>2017-09-17T12:39:20Z</time>
      </trkpt>
      <trkpt lat="49.21768" lon="1.13648">
        <ele>223</ele>
        <time>2017-09-17T12:39:24Z</time>
      </trkpt>
      <trkpt lat="49.21746" lon="1.13672">
        <ele>223</ele>
        <time>2017-09-17T12:39:28Z</time>
      </trkpt>
      <trkpt lat="49.21721" lon="1.13694">
        <ele>223</ele>
        <time>2017-09-17T12:39:32Z</time>
      </trkpt>
      <trkpt lat="49.217" lon="1.13716">
        <ele>222</ele>
        <time>2017-09-17T12:39:36Z</time>
      </trkpt>
      <trkpt lat="49.21681" lon="1.13739">
        <ele>223</ele>
        <time>2017-09-17T12:39:40Z</time>
      </trkpt>
      <trkpt lat="49.21664" lon="1.13763">
        <ele>223</ele>
        <time>2017-09-17T12:39:44Z</time>
      </trkpt>
      <trkpt lat="49.21647" lon="1.13788">
        <ele>224</ele>
        <time>2017-09-17T12:39:48Z</time>
      </trkpt>
      <trkpt lat="49.2163" lon="1.13816">
        <ele>224</ele>
        <time>2017-09-17T12:39:52Z</time>
      </trkpt>
      <trkpt lat="49.21613" lon="1.13846">
        <ele>225</ele>
        <time>2017-09-17T12:39:56Z</time>
      </trkpt>
      <trkpt lat="49.216" lon="1.13879">
        <ele>226</ele>
        <time>2017-09-17T12:40:00Z</time>
      </trkpt>
      <trkpt lat="49.21586" lon="1.13913">
        <ele>226</ele>
        <time>2017-09-17T12:40:04Z</time>
      </trkpt>
      <trkpt lat="49.21573" lon="1.13946">
        <ele>227</ele>
        <time>2017-09-17T12:40:08Z</time>
      </trkpt>
      <trkpt lat="49.2156" lon="1.13981">
        <ele>227</ele>
        <time>2017-09-17T12:40:12Z</time>
      </trkpt>
      <trkpt lat="49.21546" lon="1.14015">
        <ele>227</ele>
        <time>2017-09-17T12:40:16Z</time>
      </trkpt>
      <trkpt lat="49.21533" lon="1.1405">
        <ele>227</ele>
        <time>2017-09-17T12:40:20Z</time>
      </trkpt>
      <trkpt lat="49.2152" lon="1.14085">
        <ele>227</ele>
        <time>2017-09-17T12:40:24Z</time>
      </trkpt>
      <trkpt lat="49.21507" lon="1.14122">
        <ele>227</ele>
        <time>2017-09-17T12:40:28Z</time>
      </trkpt>
      <trkpt lat="49.21493" lon="1.14159">
        <ele>227</ele>
        <time>2017-09-17T12:40:32Z</time>
      </trkpt>
      <trkpt lat="49.21479" lon="1.14196">
        <ele>227</ele>
        <time>2017-09-17T12:40:36Z</time>
      </trkpt>
      <trkpt lat="49.21465" lon="1.14235">
        <ele>227</ele>
        <time>2017-09-17T12:40:40Z</time>
      </trkpt>
      <trkpt lat="49.21445" lon="1.14264">
        <ele>227</ele>
        <time>2017-09-17T12:40:44Z</time>
      </trkpt>
      <trkpt lat="49.21421" lon="1.14271">
        <ele>226</ele>
        <time>2017-09-17T12:40:48Z</time>
      </trkpt>
      <trkpt lat="49.21402" lon="1.14267">
        <ele>226</ele>
        <time>2017-09-17T12:40:52Z</time>
      </trkpt>
      <trkpt lat="49.21383" lon="1.14261">
        <ele>227</ele>
        <time>2017-09-17T12:40:56Z</time>
      </trkpt>
      <trkpt lat="49.21364" lon="1.14255">
        <ele>226</ele>
        <time>2017-09-17T12:41:00Z</time>
      </trkpt>
      <trkpt lat="49.21343" lon="1.14247">
        <ele>226</ele>
        <time>2017-09-17T12:41:04Z</time>
      </trkpt>
      <trkpt lat="49.2132" lon="1.14241">
        <ele>226</ele>
        <time>2017-09-17T12:41:08Z</time>
      </trkpt>
      <trkpt lat="49.21295" lon="1.14233">
        <ele>225</ele>
        <time>2017-09-17T12:41:12Z</time>
      </trkpt>
      <trkpt lat="49.21268" lon="1.14225">
        <ele>225</ele>
        <time>2017-09-17T12:41:16Z</time>
      </trkpt>
      <trkpt lat="49.2124" lon="1.14216">
        <ele>223</ele>
        <time>2017-09-17T12:41:20Z</time>
      </trkpt>
      <trkpt lat="49.21212" lon="1.14207">
        <ele>221</ele>
        <time>2017-09-17T12:41:24Z</time>
      </trkpt>
      <trkpt lat="49.21185" lon="1.14198">
        <ele>219</ele>
        <time>2017-09-17T12:41:28Z</time>
      </trkpt>
      <trkpt lat="49.2117" lon="1.14198">
        <ele>218</ele>
        <time>2017-09-17T12:41:32Z</time>
      </trkpt>
      <trkpt lat="49.21167" lon="1.14217">
        <ele>215</ele>
        <time>2017-09-17T12:41:36Z</time>
      </trkpt>
      <trkpt lat="49.21164" lon="1.14238">
        <ele>214</ele>
        <time>2017-09-17T12:41:40Z</time>
      </trkpt>
      <trkpt lat="49.21164" lon="1.14261">
        <ele>212</ele>
        <time>2017-09-17T12:41:44Z</time>
      </trkpt>
      <trkpt lat="49.21159" lon="1.14278">
        <ele>211</ele>
        <time>2017-09-17T12:41:48Z</time>
      </trkpt>
      <trkpt lat="49.2115" lon="1.14293">
        <ele>210</ele>
        <time>2017-09-17T12:41:52Z</time>
      </trkpt>
      <trkpt lat="49.21153" lon="1.1432">
        <ele>208</ele>
        <time>2017-09-17T12:41:56Z</time>
      </trkpt>
      <trkpt lat="49.21155" lon="1.14338">
        <ele>207</ele>
        <time>2017-09-17T12:42:00Z</time>
      </trkpt>
      <trkpt lat="49.21161" lon="1.14356">
        <ele>206</ele>
        <time>2017-09-17T12:42:04Z</time>
      </trkpt>
      <trkpt lat="49.21162" lon="1.14378">
        <ele>204</ele>
        <time>2017-09-17T12:42:08Z</time>
      </trkpt>
      <trkpt lat="49.21164" lon="1.14396">
        <ele>203</ele>
        <time>2017-09-17T12:42:12Z</time>
      </trkpt>
      <trkpt lat="49.21161" lon="1.14419">
        <ele>202</ele>
        <time>2017-09-17T12:42:16Z</time>
      </trkpt>
      <trkpt lat="49.21155" lon="1.14436">
        <ele>201</ele>
        <time>2017-09-17T12:42:20Z</time>
      </trkpt>
      <trkpt lat="49.21146" lon="1.14465">
        <ele>200</ele>
        <time>2017-09-17T12:42:24Z</time>
      </trkpt>
      <trkpt lat="49.21141" lon="1.14488">
        <ele>198</ele>
        <time>2017-09-17T12:42:28Z</time>
      </trkpt>
      <trkpt lat="49.21139" lon="1.14512">
        <ele>196</ele>
        <time>2017-09-17T12:42:32Z</time>
      </trkpt>
      <trkpt lat="49.21136" lon="1.14536">
        <ele>194</ele>
        <time>2017-09-17T12:42:36Z</time>
      </trkpt>
      <trkpt lat="49.21134" lon="1.1456">
        <ele>192</ele>
        <time>2017-09-17T12:42:40Z</time>
      </trkpt>
      <trkpt lat="49.21129" lon="1.14592">
        <ele>191</ele>
        <time>2017-09-17T12:42:44Z</time>
      </trkpt>
      <trkpt lat="49.21125" lon="1.1462">
        <ele>189</ele>
        <time>2017-09-17T12:42:48Z</time>
      </trkpt>
      <trkpt lat="49.21113" lon="1.1465">
        <ele>187</ele>
        <time>2017-09-17T12:42:52Z</time>
      </trkpt>
      <trkpt lat="49.211" lon="1.14694">
        <ele>185</ele>
        <time>2017-09-17T12:42:56Z</time>
      </trkpt>
      <trkpt lat="49.2109" lon="1.14735">
        <ele>183</ele>
        <time>2017-09-17T12:43:00Z</time>
      </trkpt>
      <trkpt lat="49.21074" lon="1.14777">
        <ele>179</ele>
        <time>2017-09-17T12:43:04Z</time>
      </trkpt>
      <trkpt lat="49.21065" lon="1.1483">
        <ele>177</ele>
        <time>2017-09-17T12:43:08Z</time>
      </trkpt>
      <trkpt lat="49.21046" lon="1.14863">
        <ele>174</ele>
        <time>2017-09-17T12:43:12Z</time>
      </trkpt>
      <trkpt lat="49.21032" lon="1.14895">
        <ele>172</ele>
        <time>2017-09-17T12:43:16Z</time>
      </trkpt>
      <trkpt lat="49.21023" lon="1.14909">
        <ele>172</ele>
        <time>2017-09-17T12:43:20Z</time>
      </trkpt>
      <trkpt lat="49.21007" lon="1.14932">
        <ele>169</ele>
        <time>2017-09-17T12:43:24Z</time>
      </trkpt>
      <trkpt lat="49.20998" lon="1.14937">
        <ele>165</ele>
        <time>2017-09-17T12:43:28Z</time>
      </trkpt>
      <trkpt lat="49.20977" lon="1.14938">
        <ele>160</ele>
        <time>2017-09-17T12:43:32Z</time>
      </trkpt>
      <trkpt lat="49.20942" lon="1.14944">
        <ele>157</ele>
        <time>2017-09-17T12:43:36Z</time>
      </trkpt>
      <trkpt lat="49.20903" lon="1.14932">
        <ele>155</ele>
        <time>2017-09-17T12:43:40Z</time>
      </trkpt>
      <trkpt lat="49.20861" lon="1.14925">
        <ele>152</ele>
        <time>2017-09-17T12:43:44Z</time>
      </trkpt>
      <trkpt lat="49.20822" lon="1.14931">
        <ele>149</ele>
        <time>2017-09-17T12:43:48Z</time>
      </trkpt>
      <trkpt lat="49.20786" lon="1.14947">
        <ele>147</ele>
        <time>2017-09-17T12:43:52Z</time>
      </trkpt>
      <trkpt lat="49.20763" lon="1.14956">
        <ele>144</ele>
        <time>2017-09-17T12:43:56Z</time>
      </trkpt>
      <trkpt lat="49.20753" lon="1.14973">
        <ele>143</ele>
        <time>2017-09-17T12:44:00Z</time>
      </trkpt>
      <trkpt lat="49.20754" lon="1.15001">
        <ele>143</ele>
        <time>2017-09-17T12:44:04Z</time>
      </trkpt>
      <trkpt lat="49.20758" lon="1.15028">
        <ele>143</ele>
        <time>2017-09-17T12:44:08Z</time>
      </trkpt>
      <trkpt lat="49.20763" lon="1.15056">
        <ele>143</ele>
        <time>2017-09-17T12:44:12Z</time>
      </trkpt>
      <trkpt lat="49.20769" lon="1.15088">
        <ele>142</ele>
        <time>2017-09-17T12:44:16Z</time>
      </trkpt>
      <trkpt lat="49.20773" lon="1.15121">
        <ele>142</ele>
        <time>2017-09-17T12:44:20Z</time>
      </trkpt>
      <trkpt lat="49.20779" lon="1.15156">
        <ele>141</ele>
        <time>2017-09-17T12:44:24Z</time>
      </trkpt>
      <trkpt lat="49.20786" lon="1.15193">
        <ele>141</ele>
        <time>2017-09-17T12:44:28Z</time>
      </trkpt>
      <trkpt lat="49.20792" lon="1.15229">
        <ele>140</ele>
        <time>2017-09-17T12:44:32Z</time>
      </trkpt>
      <trkpt lat="49.20799" lon="1.15265">
        <ele>140</ele>
        <time>2017-09-17T12:44:36Z</time>
      </trkpt>
      <trkpt lat="49.20806" lon="1.15301">
        <ele>139</ele>
        <time>2017-09-17T12:44:40Z</time>
      </trkpt>
      <trkpt lat="49.20812" lon="1.15337">
        <ele>139</ele>
        <time>2017-09-17T12:44:44Z</time>
      </trkpt>
      <trkpt lat="49.20818" lon="1.15371">
        <ele>138</ele>
        <time>2017-09-17T12:44:48Z</time>
      </trkpt>
      <trkpt lat="49.20823" lon="1.15399">
        <ele>137</ele>
        <time>2017-09-17T12:44:52Z</time>
      </trkpt>
      <trkpt lat="49.20828" lon="1.1543">
        <ele>137</ele>
        <time>2017-09-17T12:44:56Z</time>
      </trkpt>
      <trkpt lat="49.20835" lon="1.15463">
        <ele>137</ele>
        <time>2017-09-17T12:45:00Z</time>
      </trkpt>
      <trkpt lat="49.20837" lon="1.15488">
        <ele>134</ele>
        <time>2017-09-17T12:45:04Z</time>
      </trkpt>
      <trkpt lat="49.20831" lon="1.15504">
        <ele>136</ele>
        <time>2017-09-17T12:45:08Z</time>
      </trkpt>
      <trkpt lat="49.20824" lon="1.15524">
        <ele>135</ele>
        <time>2017-09-17T12:45:12Z</time>
      </trkpt>
      <trkpt lat="49.20805" lon="1.15533">
        <ele>135</ele>
        <time>2017-09-17T12:45:16Z</time>
      </trkpt>
      <trkpt lat="49.20786" lon="1.15542">
        <ele>134</ele>
        <time>2017-09-17T12:45:20Z</time>
      </trkpt>
      <trkpt lat="49.20767" lon="1.15549">
        <ele>134</ele>
        <time>2017-09-17T12:45:24Z</time>
      </trkpt>
      <trkpt lat="49.20748" lon="1.15558">
        <ele>134</ele>
        <time>2017-09-17T12:45:28Z</time>
      </trkpt>
      <trkpt lat="49.20727" lon="1.15566">
        <ele>134</ele>
        <time>2017-09-17T12:45:32Z</time>
      </trkpt>
      <trkpt lat="49.20708" lon="1.15574">
        <ele>134</ele>
        <time>2017-09-17T12:45:36Z</time>
      </trkpt>
      <trkpt lat="49.20691" lon="1.15581">
        <ele>134</ele>
        <time>2017-09-17T12:45:40Z</time>
      </trkpt>
      <trkpt lat="49.20681" lon="1.15595">
        <ele>134</ele>
        <time>2017-09-17T12:45:44Z</time>
      </trkpt>
      <trkpt lat="49.2068" lon="1.15613">
        <ele>134</ele>
        <time>2017-09-17T12:45:48Z</time>
      </trkpt>
      <trkpt lat="49.2068" lon="1.15635">
        <ele>134</ele>
        <time>2017-09-17T12:45:52Z</time>
      </trkpt>
      <trkpt lat="49.20686" lon="1.1566">
        <ele>133</ele>
        <time>2017-09-17T12:45:56Z</time>
      </trkpt>
      <trkpt lat="49.20692" lon="1.15686">
        <ele>133</ele>
        <time>2017-09-17T12:46:00Z</time>
      </trkpt>
      <trkpt lat="49.207" lon="1.15708">
        <ele>133</ele>
        <time>2017-09-17T12:46:04Z</time>
      </trkpt>
      <trkpt lat="49.20704" lon="1.1573">
        <ele>133</ele>
        <time>2017-09-17T12:46:08Z</time>
      </trkpt>
      <trkpt lat="49.20706" lon="1.15751">
        <ele>133</ele>
        <time>2017-09-17T12:46:12Z</time>
      </trkpt>
      <trkpt lat="49.20707" lon="1.15767">
        <ele>132</ele>
        <time>2017-09-17T12:46:16Z</time>
      </trkpt>
      <trkpt lat="49.20713" lon="1.15783">
        <ele>133</ele>
        <time>2017-09-17T12:46:20Z</time>
      </trkpt>
      <trkpt lat="49.20725" lon="1.15806">
        <ele>131</ele>
        <time>2017-09-17T12:46:24Z</time>
      </trkpt>
      <trkpt lat="49.20735" lon="1.15831">
        <ele>132</ele>
        <time>2017-09-17T12:46:28Z</time>
      </trkpt>
      <trkpt lat="49.20743" lon="1.15859">
        <ele>131</ele>
        <time>2017-09-17T12:46:32Z</time>
      </trkpt>
      <trkpt lat="49.20751" lon="1.15888">
        <ele>131</ele>
        <time>2017-09-17T12:46:36Z</time>
      </trkpt>
      <trkpt lat="49.2076" lon="1.15917">
        <ele>131</ele>
        <time>2017-09-17T12:46:40Z</time>
      </trkpt>
      <trkpt lat="49.2077" lon="1.15943">
        <ele>130</ele>
        <time>2017-09-17T12:46:44Z</time>
      </trkpt>
      <trkpt lat="49.20783" lon="1.15966">
        <ele>130</ele>
        <time>2017-09-17T12:46:48Z</time>
      </trkpt>
      <trkpt lat="49.20796" lon="1.15986">
        <ele>130</ele>
        <time>2017-09-17T12:46:52Z</time>
      </trkpt>
      <trkpt lat="49.2081" lon="1.16008">
        <ele>129</ele>
        <time>2017-09-17T12:46:56Z</time>
      </trkpt>
      <trkpt lat="49.20823" lon="1.16029">
        <ele>130</ele>
        <time>2017-09-17T12:47:00Z</time>
      </trkpt>
      <trkpt lat="49.20837" lon="1.16051">
        <ele>130</ele>
        <time>2017-09-17T12:47:04Z</time>
      </trkpt>
      <trkpt lat="49.20848" lon="1.1607">
        <ele>130</ele>
        <time>2017-09-17T12:47:08Z</time>
      </trkpt>
      <trkpt lat="49.2086" lon="1.16089">
        <ele>129</ele>
        <time>2017-09-17T12:47:12Z</time>
      </trkpt>
      <trkpt lat="49.20872" lon="1.16109">
        <ele>129</ele>
        <time>2017-09-17T12:47:16Z</time>
      </trkpt>
      <trkpt lat="49.20885" lon="1.16132">
        <ele>129</ele>
        <time>2017-09-17T12:47:20Z</time>
      </trkpt>
      <trkpt lat="49.20896" lon="1.16155">
        <ele>129</ele>
        <time>2017-09-17T12:47:24Z</time>
      </trkpt>
      <trkpt lat="49.20908" lon="1.16178">
        <ele>128</ele>
        <time>2017-09-17T12:47:28Z</time>
      </trkpt>
      <trkpt lat="49.2092" lon="1.162">
        <ele>129</ele>
        <time>2017-09-17T12:47:32Z</time>
      </trkpt>
      <trkpt lat="49.20933" lon="1.16224">
        <ele>129</ele>
        <time>2017-09-17T12:47:36Z</time>
      </trkpt>
      <trkpt lat="49.20943" lon="1.16248">
        <ele>129</ele>
        <time>2017-09-17T12:47:40Z</time>
      </trkpt>
      <trkpt lat="49.20953" lon="1.16273">
        <ele>129</ele>
        <time>2017-09-17T12:47:44Z</time>
      </trkpt>
      <trkpt lat="49.20961" lon="1.16303">
        <ele>129</ele>
        <time>2017-09-17T12:47:48Z</time>
      </trkpt>
      <trkpt lat="49.20968" lon="1.16332">
        <ele>129</ele>
        <time>2017-09-17T12:47:52Z</time>
      </trkpt>
      <trkpt lat="49.20977" lon="1.16359">
        <ele>129</ele>
        <time>2017-09-17T12:47:56Z</time>
      </trkpt>
      <trkpt lat="49.20984" lon="1.16385">
        <ele>129</ele>
        <time>2017-09-17T12:48:00Z</time>
      </trkpt>
      <trkpt lat="49.20992" lon="1.16412">
        <ele>129</ele>
        <time>2017-09-17T12:48:04Z</time>
      </trkpt>
      <trkpt lat="49.21" lon="1.16437">
        <ele>129</ele>
        <time>2017-09-17T12:48:08Z</time>
      </trkpt>
      <trkpt lat="49.21008" lon="1.16461">
        <ele>129</ele>
        <time>2017-09-17T12:48:12Z</time>
      </trkpt>
      <trkpt lat="49.21014" lon="1.16485">
        <ele>129</ele>
        <time>2017-09-17T12:48:16Z</time>
      </trkpt>
      <trkpt lat="49.21018" lon="1.16509">
        <ele>129</ele>
        <time>2017-09-17T12:48:20Z</time>
      </trkpt>
      <trkpt lat="49.2102" lon="1.1653">
        <ele>129</ele>
        <time>2017-09-17T12:48:24Z</time>
      </trkpt>
      <trkpt lat="49.21018" lon="1.1655">
        <ele>128</ele>
        <time>2017-09-17T12:48:28Z</time>
      </trkpt>
      <trkpt lat="49.21012" lon="1.16573">
        <ele>128</ele>
        <time>2017-09-17T12:48:32Z</time>
      </trkpt>
      <trkpt lat="49.21006" lon="1.16597">
        <ele>128</ele>
        <time>2017-09-17T12:48:36Z</time>
      </trkpt>
      <trkpt lat="49.21001" lon="1.16621">
        <ele>128</ele>
        <time>2017-09-17T12:48:40Z</time>
      </trkpt>
      <trkpt lat="49.20998" lon="1.16644">
        <ele>129</ele>
        <time>2017-09-17T12:48:44Z</time>
      </trkpt>
      <trkpt lat="49.20995" lon="1.16666">
        <ele>129</ele>
        <time>2017-09-17T12:48:48Z</time>
      </trkpt>
      <trkpt lat="49.20989" lon="1.16687">
        <ele>129</ele>
        <time>2017-09-17T12:48:52Z</time>
      </trkpt>
      <trkpt lat="49.20987" lon="1.16708">
        <ele>130</ele>
        <time>2017-09-17T12:48:56Z</time>
      </trkpt>
      <trkpt lat="49.20989" lon="1.1673">
        <ele>129</ele>
        <time>2017-09-17T12:49:00Z</time>
      </trkpt>
      <trkpt lat="49.20991" lon="1.16753">
        <ele>130</ele>
        <time>2017-09-17T12:49:04Z</time>
      </trkpt>
      <trkpt lat="49.2099" lon="1.16774">
        <ele>129</ele>
        <time>2017-09-17T12:49:08Z</time>
      </trkpt>
      <trkpt lat="49.20987" lon="1.16792">
        <ele>130</ele>
        <time>2017-09-17T12:49:12Z</time>
      </trkpt>
      <trkpt lat="49.20984" lon="1.16808">
        <ele>130</ele>
        <time>2017-09-17T12:49:16Z</time>
      </trkpt>
      <trkpt lat="49.20987" lon="1.16825">
        <ele>129</ele>
        <time>2017-09-17T12:49:20Z</time>
      </trkpt>
      <trkpt lat="49.20988" lon="1.16843">
        <ele>129</ele>
        <time>2017-09-17T12:49:24Z</time>
      </trkpt>
      <trkpt lat="49.20985" lon="1.16863">
        <ele>129</ele>
        <time>2017-09-17T12:49:28Z</time>
      </trkpt>
      <trkpt lat="49.20986" lon="1.1688">
        <ele>129</ele>
        <time>2017-09-17T12:49:32Z</time>
      </trkpt>
      <trkpt lat="49.2099" lon="1.16896">
        <ele>128</ele>
        <time>2017-09-17T12:49:36Z</time>
      </trkpt>
      <trkpt lat="49.21" lon="1.16916">
        <ele>128</ele>
        <time>2017-09-17T12:49:40Z</time>
      </trkpt>
      <trkpt lat="49.21001" lon="1.16931">
        <ele>128</ele>
        <time>2017-09-17T12:49:44Z</time>
      </trkpt>
      <trkpt lat="49.21001" lon="1.1695">
        <ele>127</ele>
        <time>2017-09-17T12:49:48Z</time>
      </trkpt>
      <trkpt lat="49.21001" lon="1.16968">
        <ele>126</ele>
        <time>2017-09-17T12:49:52Z</time>
      </trkpt>
      <trkpt lat="49.21002" lon="1.16988">
        <ele>126</ele>
        <time>2017-09-17T12:49:56Z</time>
      </trkpt>
      <trkpt lat="49.21005" lon="1.17009">
        <ele>125</ele>
        <time>2017-09-17T12:50:00Z</time>
      </trkpt>
      <trkpt lat="49.21004" lon="1.17031">
        <ele>125</ele>
        <time>2017-09-17T12:50:04Z</time>
      </trkpt>
      <trkpt lat="49.21006" lon="1.17048">
        <ele>125</ele>
        <time>2017-09-17T12:50:08Z</time>
      </trkpt>
      <trkpt lat="49.21008" lon="1.17069">
        <ele>125</ele>
        <time>2017-09-17T12:50:12Z</time>
      </trkpt>
      <trkpt lat="49.21021" lon="1.17088">
        <ele>124</ele>
        <time>2017-09-17T12:50:16Z</time>
      </trkpt>
      <trkpt lat="49.21023" lon="1.17111">
        <ele>124</ele>
        <time>2017-09-17T12:50:20Z</time>
      </trkpt>
      <trkpt lat="49.21025" lon="1.17135">
        <ele>124</ele>
        <time>2017-09-17T12:50:24Z</time>
      </trkpt>
      <trkpt lat="49.21028" lon="1.17162">
        <ele>124</ele>
        <time>2017-09-17T12:50:28Z</time>
      </trkpt>
      <trkpt lat="49.21032" lon="1.17186">
        <ele>123</ele>
        <time>2017-09-17T12:50:32Z</time>
      </trkpt>
      <trkpt lat="49.21034" lon="1.17202">
        <ele>123</ele>
        <time>2017-09-17T12:50:36Z</time>
      </trkpt>
      <trkpt lat="49.21032" lon="1.17213">
        <ele>123</ele>
        <time>2017-09-17T12:50:40Z</time>
      </trkpt>
      <trkpt lat="49.21029" lon="1.17211">
        <ele>123</ele>
        <time>2017-09-17T12:50:44Z</time>
      </trkpt>
      <trkpt lat="49.21028" lon="1.17202">
        <ele>123</ele>
        <time>2017-09-17T12:50:48Z</time>
      </trkpt>
      <trkpt lat="49.21027" lon="1.17192">
        <ele>123</ele>
        <time>2017-09-17T12:50:52Z</time>
      </trkpt>
      <trkpt lat="49.21024" lon="1.17182">
        <ele>123</ele>
        <time>2017-09-17T12:50:56Z</time>
      </trkpt>
      <trkpt lat="49.21021" lon="1.17175">
        <ele>123</ele>
        <time>2017-09-17T12:51:00Z</time>
      </trkpt>
      <trkpt lat="49.21014" lon="1.17173">
        <ele>123</ele>
        <time>2017-09-17T12:51:04Z</time>
      </trkpt>
      <trkpt lat="49.21007" lon="1.17175">
        <ele>123</ele>
        <time>2017-09-17T12:51:08Z</time>
      </trkpt>
    </trkseg>
  </trk>
</gpx>